<?xml version="1.0" encoding="UTF-8" standalone="no" ?>
<gpx xmlns="http://www.topografix.com/GPX/1/1" xmlns:xsi="http://www.w3.org/2001/XMLSchema-instance" xsi:schemaLocation="http://www.topografix.com/GPX/1/1 http://www.topografix.com/GPX/1/1/gpx.xsd" version="1.1" creator="VisuGPX - https://www.visugpx.com">
  <metadata>
    <name>Touffreville la Câble</name>
    <desc><![CDATA[Touffreville la Câble 22 Kms]]></desc>
  </metadata>
  <trk>
    <name><![CDATA[Touffreville la Câble_1]]></name>
    <trkseg>
      <trkpt lat="49.52207" lon="0.61771">
        <ele>145</ele>
        <time>2013-04-21T07:20:33Z</time>
      </trkpt>
      <trkpt lat="49.52213" lon="0.6178">
        <ele>145</ele>
        <time>2013-04-21T07:20:34Z</time>
      </trkpt>
      <trkpt lat="49.5219" lon="0.61738">
        <ele>145</ele>
        <time>2013-04-21T07:20:54Z</time>
      </trkpt>
      <trkpt lat="49.52181" lon="0.61722">
        <ele>145</ele>
        <time>2013-04-21T07:21:05Z</time>
      </trkpt>
      <trkpt lat="49.52177" lon="0.61719">
        <ele>145</ele>
        <time>2013-04-21T07:21:10Z</time>
      </trkpt>
      <trkpt lat="49.52171" lon="0.61721">
        <ele>145</ele>
        <time>2013-04-21T07:21:15Z</time>
      </trkpt>
      <trkpt lat="49.52164" lon="0.61725">
        <ele>145</ele>
        <time>2013-04-21T07:21:21Z</time>
      </trkpt>
      <trkpt lat="49.52158" lon="0.61729">
        <ele>145</ele>
        <time>2013-04-21T07:21:26Z</time>
      </trkpt>
      <trkpt lat="49.52153" lon="0.61732">
        <ele>145</ele>
        <time>2013-04-21T07:21:31Z</time>
      </trkpt>
      <trkpt lat="49.52144" lon="0.61736">
        <ele>145</ele>
        <time>2013-04-21T07:21:36Z</time>
      </trkpt>
      <trkpt lat="49.52139" lon="0.61739">
        <ele>145</ele>
        <time>2013-04-21T07:21:41Z</time>
      </trkpt>
      <trkpt lat="49.52133" lon="0.61743">
        <ele>145</ele>
        <time>2013-04-21T07:21:46Z</time>
      </trkpt>
      <trkpt lat="49.52127" lon="0.61746">
        <ele>145</ele>
        <time>2013-04-21T07:21:51Z</time>
      </trkpt>
      <trkpt lat="49.52122" lon="0.6175">
        <ele>144</ele>
        <time>2013-04-21T07:21:57Z</time>
      </trkpt>
      <trkpt lat="49.52116" lon="0.61754">
        <ele>144</ele>
        <time>2013-04-21T07:22:02Z</time>
      </trkpt>
      <trkpt lat="49.52107" lon="0.61758">
        <ele>144</ele>
        <time>2013-04-21T07:22:08Z</time>
      </trkpt>
      <trkpt lat="49.52101" lon="0.61761">
        <ele>144</ele>
        <time>2013-04-21T07:22:13Z</time>
      </trkpt>
      <trkpt lat="49.52094" lon="0.61765">
        <ele>144</ele>
        <time>2013-04-21T07:22:18Z</time>
      </trkpt>
      <trkpt lat="49.52089" lon="0.61766">
        <ele>144</ele>
        <time>2013-04-21T07:22:23Z</time>
      </trkpt>
      <trkpt lat="49.52083" lon="0.61768">
        <ele>143</ele>
        <time>2013-04-21T07:22:29Z</time>
      </trkpt>
      <trkpt lat="49.52077" lon="0.61771">
        <ele>143</ele>
        <time>2013-04-21T07:22:34Z</time>
      </trkpt>
      <trkpt lat="49.52071" lon="0.61773">
        <ele>143</ele>
        <time>2013-04-21T07:22:39Z</time>
      </trkpt>
      <trkpt lat="49.52066" lon="0.61774">
        <ele>143</ele>
        <time>2013-04-21T07:22:44Z</time>
      </trkpt>
      <trkpt lat="49.52058" lon="0.61775">
        <ele>142</ele>
        <time>2013-04-21T07:22:49Z</time>
      </trkpt>
      <trkpt lat="49.52051" lon="0.61776">
        <ele>142</ele>
        <time>2013-04-21T07:22:55Z</time>
      </trkpt>
      <trkpt lat="49.52044" lon="0.61777">
        <ele>142</ele>
        <time>2013-04-21T07:23:00Z</time>
      </trkpt>
      <trkpt lat="49.52038" lon="0.61778">
        <ele>142</ele>
        <time>2013-04-21T07:23:05Z</time>
      </trkpt>
      <trkpt lat="49.52032" lon="0.61778">
        <ele>142</ele>
        <time>2013-04-21T07:23:10Z</time>
      </trkpt>
      <trkpt lat="49.52028" lon="0.61775">
        <ele>142</ele>
        <time>2013-04-21T07:23:15Z</time>
      </trkpt>
      <trkpt lat="49.52019" lon="0.61774">
        <ele>142</ele>
        <time>2013-04-21T07:23:20Z</time>
      </trkpt>
      <trkpt lat="49.52011" lon="0.61772">
        <ele>142</ele>
        <time>2013-04-21T07:23:25Z</time>
      </trkpt>
      <trkpt lat="49.52004" lon="0.6177">
        <ele>141</ele>
        <time>2013-04-21T07:23:30Z</time>
      </trkpt>
      <trkpt lat="49.52" lon="0.61765">
        <ele>140</ele>
        <time>2013-04-21T07:23:35Z</time>
      </trkpt>
      <trkpt lat="49.51993" lon="0.61762">
        <ele>140</ele>
        <time>2013-04-21T07:23:40Z</time>
      </trkpt>
      <trkpt lat="49.51986" lon="0.61759">
        <ele>140</ele>
        <time>2013-04-21T07:23:45Z</time>
      </trkpt>
      <trkpt lat="49.51982" lon="0.61756">
        <ele>140</ele>
        <time>2013-04-21T07:23:50Z</time>
      </trkpt>
      <trkpt lat="49.51975" lon="0.61752">
        <ele>140</ele>
        <time>2013-04-21T07:23:55Z</time>
      </trkpt>
      <trkpt lat="49.51968" lon="0.61749">
        <ele>140</ele>
        <time>2013-04-21T07:24:00Z</time>
      </trkpt>
      <trkpt lat="49.51962" lon="0.61746">
        <ele>140</ele>
        <time>2013-04-21T07:24:05Z</time>
      </trkpt>
      <trkpt lat="49.51956" lon="0.6174">
        <ele>140</ele>
        <time>2013-04-21T07:24:10Z</time>
      </trkpt>
      <trkpt lat="49.5195" lon="0.61736">
        <ele>139</ele>
        <time>2013-04-21T07:24:15Z</time>
      </trkpt>
      <trkpt lat="49.51944" lon="0.61732">
        <ele>139</ele>
        <time>2013-04-21T07:24:20Z</time>
      </trkpt>
      <trkpt lat="49.51938" lon="0.61727">
        <ele>139</ele>
        <time>2013-04-21T07:24:25Z</time>
      </trkpt>
      <trkpt lat="49.51933" lon="0.61722">
        <ele>139</ele>
        <time>2013-04-21T07:24:30Z</time>
      </trkpt>
      <trkpt lat="49.51928" lon="0.61714">
        <ele>139</ele>
        <time>2013-04-21T07:24:35Z</time>
      </trkpt>
      <trkpt lat="49.51922" lon="0.61708">
        <ele>139</ele>
        <time>2013-04-21T07:24:40Z</time>
      </trkpt>
      <trkpt lat="49.51915" lon="0.61702">
        <ele>138</ele>
        <time>2013-04-21T07:24:45Z</time>
      </trkpt>
      <trkpt lat="49.51909" lon="0.61695">
        <ele>138</ele>
        <time>2013-04-21T07:24:51Z</time>
      </trkpt>
      <trkpt lat="49.51904" lon="0.6169">
        <ele>138</ele>
        <time>2013-04-21T07:24:56Z</time>
      </trkpt>
      <trkpt lat="49.51898" lon="0.61683">
        <ele>138</ele>
        <time>2013-04-21T07:25:01Z</time>
      </trkpt>
      <trkpt lat="49.51894" lon="0.61677">
        <ele>138</ele>
        <time>2013-04-21T07:25:06Z</time>
      </trkpt>
      <trkpt lat="49.51889" lon="0.61671">
        <ele>138</ele>
        <time>2013-04-21T07:25:11Z</time>
      </trkpt>
      <trkpt lat="49.51884" lon="0.61663">
        <ele>138</ele>
        <time>2013-04-21T07:25:16Z</time>
      </trkpt>
      <trkpt lat="49.51878" lon="0.61656">
        <ele>138</ele>
        <time>2013-04-21T07:25:22Z</time>
      </trkpt>
      <trkpt lat="49.51873" lon="0.61648">
        <ele>138</ele>
        <time>2013-04-21T07:25:28Z</time>
      </trkpt>
      <trkpt lat="49.51867" lon="0.6164">
        <ele>138</ele>
        <time>2013-04-21T07:25:34Z</time>
      </trkpt>
      <trkpt lat="49.51861" lon="0.61635">
        <ele>138</ele>
        <time>2013-04-21T07:25:40Z</time>
      </trkpt>
      <trkpt lat="49.51853" lon="0.61632">
        <ele>138</ele>
        <time>2013-04-21T07:25:46Z</time>
      </trkpt>
      <trkpt lat="49.51846" lon="0.61633">
        <ele>138</ele>
        <time>2013-04-21T07:25:51Z</time>
      </trkpt>
      <trkpt lat="49.5184" lon="0.61635">
        <ele>138</ele>
        <time>2013-04-21T07:25:56Z</time>
      </trkpt>
      <trkpt lat="49.51833" lon="0.61638">
        <ele>138</ele>
        <time>2013-04-21T07:26:01Z</time>
      </trkpt>
      <trkpt lat="49.51827" lon="0.61641">
        <ele>137</ele>
        <time>2013-04-21T07:26:06Z</time>
      </trkpt>
      <trkpt lat="49.5182" lon="0.61644">
        <ele>136</ele>
        <time>2013-04-21T07:26:12Z</time>
      </trkpt>
      <trkpt lat="49.51814" lon="0.61646">
        <ele>136</ele>
        <time>2013-04-21T07:26:17Z</time>
      </trkpt>
      <trkpt lat="49.51807" lon="0.61648">
        <ele>136</ele>
        <time>2013-04-21T07:26:22Z</time>
      </trkpt>
      <trkpt lat="49.51801" lon="0.61651">
        <ele>136</ele>
        <time>2013-04-21T07:26:27Z</time>
      </trkpt>
      <trkpt lat="49.51794" lon="0.61654">
        <ele>136</ele>
        <time>2013-04-21T07:26:32Z</time>
      </trkpt>
      <trkpt lat="49.51787" lon="0.61656">
        <ele>136</ele>
        <time>2013-04-21T07:26:37Z</time>
      </trkpt>
      <trkpt lat="49.5178" lon="0.61658">
        <ele>136</ele>
        <time>2013-04-21T07:26:42Z</time>
      </trkpt>
      <trkpt lat="49.51775" lon="0.6166">
        <ele>136</ele>
        <time>2013-04-21T07:26:47Z</time>
      </trkpt>
      <trkpt lat="49.51767" lon="0.61663">
        <ele>136</ele>
        <time>2013-04-21T07:26:52Z</time>
      </trkpt>
      <trkpt lat="49.51761" lon="0.61664">
        <ele>135</ele>
        <time>2013-04-21T07:26:57Z</time>
      </trkpt>
      <trkpt lat="49.51754" lon="0.61666">
        <ele>135</ele>
        <time>2013-04-21T07:27:03Z</time>
      </trkpt>
      <trkpt lat="49.51747" lon="0.61668">
        <ele>135</ele>
        <time>2013-04-21T07:27:09Z</time>
      </trkpt>
      <trkpt lat="49.51742" lon="0.6167">
        <ele>135</ele>
        <time>2013-04-21T07:27:14Z</time>
      </trkpt>
      <trkpt lat="49.51735" lon="0.61673">
        <ele>134</ele>
        <time>2013-04-21T07:27:19Z</time>
      </trkpt>
      <trkpt lat="49.51729" lon="0.61674">
        <ele>134</ele>
        <time>2013-04-21T07:27:24Z</time>
      </trkpt>
      <trkpt lat="49.51722" lon="0.61677">
        <ele>134</ele>
        <time>2013-04-21T07:27:29Z</time>
      </trkpt>
      <trkpt lat="49.51717" lon="0.61679">
        <ele>134</ele>
        <time>2013-04-21T07:27:34Z</time>
      </trkpt>
      <trkpt lat="49.51711" lon="0.61676">
        <ele>134</ele>
        <time>2013-04-21T07:27:40Z</time>
      </trkpt>
      <trkpt lat="49.51706" lon="0.61672">
        <ele>134</ele>
        <time>2013-04-21T07:27:45Z</time>
      </trkpt>
      <trkpt lat="49.51702" lon="0.61669">
        <ele>134</ele>
        <time>2013-04-21T07:27:52Z</time>
      </trkpt>
      <trkpt lat="49.51698" lon="0.61664">
        <ele>134</ele>
        <time>2013-04-21T07:27:57Z</time>
      </trkpt>
      <trkpt lat="49.51691" lon="0.61658">
        <ele>134</ele>
        <time>2013-04-21T07:28:03Z</time>
      </trkpt>
      <trkpt lat="49.51685" lon="0.6165">
        <ele>134</ele>
        <time>2013-04-21T07:28:09Z</time>
      </trkpt>
      <trkpt lat="49.5168" lon="0.61644">
        <ele>133</ele>
        <time>2013-04-21T07:28:15Z</time>
      </trkpt>
      <trkpt lat="49.51675" lon="0.61639">
        <ele>133</ele>
        <time>2013-04-21T07:28:20Z</time>
      </trkpt>
      <trkpt lat="49.51668" lon="0.61635">
        <ele>133</ele>
        <time>2013-04-21T07:28:25Z</time>
      </trkpt>
      <trkpt lat="49.51661" lon="0.61629">
        <ele>133</ele>
        <time>2013-04-21T07:28:31Z</time>
      </trkpt>
      <trkpt lat="49.51656" lon="0.61624">
        <ele>133</ele>
        <time>2013-04-21T07:28:36Z</time>
      </trkpt>
      <trkpt lat="49.51649" lon="0.61617">
        <ele>133</ele>
        <time>2013-04-21T07:28:43Z</time>
      </trkpt>
      <trkpt lat="49.51643" lon="0.61611">
        <ele>133</ele>
        <time>2013-04-21T07:28:49Z</time>
      </trkpt>
      <trkpt lat="49.51637" lon="0.61607">
        <ele>133</ele>
        <time>2013-04-21T07:28:54Z</time>
      </trkpt>
      <trkpt lat="49.51631" lon="0.61602">
        <ele>133</ele>
        <time>2013-04-21T07:29:00Z</time>
      </trkpt>
      <trkpt lat="49.51625" lon="0.61598">
        <ele>133</ele>
        <time>2013-04-21T07:29:05Z</time>
      </trkpt>
      <trkpt lat="49.51617" lon="0.61591">
        <ele>133</ele>
        <time>2013-04-21T07:29:12Z</time>
      </trkpt>
      <trkpt lat="49.51611" lon="0.61586">
        <ele>133</ele>
        <time>2013-04-21T07:29:18Z</time>
      </trkpt>
      <trkpt lat="49.51603" lon="0.6158">
        <ele>133</ele>
        <time>2013-04-21T07:29:25Z</time>
      </trkpt>
      <trkpt lat="49.51595" lon="0.61576">
        <ele>133</ele>
        <time>2013-04-21T07:29:32Z</time>
      </trkpt>
      <trkpt lat="49.51589" lon="0.61572">
        <ele>133</ele>
        <time>2013-04-21T07:29:37Z</time>
      </trkpt>
      <trkpt lat="49.51582" lon="0.61566">
        <ele>133</ele>
        <time>2013-04-21T07:29:43Z</time>
      </trkpt>
      <trkpt lat="49.51576" lon="0.61561">
        <ele>133</ele>
        <time>2013-04-21T07:29:48Z</time>
      </trkpt>
      <trkpt lat="49.51569" lon="0.61556">
        <ele>133</ele>
        <time>2013-04-21T07:29:54Z</time>
      </trkpt>
      <trkpt lat="49.51564" lon="0.61552">
        <ele>133</ele>
        <time>2013-04-21T07:29:59Z</time>
      </trkpt>
      <trkpt lat="49.51558" lon="0.61549">
        <ele>133</ele>
        <time>2013-04-21T07:30:04Z</time>
      </trkpt>
      <trkpt lat="49.51551" lon="0.61545">
        <ele>133</ele>
        <time>2013-04-21T07:30:10Z</time>
      </trkpt>
      <trkpt lat="49.51546" lon="0.6154">
        <ele>133</ele>
        <time>2013-04-21T07:30:15Z</time>
      </trkpt>
      <trkpt lat="49.5154" lon="0.61537">
        <ele>133</ele>
        <time>2013-04-21T07:30:20Z</time>
      </trkpt>
      <trkpt lat="49.51533" lon="0.61532">
        <ele>133</ele>
        <time>2013-04-21T07:30:25Z</time>
      </trkpt>
      <trkpt lat="49.51526" lon="0.61526">
        <ele>133</ele>
        <time>2013-04-21T07:30:31Z</time>
      </trkpt>
      <trkpt lat="49.51519" lon="0.61521">
        <ele>133</ele>
        <time>2013-04-21T07:30:37Z</time>
      </trkpt>
      <trkpt lat="49.51513" lon="0.61517">
        <ele>133</ele>
        <time>2013-04-21T07:30:42Z</time>
      </trkpt>
      <trkpt lat="49.51506" lon="0.61512">
        <ele>133</ele>
        <time>2013-04-21T07:30:47Z</time>
      </trkpt>
      <trkpt lat="49.515" lon="0.61507">
        <ele>133</ele>
        <time>2013-04-21T07:30:52Z</time>
      </trkpt>
      <trkpt lat="49.51495" lon="0.61503">
        <ele>133</ele>
        <time>2013-04-21T07:30:57Z</time>
      </trkpt>
      <trkpt lat="49.5149" lon="0.615">
        <ele>133</ele>
        <time>2013-04-21T07:31:02Z</time>
      </trkpt>
      <trkpt lat="49.51484" lon="0.61495">
        <ele>132</ele>
        <time>2013-04-21T07:31:07Z</time>
      </trkpt>
      <trkpt lat="49.51477" lon="0.61493">
        <ele>132</ele>
        <time>2013-04-21T07:31:12Z</time>
      </trkpt>
      <trkpt lat="49.51471" lon="0.61488">
        <ele>132</ele>
        <time>2013-04-21T07:31:17Z</time>
      </trkpt>
      <trkpt lat="49.51466" lon="0.61483">
        <ele>132</ele>
        <time>2013-04-21T07:31:22Z</time>
      </trkpt>
      <trkpt lat="49.51461" lon="0.61477">
        <ele>132</ele>
        <time>2013-04-21T07:31:28Z</time>
      </trkpt>
      <trkpt lat="49.51453" lon="0.61474">
        <ele>132</ele>
        <time>2013-04-21T07:31:34Z</time>
      </trkpt>
      <trkpt lat="49.51446" lon="0.61472">
        <ele>132</ele>
        <time>2013-04-21T07:31:40Z</time>
      </trkpt>
      <trkpt lat="49.51439" lon="0.61469">
        <ele>132</ele>
        <time>2013-04-21T07:31:46Z</time>
      </trkpt>
      <trkpt lat="49.51432" lon="0.61465">
        <ele>131</ele>
        <time>2013-04-21T07:31:51Z</time>
      </trkpt>
      <trkpt lat="49.51425" lon="0.61462">
        <ele>131</ele>
        <time>2013-04-21T07:31:56Z</time>
      </trkpt>
      <trkpt lat="49.5142" lon="0.61457">
        <ele>131</ele>
        <time>2013-04-21T07:32:01Z</time>
      </trkpt>
      <trkpt lat="49.51413" lon="0.61452">
        <ele>130</ele>
        <time>2013-04-21T07:32:07Z</time>
      </trkpt>
      <trkpt lat="49.51407" lon="0.61449">
        <ele>130</ele>
        <time>2013-04-21T07:32:12Z</time>
      </trkpt>
      <trkpt lat="49.51401" lon="0.61445">
        <ele>130</ele>
        <time>2013-04-21T07:32:17Z</time>
      </trkpt>
      <trkpt lat="49.51395" lon="0.61441">
        <ele>130</ele>
        <time>2013-04-21T07:32:22Z</time>
      </trkpt>
      <trkpt lat="49.51388" lon="0.61437">
        <ele>130</ele>
        <time>2013-04-21T07:32:27Z</time>
      </trkpt>
      <trkpt lat="49.51382" lon="0.61434">
        <ele>130</ele>
        <time>2013-04-21T07:32:32Z</time>
      </trkpt>
      <trkpt lat="49.51374" lon="0.6143">
        <ele>129</ele>
        <time>2013-04-21T07:32:38Z</time>
      </trkpt>
      <trkpt lat="49.51368" lon="0.61427">
        <ele>129</ele>
        <time>2013-04-21T07:32:43Z</time>
      </trkpt>
      <trkpt lat="49.51362" lon="0.61424">
        <ele>129</ele>
        <time>2013-04-21T07:32:48Z</time>
      </trkpt>
      <trkpt lat="49.51355" lon="0.6142">
        <ele>129</ele>
        <time>2013-04-21T07:32:54Z</time>
      </trkpt>
      <trkpt lat="49.51349" lon="0.61417">
        <ele>129</ele>
        <time>2013-04-21T07:32:59Z</time>
      </trkpt>
      <trkpt lat="49.51343" lon="0.61414">
        <ele>129</ele>
        <time>2013-04-21T07:33:04Z</time>
      </trkpt>
      <trkpt lat="49.51337" lon="0.61412">
        <ele>129</ele>
        <time>2013-04-21T07:33:09Z</time>
      </trkpt>
      <trkpt lat="49.51331" lon="0.6141">
        <ele>129</ele>
        <time>2013-04-21T07:33:14Z</time>
      </trkpt>
      <trkpt lat="49.51324" lon="0.61407">
        <ele>129</ele>
        <time>2013-04-21T07:33:19Z</time>
      </trkpt>
      <trkpt lat="49.51318" lon="0.61405">
        <ele>130</ele>
        <time>2013-04-21T07:33:24Z</time>
      </trkpt>
      <trkpt lat="49.51312" lon="0.61403">
        <ele>130</ele>
        <time>2013-04-21T07:33:29Z</time>
      </trkpt>
      <trkpt lat="49.51306" lon="0.61402">
        <ele>130</ele>
        <time>2013-04-21T07:33:34Z</time>
      </trkpt>
      <trkpt lat="49.51298" lon="0.61401">
        <ele>130</ele>
        <time>2013-04-21T07:33:40Z</time>
      </trkpt>
      <trkpt lat="49.51292" lon="0.61399">
        <ele>130</ele>
        <time>2013-04-21T07:33:45Z</time>
      </trkpt>
      <trkpt lat="49.51286" lon="0.61398">
        <ele>130</ele>
        <time>2013-04-21T07:33:50Z</time>
      </trkpt>
      <trkpt lat="49.51281" lon="0.61398">
        <ele>130</ele>
        <time>2013-04-21T07:33:55Z</time>
      </trkpt>
      <trkpt lat="49.51275" lon="0.61397">
        <ele>130</ele>
        <time>2013-04-21T07:34:01Z</time>
      </trkpt>
      <trkpt lat="49.51267" lon="0.61397">
        <ele>130</ele>
        <time>2013-04-21T07:34:06Z</time>
      </trkpt>
      <trkpt lat="49.5126" lon="0.61397">
        <ele>130</ele>
        <time>2013-04-21T07:34:11Z</time>
      </trkpt>
      <trkpt lat="49.51253" lon="0.61396">
        <ele>130</ele>
        <time>2013-04-21T07:34:16Z</time>
      </trkpt>
      <trkpt lat="49.51247" lon="0.61396">
        <ele>130</ele>
        <time>2013-04-21T07:34:21Z</time>
      </trkpt>
      <trkpt lat="49.51241" lon="0.61396">
        <ele>130</ele>
        <time>2013-04-21T07:34:26Z</time>
      </trkpt>
      <trkpt lat="49.51235" lon="0.61396">
        <ele>130</ele>
        <time>2013-04-21T07:34:31Z</time>
      </trkpt>
      <trkpt lat="49.51228" lon="0.61397">
        <ele>130</ele>
        <time>2013-04-21T07:34:36Z</time>
      </trkpt>
      <trkpt lat="49.51221" lon="0.61399">
        <ele>130</ele>
        <time>2013-04-21T07:34:41Z</time>
      </trkpt>
      <trkpt lat="49.51215" lon="0.61398">
        <ele>130</ele>
        <time>2013-04-21T07:34:46Z</time>
      </trkpt>
      <trkpt lat="49.51209" lon="0.61399">
        <ele>130</ele>
        <time>2013-04-21T07:34:51Z</time>
      </trkpt>
      <trkpt lat="49.51202" lon="0.61398">
        <ele>130</ele>
        <time>2013-04-21T07:34:56Z</time>
      </trkpt>
      <trkpt lat="49.51194" lon="0.61397">
        <ele>130</ele>
        <time>2013-04-21T07:35:01Z</time>
      </trkpt>
      <trkpt lat="49.51187" lon="0.61398">
        <ele>129</ele>
        <time>2013-04-21T07:35:06Z</time>
      </trkpt>
      <trkpt lat="49.51181" lon="0.61397">
        <ele>129</ele>
        <time>2013-04-21T07:35:11Z</time>
      </trkpt>
      <trkpt lat="49.51176" lon="0.61397">
        <ele>129</ele>
        <time>2013-04-21T07:35:16Z</time>
      </trkpt>
      <trkpt lat="49.5117" lon="0.61398">
        <ele>129</ele>
        <time>2013-04-21T07:35:21Z</time>
      </trkpt>
      <trkpt lat="49.51163" lon="0.61399">
        <ele>129</ele>
        <time>2013-04-21T07:35:26Z</time>
      </trkpt>
      <trkpt lat="49.51157" lon="0.614">
        <ele>129</ele>
        <time>2013-04-21T07:35:31Z</time>
      </trkpt>
      <trkpt lat="49.51151" lon="0.61401">
        <ele>129</ele>
        <time>2013-04-21T07:35:36Z</time>
      </trkpt>
      <trkpt lat="49.51145" lon="0.61401">
        <ele>129</ele>
        <time>2013-04-21T07:35:41Z</time>
      </trkpt>
      <trkpt lat="49.5114" lon="0.614">
        <ele>129</ele>
        <time>2013-04-21T07:35:46Z</time>
      </trkpt>
      <trkpt lat="49.51136" lon="0.61402">
        <ele>129</ele>
        <time>2013-04-21T07:35:51Z</time>
      </trkpt>
      <trkpt lat="49.51134" lon="0.61408">
        <ele>129</ele>
        <time>2013-04-21T07:35:56Z</time>
      </trkpt>
      <trkpt lat="49.51135" lon="0.61405">
        <ele>129</ele>
        <time>2013-04-21T07:36:01Z</time>
      </trkpt>
      <trkpt lat="49.51127" lon="0.614">
        <ele>129</ele>
        <time>2013-04-21T07:36:17Z</time>
      </trkpt>
      <trkpt lat="49.51129" lon="0.61413">
        <ele>129</ele>
        <time>2013-04-21T07:36:22Z</time>
      </trkpt>
      <trkpt lat="49.51129" lon="0.61421">
        <ele>128</ele>
        <time>2013-04-21T07:36:27Z</time>
      </trkpt>
      <trkpt lat="49.51131" lon="0.61431">
        <ele>128</ele>
        <time>2013-04-21T07:36:32Z</time>
      </trkpt>
      <trkpt lat="49.51134" lon="0.61442">
        <ele>128</ele>
        <time>2013-04-21T07:36:37Z</time>
      </trkpt>
      <trkpt lat="49.51138" lon="0.61452">
        <ele>128</ele>
        <time>2013-04-21T07:36:42Z</time>
      </trkpt>
      <trkpt lat="49.51141" lon="0.61462">
        <ele>128</ele>
        <time>2013-04-21T07:36:47Z</time>
      </trkpt>
      <trkpt lat="49.51144" lon="0.61472">
        <ele>128</ele>
        <time>2013-04-21T07:36:52Z</time>
      </trkpt>
      <trkpt lat="49.51146" lon="0.61483">
        <ele>128</ele>
        <time>2013-04-21T07:36:57Z</time>
      </trkpt>
      <trkpt lat="49.5115" lon="0.61493">
        <ele>128</ele>
        <time>2013-04-21T07:37:02Z</time>
      </trkpt>
      <trkpt lat="49.51152" lon="0.61502">
        <ele>128</ele>
        <time>2013-04-21T07:37:07Z</time>
      </trkpt>
      <trkpt lat="49.51158" lon="0.61511">
        <ele>128</ele>
        <time>2013-04-21T07:37:12Z</time>
      </trkpt>
      <trkpt lat="49.5116" lon="0.61521">
        <ele>128</ele>
        <time>2013-04-21T07:37:17Z</time>
      </trkpt>
      <trkpt lat="49.51163" lon="0.61529">
        <ele>128</ele>
        <time>2013-04-21T07:37:22Z</time>
      </trkpt>
      <trkpt lat="49.51167" lon="0.61537">
        <ele>128</ele>
        <time>2013-04-21T07:37:27Z</time>
      </trkpt>
      <trkpt lat="49.5117" lon="0.61546">
        <ele>128</ele>
        <time>2013-04-21T07:37:32Z</time>
      </trkpt>
      <trkpt lat="49.51173" lon="0.61554">
        <ele>128</ele>
        <time>2013-04-21T07:37:37Z</time>
      </trkpt>
      <trkpt lat="49.51178" lon="0.61563">
        <ele>128</ele>
        <time>2013-04-21T07:37:43Z</time>
      </trkpt>
      <trkpt lat="49.51184" lon="0.61571">
        <ele>128</ele>
        <time>2013-04-21T07:37:49Z</time>
      </trkpt>
      <trkpt lat="49.51189" lon="0.6158">
        <ele>128</ele>
        <time>2013-04-21T07:37:55Z</time>
      </trkpt>
      <trkpt lat="49.51196" lon="0.61586">
        <ele>127</ele>
        <time>2013-04-21T07:38:00Z</time>
      </trkpt>
      <trkpt lat="49.51201" lon="0.61594">
        <ele>127</ele>
        <time>2013-04-21T07:38:06Z</time>
      </trkpt>
      <trkpt lat="49.51207" lon="0.61603">
        <ele>127</ele>
        <time>2013-04-21T07:38:12Z</time>
      </trkpt>
      <trkpt lat="49.51212" lon="0.61611">
        <ele>127</ele>
        <time>2013-04-21T07:38:18Z</time>
      </trkpt>
      <trkpt lat="49.51218" lon="0.61619">
        <ele>127</ele>
        <time>2013-04-21T07:38:23Z</time>
      </trkpt>
      <trkpt lat="49.51223" lon="0.61626">
        <ele>127</ele>
        <time>2013-04-21T07:38:28Z</time>
      </trkpt>
      <trkpt lat="49.51231" lon="0.61635">
        <ele>127</ele>
        <time>2013-04-21T07:38:34Z</time>
      </trkpt>
      <trkpt lat="49.51236" lon="0.61642">
        <ele>127</ele>
        <time>2013-04-21T07:38:39Z</time>
      </trkpt>
      <trkpt lat="49.5124" lon="0.61651">
        <ele>127</ele>
        <time>2013-04-21T07:38:44Z</time>
      </trkpt>
      <trkpt lat="49.51242" lon="0.61661">
        <ele>126</ele>
        <time>2013-04-21T07:38:49Z</time>
      </trkpt>
      <trkpt lat="49.51241" lon="0.61672">
        <ele>126</ele>
        <time>2013-04-21T07:38:54Z</time>
      </trkpt>
      <trkpt lat="49.51242" lon="0.61682">
        <ele>126</ele>
        <time>2013-04-21T07:38:59Z</time>
      </trkpt>
      <trkpt lat="49.51242" lon="0.61693">
        <ele>126</ele>
        <time>2013-04-21T07:39:04Z</time>
      </trkpt>
      <trkpt lat="49.51243" lon="0.61703">
        <ele>126</ele>
        <time>2013-04-21T07:39:09Z</time>
      </trkpt>
      <trkpt lat="49.51244" lon="0.61713">
        <ele>126</ele>
        <time>2013-04-21T07:39:14Z</time>
      </trkpt>
      <trkpt lat="49.51248" lon="0.61721">
        <ele>126</ele>
        <time>2013-04-21T07:39:19Z</time>
      </trkpt>
      <trkpt lat="49.51255" lon="0.61725">
        <ele>126</ele>
        <time>2013-04-21T07:39:24Z</time>
      </trkpt>
      <trkpt lat="49.51261" lon="0.61729">
        <ele>126</ele>
        <time>2013-04-21T07:39:29Z</time>
      </trkpt>
      <trkpt lat="49.51268" lon="0.61731">
        <ele>126</ele>
        <time>2013-04-21T07:39:34Z</time>
      </trkpt>
      <trkpt lat="49.51275" lon="0.61734">
        <ele>126</ele>
        <time>2013-04-21T07:39:40Z</time>
      </trkpt>
      <trkpt lat="49.51282" lon="0.61736">
        <ele>126</ele>
        <time>2013-04-21T07:39:45Z</time>
      </trkpt>
      <trkpt lat="49.51288" lon="0.61741">
        <ele>127</ele>
        <time>2013-04-21T07:39:50Z</time>
      </trkpt>
      <trkpt lat="49.51294" lon="0.61745">
        <ele>127</ele>
        <time>2013-04-21T07:39:55Z</time>
      </trkpt>
      <trkpt lat="49.513" lon="0.61749">
        <ele>127</ele>
        <time>2013-04-21T07:40:00Z</time>
      </trkpt>
      <trkpt lat="49.51307" lon="0.61754">
        <ele>127</ele>
        <time>2013-04-21T07:40:05Z</time>
      </trkpt>
      <trkpt lat="49.51314" lon="0.61759">
        <ele>127</ele>
        <time>2013-04-21T07:40:10Z</time>
      </trkpt>
      <trkpt lat="49.51315" lon="0.61766">
        <ele>127</ele>
        <time>2013-04-21T07:40:15Z</time>
      </trkpt>
      <trkpt lat="49.51318" lon="0.61782">
        <ele>127</ele>
        <time>2013-04-21T07:40:21Z</time>
      </trkpt>
      <trkpt lat="49.51318" lon="0.61792">
        <ele>126</ele>
        <time>2013-04-21T07:40:26Z</time>
      </trkpt>
      <trkpt lat="49.51318" lon="0.61803">
        <ele>126</ele>
        <time>2013-04-21T07:40:31Z</time>
      </trkpt>
      <trkpt lat="49.51319" lon="0.61814">
        <ele>126</ele>
        <time>2013-04-21T07:40:36Z</time>
      </trkpt>
      <trkpt lat="49.51319" lon="0.61825">
        <ele>126</ele>
        <time>2013-04-21T07:40:41Z</time>
      </trkpt>
      <trkpt lat="49.5132" lon="0.61835">
        <ele>126</ele>
        <time>2013-04-21T07:40:46Z</time>
      </trkpt>
      <trkpt lat="49.5132" lon="0.61845">
        <ele>126</ele>
        <time>2013-04-21T07:40:51Z</time>
      </trkpt>
      <trkpt lat="49.51321" lon="0.61856">
        <ele>126</ele>
        <time>2013-04-21T07:40:56Z</time>
      </trkpt>
      <trkpt lat="49.51322" lon="0.61867">
        <ele>126</ele>
        <time>2013-04-21T07:41:01Z</time>
      </trkpt>
      <trkpt lat="49.51322" lon="0.61877">
        <ele>126</ele>
        <time>2013-04-21T07:41:06Z</time>
      </trkpt>
      <trkpt lat="49.51323" lon="0.61887">
        <ele>126</ele>
        <time>2013-04-21T07:41:11Z</time>
      </trkpt>
      <trkpt lat="49.51323" lon="0.61898">
        <ele>126</ele>
        <time>2013-04-21T07:41:16Z</time>
      </trkpt>
      <trkpt lat="49.51324" lon="0.61908">
        <ele>126</ele>
        <time>2013-04-21T07:41:21Z</time>
      </trkpt>
      <trkpt lat="49.51325" lon="0.61919">
        <ele>126</ele>
        <time>2013-04-21T07:41:26Z</time>
      </trkpt>
      <trkpt lat="49.51326" lon="0.6193">
        <ele>125</ele>
        <time>2013-04-21T07:41:31Z</time>
      </trkpt>
      <trkpt lat="49.51327" lon="0.6194">
        <ele>125</ele>
        <time>2013-04-21T07:41:36Z</time>
      </trkpt>
      <trkpt lat="49.51327" lon="0.61951">
        <ele>125</ele>
        <time>2013-04-21T07:41:41Z</time>
      </trkpt>
      <trkpt lat="49.51327" lon="0.61961">
        <ele>125</ele>
        <time>2013-04-21T07:41:46Z</time>
      </trkpt>
      <trkpt lat="49.51328" lon="0.61972">
        <ele>125</ele>
        <time>2013-04-21T07:41:51Z</time>
      </trkpt>
      <trkpt lat="49.51328" lon="0.61982">
        <ele>125</ele>
        <time>2013-04-21T07:41:56Z</time>
      </trkpt>
      <trkpt lat="49.51327" lon="0.61993">
        <ele>125</ele>
        <time>2013-04-21T07:42:01Z</time>
      </trkpt>
      <trkpt lat="49.51328" lon="0.62003">
        <ele>125</ele>
        <time>2013-04-21T07:42:06Z</time>
      </trkpt>
      <trkpt lat="49.51326" lon="0.62013">
        <ele>125</ele>
        <time>2013-04-21T07:42:11Z</time>
      </trkpt>
      <trkpt lat="49.51327" lon="0.62025">
        <ele>124</ele>
        <time>2013-04-21T07:42:16Z</time>
      </trkpt>
      <trkpt lat="49.51328" lon="0.62037">
        <ele>124</ele>
        <time>2013-04-21T07:42:21Z</time>
      </trkpt>
      <trkpt lat="49.51327" lon="0.62047">
        <ele>124</ele>
        <time>2013-04-21T07:42:26Z</time>
      </trkpt>
      <trkpt lat="49.51327" lon="0.62057">
        <ele>124</ele>
        <time>2013-04-21T07:42:31Z</time>
      </trkpt>
      <trkpt lat="49.51326" lon="0.62068">
        <ele>124</ele>
        <time>2013-04-21T07:42:36Z</time>
      </trkpt>
      <trkpt lat="49.51326" lon="0.62079">
        <ele>124</ele>
        <time>2013-04-21T07:42:41Z</time>
      </trkpt>
      <trkpt lat="49.51326" lon="0.6209">
        <ele>124</ele>
        <time>2013-04-21T07:42:46Z</time>
      </trkpt>
      <trkpt lat="49.51324" lon="0.621">
        <ele>124</ele>
        <time>2013-04-21T07:42:51Z</time>
      </trkpt>
      <trkpt lat="49.51323" lon="0.62111">
        <ele>124</ele>
        <time>2013-04-21T07:42:56Z</time>
      </trkpt>
      <trkpt lat="49.51324" lon="0.62122">
        <ele>124</ele>
        <time>2013-04-21T07:43:01Z</time>
      </trkpt>
      <trkpt lat="49.51323" lon="0.62133">
        <ele>124</ele>
        <time>2013-04-21T07:43:06Z</time>
      </trkpt>
      <trkpt lat="49.51323" lon="0.62144">
        <ele>124</ele>
        <time>2013-04-21T07:43:11Z</time>
      </trkpt>
      <trkpt lat="49.51321" lon="0.62154">
        <ele>124</ele>
        <time>2013-04-21T07:43:16Z</time>
      </trkpt>
      <trkpt lat="49.5132" lon="0.62164">
        <ele>124</ele>
        <time>2013-04-21T07:43:21Z</time>
      </trkpt>
      <trkpt lat="49.51318" lon="0.62175">
        <ele>124</ele>
        <time>2013-04-21T07:43:26Z</time>
      </trkpt>
      <trkpt lat="49.51318" lon="0.62185">
        <ele>124</ele>
        <time>2013-04-21T07:43:31Z</time>
      </trkpt>
      <trkpt lat="49.51318" lon="0.62195">
        <ele>124</ele>
        <time>2013-04-21T07:43:36Z</time>
      </trkpt>
      <trkpt lat="49.51316" lon="0.62205">
        <ele>124</ele>
        <time>2013-04-21T07:43:41Z</time>
      </trkpt>
      <trkpt lat="49.51315" lon="0.62214">
        <ele>124</ele>
        <time>2013-04-21T07:43:46Z</time>
      </trkpt>
      <trkpt lat="49.51317" lon="0.62218">
        <ele>125</ele>
        <time>2013-04-21T07:43:51Z</time>
      </trkpt>
      <trkpt lat="49.51315" lon="0.62217">
        <ele>124</ele>
        <time>2013-04-21T07:43:56Z</time>
      </trkpt>
      <trkpt lat="49.51315" lon="0.62203">
        <ele>124</ele>
        <time>2013-04-21T07:44:01Z</time>
      </trkpt>
      <trkpt lat="49.51315" lon="0.62195">
        <ele>124</ele>
        <time>2013-04-21T07:44:06Z</time>
      </trkpt>
      <trkpt lat="49.51315" lon="0.62185">
        <ele>124</ele>
        <time>2013-04-21T07:44:11Z</time>
      </trkpt>
      <trkpt lat="49.51316" lon="0.62176">
        <ele>124</ele>
        <time>2013-04-21T07:44:16Z</time>
      </trkpt>
      <trkpt lat="49.51317" lon="0.62166">
        <ele>124</ele>
        <time>2013-04-21T07:44:21Z</time>
      </trkpt>
      <trkpt lat="49.51318" lon="0.62156">
        <ele>124</ele>
        <time>2013-04-21T07:44:26Z</time>
      </trkpt>
      <trkpt lat="49.5132" lon="0.62149">
        <ele>124</ele>
        <time>2013-04-21T07:44:31Z</time>
      </trkpt>
      <trkpt lat="49.51323" lon="0.62139">
        <ele>124</ele>
        <time>2013-04-21T07:44:36Z</time>
      </trkpt>
      <trkpt lat="49.51322" lon="0.62128">
        <ele>124</ele>
        <time>2013-04-21T07:44:41Z</time>
      </trkpt>
      <trkpt lat="49.51323" lon="0.62118">
        <ele>124</ele>
        <time>2013-04-21T07:44:46Z</time>
      </trkpt>
      <trkpt lat="49.51324" lon="0.62108">
        <ele>124</ele>
        <time>2013-04-21T07:44:51Z</time>
      </trkpt>
      <trkpt lat="49.51322" lon="0.62096">
        <ele>124</ele>
        <time>2013-04-21T07:44:56Z</time>
      </trkpt>
      <trkpt lat="49.51323" lon="0.62085">
        <ele>124</ele>
        <time>2013-04-21T07:45:01Z</time>
      </trkpt>
      <trkpt lat="49.51324" lon="0.62076">
        <ele>124</ele>
        <time>2013-04-21T07:45:06Z</time>
      </trkpt>
      <trkpt lat="49.51324" lon="0.62066">
        <ele>124</ele>
        <time>2013-04-21T07:45:11Z</time>
      </trkpt>
      <trkpt lat="49.51324" lon="0.62053">
        <ele>124</ele>
        <time>2013-04-21T07:45:16Z</time>
      </trkpt>
      <trkpt lat="49.51325" lon="0.62043">
        <ele>124</ele>
        <time>2013-04-21T07:45:21Z</time>
      </trkpt>
      <trkpt lat="49.51325" lon="0.62032">
        <ele>124</ele>
        <time>2013-04-21T07:45:26Z</time>
      </trkpt>
      <trkpt lat="49.51324" lon="0.62021">
        <ele>124</ele>
        <time>2013-04-21T07:45:31Z</time>
      </trkpt>
      <trkpt lat="49.51325" lon="0.62011">
        <ele>125</ele>
        <time>2013-04-21T07:45:36Z</time>
      </trkpt>
      <trkpt lat="49.51326" lon="0.62002">
        <ele>125</ele>
        <time>2013-04-21T07:45:41Z</time>
      </trkpt>
      <trkpt lat="49.51326" lon="0.61992">
        <ele>125</ele>
        <time>2013-04-21T07:45:46Z</time>
      </trkpt>
      <trkpt lat="49.51326" lon="0.6198">
        <ele>125</ele>
        <time>2013-04-21T07:45:51Z</time>
      </trkpt>
      <trkpt lat="49.51326" lon="0.61967">
        <ele>125</ele>
        <time>2013-04-21T07:45:56Z</time>
      </trkpt>
      <trkpt lat="49.51325" lon="0.61957">
        <ele>125</ele>
        <time>2013-04-21T07:46:02Z</time>
      </trkpt>
      <trkpt lat="49.51324" lon="0.61944">
        <ele>125</ele>
        <time>2013-04-21T07:46:08Z</time>
      </trkpt>
      <trkpt lat="49.51322" lon="0.61931">
        <ele>125</ele>
        <time>2013-04-21T07:46:13Z</time>
      </trkpt>
      <trkpt lat="49.51323" lon="0.61921">
        <ele>126</ele>
        <time>2013-04-21T07:46:18Z</time>
      </trkpt>
      <trkpt lat="49.51321" lon="0.6191">
        <ele>126</ele>
        <time>2013-04-21T07:46:23Z</time>
      </trkpt>
      <trkpt lat="49.51321" lon="0.619">
        <ele>126</ele>
        <time>2013-04-21T07:46:28Z</time>
      </trkpt>
      <trkpt lat="49.5132" lon="0.61889">
        <ele>126</ele>
        <time>2013-04-21T07:46:34Z</time>
      </trkpt>
      <trkpt lat="49.5132" lon="0.61877">
        <ele>126</ele>
        <time>2013-04-21T07:46:39Z</time>
      </trkpt>
      <trkpt lat="49.51319" lon="0.61867">
        <ele>126</ele>
        <time>2013-04-21T07:46:44Z</time>
      </trkpt>
      <trkpt lat="49.51318" lon="0.61855">
        <ele>126</ele>
        <time>2013-04-21T07:46:49Z</time>
      </trkpt>
      <trkpt lat="49.51318" lon="0.61845">
        <ele>126</ele>
        <time>2013-04-21T07:46:54Z</time>
      </trkpt>
      <trkpt lat="49.51318" lon="0.61835">
        <ele>126</ele>
        <time>2013-04-21T07:46:59Z</time>
      </trkpt>
      <trkpt lat="49.51317" lon="0.61826">
        <ele>126</ele>
        <time>2013-04-21T07:47:04Z</time>
      </trkpt>
      <trkpt lat="49.51316" lon="0.61814">
        <ele>126</ele>
        <time>2013-04-21T07:47:09Z</time>
      </trkpt>
      <trkpt lat="49.51316" lon="0.61804">
        <ele>126</ele>
        <time>2013-04-21T07:47:14Z</time>
      </trkpt>
      <trkpt lat="49.51317" lon="0.61793">
        <ele>126</ele>
        <time>2013-04-21T07:47:19Z</time>
      </trkpt>
      <trkpt lat="49.51316" lon="0.61783">
        <ele>127</ele>
        <time>2013-04-21T07:47:24Z</time>
      </trkpt>
      <trkpt lat="49.51316" lon="0.61773">
        <ele>127</ele>
        <time>2013-04-21T07:47:29Z</time>
      </trkpt>
      <trkpt lat="49.51317" lon="0.61764">
        <ele>127</ele>
        <time>2013-04-21T07:47:35Z</time>
      </trkpt>
      <trkpt lat="49.51311" lon="0.61755">
        <ele>127</ele>
        <time>2013-04-21T07:47:41Z</time>
      </trkpt>
      <trkpt lat="49.51307" lon="0.61749">
        <ele>127</ele>
        <time>2013-04-21T07:47:46Z</time>
      </trkpt>
      <trkpt lat="49.51302" lon="0.61742">
        <ele>127</ele>
        <time>2013-04-21T07:47:51Z</time>
      </trkpt>
      <trkpt lat="49.51296" lon="0.61738">
        <ele>127</ele>
        <time>2013-04-21T07:47:56Z</time>
      </trkpt>
      <trkpt lat="49.51289" lon="0.61733">
        <ele>127</ele>
        <time>2013-04-21T07:48:01Z</time>
      </trkpt>
      <trkpt lat="49.51283" lon="0.6173">
        <ele>127</ele>
        <time>2013-04-21T07:48:06Z</time>
      </trkpt>
      <trkpt lat="49.51277" lon="0.61728">
        <ele>126</ele>
        <time>2013-04-21T07:48:11Z</time>
      </trkpt>
      <trkpt lat="49.51269" lon="0.61728">
        <ele>126</ele>
        <time>2013-04-21T07:48:16Z</time>
      </trkpt>
      <trkpt lat="49.51263" lon="0.61726">
        <ele>126</ele>
        <time>2013-04-21T07:48:21Z</time>
      </trkpt>
      <trkpt lat="49.51257" lon="0.61726">
        <ele>126</ele>
        <time>2013-04-21T07:48:26Z</time>
      </trkpt>
      <trkpt lat="49.51251" lon="0.61724">
        <ele>126</ele>
        <time>2013-04-21T07:48:31Z</time>
      </trkpt>
      <trkpt lat="49.51246" lon="0.61717">
        <ele>126</ele>
        <time>2013-04-21T07:48:36Z</time>
      </trkpt>
      <trkpt lat="49.51245" lon="0.61707">
        <ele>126</ele>
        <time>2013-04-21T07:48:41Z</time>
      </trkpt>
      <trkpt lat="49.51244" lon="0.61695">
        <ele>126</ele>
        <time>2013-04-21T07:48:46Z</time>
      </trkpt>
      <trkpt lat="49.51244" lon="0.61684">
        <ele>126</ele>
        <time>2013-04-21T07:48:51Z</time>
      </trkpt>
      <trkpt lat="49.51244" lon="0.61672">
        <ele>126</ele>
        <time>2013-04-21T07:48:57Z</time>
      </trkpt>
      <trkpt lat="49.51244" lon="0.61663">
        <ele>126</ele>
        <time>2013-04-21T07:49:02Z</time>
      </trkpt>
      <trkpt lat="49.51241" lon="0.61652">
        <ele>127</ele>
        <time>2013-04-21T07:49:08Z</time>
      </trkpt>
      <trkpt lat="49.51236" lon="0.61643">
        <ele>127</ele>
        <time>2013-04-21T07:49:13Z</time>
      </trkpt>
      <trkpt lat="49.51232" lon="0.61636">
        <ele>127</ele>
        <time>2013-04-21T07:49:18Z</time>
      </trkpt>
      <trkpt lat="49.51227" lon="0.61628">
        <ele>127</ele>
        <time>2013-04-21T07:49:23Z</time>
      </trkpt>
      <trkpt lat="49.51222" lon="0.6162">
        <ele>127</ele>
        <time>2013-04-21T07:49:28Z</time>
      </trkpt>
      <trkpt lat="49.51217" lon="0.61614">
        <ele>127</ele>
        <time>2013-04-21T07:49:34Z</time>
      </trkpt>
      <trkpt lat="49.5121" lon="0.61604">
        <ele>127</ele>
        <time>2013-04-21T07:49:40Z</time>
      </trkpt>
      <trkpt lat="49.51205" lon="0.61598">
        <ele>127</ele>
        <time>2013-04-21T07:49:45Z</time>
      </trkpt>
      <trkpt lat="49.512" lon="0.61591">
        <ele>127</ele>
        <time>2013-04-21T07:49:50Z</time>
      </trkpt>
      <trkpt lat="49.51196" lon="0.61584">
        <ele>127</ele>
        <time>2013-04-21T07:49:55Z</time>
      </trkpt>
      <trkpt lat="49.5119" lon="0.61577">
        <ele>128</ele>
        <time>2013-04-21T07:50:00Z</time>
      </trkpt>
      <trkpt lat="49.51184" lon="0.61567">
        <ele>128</ele>
        <time>2013-04-21T07:50:06Z</time>
      </trkpt>
      <trkpt lat="49.51179" lon="0.61559">
        <ele>128</ele>
        <time>2013-04-21T07:50:11Z</time>
      </trkpt>
      <trkpt lat="49.51175" lon="0.61553">
        <ele>128</ele>
        <time>2013-04-21T07:50:16Z</time>
      </trkpt>
      <trkpt lat="49.51171" lon="0.61543">
        <ele>128</ele>
        <time>2013-04-21T07:50:21Z</time>
      </trkpt>
      <trkpt lat="49.51167" lon="0.61534">
        <ele>128</ele>
        <time>2013-04-21T07:50:26Z</time>
      </trkpt>
      <trkpt lat="49.51163" lon="0.61526">
        <ele>128</ele>
        <time>2013-04-21T07:50:32Z</time>
      </trkpt>
      <trkpt lat="49.51159" lon="0.61517">
        <ele>128</ele>
        <time>2013-04-21T07:50:37Z</time>
      </trkpt>
      <trkpt lat="49.51156" lon="0.61508">
        <ele>128</ele>
        <time>2013-04-21T07:50:42Z</time>
      </trkpt>
      <trkpt lat="49.51153" lon="0.61499">
        <ele>128</ele>
        <time>2013-04-21T07:50:47Z</time>
      </trkpt>
      <trkpt lat="49.51149" lon="0.61488">
        <ele>128</ele>
        <time>2013-04-21T07:50:53Z</time>
      </trkpt>
      <trkpt lat="49.51147" lon="0.61477">
        <ele>128</ele>
        <time>2013-04-21T07:50:58Z</time>
      </trkpt>
      <trkpt lat="49.51144" lon="0.6147">
        <ele>128</ele>
        <time>2013-04-21T07:51:03Z</time>
      </trkpt>
      <trkpt lat="49.51141" lon="0.6146">
        <ele>128</ele>
        <time>2013-04-21T07:51:08Z</time>
      </trkpt>
      <trkpt lat="49.51137" lon="0.6145">
        <ele>128</ele>
        <time>2013-04-21T07:51:13Z</time>
      </trkpt>
      <trkpt lat="49.51135" lon="0.61442">
        <ele>128</ele>
        <time>2013-04-21T07:51:18Z</time>
      </trkpt>
      <trkpt lat="49.51131" lon="0.61432">
        <ele>128</ele>
        <time>2013-04-21T07:51:23Z</time>
      </trkpt>
      <trkpt lat="49.5113" lon="0.61422">
        <ele>128</ele>
        <time>2013-04-21T07:51:28Z</time>
      </trkpt>
      <trkpt lat="49.51127" lon="0.61413">
        <ele>129</ele>
        <time>2013-04-21T07:51:34Z</time>
      </trkpt>
      <trkpt lat="49.51125" lon="0.61401">
        <ele>129</ele>
        <time>2013-04-21T07:51:39Z</time>
      </trkpt>
      <trkpt lat="49.51124" lon="0.61392">
        <ele>129</ele>
        <time>2013-04-21T07:51:44Z</time>
      </trkpt>
      <trkpt lat="49.51123" lon="0.61383">
        <ele>129</ele>
        <time>2013-04-21T07:51:49Z</time>
      </trkpt>
      <trkpt lat="49.51121" lon="0.61373">
        <ele>129</ele>
        <time>2013-04-21T07:51:54Z</time>
      </trkpt>
      <trkpt lat="49.51118" lon="0.61361">
        <ele>129</ele>
        <time>2013-04-21T07:51:59Z</time>
      </trkpt>
      <trkpt lat="49.51116" lon="0.61351">
        <ele>129</ele>
        <time>2013-04-21T07:52:04Z</time>
      </trkpt>
      <trkpt lat="49.51113" lon="0.61341">
        <ele>129</ele>
        <time>2013-04-21T07:52:09Z</time>
      </trkpt>
      <trkpt lat="49.5111" lon="0.61331">
        <ele>130</ele>
        <time>2013-04-21T07:52:14Z</time>
      </trkpt>
      <trkpt lat="49.51107" lon="0.61325">
        <ele>130</ele>
        <time>2013-04-21T07:52:19Z</time>
      </trkpt>
      <trkpt lat="49.51101" lon="0.61326">
        <ele>130</ele>
        <time>2013-04-21T07:52:24Z</time>
      </trkpt>
      <trkpt lat="49.51094" lon="0.6133">
        <ele>130</ele>
        <time>2013-04-21T07:52:29Z</time>
      </trkpt>
      <trkpt lat="49.51089" lon="0.61335">
        <ele>130</ele>
        <time>2013-04-21T07:52:34Z</time>
      </trkpt>
      <trkpt lat="49.51083" lon="0.61338">
        <ele>130</ele>
        <time>2013-04-21T07:52:39Z</time>
      </trkpt>
      <trkpt lat="49.51077" lon="0.61342">
        <ele>130</ele>
        <time>2013-04-21T07:52:44Z</time>
      </trkpt>
      <trkpt lat="49.51071" lon="0.61347">
        <ele>129</ele>
        <time>2013-04-21T07:52:50Z</time>
      </trkpt>
      <trkpt lat="49.51066" lon="0.61351">
        <ele>129</ele>
        <time>2013-04-21T07:52:55Z</time>
      </trkpt>
      <trkpt lat="49.5106" lon="0.61357">
        <ele>129</ele>
        <time>2013-04-21T07:53:01Z</time>
      </trkpt>
      <trkpt lat="49.51054" lon="0.61361">
        <ele>129</ele>
        <time>2013-04-21T07:53:06Z</time>
      </trkpt>
      <trkpt lat="49.51048" lon="0.61366">
        <ele>129</ele>
        <time>2013-04-21T07:53:11Z</time>
      </trkpt>
      <trkpt lat="49.51043" lon="0.61371">
        <ele>129</ele>
        <time>2013-04-21T07:53:16Z</time>
      </trkpt>
      <trkpt lat="49.51037" lon="0.61375">
        <ele>129</ele>
        <time>2013-04-21T07:53:21Z</time>
      </trkpt>
      <trkpt lat="49.5103" lon="0.61382">
        <ele>129</ele>
        <time>2013-04-21T07:53:26Z</time>
      </trkpt>
      <trkpt lat="49.51024" lon="0.61387">
        <ele>129</ele>
        <time>2013-04-21T07:53:31Z</time>
      </trkpt>
      <trkpt lat="49.51018" lon="0.61392">
        <ele>129</ele>
        <time>2013-04-21T07:53:36Z</time>
      </trkpt>
      <trkpt lat="49.51013" lon="0.61396">
        <ele>129</ele>
        <time>2013-04-21T07:53:41Z</time>
      </trkpt>
      <trkpt lat="49.51009" lon="0.61399">
        <ele>129</ele>
        <time>2013-04-21T07:53:46Z</time>
      </trkpt>
      <trkpt lat="49.51003" lon="0.61405">
        <ele>129</ele>
        <time>2013-04-21T07:53:51Z</time>
      </trkpt>
      <trkpt lat="49.50996" lon="0.6141">
        <ele>129</ele>
        <time>2013-04-21T07:53:57Z</time>
      </trkpt>
      <trkpt lat="49.50988" lon="0.61414">
        <ele>130</ele>
        <time>2013-04-21T07:54:02Z</time>
      </trkpt>
      <trkpt lat="49.50983" lon="0.61419">
        <ele>130</ele>
        <time>2013-04-21T07:54:07Z</time>
      </trkpt>
      <trkpt lat="49.50977" lon="0.61423">
        <ele>131</ele>
        <time>2013-04-21T07:54:13Z</time>
      </trkpt>
      <trkpt lat="49.50972" lon="0.61429">
        <ele>131</ele>
        <time>2013-04-21T07:54:19Z</time>
      </trkpt>
      <trkpt lat="49.50966" lon="0.61433">
        <ele>131</ele>
        <time>2013-04-21T07:54:24Z</time>
      </trkpt>
      <trkpt lat="49.5096" lon="0.61439">
        <ele>131</ele>
        <time>2013-04-21T07:54:29Z</time>
      </trkpt>
      <trkpt lat="49.50954" lon="0.61446">
        <ele>131</ele>
        <time>2013-04-21T07:54:35Z</time>
      </trkpt>
      <trkpt lat="49.50948" lon="0.61453">
        <ele>132</ele>
        <time>2013-04-21T07:54:40Z</time>
      </trkpt>
      <trkpt lat="49.50942" lon="0.61457">
        <ele>132</ele>
        <time>2013-04-21T07:54:45Z</time>
      </trkpt>
      <trkpt lat="49.50935" lon="0.61462">
        <ele>132</ele>
        <time>2013-04-21T07:54:51Z</time>
      </trkpt>
      <trkpt lat="49.50928" lon="0.61466">
        <ele>132</ele>
        <time>2013-04-21T07:54:56Z</time>
      </trkpt>
      <trkpt lat="49.50923" lon="0.61471">
        <ele>132</ele>
        <time>2013-04-21T07:55:02Z</time>
      </trkpt>
      <trkpt lat="49.50916" lon="0.61476">
        <ele>133</ele>
        <time>2013-04-21T07:55:08Z</time>
      </trkpt>
      <trkpt lat="49.50909" lon="0.6148">
        <ele>133</ele>
        <time>2013-04-21T07:55:13Z</time>
      </trkpt>
      <trkpt lat="49.50903" lon="0.61484">
        <ele>133</ele>
        <time>2013-04-21T07:55:18Z</time>
      </trkpt>
      <trkpt lat="49.50898" lon="0.61488">
        <ele>133</ele>
        <time>2013-04-21T07:55:23Z</time>
      </trkpt>
      <trkpt lat="49.50891" lon="0.61494">
        <ele>133</ele>
        <time>2013-04-21T07:55:29Z</time>
      </trkpt>
      <trkpt lat="49.50886" lon="0.61498">
        <ele>133</ele>
        <time>2013-04-21T07:55:34Z</time>
      </trkpt>
      <trkpt lat="49.5088" lon="0.61502">
        <ele>133</ele>
        <time>2013-04-21T07:55:40Z</time>
      </trkpt>
      <trkpt lat="49.50875" lon="0.61507">
        <ele>133</ele>
        <time>2013-04-21T07:55:45Z</time>
      </trkpt>
      <trkpt lat="49.50869" lon="0.61514">
        <ele>133</ele>
        <time>2013-04-21T07:55:50Z</time>
      </trkpt>
      <trkpt lat="49.50863" lon="0.61519">
        <ele>133</ele>
        <time>2013-04-21T07:55:55Z</time>
      </trkpt>
      <trkpt lat="49.50856" lon="0.61523">
        <ele>133</ele>
        <time>2013-04-21T07:56:01Z</time>
      </trkpt>
      <trkpt lat="49.50849" lon="0.61527">
        <ele>133</ele>
        <time>2013-04-21T07:56:07Z</time>
      </trkpt>
      <trkpt lat="49.50844" lon="0.61531">
        <ele>133</ele>
        <time>2013-04-21T07:56:12Z</time>
      </trkpt>
      <trkpt lat="49.50836" lon="0.61535">
        <ele>133</ele>
        <time>2013-04-21T07:56:18Z</time>
      </trkpt>
      <trkpt lat="49.50831" lon="0.61541">
        <ele>133</ele>
        <time>2013-04-21T07:56:24Z</time>
      </trkpt>
      <trkpt lat="49.50824" lon="0.61545">
        <ele>133</ele>
        <time>2013-04-21T07:56:30Z</time>
      </trkpt>
      <trkpt lat="49.50818" lon="0.61547">
        <ele>133</ele>
        <time>2013-04-21T07:56:35Z</time>
      </trkpt>
      <trkpt lat="49.50812" lon="0.6155">
        <ele>133</ele>
        <time>2013-04-21T07:56:40Z</time>
      </trkpt>
      <trkpt lat="49.50805" lon="0.61552">
        <ele>134</ele>
        <time>2013-04-21T07:56:45Z</time>
      </trkpt>
      <trkpt lat="49.50799" lon="0.61554">
        <ele>134</ele>
        <time>2013-04-21T07:56:50Z</time>
      </trkpt>
      <trkpt lat="49.50792" lon="0.61555">
        <ele>134</ele>
        <time>2013-04-21T07:56:55Z</time>
      </trkpt>
      <trkpt lat="49.50785" lon="0.61557">
        <ele>134</ele>
        <time>2013-04-21T07:57:00Z</time>
      </trkpt>
      <trkpt lat="49.50779" lon="0.61558">
        <ele>134</ele>
        <time>2013-04-21T07:57:05Z</time>
      </trkpt>
      <trkpt lat="49.50773" lon="0.61559">
        <ele>134</ele>
        <time>2013-04-21T07:57:10Z</time>
      </trkpt>
      <trkpt lat="49.50766" lon="0.6156">
        <ele>134</ele>
        <time>2013-04-21T07:57:15Z</time>
      </trkpt>
      <trkpt lat="49.5076" lon="0.61561">
        <ele>134</ele>
        <time>2013-04-21T07:57:20Z</time>
      </trkpt>
      <trkpt lat="49.50753" lon="0.61562">
        <ele>134</ele>
        <time>2013-04-21T07:57:25Z</time>
      </trkpt>
      <trkpt lat="49.50747" lon="0.61564">
        <ele>135</ele>
        <time>2013-04-21T07:57:30Z</time>
      </trkpt>
      <trkpt lat="49.5074" lon="0.61564">
        <ele>135</ele>
        <time>2013-04-21T07:57:35Z</time>
      </trkpt>
      <trkpt lat="49.50734" lon="0.61563">
        <ele>134</ele>
        <time>2013-04-21T07:57:40Z</time>
      </trkpt>
      <trkpt lat="49.50728" lon="0.61563">
        <ele>134</ele>
        <time>2013-04-21T07:57:45Z</time>
      </trkpt>
      <trkpt lat="49.50721" lon="0.61564">
        <ele>134</ele>
        <time>2013-04-21T07:57:50Z</time>
      </trkpt>
      <trkpt lat="49.50714" lon="0.61564">
        <ele>134</ele>
        <time>2013-04-21T07:57:55Z</time>
      </trkpt>
      <trkpt lat="49.50708" lon="0.61564">
        <ele>134</ele>
        <time>2013-04-21T07:58:00Z</time>
      </trkpt>
      <trkpt lat="49.50701" lon="0.61564">
        <ele>134</ele>
        <time>2013-04-21T07:58:06Z</time>
      </trkpt>
      <trkpt lat="49.50695" lon="0.61563">
        <ele>134</ele>
        <time>2013-04-21T07:58:11Z</time>
      </trkpt>
      <trkpt lat="49.50688" lon="0.61562">
        <ele>134</ele>
        <time>2013-04-21T07:58:16Z</time>
      </trkpt>
      <trkpt lat="49.50681" lon="0.61562">
        <ele>135</ele>
        <time>2013-04-21T07:58:21Z</time>
      </trkpt>
      <trkpt lat="49.50675" lon="0.61561">
        <ele>135</ele>
        <time>2013-04-21T07:58:26Z</time>
      </trkpt>
      <trkpt lat="49.50669" lon="0.6156">
        <ele>135</ele>
        <time>2013-04-21T07:58:32Z</time>
      </trkpt>
      <trkpt lat="49.50666" lon="0.61565">
        <ele>134</ele>
        <time>2013-04-21T07:58:38Z</time>
      </trkpt>
      <trkpt lat="49.50663" lon="0.6158">
        <ele>135</ele>
        <time>2013-04-21T07:58:47Z</time>
      </trkpt>
      <trkpt lat="49.50663" lon="0.61587">
        <ele>135</ele>
        <time>2013-04-21T07:58:52Z</time>
      </trkpt>
      <trkpt lat="49.50663" lon="0.61596">
        <ele>135</ele>
        <time>2013-04-21T07:58:57Z</time>
      </trkpt>
      <trkpt lat="49.50663" lon="0.61605">
        <ele>135</ele>
        <time>2013-04-21T07:59:02Z</time>
      </trkpt>
      <trkpt lat="49.50663" lon="0.61615">
        <ele>135</ele>
        <time>2013-04-21T07:59:07Z</time>
      </trkpt>
      <trkpt lat="49.50663" lon="0.61625">
        <ele>135</ele>
        <time>2013-04-21T07:59:12Z</time>
      </trkpt>
      <trkpt lat="49.50662" lon="0.61634">
        <ele>135</ele>
        <time>2013-04-21T07:59:17Z</time>
      </trkpt>
      <trkpt lat="49.50658" lon="0.61655">
        <ele>136</ele>
        <time>2013-04-21T07:59:29Z</time>
      </trkpt>
      <trkpt lat="49.50659" lon="0.61664">
        <ele>136</ele>
        <time>2013-04-21T07:59:34Z</time>
      </trkpt>
      <trkpt lat="49.50659" lon="0.61673">
        <ele>137</ele>
        <time>2013-04-21T07:59:39Z</time>
      </trkpt>
      <trkpt lat="49.50659" lon="0.61683">
        <ele>136</ele>
        <time>2013-04-21T07:59:44Z</time>
      </trkpt>
      <trkpt lat="49.50658" lon="0.61693">
        <ele>136</ele>
        <time>2013-04-21T07:59:49Z</time>
      </trkpt>
      <trkpt lat="49.50659" lon="0.61704">
        <ele>136</ele>
        <time>2013-04-21T07:59:54Z</time>
      </trkpt>
      <trkpt lat="49.50658" lon="0.61715">
        <ele>137</ele>
        <time>2013-04-21T07:59:59Z</time>
      </trkpt>
      <trkpt lat="49.50659" lon="0.61724">
        <ele>137</ele>
        <time>2013-04-21T08:00:05Z</time>
      </trkpt>
      <trkpt lat="49.5066" lon="0.61734">
        <ele>137</ele>
        <time>2013-04-21T08:00:10Z</time>
      </trkpt>
      <trkpt lat="49.50659" lon="0.61743">
        <ele>138</ele>
        <time>2013-04-21T08:00:15Z</time>
      </trkpt>
      <trkpt lat="49.50659" lon="0.61753">
        <ele>138</ele>
        <time>2013-04-21T08:00:20Z</time>
      </trkpt>
      <trkpt lat="49.50659" lon="0.61763">
        <ele>138</ele>
        <time>2013-04-21T08:00:25Z</time>
      </trkpt>
      <trkpt lat="49.50658" lon="0.61774">
        <ele>138</ele>
        <time>2013-04-21T08:00:30Z</time>
      </trkpt>
      <trkpt lat="49.50658" lon="0.61785">
        <ele>138</ele>
        <time>2013-04-21T08:00:35Z</time>
      </trkpt>
      <trkpt lat="49.50659" lon="0.61794">
        <ele>138</ele>
        <time>2013-04-21T08:00:40Z</time>
      </trkpt>
      <trkpt lat="49.50658" lon="0.61804">
        <ele>138</ele>
        <time>2013-04-21T08:00:45Z</time>
      </trkpt>
      <trkpt lat="49.50658" lon="0.61813">
        <ele>138</ele>
        <time>2013-04-21T08:00:50Z</time>
      </trkpt>
      <trkpt lat="49.50659" lon="0.61823">
        <ele>139</ele>
        <time>2013-04-21T08:00:55Z</time>
      </trkpt>
      <trkpt lat="49.50657" lon="0.61835">
        <ele>139</ele>
        <time>2013-04-21T08:01:02Z</time>
      </trkpt>
      <trkpt lat="49.50658" lon="0.61847">
        <ele>139</ele>
        <time>2013-04-21T08:01:07Z</time>
      </trkpt>
      <trkpt lat="49.50658" lon="0.61856">
        <ele>139</ele>
        <time>2013-04-21T08:01:12Z</time>
      </trkpt>
      <trkpt lat="49.50656" lon="0.61867">
        <ele>139</ele>
        <time>2013-04-21T08:01:18Z</time>
      </trkpt>
      <trkpt lat="49.50655" lon="0.61877">
        <ele>139</ele>
        <time>2013-04-21T08:01:23Z</time>
      </trkpt>
      <trkpt lat="49.50656" lon="0.61886">
        <ele>139</ele>
        <time>2013-04-21T08:01:29Z</time>
      </trkpt>
      <trkpt lat="49.50656" lon="0.61896">
        <ele>139</ele>
        <time>2013-04-21T08:01:34Z</time>
      </trkpt>
      <trkpt lat="49.50657" lon="0.61906">
        <ele>139</ele>
        <time>2013-04-21T08:01:39Z</time>
      </trkpt>
      <trkpt lat="49.50659" lon="0.61916">
        <ele>140</ele>
        <time>2013-04-21T08:01:46Z</time>
      </trkpt>
      <trkpt lat="49.50667" lon="0.6192">
        <ele>140</ele>
        <time>2013-04-21T08:01:53Z</time>
      </trkpt>
      <trkpt lat="49.50673" lon="0.61923">
        <ele>140</ele>
        <time>2013-04-21T08:01:58Z</time>
      </trkpt>
      <trkpt lat="49.50678" lon="0.61924">
        <ele>140</ele>
        <time>2013-04-21T08:02:04Z</time>
      </trkpt>
      <trkpt lat="49.50686" lon="0.61923">
        <ele>140</ele>
        <time>2013-04-21T08:02:09Z</time>
      </trkpt>
      <trkpt lat="49.50693" lon="0.6192">
        <ele>140</ele>
        <time>2013-04-21T08:02:16Z</time>
      </trkpt>
      <trkpt lat="49.50701" lon="0.61919">
        <ele>140</ele>
        <time>2013-04-21T08:02:21Z</time>
      </trkpt>
      <trkpt lat="49.50705" lon="0.61924">
        <ele>140</ele>
        <time>2013-04-21T08:02:27Z</time>
      </trkpt>
      <trkpt lat="49.50707" lon="0.61935">
        <ele>140</ele>
        <time>2013-04-21T08:02:33Z</time>
      </trkpt>
      <trkpt lat="49.50709" lon="0.61946">
        <ele>139</ele>
        <time>2013-04-21T08:02:39Z</time>
      </trkpt>
      <trkpt lat="49.50712" lon="0.61958">
        <ele>139</ele>
        <time>2013-04-21T08:02:45Z</time>
      </trkpt>
      <trkpt lat="49.50713" lon="0.61968">
        <ele>140</ele>
        <time>2013-04-21T08:02:50Z</time>
      </trkpt>
      <trkpt lat="49.50713" lon="0.6198">
        <ele>140</ele>
        <time>2013-04-21T08:02:56Z</time>
      </trkpt>
      <trkpt lat="49.50714" lon="0.61993">
        <ele>140</ele>
        <time>2013-04-21T08:03:01Z</time>
      </trkpt>
      <trkpt lat="49.50715" lon="0.62004">
        <ele>139</ele>
        <time>2013-04-21T08:03:06Z</time>
      </trkpt>
      <trkpt lat="49.50716" lon="0.62014">
        <ele>139</ele>
        <time>2013-04-21T08:03:11Z</time>
      </trkpt>
      <trkpt lat="49.50717" lon="0.62025">
        <ele>139</ele>
        <time>2013-04-21T08:03:16Z</time>
      </trkpt>
      <trkpt lat="49.50718" lon="0.62035">
        <ele>139</ele>
        <time>2013-04-21T08:03:21Z</time>
      </trkpt>
      <trkpt lat="49.50718" lon="0.62046">
        <ele>139</ele>
        <time>2013-04-21T08:03:26Z</time>
      </trkpt>
      <trkpt lat="49.50719" lon="0.62056">
        <ele>139</ele>
        <time>2013-04-21T08:03:31Z</time>
      </trkpt>
      <trkpt lat="49.50719" lon="0.62066">
        <ele>139</ele>
        <time>2013-04-21T08:03:36Z</time>
      </trkpt>
      <trkpt lat="49.50719" lon="0.62076">
        <ele>139</ele>
        <time>2013-04-21T08:03:41Z</time>
      </trkpt>
      <trkpt lat="49.50719" lon="0.62086">
        <ele>138</ele>
        <time>2013-04-21T08:03:46Z</time>
      </trkpt>
      <trkpt lat="49.50719" lon="0.62097">
        <ele>138</ele>
        <time>2013-04-21T08:03:52Z</time>
      </trkpt>
      <trkpt lat="49.50719" lon="0.62109">
        <ele>138</ele>
        <time>2013-04-21T08:03:57Z</time>
      </trkpt>
      <trkpt lat="49.50719" lon="0.6212">
        <ele>138</ele>
        <time>2013-04-21T08:04:02Z</time>
      </trkpt>
      <trkpt lat="49.50719" lon="0.6213">
        <ele>138</ele>
        <time>2013-04-21T08:04:07Z</time>
      </trkpt>
      <trkpt lat="49.50719" lon="0.62141">
        <ele>138</ele>
        <time>2013-04-21T08:04:12Z</time>
      </trkpt>
      <trkpt lat="49.50718" lon="0.62152">
        <ele>138</ele>
        <time>2013-04-21T08:04:17Z</time>
      </trkpt>
      <trkpt lat="49.50718" lon="0.62163">
        <ele>138</ele>
        <time>2013-04-21T08:04:22Z</time>
      </trkpt>
      <trkpt lat="49.50717" lon="0.62173">
        <ele>138</ele>
        <time>2013-04-21T08:04:27Z</time>
      </trkpt>
      <trkpt lat="49.50717" lon="0.62183">
        <ele>138</ele>
        <time>2013-04-21T08:04:32Z</time>
      </trkpt>
      <trkpt lat="49.50717" lon="0.62193">
        <ele>138</ele>
        <time>2013-04-21T08:04:38Z</time>
      </trkpt>
      <trkpt lat="49.50718" lon="0.62205">
        <ele>138</ele>
        <time>2013-04-21T08:04:43Z</time>
      </trkpt>
      <trkpt lat="49.50717" lon="0.62216">
        <ele>138</ele>
        <time>2013-04-21T08:04:48Z</time>
      </trkpt>
      <trkpt lat="49.50716" lon="0.62226">
        <ele>138</ele>
        <time>2013-04-21T08:04:53Z</time>
      </trkpt>
      <trkpt lat="49.50716" lon="0.62235">
        <ele>138</ele>
        <time>2013-04-21T08:04:58Z</time>
      </trkpt>
      <trkpt lat="49.50715" lon="0.62246">
        <ele>138</ele>
        <time>2013-04-21T08:05:03Z</time>
      </trkpt>
      <trkpt lat="49.50715" lon="0.62255">
        <ele>138</ele>
        <time>2013-04-21T08:05:08Z</time>
      </trkpt>
      <trkpt lat="49.50714" lon="0.62266">
        <ele>138</ele>
        <time>2013-04-21T08:05:13Z</time>
      </trkpt>
      <trkpt lat="49.50713" lon="0.62277">
        <ele>138</ele>
        <time>2013-04-21T08:05:18Z</time>
      </trkpt>
      <trkpt lat="49.50712" lon="0.62287">
        <ele>138</ele>
        <time>2013-04-21T08:05:23Z</time>
      </trkpt>
      <trkpt lat="49.50711" lon="0.62297">
        <ele>137</ele>
        <time>2013-04-21T08:05:28Z</time>
      </trkpt>
      <trkpt lat="49.50709" lon="0.62307">
        <ele>137</ele>
        <time>2013-04-21T08:05:33Z</time>
      </trkpt>
      <trkpt lat="49.50708" lon="0.62318">
        <ele>137</ele>
        <time>2013-04-21T08:05:38Z</time>
      </trkpt>
      <trkpt lat="49.50706" lon="0.62327">
        <ele>137</ele>
        <time>2013-04-21T08:05:43Z</time>
      </trkpt>
      <trkpt lat="49.50704" lon="0.62337">
        <ele>137</ele>
        <time>2013-04-21T08:05:48Z</time>
      </trkpt>
      <trkpt lat="49.50702" lon="0.62347">
        <ele>137</ele>
        <time>2013-04-21T08:05:53Z</time>
      </trkpt>
      <trkpt lat="49.507" lon="0.62357">
        <ele>137</ele>
        <time>2013-04-21T08:05:58Z</time>
      </trkpt>
      <trkpt lat="49.50698" lon="0.62367">
        <ele>137</ele>
        <time>2013-04-21T08:06:03Z</time>
      </trkpt>
      <trkpt lat="49.50695" lon="0.62376">
        <ele>137</ele>
        <time>2013-04-21T08:06:08Z</time>
      </trkpt>
      <trkpt lat="49.50692" lon="0.62386">
        <ele>137</ele>
        <time>2013-04-21T08:06:13Z</time>
      </trkpt>
      <trkpt lat="49.5069" lon="0.62396">
        <ele>137</ele>
        <time>2013-04-21T08:06:18Z</time>
      </trkpt>
      <trkpt lat="49.50686" lon="0.62406">
        <ele>137</ele>
        <time>2013-04-21T08:06:23Z</time>
      </trkpt>
      <trkpt lat="49.50684" lon="0.62416">
        <ele>137</ele>
        <time>2013-04-21T08:06:28Z</time>
      </trkpt>
      <trkpt lat="49.50681" lon="0.62426">
        <ele>137</ele>
        <time>2013-04-21T08:06:33Z</time>
      </trkpt>
      <trkpt lat="49.50679" lon="0.62436">
        <ele>137</ele>
        <time>2013-04-21T08:06:38Z</time>
      </trkpt>
      <trkpt lat="49.50676" lon="0.62447">
        <ele>137</ele>
        <time>2013-04-21T08:06:43Z</time>
      </trkpt>
      <trkpt lat="49.50674" lon="0.62457">
        <ele>137</ele>
        <time>2013-04-21T08:06:48Z</time>
      </trkpt>
      <trkpt lat="49.50671" lon="0.62467">
        <ele>137</ele>
        <time>2013-04-21T08:06:53Z</time>
      </trkpt>
      <trkpt lat="49.50669" lon="0.62477">
        <ele>137</ele>
        <time>2013-04-21T08:06:58Z</time>
      </trkpt>
      <trkpt lat="49.50667" lon="0.62487">
        <ele>136</ele>
        <time>2013-04-21T08:07:03Z</time>
      </trkpt>
      <trkpt lat="49.50665" lon="0.62498">
        <ele>136</ele>
        <time>2013-04-21T08:07:08Z</time>
      </trkpt>
      <trkpt lat="49.50662" lon="0.62508">
        <ele>134</ele>
        <time>2013-04-21T08:07:13Z</time>
      </trkpt>
      <trkpt lat="49.5066" lon="0.62519">
        <ele>133</ele>
        <time>2013-04-21T08:07:18Z</time>
      </trkpt>
      <trkpt lat="49.50658" lon="0.62528">
        <ele>133</ele>
        <time>2013-04-21T08:07:23Z</time>
      </trkpt>
      <trkpt lat="49.50656" lon="0.62538">
        <ele>132</ele>
        <time>2013-04-21T08:07:28Z</time>
      </trkpt>
      <trkpt lat="49.50654" lon="0.62549">
        <ele>132</ele>
        <time>2013-04-21T08:07:33Z</time>
      </trkpt>
      <trkpt lat="49.50651" lon="0.62559">
        <ele>132</ele>
        <time>2013-04-21T08:07:38Z</time>
      </trkpt>
      <trkpt lat="49.50649" lon="0.62569">
        <ele>133</ele>
        <time>2013-04-21T08:07:43Z</time>
      </trkpt>
      <trkpt lat="49.50646" lon="0.62578">
        <ele>133</ele>
        <time>2013-04-21T08:07:48Z</time>
      </trkpt>
      <trkpt lat="49.50643" lon="0.62588">
        <ele>132</ele>
        <time>2013-04-21T08:07:53Z</time>
      </trkpt>
      <trkpt lat="49.50641" lon="0.62598">
        <ele>132</ele>
        <time>2013-04-21T08:07:58Z</time>
      </trkpt>
      <trkpt lat="49.50639" lon="0.62608">
        <ele>131</ele>
        <time>2013-04-21T08:08:03Z</time>
      </trkpt>
      <trkpt lat="49.50638" lon="0.62618">
        <ele>131</ele>
        <time>2013-04-21T08:08:08Z</time>
      </trkpt>
      <trkpt lat="49.50636" lon="0.62629">
        <ele>131</ele>
        <time>2013-04-21T08:08:14Z</time>
      </trkpt>
      <trkpt lat="49.50634" lon="0.62636">
        <ele>131</ele>
        <time>2013-04-21T08:08:19Z</time>
      </trkpt>
      <trkpt lat="49.50629" lon="0.62641">
        <ele>131</ele>
        <time>2013-04-21T08:08:24Z</time>
      </trkpt>
      <trkpt lat="49.50623" lon="0.62644">
        <ele>131</ele>
        <time>2013-04-21T08:08:29Z</time>
      </trkpt>
      <trkpt lat="49.50618" lon="0.62651">
        <ele>130</ele>
        <time>2013-04-21T08:08:34Z</time>
      </trkpt>
      <trkpt lat="49.50612" lon="0.62657">
        <ele>130</ele>
        <time>2013-04-21T08:08:40Z</time>
      </trkpt>
      <trkpt lat="49.50605" lon="0.62665">
        <ele>129</ele>
        <time>2013-04-21T08:08:46Z</time>
      </trkpt>
      <trkpt lat="49.506" lon="0.62671">
        <ele>130</ele>
        <time>2013-04-21T08:08:51Z</time>
      </trkpt>
      <trkpt lat="49.50596" lon="0.62678">
        <ele>130</ele>
        <time>2013-04-21T08:08:56Z</time>
      </trkpt>
      <trkpt lat="49.50591" lon="0.62686">
        <ele>130</ele>
        <time>2013-04-21T08:09:02Z</time>
      </trkpt>
      <trkpt lat="49.50589" lon="0.62685">
        <ele>130</ele>
        <time>2013-04-21T08:09:07Z</time>
      </trkpt>
      <trkpt lat="49.50587" lon="0.62695">
        <ele>130</ele>
        <time>2013-04-21T08:09:12Z</time>
      </trkpt>
      <trkpt lat="49.50583" lon="0.62703">
        <ele>125</ele>
        <time>2013-04-21T08:09:18Z</time>
      </trkpt>
      <trkpt lat="49.50578" lon="0.6271">
        <ele>125</ele>
        <time>2013-04-21T08:09:24Z</time>
      </trkpt>
      <trkpt lat="49.50573" lon="0.62717">
        <ele>125</ele>
        <time>2013-04-21T08:09:30Z</time>
      </trkpt>
      <trkpt lat="49.50568" lon="0.62725">
        <ele>126</ele>
        <time>2013-04-21T08:09:36Z</time>
      </trkpt>
      <trkpt lat="49.50562" lon="0.62732">
        <ele>126</ele>
        <time>2013-04-21T08:09:41Z</time>
      </trkpt>
      <trkpt lat="49.50558" lon="0.6274">
        <ele>125</ele>
        <time>2013-04-21T08:09:46Z</time>
      </trkpt>
      <trkpt lat="49.50553" lon="0.62749">
        <ele>125</ele>
        <time>2013-04-21T08:09:52Z</time>
      </trkpt>
      <trkpt lat="49.50547" lon="0.62757">
        <ele>126</ele>
        <time>2013-04-21T08:09:58Z</time>
      </trkpt>
      <trkpt lat="49.50542" lon="0.62761">
        <ele>126</ele>
        <time>2013-04-21T08:10:03Z</time>
      </trkpt>
      <trkpt lat="49.50535" lon="0.62764">
        <ele>125</ele>
        <time>2013-04-21T08:10:08Z</time>
      </trkpt>
      <trkpt lat="49.50527" lon="0.62766">
        <ele>124</ele>
        <time>2013-04-21T08:10:13Z</time>
      </trkpt>
      <trkpt lat="49.50518" lon="0.62778">
        <ele>124</ele>
        <time>2013-04-21T08:10:18Z</time>
      </trkpt>
      <trkpt lat="49.50514" lon="0.62787">
        <ele>124</ele>
        <time>2013-04-21T08:10:23Z</time>
      </trkpt>
      <trkpt lat="49.50508" lon="0.62792">
        <ele>124</ele>
        <time>2013-04-21T08:10:28Z</time>
      </trkpt>
      <trkpt lat="49.50504" lon="0.62799">
        <ele>124</ele>
        <time>2013-04-21T08:10:33Z</time>
      </trkpt>
      <trkpt lat="49.50501" lon="0.62808">
        <ele>124</ele>
        <time>2013-04-21T08:10:38Z</time>
      </trkpt>
      <trkpt lat="49.50496" lon="0.62817">
        <ele>119</ele>
        <time>2013-04-21T08:10:44Z</time>
      </trkpt>
      <trkpt lat="49.50494" lon="0.62822">
        <ele>120</ele>
        <time>2013-04-21T08:10:49Z</time>
      </trkpt>
      <trkpt lat="49.50489" lon="0.62829">
        <ele>120</ele>
        <time>2013-04-21T08:10:54Z</time>
      </trkpt>
      <trkpt lat="49.50483" lon="0.62835">
        <ele>121</ele>
        <time>2013-04-21T08:11:00Z</time>
      </trkpt>
      <trkpt lat="49.50476" lon="0.62843">
        <ele>120</ele>
        <time>2013-04-21T08:11:06Z</time>
      </trkpt>
      <trkpt lat="49.50471" lon="0.62851">
        <ele>119</ele>
        <time>2013-04-21T08:11:11Z</time>
      </trkpt>
      <trkpt lat="49.50464" lon="0.62859">
        <ele>119</ele>
        <time>2013-04-21T08:11:16Z</time>
      </trkpt>
      <trkpt lat="49.50456" lon="0.62868">
        <ele>118</ele>
        <time>2013-04-21T08:11:22Z</time>
      </trkpt>
      <trkpt lat="49.50449" lon="0.62873">
        <ele>118</ele>
        <time>2013-04-21T08:11:27Z</time>
      </trkpt>
      <trkpt lat="49.50443" lon="0.62876">
        <ele>118</ele>
        <time>2013-04-21T08:11:32Z</time>
      </trkpt>
      <trkpt lat="49.50437" lon="0.6288">
        <ele>117</ele>
        <time>2013-04-21T08:11:37Z</time>
      </trkpt>
      <trkpt lat="49.5043" lon="0.62886">
        <ele>117</ele>
        <time>2013-04-21T08:11:42Z</time>
      </trkpt>
      <trkpt lat="49.50424" lon="0.62893">
        <ele>117</ele>
        <time>2013-04-21T08:11:47Z</time>
      </trkpt>
      <trkpt lat="49.50418" lon="0.62899">
        <ele>116</ele>
        <time>2013-04-21T08:11:52Z</time>
      </trkpt>
      <trkpt lat="49.50412" lon="0.6291">
        <ele>113</ele>
        <time>2013-04-21T08:11:58Z</time>
      </trkpt>
      <trkpt lat="49.50406" lon="0.62916">
        <ele>112</ele>
        <time>2013-04-21T08:12:03Z</time>
      </trkpt>
      <trkpt lat="49.50399" lon="0.62922">
        <ele>111</ele>
        <time>2013-04-21T08:12:09Z</time>
      </trkpt>
      <trkpt lat="49.50396" lon="0.62931">
        <ele>110</ele>
        <time>2013-04-21T08:12:14Z</time>
      </trkpt>
      <trkpt lat="49.50397" lon="0.62941">
        <ele>110</ele>
        <time>2013-04-21T08:12:19Z</time>
      </trkpt>
      <trkpt lat="49.50398" lon="0.62954">
        <ele>110</ele>
        <time>2013-04-21T08:12:25Z</time>
      </trkpt>
      <trkpt lat="49.50399" lon="0.62965">
        <ele>110</ele>
        <time>2013-04-21T08:12:30Z</time>
      </trkpt>
      <trkpt lat="49.504" lon="0.62973">
        <ele>110</ele>
        <time>2013-04-21T08:12:35Z</time>
      </trkpt>
      <trkpt lat="49.50402" lon="0.62982">
        <ele>111</ele>
        <time>2013-04-21T08:12:40Z</time>
      </trkpt>
      <trkpt lat="49.50402" lon="0.62994">
        <ele>112</ele>
        <time>2013-04-21T08:12:45Z</time>
      </trkpt>
      <trkpt lat="49.50405" lon="0.63003">
        <ele>114</ele>
        <time>2013-04-21T08:12:50Z</time>
      </trkpt>
      <trkpt lat="49.50407" lon="0.63011">
        <ele>114</ele>
        <time>2013-04-21T08:12:55Z</time>
      </trkpt>
      <trkpt lat="49.5041" lon="0.6302">
        <ele>113</ele>
        <time>2013-04-21T08:13:00Z</time>
      </trkpt>
      <trkpt lat="49.50412" lon="0.63029">
        <ele>113</ele>
        <time>2013-04-21T08:13:05Z</time>
      </trkpt>
      <trkpt lat="49.50412" lon="0.63042">
        <ele>112</ele>
        <time>2013-04-21T08:13:11Z</time>
      </trkpt>
      <trkpt lat="49.50415" lon="0.63054">
        <ele>113</ele>
        <time>2013-04-21T08:13:16Z</time>
      </trkpt>
      <trkpt lat="49.50417" lon="0.63064">
        <ele>114</ele>
        <time>2013-04-21T08:13:21Z</time>
      </trkpt>
      <trkpt lat="49.50418" lon="0.63076">
        <ele>120</ele>
        <time>2013-04-21T08:13:26Z</time>
      </trkpt>
      <trkpt lat="49.50422" lon="0.63085">
        <ele>120</ele>
        <time>2013-04-21T08:13:31Z</time>
      </trkpt>
      <trkpt lat="49.50425" lon="0.63096">
        <ele>121</ele>
        <time>2013-04-21T08:13:36Z</time>
      </trkpt>
      <trkpt lat="49.50428" lon="0.63105">
        <ele>121</ele>
        <time>2013-04-21T08:13:41Z</time>
      </trkpt>
      <trkpt lat="49.5043" lon="0.63115">
        <ele>122</ele>
        <time>2013-04-21T08:13:46Z</time>
      </trkpt>
      <trkpt lat="49.5043" lon="0.63127">
        <ele>122</ele>
        <time>2013-04-21T08:13:51Z</time>
      </trkpt>
      <trkpt lat="49.5043" lon="0.63138">
        <ele>122</ele>
        <time>2013-04-21T08:13:56Z</time>
      </trkpt>
      <trkpt lat="49.5043" lon="0.6315">
        <ele>121</ele>
        <time>2013-04-21T08:14:02Z</time>
      </trkpt>
      <trkpt lat="49.50431" lon="0.63163">
        <ele>121</ele>
        <time>2013-04-21T08:14:07Z</time>
      </trkpt>
      <trkpt lat="49.50432" lon="0.63174">
        <ele>119</ele>
        <time>2013-04-21T08:14:12Z</time>
      </trkpt>
      <trkpt lat="49.50433" lon="0.63184">
        <ele>118</ele>
        <time>2013-04-21T08:14:17Z</time>
      </trkpt>
      <trkpt lat="49.50436" lon="0.63194">
        <ele>118</ele>
        <time>2013-04-21T08:14:22Z</time>
      </trkpt>
      <trkpt lat="49.50439" lon="0.63203">
        <ele>118</ele>
        <time>2013-04-21T08:14:27Z</time>
      </trkpt>
      <trkpt lat="49.50441" lon="0.63212">
        <ele>117</ele>
        <time>2013-04-21T08:14:32Z</time>
      </trkpt>
      <trkpt lat="49.50444" lon="0.63223">
        <ele>117</ele>
        <time>2013-04-21T08:14:38Z</time>
      </trkpt>
      <trkpt lat="49.50448" lon="0.6323">
        <ele>116</ele>
        <time>2013-04-21T08:14:43Z</time>
      </trkpt>
      <trkpt lat="49.5045" lon="0.63239">
        <ele>116</ele>
        <time>2013-04-21T08:14:48Z</time>
      </trkpt>
      <trkpt lat="49.50452" lon="0.63247">
        <ele>116</ele>
        <time>2013-04-21T08:14:53Z</time>
      </trkpt>
      <trkpt lat="49.50457" lon="0.63257">
        <ele>112</ele>
        <time>2013-04-21T08:14:59Z</time>
      </trkpt>
      <trkpt lat="49.50461" lon="0.63266">
        <ele>112</ele>
        <time>2013-04-21T08:15:04Z</time>
      </trkpt>
      <trkpt lat="49.50464" lon="0.63275">
        <ele>112</ele>
        <time>2013-04-21T08:15:09Z</time>
      </trkpt>
      <trkpt lat="49.50466" lon="0.63285">
        <ele>112</ele>
        <time>2013-04-21T08:15:14Z</time>
      </trkpt>
      <trkpt lat="49.50468" lon="0.63296">
        <ele>111</ele>
        <time>2013-04-21T08:15:19Z</time>
      </trkpt>
      <trkpt lat="49.50471" lon="0.63307">
        <ele>111</ele>
        <time>2013-04-21T08:15:25Z</time>
      </trkpt>
      <trkpt lat="49.50472" lon="0.63318">
        <ele>111</ele>
        <time>2013-04-21T08:15:30Z</time>
      </trkpt>
      <trkpt lat="49.50476" lon="0.63327">
        <ele>111</ele>
        <time>2013-04-21T08:15:36Z</time>
      </trkpt>
      <trkpt lat="49.50478" lon="0.63337">
        <ele>110</ele>
        <time>2013-04-21T08:15:41Z</time>
      </trkpt>
      <trkpt lat="49.50482" lon="0.63347">
        <ele>110</ele>
        <time>2013-04-21T08:15:46Z</time>
      </trkpt>
      <trkpt lat="49.50484" lon="0.63359">
        <ele>109</ele>
        <time>2013-04-21T08:15:51Z</time>
      </trkpt>
      <trkpt lat="49.50489" lon="0.6337">
        <ele>109</ele>
        <time>2013-04-21T08:15:57Z</time>
      </trkpt>
      <trkpt lat="49.50493" lon="0.63378">
        <ele>109</ele>
        <time>2013-04-21T08:16:02Z</time>
      </trkpt>
      <trkpt lat="49.50497" lon="0.63388">
        <ele>109</ele>
        <time>2013-04-21T08:16:07Z</time>
      </trkpt>
      <trkpt lat="49.50499" lon="0.63399">
        <ele>109</ele>
        <time>2013-04-21T08:16:13Z</time>
      </trkpt>
      <trkpt lat="49.50502" lon="0.63407">
        <ele>110</ele>
        <time>2013-04-21T08:16:18Z</time>
      </trkpt>
      <trkpt lat="49.50505" lon="0.63416">
        <ele>110</ele>
        <time>2013-04-21T08:16:23Z</time>
      </trkpt>
      <trkpt lat="49.50508" lon="0.63426">
        <ele>110</ele>
        <time>2013-04-21T08:16:29Z</time>
      </trkpt>
      <trkpt lat="49.50511" lon="0.63434">
        <ele>110</ele>
        <time>2013-04-21T08:16:34Z</time>
      </trkpt>
      <trkpt lat="49.50514" lon="0.63443">
        <ele>111</ele>
        <time>2013-04-21T08:16:39Z</time>
      </trkpt>
      <trkpt lat="49.50517" lon="0.63454">
        <ele>111</ele>
        <time>2013-04-21T08:16:45Z</time>
      </trkpt>
      <trkpt lat="49.50521" lon="0.63462">
        <ele>111</ele>
        <time>2013-04-21T08:16:50Z</time>
      </trkpt>
      <trkpt lat="49.50524" lon="0.6347">
        <ele>111</ele>
        <time>2013-04-21T08:16:55Z</time>
      </trkpt>
      <trkpt lat="49.50525" lon="0.63477">
        <ele>111</ele>
        <time>2013-04-21T08:17:00Z</time>
      </trkpt>
      <trkpt lat="49.50527" lon="0.63484">
        <ele>111</ele>
        <time>2013-04-21T08:17:06Z</time>
      </trkpt>
      <trkpt lat="49.50532" lon="0.63479">
        <ele>111</ele>
        <time>2013-04-21T08:17:17Z</time>
      </trkpt>
      <trkpt lat="49.50534" lon="0.63475">
        <ele>111</ele>
        <time>2013-04-21T08:17:22Z</time>
      </trkpt>
      <trkpt lat="49.50538" lon="0.63471">
        <ele>111</ele>
        <time>2013-04-21T08:17:28Z</time>
      </trkpt>
      <trkpt lat="49.50541" lon="0.63467">
        <ele>111</ele>
        <time>2013-04-21T08:17:38Z</time>
      </trkpt>
      <trkpt lat="49.50537" lon="0.63471">
        <ele>111</ele>
        <time>2013-04-21T08:17:44Z</time>
      </trkpt>
      <trkpt lat="49.50534" lon="0.63476">
        <ele>111</ele>
        <time>2013-04-21T08:17:49Z</time>
      </trkpt>
      <trkpt lat="49.50529" lon="0.63487">
        <ele>111</ele>
        <time>2013-04-21T08:17:55Z</time>
      </trkpt>
      <trkpt lat="49.50528" lon="0.63493">
        <ele>111</ele>
        <time>2013-04-21T08:18:01Z</time>
      </trkpt>
      <trkpt lat="49.50527" lon="0.63504">
        <ele>109</ele>
        <time>2013-04-21T08:18:37Z</time>
      </trkpt>
      <trkpt lat="49.5052" lon="0.63502">
        <ele>109</ele>
        <time>2013-04-21T08:18:42Z</time>
      </trkpt>
      <trkpt lat="49.50515" lon="0.63498">
        <ele>110</ele>
        <time>2013-04-21T08:18:47Z</time>
      </trkpt>
      <trkpt lat="49.50508" lon="0.63495">
        <ele>109</ele>
        <time>2013-04-21T08:18:53Z</time>
      </trkpt>
      <trkpt lat="49.50503" lon="0.63493">
        <ele>109</ele>
        <time>2013-04-21T08:18:58Z</time>
      </trkpt>
      <trkpt lat="49.50497" lon="0.6349">
        <ele>107</ele>
        <time>2013-04-21T08:19:03Z</time>
      </trkpt>
      <trkpt lat="49.50492" lon="0.63486">
        <ele>107</ele>
        <time>2013-04-21T08:19:08Z</time>
      </trkpt>
      <trkpt lat="49.50486" lon="0.63483">
        <ele>107</ele>
        <time>2013-04-21T08:19:14Z</time>
      </trkpt>
      <trkpt lat="49.50481" lon="0.63481">
        <ele>107</ele>
        <time>2013-04-21T08:19:19Z</time>
      </trkpt>
      <trkpt lat="49.50475" lon="0.63478">
        <ele>107</ele>
        <time>2013-04-21T08:19:24Z</time>
      </trkpt>
      <trkpt lat="49.5047" lon="0.63478">
        <ele>106</ele>
        <time>2013-04-21T08:19:29Z</time>
      </trkpt>
      <trkpt lat="49.50463" lon="0.63477">
        <ele>106</ele>
        <time>2013-04-21T08:19:35Z</time>
      </trkpt>
      <trkpt lat="49.50456" lon="0.63477">
        <ele>106</ele>
        <time>2013-04-21T08:19:40Z</time>
      </trkpt>
      <trkpt lat="49.5045" lon="0.63478">
        <ele>106</ele>
        <time>2013-04-21T08:19:45Z</time>
      </trkpt>
      <trkpt lat="49.50444" lon="0.63477">
        <ele>106</ele>
        <time>2013-04-21T08:19:50Z</time>
      </trkpt>
      <trkpt lat="49.50438" lon="0.63474">
        <ele>105</ele>
        <time>2013-04-21T08:19:55Z</time>
      </trkpt>
      <trkpt lat="49.50432" lon="0.63473">
        <ele>105</ele>
        <time>2013-04-21T08:20:00Z</time>
      </trkpt>
      <trkpt lat="49.50425" lon="0.6347">
        <ele>105</ele>
        <time>2013-04-21T08:20:06Z</time>
      </trkpt>
      <trkpt lat="49.5042" lon="0.63468">
        <ele>105</ele>
        <time>2013-04-21T08:20:12Z</time>
      </trkpt>
      <trkpt lat="49.50413" lon="0.63469">
        <ele>101</ele>
        <time>2013-04-21T08:20:18Z</time>
      </trkpt>
      <trkpt lat="49.50407" lon="0.63468">
        <ele>101</ele>
        <time>2013-04-21T08:20:23Z</time>
      </trkpt>
      <trkpt lat="49.50402" lon="0.63468">
        <ele>100</ele>
        <time>2013-04-21T08:20:28Z</time>
      </trkpt>
      <trkpt lat="49.50396" lon="0.63468">
        <ele>100</ele>
        <time>2013-04-21T08:20:34Z</time>
      </trkpt>
      <trkpt lat="49.50389" lon="0.63467">
        <ele>100</ele>
        <time>2013-04-21T08:20:40Z</time>
      </trkpt>
      <trkpt lat="49.50386" lon="0.63466">
        <ele>100</ele>
        <time>2013-04-21T08:20:45Z</time>
      </trkpt>
      <trkpt lat="49.5038" lon="0.63466">
        <ele>99</ele>
        <time>2013-04-21T08:20:50Z</time>
      </trkpt>
      <trkpt lat="49.50375" lon="0.63465">
        <ele>99</ele>
        <time>2013-04-21T08:20:56Z</time>
      </trkpt>
      <trkpt lat="49.5037" lon="0.63463">
        <ele>99</ele>
        <time>2013-04-21T08:21:01Z</time>
      </trkpt>
      <trkpt lat="49.50364" lon="0.63459">
        <ele>98</ele>
        <time>2013-04-21T08:21:06Z</time>
      </trkpt>
      <trkpt lat="49.50358" lon="0.63462">
        <ele>98</ele>
        <time>2013-04-21T08:21:11Z</time>
      </trkpt>
      <trkpt lat="49.50352" lon="0.63462">
        <ele>98</ele>
        <time>2013-04-21T08:21:17Z</time>
      </trkpt>
      <trkpt lat="49.50346" lon="0.63461">
        <ele>97</ele>
        <time>2013-04-21T08:21:23Z</time>
      </trkpt>
      <trkpt lat="49.5034" lon="0.63463">
        <ele>97</ele>
        <time>2013-04-21T08:21:29Z</time>
      </trkpt>
      <trkpt lat="49.50333" lon="0.63466">
        <ele>97</ele>
        <time>2013-04-21T08:21:35Z</time>
      </trkpt>
      <trkpt lat="49.50328" lon="0.6347">
        <ele>90</ele>
        <time>2013-04-21T08:21:40Z</time>
      </trkpt>
      <trkpt lat="49.50322" lon="0.63473">
        <ele>90</ele>
        <time>2013-04-21T08:21:46Z</time>
      </trkpt>
      <trkpt lat="49.50317" lon="0.63475">
        <ele>90</ele>
        <time>2013-04-21T08:21:52Z</time>
      </trkpt>
      <trkpt lat="49.50308" lon="0.63477">
        <ele>90</ele>
        <time>2013-04-21T08:21:59Z</time>
      </trkpt>
      <trkpt lat="49.50303" lon="0.6348">
        <ele>89</ele>
        <time>2013-04-21T08:22:05Z</time>
      </trkpt>
      <trkpt lat="49.50297" lon="0.63483">
        <ele>89</ele>
        <time>2013-04-21T08:22:11Z</time>
      </trkpt>
      <trkpt lat="49.50292" lon="0.63485">
        <ele>89</ele>
        <time>2013-04-21T08:22:17Z</time>
      </trkpt>
      <trkpt lat="49.50286" lon="0.63488">
        <ele>88</ele>
        <time>2013-04-21T08:22:23Z</time>
      </trkpt>
      <trkpt lat="49.50281" lon="0.63491">
        <ele>88</ele>
        <time>2013-04-21T08:22:29Z</time>
      </trkpt>
      <trkpt lat="49.50275" lon="0.63494">
        <ele>87</ele>
        <time>2013-04-21T08:22:35Z</time>
      </trkpt>
      <trkpt lat="49.50269" lon="0.63497">
        <ele>87</ele>
        <time>2013-04-21T08:22:41Z</time>
      </trkpt>
      <trkpt lat="49.50263" lon="0.635">
        <ele>87</ele>
        <time>2013-04-21T08:22:47Z</time>
      </trkpt>
      <trkpt lat="49.50258" lon="0.63503">
        <ele>86</ele>
        <time>2013-04-21T08:22:52Z</time>
      </trkpt>
      <trkpt lat="49.50252" lon="0.63503">
        <ele>85</ele>
        <time>2013-04-21T08:22:58Z</time>
      </trkpt>
      <trkpt lat="49.50246" lon="0.63505">
        <ele>86</ele>
        <time>2013-04-21T08:23:03Z</time>
      </trkpt>
      <trkpt lat="49.50239" lon="0.63507">
        <ele>88</ele>
        <time>2013-04-21T08:23:08Z</time>
      </trkpt>
      <trkpt lat="49.50233" lon="0.6351">
        <ele>89</ele>
        <time>2013-04-21T08:23:14Z</time>
      </trkpt>
      <trkpt lat="49.50227" lon="0.63515">
        <ele>90</ele>
        <time>2013-04-21T08:23:20Z</time>
      </trkpt>
      <trkpt lat="49.5022" lon="0.6352">
        <ele>91</ele>
        <time>2013-04-21T08:23:26Z</time>
      </trkpt>
      <trkpt lat="49.50215" lon="0.63513">
        <ele>91</ele>
        <time>2013-04-21T08:23:34Z</time>
      </trkpt>
      <trkpt lat="49.50209" lon="0.63505">
        <ele>91</ele>
        <time>2013-04-21T08:23:39Z</time>
      </trkpt>
      <trkpt lat="49.50204" lon="0.63502">
        <ele>91</ele>
        <time>2013-04-21T08:23:44Z</time>
      </trkpt>
      <trkpt lat="49.50197" lon="0.63494">
        <ele>84</ele>
        <time>2013-04-21T08:23:49Z</time>
      </trkpt>
      <trkpt lat="49.5019" lon="0.63489">
        <ele>85</ele>
        <time>2013-04-21T08:23:54Z</time>
      </trkpt>
      <trkpt lat="49.50184" lon="0.63486">
        <ele>85</ele>
        <time>2013-04-21T08:23:59Z</time>
      </trkpt>
      <trkpt lat="49.50178" lon="0.63484">
        <ele>85</ele>
        <time>2013-04-21T08:24:05Z</time>
      </trkpt>
      <trkpt lat="49.50172" lon="0.63484">
        <ele>85</ele>
        <time>2013-04-21T08:24:10Z</time>
      </trkpt>
      <trkpt lat="49.50164" lon="0.63484">
        <ele>85</ele>
        <time>2013-04-21T08:24:16Z</time>
      </trkpt>
      <trkpt lat="49.50158" lon="0.63481">
        <ele>85</ele>
        <time>2013-04-21T08:24:21Z</time>
      </trkpt>
      <trkpt lat="49.50151" lon="0.63481">
        <ele>85</ele>
        <time>2013-04-21T08:24:26Z</time>
      </trkpt>
      <trkpt lat="49.50145" lon="0.63481">
        <ele>84</ele>
        <time>2013-04-21T08:24:32Z</time>
      </trkpt>
      <trkpt lat="49.5014" lon="0.63483">
        <ele>85</ele>
        <time>2013-04-21T08:24:38Z</time>
      </trkpt>
      <trkpt lat="49.50134" lon="0.63483">
        <ele>84</ele>
        <time>2013-04-21T08:24:43Z</time>
      </trkpt>
      <trkpt lat="49.50128" lon="0.63484">
        <ele>84</ele>
        <time>2013-04-21T08:24:48Z</time>
      </trkpt>
      <trkpt lat="49.50122" lon="0.63484">
        <ele>84</ele>
        <time>2013-04-21T08:24:53Z</time>
      </trkpt>
      <trkpt lat="49.50115" lon="0.63484">
        <ele>85</ele>
        <time>2013-04-21T08:24:58Z</time>
      </trkpt>
      <trkpt lat="49.50109" lon="0.63484">
        <ele>85</ele>
        <time>2013-04-21T08:25:03Z</time>
      </trkpt>
      <trkpt lat="49.50101" lon="0.63482">
        <ele>85</ele>
        <time>2013-04-21T08:25:08Z</time>
      </trkpt>
      <trkpt lat="49.50095" lon="0.6348">
        <ele>85</ele>
        <time>2013-04-21T08:25:13Z</time>
      </trkpt>
      <trkpt lat="49.5009" lon="0.63479">
        <ele>85</ele>
        <time>2013-04-21T08:25:18Z</time>
      </trkpt>
      <trkpt lat="49.50083" lon="0.63478">
        <ele>85</ele>
        <time>2013-04-21T08:25:23Z</time>
      </trkpt>
      <trkpt lat="49.50077" lon="0.63476">
        <ele>85</ele>
        <time>2013-04-21T08:25:28Z</time>
      </trkpt>
      <trkpt lat="49.50069" lon="0.63477">
        <ele>85</ele>
        <time>2013-04-21T08:25:34Z</time>
      </trkpt>
      <trkpt lat="49.50061" lon="0.63477">
        <ele>85</ele>
        <time>2013-04-21T08:25:39Z</time>
      </trkpt>
      <trkpt lat="49.50055" lon="0.63476">
        <ele>85</ele>
        <time>2013-04-21T08:25:44Z</time>
      </trkpt>
      <trkpt lat="49.50048" lon="0.63476">
        <ele>85</ele>
        <time>2013-04-21T08:25:49Z</time>
      </trkpt>
      <trkpt lat="49.50041" lon="0.63476">
        <ele>85</ele>
        <time>2013-04-21T08:25:54Z</time>
      </trkpt>
      <trkpt lat="49.50035" lon="0.63476">
        <ele>85</ele>
        <time>2013-04-21T08:25:59Z</time>
      </trkpt>
      <trkpt lat="49.50028" lon="0.63476">
        <ele>85</ele>
        <time>2013-04-21T08:26:04Z</time>
      </trkpt>
      <trkpt lat="49.50021" lon="0.63476">
        <ele>85</ele>
        <time>2013-04-21T08:26:09Z</time>
      </trkpt>
      <trkpt lat="49.50016" lon="0.63476">
        <ele>85</ele>
        <time>2013-04-21T08:26:14Z</time>
      </trkpt>
      <trkpt lat="49.50008" lon="0.63477">
        <ele>86</ele>
        <time>2013-04-21T08:26:20Z</time>
      </trkpt>
      <trkpt lat="49.50002" lon="0.63478">
        <ele>86</ele>
        <time>2013-04-21T08:26:25Z</time>
      </trkpt>
      <trkpt lat="49.49995" lon="0.6348">
        <ele>86</ele>
        <time>2013-04-21T08:26:30Z</time>
      </trkpt>
      <trkpt lat="49.4999" lon="0.63478">
        <ele>85</ele>
        <time>2013-04-21T08:26:35Z</time>
      </trkpt>
      <trkpt lat="49.49982" lon="0.63475">
        <ele>84</ele>
        <time>2013-04-21T08:26:41Z</time>
      </trkpt>
      <trkpt lat="49.49976" lon="0.63474">
        <ele>84</ele>
        <time>2013-04-21T08:26:47Z</time>
      </trkpt>
      <trkpt lat="49.49974" lon="0.63472">
        <ele>84</ele>
        <time>2013-04-21T08:26:52Z</time>
      </trkpt>
      <trkpt lat="49.49965" lon="0.63476">
        <ele>84</ele>
        <time>2013-04-21T08:26:57Z</time>
      </trkpt>
      <trkpt lat="49.49965" lon="0.63486">
        <ele>84</ele>
        <time>2013-04-21T08:27:02Z</time>
      </trkpt>
      <trkpt lat="49.49963" lon="0.63498">
        <ele>84</ele>
        <time>2013-04-21T08:27:08Z</time>
      </trkpt>
      <trkpt lat="49.49962" lon="0.63507">
        <ele>88</ele>
        <time>2013-04-21T08:27:13Z</time>
      </trkpt>
      <trkpt lat="49.49961" lon="0.63514">
        <ele>88</ele>
        <time>2013-04-21T08:27:18Z</time>
      </trkpt>
      <trkpt lat="49.4996" lon="0.63523">
        <ele>88</ele>
        <time>2013-04-21T08:27:23Z</time>
      </trkpt>
      <trkpt lat="49.49959" lon="0.63532">
        <ele>88</ele>
        <time>2013-04-21T08:27:29Z</time>
      </trkpt>
      <trkpt lat="49.49959" lon="0.63544">
        <ele>89</ele>
        <time>2013-04-21T08:27:35Z</time>
      </trkpt>
      <trkpt lat="49.49956" lon="0.63551">
        <ele>89</ele>
        <time>2013-04-21T08:27:41Z</time>
      </trkpt>
      <trkpt lat="49.49956" lon="0.63561">
        <ele>89</ele>
        <time>2013-04-21T08:27:46Z</time>
      </trkpt>
      <trkpt lat="49.49956" lon="0.6357">
        <ele>89</ele>
        <time>2013-04-21T08:27:51Z</time>
      </trkpt>
      <trkpt lat="49.49955" lon="0.6358">
        <ele>89</ele>
        <time>2013-04-21T08:27:56Z</time>
      </trkpt>
      <trkpt lat="49.49956" lon="0.63589">
        <ele>91</ele>
        <time>2013-04-21T08:28:02Z</time>
      </trkpt>
      <trkpt lat="49.49956" lon="0.63599">
        <ele>91</ele>
        <time>2013-04-21T08:28:07Z</time>
      </trkpt>
      <trkpt lat="49.49957" lon="0.63607">
        <ele>91</ele>
        <time>2013-04-21T08:28:12Z</time>
      </trkpt>
      <trkpt lat="49.49953" lon="0.63617">
        <ele>91</ele>
        <time>2013-04-21T08:28:18Z</time>
      </trkpt>
      <trkpt lat="49.49948" lon="0.63622">
        <ele>90</ele>
        <time>2013-04-21T08:28:23Z</time>
      </trkpt>
      <trkpt lat="49.49941" lon="0.63626">
        <ele>89</ele>
        <time>2013-04-21T08:28:28Z</time>
      </trkpt>
      <trkpt lat="49.49934" lon="0.63626">
        <ele>89</ele>
        <time>2013-04-21T08:28:33Z</time>
      </trkpt>
      <trkpt lat="49.49928" lon="0.63626">
        <ele>88</ele>
        <time>2013-04-21T08:28:38Z</time>
      </trkpt>
      <trkpt lat="49.49921" lon="0.63626">
        <ele>88</ele>
        <time>2013-04-21T08:28:43Z</time>
      </trkpt>
      <trkpt lat="49.49915" lon="0.63627">
        <ele>83</ele>
        <time>2013-04-21T08:28:48Z</time>
      </trkpt>
      <trkpt lat="49.49909" lon="0.63627">
        <ele>83</ele>
        <time>2013-04-21T08:28:53Z</time>
      </trkpt>
      <trkpt lat="49.49902" lon="0.63627">
        <ele>83</ele>
        <time>2013-04-21T08:28:58Z</time>
      </trkpt>
      <trkpt lat="49.49896" lon="0.63628">
        <ele>83</ele>
        <time>2013-04-21T08:29:03Z</time>
      </trkpt>
      <trkpt lat="49.49889" lon="0.63628">
        <ele>83</ele>
        <time>2013-04-21T08:29:08Z</time>
      </trkpt>
      <trkpt lat="49.49882" lon="0.63629">
        <ele>83</ele>
        <time>2013-04-21T08:29:13Z</time>
      </trkpt>
      <trkpt lat="49.49875" lon="0.6363">
        <ele>82</ele>
        <time>2013-04-21T08:29:19Z</time>
      </trkpt>
      <trkpt lat="49.49869" lon="0.63629">
        <ele>82</ele>
        <time>2013-04-21T08:29:24Z</time>
      </trkpt>
      <trkpt lat="49.49864" lon="0.6363">
        <ele>82</ele>
        <time>2013-04-21T08:29:29Z</time>
      </trkpt>
      <trkpt lat="49.49859" lon="0.6363">
        <ele>82</ele>
        <time>2013-04-21T08:29:34Z</time>
      </trkpt>
      <trkpt lat="49.49853" lon="0.63628">
        <ele>82</ele>
        <time>2013-04-21T08:29:39Z</time>
      </trkpt>
      <trkpt lat="49.49847" lon="0.63629">
        <ele>82</ele>
        <time>2013-04-21T08:29:44Z</time>
      </trkpt>
      <trkpt lat="49.49842" lon="0.63627">
        <ele>82</ele>
        <time>2013-04-21T08:29:49Z</time>
      </trkpt>
      <trkpt lat="49.49835" lon="0.63631">
        <ele>82</ele>
        <time>2013-04-21T08:29:54Z</time>
      </trkpt>
      <trkpt lat="49.49827" lon="0.63635">
        <ele>85</ele>
        <time>2013-04-21T08:30:00Z</time>
      </trkpt>
      <trkpt lat="49.49821" lon="0.63634">
        <ele>85</ele>
        <time>2013-04-21T08:30:05Z</time>
      </trkpt>
      <trkpt lat="49.49814" lon="0.63636">
        <ele>85</ele>
        <time>2013-04-21T08:30:11Z</time>
      </trkpt>
      <trkpt lat="49.49807" lon="0.63637">
        <ele>85</ele>
        <time>2013-04-21T08:30:17Z</time>
      </trkpt>
      <trkpt lat="49.49802" lon="0.63637">
        <ele>86</ele>
        <time>2013-04-21T08:30:22Z</time>
      </trkpt>
      <trkpt lat="49.49797" lon="0.63639">
        <ele>86</ele>
        <time>2013-04-21T08:30:27Z</time>
      </trkpt>
      <trkpt lat="49.4979" lon="0.6364">
        <ele>86</ele>
        <time>2013-04-21T08:30:32Z</time>
      </trkpt>
      <trkpt lat="49.49784" lon="0.63639">
        <ele>87</ele>
        <time>2013-04-21T08:30:37Z</time>
      </trkpt>
      <trkpt lat="49.49779" lon="0.63639">
        <ele>87</ele>
        <time>2013-04-21T08:30:42Z</time>
      </trkpt>
      <trkpt lat="49.49772" lon="0.6364">
        <ele>87</ele>
        <time>2013-04-21T08:30:48Z</time>
      </trkpt>
      <trkpt lat="49.49766" lon="0.6364">
        <ele>88</ele>
        <time>2013-04-21T08:30:53Z</time>
      </trkpt>
      <trkpt lat="49.4976" lon="0.63638">
        <ele>88</ele>
        <time>2013-04-21T08:30:59Z</time>
      </trkpt>
      <trkpt lat="49.49753" lon="0.63636">
        <ele>88</ele>
        <time>2013-04-21T08:31:05Z</time>
      </trkpt>
      <trkpt lat="49.49747" lon="0.63633">
        <ele>91</ele>
        <time>2013-04-21T08:31:10Z</time>
      </trkpt>
      <trkpt lat="49.49742" lon="0.6363">
        <ele>91</ele>
        <time>2013-04-21T08:31:15Z</time>
      </trkpt>
      <trkpt lat="49.49736" lon="0.63628">
        <ele>92</ele>
        <time>2013-04-21T08:31:20Z</time>
      </trkpt>
      <trkpt lat="49.49731" lon="0.63625">
        <ele>92</ele>
        <time>2013-04-21T08:31:25Z</time>
      </trkpt>
      <trkpt lat="49.49724" lon="0.63622">
        <ele>92</ele>
        <time>2013-04-21T08:31:31Z</time>
      </trkpt>
      <trkpt lat="49.49719" lon="0.63619">
        <ele>92</ele>
        <time>2013-04-21T08:31:36Z</time>
      </trkpt>
      <trkpt lat="49.49713" lon="0.63617">
        <ele>92</ele>
        <time>2013-04-21T08:31:41Z</time>
      </trkpt>
      <trkpt lat="49.49707" lon="0.63613">
        <ele>92</ele>
        <time>2013-04-21T08:31:47Z</time>
      </trkpt>
      <trkpt lat="49.49701" lon="0.63611">
        <ele>92</ele>
        <time>2013-04-21T08:31:52Z</time>
      </trkpt>
      <trkpt lat="49.49695" lon="0.63609">
        <ele>93</ele>
        <time>2013-04-21T08:31:57Z</time>
      </trkpt>
      <trkpt lat="49.49689" lon="0.63607">
        <ele>93</ele>
        <time>2013-04-21T08:32:02Z</time>
      </trkpt>
      <trkpt lat="49.49684" lon="0.63604">
        <ele>93</ele>
        <time>2013-04-21T08:32:07Z</time>
      </trkpt>
      <trkpt lat="49.49679" lon="0.63602">
        <ele>94</ele>
        <time>2013-04-21T08:32:12Z</time>
      </trkpt>
      <trkpt lat="49.49672" lon="0.636">
        <ele>94</ele>
        <time>2013-04-21T08:32:17Z</time>
      </trkpt>
      <trkpt lat="49.49667" lon="0.63597">
        <ele>95</ele>
        <time>2013-04-21T08:32:22Z</time>
      </trkpt>
      <trkpt lat="49.49661" lon="0.63596">
        <ele>95</ele>
        <time>2013-04-21T08:32:27Z</time>
      </trkpt>
      <trkpt lat="49.49655" lon="0.63594">
        <ele>95</ele>
        <time>2013-04-21T08:32:32Z</time>
      </trkpt>
      <trkpt lat="49.49649" lon="0.63592">
        <ele>95</ele>
        <time>2013-04-21T08:32:37Z</time>
      </trkpt>
      <trkpt lat="49.49643" lon="0.63592">
        <ele>95</ele>
        <time>2013-04-21T08:32:42Z</time>
      </trkpt>
      <trkpt lat="49.49637" lon="0.6359">
        <ele>95</ele>
        <time>2013-04-21T08:32:47Z</time>
      </trkpt>
      <trkpt lat="49.4963" lon="0.6359">
        <ele>95</ele>
        <time>2013-04-21T08:32:52Z</time>
      </trkpt>
      <trkpt lat="49.49624" lon="0.63587">
        <ele>96</ele>
        <time>2013-04-21T08:32:57Z</time>
      </trkpt>
      <trkpt lat="49.49617" lon="0.63585">
        <ele>96</ele>
        <time>2013-04-21T08:33:02Z</time>
      </trkpt>
      <trkpt lat="49.49611" lon="0.63584">
        <ele>96</ele>
        <time>2013-04-21T08:33:07Z</time>
      </trkpt>
      <trkpt lat="49.49605" lon="0.63584">
        <ele>96</ele>
        <time>2013-04-21T08:33:12Z</time>
      </trkpt>
      <trkpt lat="49.496" lon="0.63583">
        <ele>98</ele>
        <time>2013-04-21T08:33:17Z</time>
      </trkpt>
      <trkpt lat="49.49594" lon="0.63583">
        <ele>97</ele>
        <time>2013-04-21T08:33:22Z</time>
      </trkpt>
      <trkpt lat="49.49587" lon="0.63584">
        <ele>98</ele>
        <time>2013-04-21T08:33:28Z</time>
      </trkpt>
      <trkpt lat="49.49581" lon="0.63585">
        <ele>98</ele>
        <time>2013-04-21T08:33:33Z</time>
      </trkpt>
      <trkpt lat="49.49575" lon="0.63585">
        <ele>98</ele>
        <time>2013-04-21T08:33:38Z</time>
      </trkpt>
      <trkpt lat="49.49569" lon="0.63585">
        <ele>99</ele>
        <time>2013-04-21T08:33:43Z</time>
      </trkpt>
      <trkpt lat="49.49564" lon="0.63584">
        <ele>99</ele>
        <time>2013-04-21T08:33:48Z</time>
      </trkpt>
      <trkpt lat="49.49558" lon="0.63586">
        <ele>99</ele>
        <time>2013-04-21T08:33:53Z</time>
      </trkpt>
      <trkpt lat="49.49553" lon="0.63587">
        <ele>99</ele>
        <time>2013-04-21T08:33:58Z</time>
      </trkpt>
      <trkpt lat="49.49547" lon="0.63588">
        <ele>100</ele>
        <time>2013-04-21T08:34:03Z</time>
      </trkpt>
      <trkpt lat="49.49541" lon="0.63587">
        <ele>100</ele>
        <time>2013-04-21T08:34:08Z</time>
      </trkpt>
      <trkpt lat="49.49536" lon="0.63588">
        <ele>100</ele>
        <time>2013-04-21T08:34:13Z</time>
      </trkpt>
      <trkpt lat="49.4953" lon="0.6359">
        <ele>101</ele>
        <time>2013-04-21T08:34:18Z</time>
      </trkpt>
      <trkpt lat="49.49524" lon="0.63591">
        <ele>101</ele>
        <time>2013-04-21T08:34:23Z</time>
      </trkpt>
      <trkpt lat="49.49517" lon="0.63591">
        <ele>101</ele>
        <time>2013-04-21T08:34:28Z</time>
      </trkpt>
      <trkpt lat="49.49513" lon="0.6359">
        <ele>102</ele>
        <time>2013-04-21T08:34:33Z</time>
      </trkpt>
      <trkpt lat="49.49507" lon="0.6359">
        <ele>102</ele>
        <time>2013-04-21T08:34:38Z</time>
      </trkpt>
      <trkpt lat="49.495" lon="0.63591">
        <ele>103</ele>
        <time>2013-04-21T08:34:43Z</time>
      </trkpt>
      <trkpt lat="49.49495" lon="0.63591">
        <ele>104</ele>
        <time>2013-04-21T08:34:48Z</time>
      </trkpt>
      <trkpt lat="49.4949" lon="0.6359">
        <ele>104</ele>
        <time>2013-04-21T08:34:53Z</time>
      </trkpt>
      <trkpt lat="49.49485" lon="0.63587">
        <ele>103</ele>
        <time>2013-04-21T08:34:58Z</time>
      </trkpt>
      <trkpt lat="49.49479" lon="0.63587">
        <ele>103</ele>
        <time>2013-04-21T08:35:03Z</time>
      </trkpt>
      <trkpt lat="49.49473" lon="0.63587">
        <ele>103</ele>
        <time>2013-04-21T08:35:08Z</time>
      </trkpt>
      <trkpt lat="49.49467" lon="0.63586">
        <ele>103</ele>
        <time>2013-04-21T08:35:13Z</time>
      </trkpt>
      <trkpt lat="49.4946" lon="0.63586">
        <ele>103</ele>
        <time>2013-04-21T08:35:18Z</time>
      </trkpt>
      <trkpt lat="49.49453" lon="0.63586">
        <ele>103</ele>
        <time>2013-04-21T08:35:23Z</time>
      </trkpt>
      <trkpt lat="49.49447" lon="0.63585">
        <ele>104</ele>
        <time>2013-04-21T08:35:28Z</time>
      </trkpt>
      <trkpt lat="49.4944" lon="0.63585">
        <ele>104</ele>
        <time>2013-04-21T08:35:33Z</time>
      </trkpt>
      <trkpt lat="49.49434" lon="0.63585">
        <ele>104</ele>
        <time>2013-04-21T08:35:38Z</time>
      </trkpt>
      <trkpt lat="49.49428" lon="0.63585">
        <ele>104</ele>
        <time>2013-04-21T08:35:43Z</time>
      </trkpt>
      <trkpt lat="49.49422" lon="0.63583">
        <ele>105</ele>
        <time>2013-04-21T08:35:48Z</time>
      </trkpt>
      <trkpt lat="49.49416" lon="0.63582">
        <ele>105</ele>
        <time>2013-04-21T08:35:53Z</time>
      </trkpt>
      <trkpt lat="49.4941" lon="0.63581">
        <ele>105</ele>
        <time>2013-04-21T08:35:58Z</time>
      </trkpt>
      <trkpt lat="49.49403" lon="0.63581">
        <ele>105</ele>
        <time>2013-04-21T08:36:03Z</time>
      </trkpt>
      <trkpt lat="49.49397" lon="0.6358">
        <ele>106</ele>
        <time>2013-04-21T08:36:08Z</time>
      </trkpt>
      <trkpt lat="49.49391" lon="0.6358">
        <ele>106</ele>
        <time>2013-04-21T08:36:13Z</time>
      </trkpt>
      <trkpt lat="49.49383" lon="0.63579">
        <ele>106</ele>
        <time>2013-04-21T08:36:19Z</time>
      </trkpt>
      <trkpt lat="49.49377" lon="0.63579">
        <ele>106</ele>
        <time>2013-04-21T08:36:24Z</time>
      </trkpt>
      <trkpt lat="49.49371" lon="0.63579">
        <ele>106</ele>
        <time>2013-04-21T08:36:29Z</time>
      </trkpt>
      <trkpt lat="49.49364" lon="0.63578">
        <ele>106</ele>
        <time>2013-04-21T08:36:34Z</time>
      </trkpt>
      <trkpt lat="49.49357" lon="0.63578">
        <ele>106</ele>
        <time>2013-04-21T08:36:39Z</time>
      </trkpt>
      <trkpt lat="49.49351" lon="0.63576">
        <ele>105</ele>
        <time>2013-04-21T08:36:44Z</time>
      </trkpt>
      <trkpt lat="49.49345" lon="0.63575">
        <ele>105</ele>
        <time>2013-04-21T08:36:49Z</time>
      </trkpt>
      <trkpt lat="49.49339" lon="0.63574">
        <ele>105</ele>
        <time>2013-04-21T08:36:54Z</time>
      </trkpt>
      <trkpt lat="49.49332" lon="0.63573">
        <ele>105</ele>
        <time>2013-04-21T08:36:59Z</time>
      </trkpt>
      <trkpt lat="49.49326" lon="0.63573">
        <ele>105</ele>
        <time>2013-04-21T08:37:04Z</time>
      </trkpt>
      <trkpt lat="49.49319" lon="0.63573">
        <ele>105</ele>
        <time>2013-04-21T08:37:09Z</time>
      </trkpt>
      <trkpt lat="49.49313" lon="0.63572">
        <ele>105</ele>
        <time>2013-04-21T08:37:14Z</time>
      </trkpt>
      <trkpt lat="49.49306" lon="0.63571">
        <ele>105</ele>
        <time>2013-04-21T08:37:19Z</time>
      </trkpt>
      <trkpt lat="49.493" lon="0.63571">
        <ele>105</ele>
        <time>2013-04-21T08:37:24Z</time>
      </trkpt>
      <trkpt lat="49.49293" lon="0.63571">
        <ele>105</ele>
        <time>2013-04-21T08:37:29Z</time>
      </trkpt>
      <trkpt lat="49.49287" lon="0.6357">
        <ele>105</ele>
        <time>2013-04-21T08:37:34Z</time>
      </trkpt>
      <trkpt lat="49.4928" lon="0.63569">
        <ele>105</ele>
        <time>2013-04-21T08:37:39Z</time>
      </trkpt>
      <trkpt lat="49.49274" lon="0.63569">
        <ele>105</ele>
        <time>2013-04-21T08:37:44Z</time>
      </trkpt>
      <trkpt lat="49.49267" lon="0.63568">
        <ele>104</ele>
        <time>2013-04-21T08:37:49Z</time>
      </trkpt>
      <trkpt lat="49.49261" lon="0.63567">
        <ele>104</ele>
        <time>2013-04-21T08:37:54Z</time>
      </trkpt>
      <trkpt lat="49.49255" lon="0.63566">
        <ele>104</ele>
        <time>2013-04-21T08:37:59Z</time>
      </trkpt>
      <trkpt lat="49.49249" lon="0.63565">
        <ele>103</ele>
        <time>2013-04-21T08:38:04Z</time>
      </trkpt>
      <trkpt lat="49.49243" lon="0.63564">
        <ele>103</ele>
        <time>2013-04-21T08:38:09Z</time>
      </trkpt>
      <trkpt lat="49.49237" lon="0.63562">
        <ele>103</ele>
        <time>2013-04-21T08:38:14Z</time>
      </trkpt>
      <trkpt lat="49.4923" lon="0.6356">
        <ele>103</ele>
        <time>2013-04-21T08:38:19Z</time>
      </trkpt>
      <trkpt lat="49.49224" lon="0.63559">
        <ele>103</ele>
        <time>2013-04-21T08:38:24Z</time>
      </trkpt>
      <trkpt lat="49.49219" lon="0.63556">
        <ele>103</ele>
        <time>2013-04-21T08:38:29Z</time>
      </trkpt>
      <trkpt lat="49.49213" lon="0.63555">
        <ele>103</ele>
        <time>2013-04-21T08:38:34Z</time>
      </trkpt>
      <trkpt lat="49.49206" lon="0.63553">
        <ele>103</ele>
        <time>2013-04-21T08:38:39Z</time>
      </trkpt>
      <trkpt lat="49.492" lon="0.63549">
        <ele>103</ele>
        <time>2013-04-21T08:38:44Z</time>
      </trkpt>
      <trkpt lat="49.49194" lon="0.63546">
        <ele>103</ele>
        <time>2013-04-21T08:38:49Z</time>
      </trkpt>
      <trkpt lat="49.49188" lon="0.63541">
        <ele>103</ele>
        <time>2013-04-21T08:38:55Z</time>
      </trkpt>
      <trkpt lat="49.49182" lon="0.63538">
        <ele>103</ele>
        <time>2013-04-21T08:39:00Z</time>
      </trkpt>
      <trkpt lat="49.49176" lon="0.63534">
        <ele>103</ele>
        <time>2013-04-21T08:39:05Z</time>
      </trkpt>
      <trkpt lat="49.49171" lon="0.63529">
        <ele>103</ele>
        <time>2013-04-21T08:39:10Z</time>
      </trkpt>
      <trkpt lat="49.49165" lon="0.63526">
        <ele>102</ele>
        <time>2013-04-21T08:39:15Z</time>
      </trkpt>
      <trkpt lat="49.49158" lon="0.63521">
        <ele>102</ele>
        <time>2013-04-21T08:39:21Z</time>
      </trkpt>
      <trkpt lat="49.49151" lon="0.63516">
        <ele>102</ele>
        <time>2013-04-21T08:39:27Z</time>
      </trkpt>
      <trkpt lat="49.49145" lon="0.63514">
        <ele>102</ele>
        <time>2013-04-21T08:39:32Z</time>
      </trkpt>
      <trkpt lat="49.49139" lon="0.6351">
        <ele>102</ele>
        <time>2013-04-21T08:39:37Z</time>
      </trkpt>
      <trkpt lat="49.49134" lon="0.63507">
        <ele>102</ele>
        <time>2013-04-21T08:39:42Z</time>
      </trkpt>
      <trkpt lat="49.49128" lon="0.63503">
        <ele>102</ele>
        <time>2013-04-21T08:39:47Z</time>
      </trkpt>
      <trkpt lat="49.49122" lon="0.63501">
        <ele>103</ele>
        <time>2013-04-21T08:39:52Z</time>
      </trkpt>
      <trkpt lat="49.49115" lon="0.63498">
        <ele>104</ele>
        <time>2013-04-21T08:39:57Z</time>
      </trkpt>
      <trkpt lat="49.49109" lon="0.63497">
        <ele>104</ele>
        <time>2013-04-21T08:40:02Z</time>
      </trkpt>
      <trkpt lat="49.49103" lon="0.63496">
        <ele>104</ele>
        <time>2013-04-21T08:40:07Z</time>
      </trkpt>
      <trkpt lat="49.49097" lon="0.63498">
        <ele>104</ele>
        <time>2013-04-21T08:40:12Z</time>
      </trkpt>
      <trkpt lat="49.49091" lon="0.63502">
        <ele>104</ele>
        <time>2013-04-21T08:40:17Z</time>
      </trkpt>
      <trkpt lat="49.49085" lon="0.63509">
        <ele>103</ele>
        <time>2013-04-21T08:40:23Z</time>
      </trkpt>
      <trkpt lat="49.49079" lon="0.63516">
        <ele>103</ele>
        <time>2013-04-21T08:40:29Z</time>
      </trkpt>
      <trkpt lat="49.49073" lon="0.63522">
        <ele>103</ele>
        <time>2013-04-21T08:40:35Z</time>
      </trkpt>
      <trkpt lat="49.49067" lon="0.63529">
        <ele>103</ele>
        <time>2013-04-21T08:40:41Z</time>
      </trkpt>
      <trkpt lat="49.49061" lon="0.63537">
        <ele>103</ele>
        <time>2013-04-21T08:40:47Z</time>
      </trkpt>
      <trkpt lat="49.49054" lon="0.63545">
        <ele>103</ele>
        <time>2013-04-21T08:40:53Z</time>
      </trkpt>
      <trkpt lat="49.49049" lon="0.63551">
        <ele>102</ele>
        <time>2013-04-21T08:40:59Z</time>
      </trkpt>
      <trkpt lat="49.49044" lon="0.63557">
        <ele>102</ele>
        <time>2013-04-21T08:41:05Z</time>
      </trkpt>
      <trkpt lat="49.49038" lon="0.63564">
        <ele>102</ele>
        <time>2013-04-21T08:41:10Z</time>
      </trkpt>
      <trkpt lat="49.49032" lon="0.63572">
        <ele>102</ele>
        <time>2013-04-21T08:41:16Z</time>
      </trkpt>
      <trkpt lat="49.49026" lon="0.63579">
        <ele>102</ele>
        <time>2013-04-21T08:41:22Z</time>
      </trkpt>
      <trkpt lat="49.4902" lon="0.63587">
        <ele>101</ele>
        <time>2013-04-21T08:41:28Z</time>
      </trkpt>
      <trkpt lat="49.49014" lon="0.63595">
        <ele>101</ele>
        <time>2013-04-21T08:41:34Z</time>
      </trkpt>
      <trkpt lat="49.49009" lon="0.63602">
        <ele>101</ele>
        <time>2013-04-21T08:41:40Z</time>
      </trkpt>
      <trkpt lat="49.49003" lon="0.63607">
        <ele>101</ele>
        <time>2013-04-21T08:41:46Z</time>
      </trkpt>
      <trkpt lat="49.49001" lon="0.63609">
        <ele>101</ele>
        <time>2013-04-21T08:41:51Z</time>
      </trkpt>
      <trkpt lat="49.48994" lon="0.63589">
        <ele>100</ele>
        <time>2013-04-21T08:41:57Z</time>
      </trkpt>
      <trkpt lat="49.48991" lon="0.63579">
        <ele>101</ele>
        <time>2013-04-21T08:42:03Z</time>
      </trkpt>
      <trkpt lat="49.4899" lon="0.63571">
        <ele>100</ele>
        <time>2013-04-21T08:42:09Z</time>
      </trkpt>
      <trkpt lat="49.48987" lon="0.63563">
        <ele>100</ele>
        <time>2013-04-21T08:42:15Z</time>
      </trkpt>
      <trkpt lat="49.48984" lon="0.63554">
        <ele>100</ele>
        <time>2013-04-21T08:42:20Z</time>
      </trkpt>
      <trkpt lat="49.48982" lon="0.63546">
        <ele>100</ele>
        <time>2013-04-21T08:42:25Z</time>
      </trkpt>
      <trkpt lat="49.48979" lon="0.63538">
        <ele>100</ele>
        <time>2013-04-21T08:42:30Z</time>
      </trkpt>
      <trkpt lat="49.48977" lon="0.63529">
        <ele>100</ele>
        <time>2013-04-21T08:42:35Z</time>
      </trkpt>
      <trkpt lat="49.48973" lon="0.63517">
        <ele>101</ele>
        <time>2013-04-21T08:42:42Z</time>
      </trkpt>
      <trkpt lat="49.48971" lon="0.6351">
        <ele>101</ele>
        <time>2013-04-21T08:42:47Z</time>
      </trkpt>
      <trkpt lat="49.48969" lon="0.635">
        <ele>101</ele>
        <time>2013-04-21T08:42:53Z</time>
      </trkpt>
      <trkpt lat="49.48966" lon="0.6349">
        <ele>101</ele>
        <time>2013-04-21T08:42:59Z</time>
      </trkpt>
      <trkpt lat="49.48963" lon="0.63481">
        <ele>101</ele>
        <time>2013-04-21T08:43:05Z</time>
      </trkpt>
      <trkpt lat="49.48961" lon="0.63472">
        <ele>101</ele>
        <time>2013-04-21T08:43:11Z</time>
      </trkpt>
      <trkpt lat="49.48958" lon="0.63463">
        <ele>101</ele>
        <time>2013-04-21T08:43:17Z</time>
      </trkpt>
      <trkpt lat="49.48956" lon="0.63455">
        <ele>101</ele>
        <time>2013-04-21T08:43:23Z</time>
      </trkpt>
      <trkpt lat="49.48958" lon="0.63452">
        <ele>101</ele>
        <time>2013-04-21T08:43:29Z</time>
      </trkpt>
      <trkpt lat="49.48963" lon="0.63451">
        <ele>101</ele>
        <time>2013-04-21T08:43:34Z</time>
      </trkpt>
      <trkpt lat="49.48968" lon="0.6345">
        <ele>102</ele>
        <time>2013-04-21T08:43:39Z</time>
      </trkpt>
      <trkpt lat="49.48972" lon="0.6345">
        <ele>102</ele>
        <time>2013-04-21T08:43:44Z</time>
      </trkpt>
      <trkpt lat="49.4898" lon="0.63449">
        <ele>102</ele>
        <time>2013-04-21T08:43:49Z</time>
      </trkpt>
      <trkpt lat="49.48986" lon="0.63449">
        <ele>102</ele>
        <time>2013-04-21T08:43:54Z</time>
      </trkpt>
      <trkpt lat="49.48993" lon="0.63447">
        <ele>102</ele>
        <time>2013-04-21T08:43:59Z</time>
      </trkpt>
      <trkpt lat="49.49" lon="0.63446">
        <ele>104</ele>
        <time>2013-04-21T08:44:05Z</time>
      </trkpt>
      <trkpt lat="49.49007" lon="0.63445">
        <ele>104</ele>
        <time>2013-04-21T08:44:10Z</time>
      </trkpt>
      <trkpt lat="49.49013" lon="0.63443">
        <ele>104</ele>
        <time>2013-04-21T08:44:15Z</time>
      </trkpt>
      <trkpt lat="49.4902" lon="0.63441">
        <ele>104</ele>
        <time>2013-04-21T08:44:21Z</time>
      </trkpt>
      <trkpt lat="49.49026" lon="0.63439">
        <ele>104</ele>
        <time>2013-04-21T08:44:26Z</time>
      </trkpt>
      <trkpt lat="49.49033" lon="0.63437">
        <ele>104</ele>
        <time>2013-04-21T08:44:32Z</time>
      </trkpt>
      <trkpt lat="49.49038" lon="0.63435">
        <ele>104</ele>
        <time>2013-04-21T08:44:37Z</time>
      </trkpt>
      <trkpt lat="49.49044" lon="0.63433">
        <ele>104</ele>
        <time>2013-04-21T08:44:42Z</time>
      </trkpt>
      <trkpt lat="49.4905" lon="0.63431">
        <ele>105</ele>
        <time>2013-04-21T08:44:47Z</time>
      </trkpt>
      <trkpt lat="49.49057" lon="0.63428">
        <ele>105</ele>
        <time>2013-04-21T08:44:53Z</time>
      </trkpt>
      <trkpt lat="49.49063" lon="0.63425">
        <ele>105</ele>
        <time>2013-04-21T08:44:58Z</time>
      </trkpt>
      <trkpt lat="49.4907" lon="0.63423">
        <ele>105</ele>
        <time>2013-04-21T08:45:03Z</time>
      </trkpt>
      <trkpt lat="49.49076" lon="0.6342">
        <ele>105</ele>
        <time>2013-04-21T08:45:08Z</time>
      </trkpt>
      <trkpt lat="49.49082" lon="0.63419">
        <ele>106</ele>
        <time>2013-04-21T08:45:13Z</time>
      </trkpt>
      <trkpt lat="49.49089" lon="0.63416">
        <ele>106</ele>
        <time>2013-04-21T08:45:18Z</time>
      </trkpt>
      <trkpt lat="49.49095" lon="0.63415">
        <ele>106</ele>
        <time>2013-04-21T08:45:23Z</time>
      </trkpt>
      <trkpt lat="49.49101" lon="0.63413">
        <ele>106</ele>
        <time>2013-04-21T08:45:28Z</time>
      </trkpt>
      <trkpt lat="49.49107" lon="0.63411">
        <ele>106</ele>
        <time>2013-04-21T08:45:33Z</time>
      </trkpt>
      <trkpt lat="49.49113" lon="0.63408">
        <ele>106</ele>
        <time>2013-04-21T08:45:39Z</time>
      </trkpt>
      <trkpt lat="49.49119" lon="0.63406">
        <ele>106</ele>
        <time>2013-04-21T08:45:44Z</time>
      </trkpt>
      <trkpt lat="49.49126" lon="0.63404">
        <ele>105</ele>
        <time>2013-04-21T08:45:50Z</time>
      </trkpt>
      <trkpt lat="49.49132" lon="0.63402">
        <ele>105</ele>
        <time>2013-04-21T08:45:55Z</time>
      </trkpt>
      <trkpt lat="49.49139" lon="0.63399">
        <ele>105</ele>
        <time>2013-04-21T08:46:00Z</time>
      </trkpt>
      <trkpt lat="49.49144" lon="0.63397">
        <ele>105</ele>
        <time>2013-04-21T08:46:05Z</time>
      </trkpt>
      <trkpt lat="49.4915" lon="0.63395">
        <ele>105</ele>
        <time>2013-04-21T08:46:10Z</time>
      </trkpt>
      <trkpt lat="49.49156" lon="0.63393">
        <ele>105</ele>
        <time>2013-04-21T08:46:15Z</time>
      </trkpt>
      <trkpt lat="49.49162" lon="0.63391">
        <ele>105</ele>
        <time>2013-04-21T08:46:20Z</time>
      </trkpt>
      <trkpt lat="49.49167" lon="0.63389">
        <ele>106</ele>
        <time>2013-04-21T08:46:25Z</time>
      </trkpt>
      <trkpt lat="49.49173" lon="0.63386">
        <ele>106</ele>
        <time>2013-04-21T08:46:30Z</time>
      </trkpt>
      <trkpt lat="49.49179" lon="0.63383">
        <ele>106</ele>
        <time>2013-04-21T08:46:36Z</time>
      </trkpt>
      <trkpt lat="49.49184" lon="0.6338">
        <ele>106</ele>
        <time>2013-04-21T08:46:41Z</time>
      </trkpt>
      <trkpt lat="49.4919" lon="0.63377">
        <ele>106</ele>
        <time>2013-04-21T08:46:46Z</time>
      </trkpt>
      <trkpt lat="49.49196" lon="0.63375">
        <ele>106</ele>
        <time>2013-04-21T08:46:51Z</time>
      </trkpt>
      <trkpt lat="49.49201" lon="0.63372">
        <ele>106</ele>
        <time>2013-04-21T08:46:56Z</time>
      </trkpt>
      <trkpt lat="49.49208" lon="0.63369">
        <ele>107</ele>
        <time>2013-04-21T08:47:02Z</time>
      </trkpt>
      <trkpt lat="49.49215" lon="0.63366">
        <ele>107</ele>
        <time>2013-04-21T08:47:08Z</time>
      </trkpt>
      <trkpt lat="49.49221" lon="0.63363">
        <ele>107</ele>
        <time>2013-04-21T08:47:14Z</time>
      </trkpt>
      <trkpt lat="49.49227" lon="0.63361">
        <ele>107</ele>
        <time>2013-04-21T08:47:19Z</time>
      </trkpt>
      <trkpt lat="49.49234" lon="0.63357">
        <ele>107</ele>
        <time>2013-04-21T08:47:24Z</time>
      </trkpt>
      <trkpt lat="49.4924" lon="0.63353">
        <ele>108</ele>
        <time>2013-04-21T08:47:29Z</time>
      </trkpt>
      <trkpt lat="49.49246" lon="0.6335">
        <ele>108</ele>
        <time>2013-04-21T08:47:34Z</time>
      </trkpt>
      <trkpt lat="49.49252" lon="0.63347">
        <ele>109</ele>
        <time>2013-04-21T08:47:39Z</time>
      </trkpt>
      <trkpt lat="49.49259" lon="0.63344">
        <ele>109</ele>
        <time>2013-04-21T08:47:45Z</time>
      </trkpt>
      <trkpt lat="49.49265" lon="0.63343">
        <ele>109</ele>
        <time>2013-04-21T08:47:50Z</time>
      </trkpt>
      <trkpt lat="49.49269" lon="0.63343">
        <ele>109</ele>
        <time>2013-04-21T08:47:55Z</time>
      </trkpt>
      <trkpt lat="49.49274" lon="0.63343">
        <ele>109</ele>
        <time>2013-04-21T08:48:00Z</time>
      </trkpt>
      <trkpt lat="49.49281" lon="0.63343">
        <ele>109</ele>
        <time>2013-04-21T08:48:05Z</time>
      </trkpt>
      <trkpt lat="49.49286" lon="0.63345">
        <ele>109</ele>
        <time>2013-04-21T08:48:11Z</time>
      </trkpt>
      <trkpt lat="49.49291" lon="0.63345">
        <ele>109</ele>
        <time>2013-04-21T08:48:16Z</time>
      </trkpt>
      <trkpt lat="49.49295" lon="0.63346">
        <ele>109</ele>
        <time>2013-04-21T08:48:23Z</time>
      </trkpt>
      <trkpt lat="49.49297" lon="0.63346">
        <ele>109</ele>
        <time>2013-04-21T08:48:28Z</time>
      </trkpt>
      <trkpt lat="49.49307" lon="0.63345">
        <ele>109</ele>
        <time>2013-04-21T08:48:36Z</time>
      </trkpt>
      <trkpt lat="49.49311" lon="0.63339">
        <ele>109</ele>
        <time>2013-04-21T08:48:44Z</time>
      </trkpt>
      <trkpt lat="49.4931" lon="0.6333">
        <ele>110</ele>
        <time>2013-04-21T08:48:49Z</time>
      </trkpt>
      <trkpt lat="49.49308" lon="0.63319">
        <ele>111</ele>
        <time>2013-04-21T08:48:55Z</time>
      </trkpt>
      <trkpt lat="49.49306" lon="0.63309">
        <ele>111</ele>
        <time>2013-04-21T08:49:00Z</time>
      </trkpt>
      <trkpt lat="49.49306" lon="0.633">
        <ele>111</ele>
        <time>2013-04-21T08:49:05Z</time>
      </trkpt>
      <trkpt lat="49.49305" lon="0.63292">
        <ele>111</ele>
        <time>2013-04-21T08:49:10Z</time>
      </trkpt>
      <trkpt lat="49.49303" lon="0.63285">
        <ele>111</ele>
        <time>2013-04-21T08:49:15Z</time>
      </trkpt>
      <trkpt lat="49.49302" lon="0.63275">
        <ele>111</ele>
        <time>2013-04-21T08:49:20Z</time>
      </trkpt>
      <trkpt lat="49.49299" lon="0.63266">
        <ele>111</ele>
        <time>2013-04-21T08:49:26Z</time>
      </trkpt>
      <trkpt lat="49.49299" lon="0.63261">
        <ele>111</ele>
        <time>2013-04-21T08:49:31Z</time>
      </trkpt>
      <trkpt lat="49.49297" lon="0.63251">
        <ele>112</ele>
        <time>2013-04-21T08:49:36Z</time>
      </trkpt>
      <trkpt lat="49.49295" lon="0.63242">
        <ele>113</ele>
        <time>2013-04-21T08:49:41Z</time>
      </trkpt>
      <trkpt lat="49.49294" lon="0.63232">
        <ele>113</ele>
        <time>2013-04-21T08:49:46Z</time>
      </trkpt>
      <trkpt lat="49.49292" lon="0.63222">
        <ele>113</ele>
        <time>2013-04-21T08:49:51Z</time>
      </trkpt>
      <trkpt lat="49.49291" lon="0.63213">
        <ele>113</ele>
        <time>2013-04-21T08:49:56Z</time>
      </trkpt>
      <trkpt lat="49.49288" lon="0.63204">
        <ele>113</ele>
        <time>2013-04-21T08:50:01Z</time>
      </trkpt>
      <trkpt lat="49.49286" lon="0.63197">
        <ele>113</ele>
        <time>2013-04-21T08:50:06Z</time>
      </trkpt>
      <trkpt lat="49.49284" lon="0.63189">
        <ele>113</ele>
        <time>2013-04-21T08:50:11Z</time>
      </trkpt>
      <trkpt lat="49.49282" lon="0.6318">
        <ele>113</ele>
        <time>2013-04-21T08:50:17Z</time>
      </trkpt>
      <trkpt lat="49.49279" lon="0.63162">
        <ele>114</ele>
        <time>2013-04-21T08:50:24Z</time>
      </trkpt>
      <trkpt lat="49.49276" lon="0.63153">
        <ele>114</ele>
        <time>2013-04-21T08:50:30Z</time>
      </trkpt>
      <trkpt lat="49.49274" lon="0.63143">
        <ele>114</ele>
        <time>2013-04-21T08:50:35Z</time>
      </trkpt>
      <trkpt lat="49.49271" lon="0.63133">
        <ele>114</ele>
        <time>2013-04-21T08:50:40Z</time>
      </trkpt>
      <trkpt lat="49.49269" lon="0.63124">
        <ele>114</ele>
        <time>2013-04-21T08:50:45Z</time>
      </trkpt>
      <trkpt lat="49.49267" lon="0.63115">
        <ele>114</ele>
        <time>2013-04-21T08:50:50Z</time>
      </trkpt>
      <trkpt lat="49.49264" lon="0.63107">
        <ele>114</ele>
        <time>2013-04-21T08:50:55Z</time>
      </trkpt>
      <trkpt lat="49.49263" lon="0.63099">
        <ele>114</ele>
        <time>2013-04-21T08:51:00Z</time>
      </trkpt>
      <trkpt lat="49.49261" lon="0.6309">
        <ele>114</ele>
        <time>2013-04-21T08:51:06Z</time>
      </trkpt>
      <trkpt lat="49.4926" lon="0.63083">
        <ele>115</ele>
        <time>2013-04-21T08:51:11Z</time>
      </trkpt>
      <trkpt lat="49.49259" lon="0.63076">
        <ele>115</ele>
        <time>2013-04-21T08:51:16Z</time>
      </trkpt>
      <trkpt lat="49.49257" lon="0.63068">
        <ele>115</ele>
        <time>2013-04-21T08:51:22Z</time>
      </trkpt>
      <trkpt lat="49.49254" lon="0.63059">
        <ele>115</ele>
        <time>2013-04-21T08:51:27Z</time>
      </trkpt>
      <trkpt lat="49.49251" lon="0.6305">
        <ele>115</ele>
        <time>2013-04-21T08:51:33Z</time>
      </trkpt>
      <trkpt lat="49.49249" lon="0.63042">
        <ele>115</ele>
        <time>2013-04-21T08:51:39Z</time>
      </trkpt>
      <trkpt lat="49.49247" lon="0.63034">
        <ele>115</ele>
        <time>2013-04-21T08:51:44Z</time>
      </trkpt>
      <trkpt lat="49.49246" lon="0.63027">
        <ele>115</ele>
        <time>2013-04-21T08:51:50Z</time>
      </trkpt>
      <trkpt lat="49.49246" lon="0.63019">
        <ele>116</ele>
        <time>2013-04-21T08:51:56Z</time>
      </trkpt>
      <trkpt lat="49.49246" lon="0.6301">
        <ele>116</ele>
        <time>2013-04-21T08:52:01Z</time>
      </trkpt>
      <trkpt lat="49.49249" lon="0.63001">
        <ele>116</ele>
        <time>2013-04-21T08:52:06Z</time>
      </trkpt>
      <trkpt lat="49.49254" lon="0.62993">
        <ele>116</ele>
        <time>2013-04-21T08:52:12Z</time>
      </trkpt>
      <trkpt lat="49.49258" lon="0.62986">
        <ele>115</ele>
        <time>2013-04-21T08:52:17Z</time>
      </trkpt>
      <trkpt lat="49.49263" lon="0.62979">
        <ele>115</ele>
        <time>2013-04-21T08:52:22Z</time>
      </trkpt>
      <trkpt lat="49.49269" lon="0.62973">
        <ele>115</ele>
        <time>2013-04-21T08:52:27Z</time>
      </trkpt>
      <trkpt lat="49.49274" lon="0.62967">
        <ele>115</ele>
        <time>2013-04-21T08:52:32Z</time>
      </trkpt>
      <trkpt lat="49.49278" lon="0.6296">
        <ele>115</ele>
        <time>2013-04-21T08:52:38Z</time>
      </trkpt>
      <trkpt lat="49.49282" lon="0.62954">
        <ele>115</ele>
        <time>2013-04-21T08:52:44Z</time>
      </trkpt>
      <trkpt lat="49.49281" lon="0.62945">
        <ele>115</ele>
        <time>2013-04-21T08:52:49Z</time>
      </trkpt>
      <trkpt lat="49.49279" lon="0.62938">
        <ele>115</ele>
        <time>2013-04-21T08:52:54Z</time>
      </trkpt>
      <trkpt lat="49.49277" lon="0.62929">
        <ele>115</ele>
        <time>2013-04-21T08:52:59Z</time>
      </trkpt>
      <trkpt lat="49.49275" lon="0.6292">
        <ele>115</ele>
        <time>2013-04-21T08:53:05Z</time>
      </trkpt>
      <trkpt lat="49.49272" lon="0.62911">
        <ele>116</ele>
        <time>2013-04-21T08:53:10Z</time>
      </trkpt>
      <trkpt lat="49.4927" lon="0.62903">
        <ele>116</ele>
        <time>2013-04-21T08:53:15Z</time>
      </trkpt>
      <trkpt lat="49.49268" lon="0.62894">
        <ele>116</ele>
        <time>2013-04-21T08:53:20Z</time>
      </trkpt>
      <trkpt lat="49.49265" lon="0.62886">
        <ele>116</ele>
        <time>2013-04-21T08:53:25Z</time>
      </trkpt>
      <trkpt lat="49.49262" lon="0.62878">
        <ele>116</ele>
        <time>2013-04-21T08:53:30Z</time>
      </trkpt>
      <trkpt lat="49.49259" lon="0.62869">
        <ele>116</ele>
        <time>2013-04-21T08:53:35Z</time>
      </trkpt>
      <trkpt lat="49.49255" lon="0.6286">
        <ele>117</ele>
        <time>2013-04-21T08:53:40Z</time>
      </trkpt>
      <trkpt lat="49.49253" lon="0.62851">
        <ele>117</ele>
        <time>2013-04-21T08:53:45Z</time>
      </trkpt>
      <trkpt lat="49.4925" lon="0.62842">
        <ele>117</ele>
        <time>2013-04-21T08:53:50Z</time>
      </trkpt>
      <trkpt lat="49.49247" lon="0.62833">
        <ele>118</ele>
        <time>2013-04-21T08:53:56Z</time>
      </trkpt>
      <trkpt lat="49.49244" lon="0.62825">
        <ele>118</ele>
        <time>2013-04-21T08:54:01Z</time>
      </trkpt>
      <trkpt lat="49.49241" lon="0.62817">
        <ele>118</ele>
        <time>2013-04-21T08:54:06Z</time>
      </trkpt>
      <trkpt lat="49.49238" lon="0.62808">
        <ele>118</ele>
        <time>2013-04-21T08:54:11Z</time>
      </trkpt>
      <trkpt lat="49.49235" lon="0.628">
        <ele>118</ele>
        <time>2013-04-21T08:54:16Z</time>
      </trkpt>
      <trkpt lat="49.49232" lon="0.62792">
        <ele>118</ele>
        <time>2013-04-21T08:54:21Z</time>
      </trkpt>
      <trkpt lat="49.49229" lon="0.62784">
        <ele>118</ele>
        <time>2013-04-21T08:54:26Z</time>
      </trkpt>
      <trkpt lat="49.49226" lon="0.62775">
        <ele>118</ele>
        <time>2013-04-21T08:54:31Z</time>
      </trkpt>
      <trkpt lat="49.49223" lon="0.62767">
        <ele>118</ele>
        <time>2013-04-21T08:54:37Z</time>
      </trkpt>
      <trkpt lat="49.49221" lon="0.6276">
        <ele>118</ele>
        <time>2013-04-21T08:54:42Z</time>
      </trkpt>
      <trkpt lat="49.49218" lon="0.62752">
        <ele>118</ele>
        <time>2013-04-21T08:54:47Z</time>
      </trkpt>
      <trkpt lat="49.49215" lon="0.62743">
        <ele>119</ele>
        <time>2013-04-21T08:54:52Z</time>
      </trkpt>
      <trkpt lat="49.49213" lon="0.62736">
        <ele>119</ele>
        <time>2013-04-21T08:54:57Z</time>
      </trkpt>
      <trkpt lat="49.49209" lon="0.62727">
        <ele>119</ele>
        <time>2013-04-21T08:55:03Z</time>
      </trkpt>
      <trkpt lat="49.49207" lon="0.62719">
        <ele>119</ele>
        <time>2013-04-21T08:55:08Z</time>
      </trkpt>
      <trkpt lat="49.49204" lon="0.6271">
        <ele>119</ele>
        <time>2013-04-21T08:55:13Z</time>
      </trkpt>
      <trkpt lat="49.49201" lon="0.62702">
        <ele>119</ele>
        <time>2013-04-21T08:55:18Z</time>
      </trkpt>
      <trkpt lat="49.49197" lon="0.62695">
        <ele>120</ele>
        <time>2013-04-21T08:55:23Z</time>
      </trkpt>
      <trkpt lat="49.49191" lon="0.62686">
        <ele>120</ele>
        <time>2013-04-21T08:55:29Z</time>
      </trkpt>
      <trkpt lat="49.49185" lon="0.6268">
        <ele>120</ele>
        <time>2013-04-21T08:55:35Z</time>
      </trkpt>
      <trkpt lat="49.49179" lon="0.62673">
        <ele>120</ele>
        <time>2013-04-21T08:55:41Z</time>
      </trkpt>
      <trkpt lat="49.49174" lon="0.62665">
        <ele>120</ele>
        <time>2013-04-21T08:55:47Z</time>
      </trkpt>
      <trkpt lat="49.49168" lon="0.62659">
        <ele>120</ele>
        <time>2013-04-21T08:55:53Z</time>
      </trkpt>
      <trkpt lat="49.49163" lon="0.62653">
        <ele>119</ele>
        <time>2013-04-21T08:55:58Z</time>
      </trkpt>
      <trkpt lat="49.49158" lon="0.62645">
        <ele>119</ele>
        <time>2013-04-21T08:56:04Z</time>
      </trkpt>
      <trkpt lat="49.49152" lon="0.62637">
        <ele>119</ele>
        <time>2013-04-21T08:56:10Z</time>
      </trkpt>
      <trkpt lat="49.49147" lon="0.62629">
        <ele>119</ele>
        <time>2013-04-21T08:56:16Z</time>
      </trkpt>
      <trkpt lat="49.49141" lon="0.62621">
        <ele>119</ele>
        <time>2013-04-21T08:56:22Z</time>
      </trkpt>
      <trkpt lat="49.49136" lon="0.62613">
        <ele>119</ele>
        <time>2013-04-21T08:56:28Z</time>
      </trkpt>
      <trkpt lat="49.49131" lon="0.62606">
        <ele>119</ele>
        <time>2013-04-21T08:56:34Z</time>
      </trkpt>
      <trkpt lat="49.49126" lon="0.62598">
        <ele>118</ele>
        <time>2013-04-21T08:56:40Z</time>
      </trkpt>
      <trkpt lat="49.49122" lon="0.62589">
        <ele>118</ele>
        <time>2013-04-21T08:56:46Z</time>
      </trkpt>
      <trkpt lat="49.49118" lon="0.62581">
        <ele>118</ele>
        <time>2013-04-21T08:56:52Z</time>
      </trkpt>
      <trkpt lat="49.49113" lon="0.62573">
        <ele>118</ele>
        <time>2013-04-21T08:56:58Z</time>
      </trkpt>
      <trkpt lat="49.49109" lon="0.62565">
        <ele>118</ele>
        <time>2013-04-21T08:57:03Z</time>
      </trkpt>
      <trkpt lat="49.49106" lon="0.62558">
        <ele>118</ele>
        <time>2013-04-21T08:57:08Z</time>
      </trkpt>
      <trkpt lat="49.49102" lon="0.62548">
        <ele>118</ele>
        <time>2013-04-21T08:57:14Z</time>
      </trkpt>
      <trkpt lat="49.49099" lon="0.62538">
        <ele>118</ele>
        <time>2013-04-21T08:57:20Z</time>
      </trkpt>
      <trkpt lat="49.49095" lon="0.6253">
        <ele>118</ele>
        <time>2013-04-21T08:57:25Z</time>
      </trkpt>
      <trkpt lat="49.49091" lon="0.62521">
        <ele>118</ele>
        <time>2013-04-21T08:57:30Z</time>
      </trkpt>
      <trkpt lat="49.49088" lon="0.62511">
        <ele>118</ele>
        <time>2013-04-21T08:57:35Z</time>
      </trkpt>
      <trkpt lat="49.49084" lon="0.62502">
        <ele>117</ele>
        <time>2013-04-21T08:57:41Z</time>
      </trkpt>
      <trkpt lat="49.4908" lon="0.62493">
        <ele>117</ele>
        <time>2013-04-21T08:57:47Z</time>
      </trkpt>
      <trkpt lat="49.49077" lon="0.62484">
        <ele>116</ele>
        <time>2013-04-21T08:57:52Z</time>
      </trkpt>
      <trkpt lat="49.49075" lon="0.62476">
        <ele>116</ele>
        <time>2013-04-21T08:57:57Z</time>
      </trkpt>
      <trkpt lat="49.49071" lon="0.62467">
        <ele>116</ele>
        <time>2013-04-21T08:58:02Z</time>
      </trkpt>
      <trkpt lat="49.49068" lon="0.62458">
        <ele>116</ele>
        <time>2013-04-21T08:58:07Z</time>
      </trkpt>
      <trkpt lat="49.49065" lon="0.6245">
        <ele>116</ele>
        <time>2013-04-21T08:58:12Z</time>
      </trkpt>
      <trkpt lat="49.49062" lon="0.6244">
        <ele>116</ele>
        <time>2013-04-21T08:58:18Z</time>
      </trkpt>
      <trkpt lat="49.4906" lon="0.62432">
        <ele>116</ele>
        <time>2013-04-21T08:58:23Z</time>
      </trkpt>
      <trkpt lat="49.49057" lon="0.62424">
        <ele>117</ele>
        <time>2013-04-21T08:58:28Z</time>
      </trkpt>
      <trkpt lat="49.49054" lon="0.62415">
        <ele>119</ele>
        <time>2013-04-21T08:58:33Z</time>
      </trkpt>
      <trkpt lat="49.49051" lon="0.62405">
        <ele>119</ele>
        <time>2013-04-21T08:58:39Z</time>
      </trkpt>
      <trkpt lat="49.49047" lon="0.62394">
        <ele>119</ele>
        <time>2013-04-21T08:58:45Z</time>
      </trkpt>
      <trkpt lat="49.49044" lon="0.62386">
        <ele>119</ele>
        <time>2013-04-21T08:58:50Z</time>
      </trkpt>
      <trkpt lat="49.49041" lon="0.62377">
        <ele>119</ele>
        <time>2013-04-21T08:58:55Z</time>
      </trkpt>
      <trkpt lat="49.49038" lon="0.62368">
        <ele>119</ele>
        <time>2013-04-21T08:59:00Z</time>
      </trkpt>
      <trkpt lat="49.49036" lon="0.6236">
        <ele>119</ele>
        <time>2013-04-21T08:59:05Z</time>
      </trkpt>
      <trkpt lat="49.49033" lon="0.62352">
        <ele>119</ele>
        <time>2013-04-21T08:59:10Z</time>
      </trkpt>
      <trkpt lat="49.4903" lon="0.62343">
        <ele>119</ele>
        <time>2013-04-21T08:59:15Z</time>
      </trkpt>
      <trkpt lat="49.49027" lon="0.62335">
        <ele>120</ele>
        <time>2013-04-21T08:59:20Z</time>
      </trkpt>
      <trkpt lat="49.49024" lon="0.62326">
        <ele>121</ele>
        <time>2013-04-21T08:59:25Z</time>
      </trkpt>
      <trkpt lat="49.49022" lon="0.62318">
        <ele>121</ele>
        <time>2013-04-21T08:59:30Z</time>
      </trkpt>
      <trkpt lat="49.49019" lon="0.62309">
        <ele>121</ele>
        <time>2013-04-21T08:59:35Z</time>
      </trkpt>
      <trkpt lat="49.49017" lon="0.623">
        <ele>121</ele>
        <time>2013-04-21T08:59:40Z</time>
      </trkpt>
      <trkpt lat="49.49015" lon="0.62291">
        <ele>122</ele>
        <time>2013-04-21T08:59:45Z</time>
      </trkpt>
      <trkpt lat="49.49013" lon="0.62283">
        <ele>122</ele>
        <time>2013-04-21T08:59:50Z</time>
      </trkpt>
      <trkpt lat="49.4901" lon="0.62275">
        <ele>122</ele>
        <time>2013-04-21T08:59:55Z</time>
      </trkpt>
      <trkpt lat="49.49009" lon="0.62267">
        <ele>122</ele>
        <time>2013-04-21T09:00:00Z</time>
      </trkpt>
      <trkpt lat="49.49006" lon="0.62258">
        <ele>122</ele>
        <time>2013-04-21T09:00:05Z</time>
      </trkpt>
      <trkpt lat="49.49004" lon="0.6225">
        <ele>122</ele>
        <time>2013-04-21T09:00:10Z</time>
      </trkpt>
      <trkpt lat="49.49001" lon="0.6224">
        <ele>122</ele>
        <time>2013-04-21T09:00:16Z</time>
      </trkpt>
      <trkpt lat="49.48997" lon="0.62231">
        <ele>122</ele>
        <time>2013-04-21T09:00:22Z</time>
      </trkpt>
      <trkpt lat="49.48995" lon="0.62222">
        <ele>121</ele>
        <time>2013-04-21T09:00:27Z</time>
      </trkpt>
      <trkpt lat="49.48993" lon="0.62213">
        <ele>121</ele>
        <time>2013-04-21T09:00:32Z</time>
      </trkpt>
      <trkpt lat="49.4899" lon="0.62205">
        <ele>121</ele>
        <time>2013-04-21T09:00:37Z</time>
      </trkpt>
      <trkpt lat="49.48987" lon="0.62197">
        <ele>121</ele>
        <time>2013-04-21T09:00:42Z</time>
      </trkpt>
      <trkpt lat="49.48985" lon="0.62187">
        <ele>121</ele>
        <time>2013-04-21T09:00:47Z</time>
      </trkpt>
      <trkpt lat="49.48981" lon="0.62179">
        <ele>121</ele>
        <time>2013-04-21T09:00:52Z</time>
      </trkpt>
      <trkpt lat="49.4898" lon="0.62171">
        <ele>121</ele>
        <time>2013-04-21T09:00:57Z</time>
      </trkpt>
      <trkpt lat="49.48977" lon="0.62163">
        <ele>121</ele>
        <time>2013-04-21T09:01:02Z</time>
      </trkpt>
      <trkpt lat="49.48974" lon="0.62155">
        <ele>121</ele>
        <time>2013-04-21T09:01:07Z</time>
      </trkpt>
      <trkpt lat="49.48971" lon="0.62146">
        <ele>121</ele>
        <time>2013-04-21T09:01:12Z</time>
      </trkpt>
      <trkpt lat="49.48969" lon="0.62138">
        <ele>121</ele>
        <time>2013-04-21T09:01:17Z</time>
      </trkpt>
      <trkpt lat="49.48966" lon="0.62129">
        <ele>121</ele>
        <time>2013-04-21T09:01:22Z</time>
      </trkpt>
      <trkpt lat="49.48963" lon="0.62121">
        <ele>121</ele>
        <time>2013-04-21T09:01:28Z</time>
      </trkpt>
      <trkpt lat="49.4896" lon="0.62111">
        <ele>121</ele>
        <time>2013-04-21T09:01:34Z</time>
      </trkpt>
      <trkpt lat="49.48958" lon="0.62107">
        <ele>121</ele>
        <time>2013-04-21T09:01:39Z</time>
      </trkpt>
      <trkpt lat="49.48954" lon="0.62098">
        <ele>121</ele>
        <time>2013-04-21T09:01:45Z</time>
      </trkpt>
      <trkpt lat="49.48952" lon="0.6209">
        <ele>121</ele>
        <time>2013-04-21T09:01:50Z</time>
      </trkpt>
      <trkpt lat="49.48949" lon="0.62081">
        <ele>121</ele>
        <time>2013-04-21T09:01:55Z</time>
      </trkpt>
      <trkpt lat="49.48947" lon="0.62072">
        <ele>121</ele>
        <time>2013-04-21T09:02:00Z</time>
      </trkpt>
      <trkpt lat="49.48943" lon="0.62063">
        <ele>121</ele>
        <time>2013-04-21T09:02:06Z</time>
      </trkpt>
      <trkpt lat="49.48941" lon="0.62055">
        <ele>121</ele>
        <time>2013-04-21T09:02:11Z</time>
      </trkpt>
      <trkpt lat="49.48938" lon="0.62045">
        <ele>121</ele>
        <time>2013-04-21T09:02:17Z</time>
      </trkpt>
      <trkpt lat="49.48935" lon="0.62036">
        <ele>121</ele>
        <time>2013-04-21T09:02:23Z</time>
      </trkpt>
      <trkpt lat="49.48933" lon="0.62029">
        <ele>121</ele>
        <time>2013-04-21T09:02:28Z</time>
      </trkpt>
      <trkpt lat="49.48931" lon="0.62022">
        <ele>121</ele>
        <time>2013-04-21T09:02:33Z</time>
      </trkpt>
      <trkpt lat="49.4893" lon="0.62017">
        <ele>121</ele>
        <time>2013-04-21T09:02:39Z</time>
      </trkpt>
      <trkpt lat="49.48929" lon="0.62009">
        <ele>121</ele>
        <time>2013-04-21T09:02:45Z</time>
      </trkpt>
      <trkpt lat="49.48927" lon="0.62003">
        <ele>121</ele>
        <time>2013-04-21T09:02:51Z</time>
      </trkpt>
      <trkpt lat="49.48925" lon="0.61996">
        <ele>121</ele>
        <time>2013-04-21T09:02:56Z</time>
      </trkpt>
      <trkpt lat="49.48922" lon="0.61988">
        <ele>121</ele>
        <time>2013-04-21T09:03:04Z</time>
      </trkpt>
      <trkpt lat="49.48922" lon="0.61979">
        <ele>121</ele>
        <time>2013-04-21T09:03:10Z</time>
      </trkpt>
      <trkpt lat="49.48921" lon="0.61971">
        <ele>121</ele>
        <time>2013-04-21T09:03:16Z</time>
      </trkpt>
      <trkpt lat="49.4892" lon="0.61963">
        <ele>121</ele>
        <time>2013-04-21T09:03:22Z</time>
      </trkpt>
      <trkpt lat="49.48918" lon="0.61957">
        <ele>121</ele>
        <time>2013-04-21T09:03:27Z</time>
      </trkpt>
      <trkpt lat="49.48912" lon="0.61948">
        <ele>120</ele>
        <time>2013-04-21T09:03:33Z</time>
      </trkpt>
      <trkpt lat="49.48907" lon="0.61941">
        <ele>120</ele>
        <time>2013-04-21T09:03:39Z</time>
      </trkpt>
      <trkpt lat="49.48902" lon="0.61936">
        <ele>120</ele>
        <time>2013-04-21T09:03:44Z</time>
      </trkpt>
      <trkpt lat="49.48895" lon="0.61929">
        <ele>120</ele>
        <time>2013-04-21T09:03:51Z</time>
      </trkpt>
      <trkpt lat="49.48888" lon="0.61928">
        <ele>120</ele>
        <time>2013-04-21T09:03:57Z</time>
      </trkpt>
      <trkpt lat="49.48882" lon="0.61927">
        <ele>120</ele>
        <time>2013-04-21T09:04:03Z</time>
      </trkpt>
      <trkpt lat="49.48876" lon="0.61926">
        <ele>120</ele>
        <time>2013-04-21T09:04:08Z</time>
      </trkpt>
      <trkpt lat="49.4887" lon="0.61926">
        <ele>120</ele>
        <time>2013-04-21T09:04:13Z</time>
      </trkpt>
      <trkpt lat="49.48864" lon="0.61924">
        <ele>120</ele>
        <time>2013-04-21T09:04:18Z</time>
      </trkpt>
      <trkpt lat="49.48858" lon="0.61922">
        <ele>120</ele>
        <time>2013-04-21T09:04:23Z</time>
      </trkpt>
      <trkpt lat="49.48853" lon="0.61921">
        <ele>120</ele>
        <time>2013-04-21T09:04:28Z</time>
      </trkpt>
      <trkpt lat="49.48848" lon="0.61918">
        <ele>119</ele>
        <time>2013-04-21T09:04:34Z</time>
      </trkpt>
      <trkpt lat="49.48843" lon="0.6192">
        <ele>119</ele>
        <time>2013-04-21T09:04:40Z</time>
      </trkpt>
      <trkpt lat="49.48838" lon="0.61922">
        <ele>119</ele>
        <time>2013-04-21T09:04:46Z</time>
      </trkpt>
      <trkpt lat="49.48833" lon="0.61925">
        <ele>119</ele>
        <time>2013-04-21T09:04:52Z</time>
      </trkpt>
      <trkpt lat="49.48826" lon="0.61924">
        <ele>119</ele>
        <time>2013-04-21T09:04:57Z</time>
      </trkpt>
      <trkpt lat="49.48822" lon="0.6192">
        <ele>119</ele>
        <time>2013-04-21T09:05:02Z</time>
      </trkpt>
      <trkpt lat="49.4882" lon="0.61914">
        <ele>118</ele>
        <time>2013-04-21T09:05:10Z</time>
      </trkpt>
      <trkpt lat="49.48819" lon="0.61909">
        <ele>118</ele>
        <time>2013-04-21T09:05:15Z</time>
      </trkpt>
      <trkpt lat="49.48817" lon="0.61908">
        <ele>118</ele>
        <time>2013-04-21T09:05:20Z</time>
      </trkpt>
      <trkpt lat="49.48813" lon="0.61882">
        <ele>117</ele>
        <time>2013-04-21T09:05:25Z</time>
      </trkpt>
      <trkpt lat="49.48814" lon="0.61874">
        <ele>117</ele>
        <time>2013-04-21T09:05:30Z</time>
      </trkpt>
      <trkpt lat="49.48817" lon="0.61866">
        <ele>117</ele>
        <time>2013-04-21T09:05:36Z</time>
      </trkpt>
      <trkpt lat="49.48822" lon="0.61859">
        <ele>116</ele>
        <time>2013-04-21T09:05:42Z</time>
      </trkpt>
      <trkpt lat="49.48828" lon="0.61854">
        <ele>116</ele>
        <time>2013-04-21T09:05:48Z</time>
      </trkpt>
      <trkpt lat="49.48831" lon="0.61854">
        <ele>116</ele>
        <time>2013-04-21T09:05:53Z</time>
      </trkpt>
      <trkpt lat="49.48835" lon="0.61848">
        <ele>117</ele>
        <time>2013-04-21T09:05:59Z</time>
      </trkpt>
      <trkpt lat="49.48839" lon="0.61845">
        <ele>117</ele>
        <time>2013-04-21T09:06:04Z</time>
      </trkpt>
      <trkpt lat="49.48844" lon="0.61843">
        <ele>117</ele>
        <time>2013-04-21T09:06:11Z</time>
      </trkpt>
      <trkpt lat="49.48851" lon="0.61834">
        <ele>117</ele>
        <time>2013-04-21T09:06:18Z</time>
      </trkpt>
      <trkpt lat="49.48857" lon="0.6183">
        <ele>116</ele>
        <time>2013-04-21T09:06:23Z</time>
      </trkpt>
      <trkpt lat="49.48864" lon="0.61825">
        <ele>116</ele>
        <time>2013-04-21T09:06:28Z</time>
      </trkpt>
      <trkpt lat="49.4887" lon="0.61821">
        <ele>116</ele>
        <time>2013-04-21T09:06:33Z</time>
      </trkpt>
      <trkpt lat="49.48877" lon="0.61816">
        <ele>116</ele>
        <time>2013-04-21T09:06:39Z</time>
      </trkpt>
      <trkpt lat="49.48883" lon="0.6181">
        <ele>116</ele>
        <time>2013-04-21T09:06:45Z</time>
      </trkpt>
      <trkpt lat="49.48889" lon="0.61807">
        <ele>116</ele>
        <time>2013-04-21T09:06:50Z</time>
      </trkpt>
      <trkpt lat="49.48897" lon="0.61802">
        <ele>116</ele>
        <time>2013-04-21T09:06:56Z</time>
      </trkpt>
      <trkpt lat="49.48903" lon="0.61797">
        <ele>116</ele>
        <time>2013-04-21T09:07:01Z</time>
      </trkpt>
      <trkpt lat="49.48908" lon="0.61794">
        <ele>116</ele>
        <time>2013-04-21T09:07:06Z</time>
      </trkpt>
      <trkpt lat="49.48914" lon="0.6179">
        <ele>116</ele>
        <time>2013-04-21T09:07:11Z</time>
      </trkpt>
      <trkpt lat="49.48919" lon="0.61785">
        <ele>118</ele>
        <time>2013-04-21T09:07:16Z</time>
      </trkpt>
      <trkpt lat="49.48925" lon="0.61781">
        <ele>117</ele>
        <time>2013-04-21T09:07:21Z</time>
      </trkpt>
      <trkpt lat="49.48931" lon="0.61776">
        <ele>117</ele>
        <time>2013-04-21T09:07:26Z</time>
      </trkpt>
      <trkpt lat="49.48937" lon="0.61771">
        <ele>117</ele>
        <time>2013-04-21T09:07:31Z</time>
      </trkpt>
      <trkpt lat="49.48943" lon="0.61765">
        <ele>117</ele>
        <time>2013-04-21T09:07:37Z</time>
      </trkpt>
      <trkpt lat="49.48949" lon="0.61756">
        <ele>118</ele>
        <time>2013-04-21T09:07:43Z</time>
      </trkpt>
      <trkpt lat="49.48952" lon="0.61747">
        <ele>117</ele>
        <time>2013-04-21T09:07:48Z</time>
      </trkpt>
      <trkpt lat="49.48955" lon="0.61739">
        <ele>117</ele>
        <time>2013-04-21T09:07:53Z</time>
      </trkpt>
      <trkpt lat="49.48958" lon="0.6173">
        <ele>117</ele>
        <time>2013-04-21T09:07:58Z</time>
      </trkpt>
      <trkpt lat="49.4896" lon="0.61721">
        <ele>117</ele>
        <time>2013-04-21T09:08:03Z</time>
      </trkpt>
      <trkpt lat="49.48963" lon="0.61713">
        <ele>117</ele>
        <time>2013-04-21T09:08:08Z</time>
      </trkpt>
      <trkpt lat="49.48966" lon="0.61704">
        <ele>117</ele>
        <time>2013-04-21T09:08:13Z</time>
      </trkpt>
      <trkpt lat="49.48968" lon="0.61694">
        <ele>117</ele>
        <time>2013-04-21T09:08:18Z</time>
      </trkpt>
      <trkpt lat="49.4897" lon="0.61686">
        <ele>116</ele>
        <time>2013-04-21T09:08:23Z</time>
      </trkpt>
      <trkpt lat="49.48972" lon="0.61677">
        <ele>116</ele>
        <time>2013-04-21T09:08:28Z</time>
      </trkpt>
      <trkpt lat="49.48974" lon="0.61668">
        <ele>116</ele>
        <time>2013-04-21T09:08:33Z</time>
      </trkpt>
      <trkpt lat="49.48977" lon="0.61655">
        <ele>116</ele>
        <time>2013-04-21T09:08:39Z</time>
      </trkpt>
      <trkpt lat="49.48979" lon="0.61644">
        <ele>116</ele>
        <time>2013-04-21T09:08:44Z</time>
      </trkpt>
      <trkpt lat="49.48981" lon="0.61635">
        <ele>115</ele>
        <time>2013-04-21T09:08:49Z</time>
      </trkpt>
      <trkpt lat="49.48983" lon="0.61628">
        <ele>115</ele>
        <time>2013-04-21T09:08:54Z</time>
      </trkpt>
      <trkpt lat="49.48985" lon="0.61619">
        <ele>115</ele>
        <time>2013-04-21T09:08:59Z</time>
      </trkpt>
      <trkpt lat="49.48986" lon="0.6161">
        <ele>115</ele>
        <time>2013-04-21T09:09:05Z</time>
      </trkpt>
      <trkpt lat="49.48988" lon="0.61602">
        <ele>115</ele>
        <time>2013-04-21T09:09:10Z</time>
      </trkpt>
      <trkpt lat="49.4899" lon="0.61594">
        <ele>116</ele>
        <time>2013-04-21T09:09:15Z</time>
      </trkpt>
      <trkpt lat="49.48991" lon="0.61585">
        <ele>116</ele>
        <time>2013-04-21T09:09:20Z</time>
      </trkpt>
      <trkpt lat="49.48993" lon="0.61575">
        <ele>115</ele>
        <time>2013-04-21T09:09:25Z</time>
      </trkpt>
      <trkpt lat="49.48993" lon="0.61565">
        <ele>115</ele>
        <time>2013-04-21T09:09:30Z</time>
      </trkpt>
      <trkpt lat="49.48988" lon="0.61558">
        <ele>115</ele>
        <time>2013-04-21T09:09:35Z</time>
      </trkpt>
      <trkpt lat="49.48981" lon="0.61553">
        <ele>115</ele>
        <time>2013-04-21T09:09:41Z</time>
      </trkpt>
      <trkpt lat="49.48975" lon="0.6155">
        <ele>115</ele>
        <time>2013-04-21T09:09:46Z</time>
      </trkpt>
      <trkpt lat="49.48969" lon="0.61548">
        <ele>115</ele>
        <time>2013-04-21T09:09:51Z</time>
      </trkpt>
      <trkpt lat="49.48963" lon="0.61546">
        <ele>115</ele>
        <time>2013-04-21T09:09:56Z</time>
      </trkpt>
      <trkpt lat="49.48957" lon="0.61544">
        <ele>114</ele>
        <time>2013-04-21T09:10:01Z</time>
      </trkpt>
      <trkpt lat="49.48951" lon="0.61541">
        <ele>114</ele>
        <time>2013-04-21T09:10:06Z</time>
      </trkpt>
      <trkpt lat="49.48944" lon="0.61537">
        <ele>114</ele>
        <time>2013-04-21T09:10:11Z</time>
      </trkpt>
      <trkpt lat="49.48938" lon="0.61531">
        <ele>114</ele>
        <time>2013-04-21T09:10:16Z</time>
      </trkpt>
      <trkpt lat="49.48934" lon="0.61523">
        <ele>114</ele>
        <time>2013-04-21T09:10:21Z</time>
      </trkpt>
      <trkpt lat="49.48932" lon="0.61513">
        <ele>114</ele>
        <time>2013-04-21T09:10:26Z</time>
      </trkpt>
      <trkpt lat="49.48929" lon="0.61505">
        <ele>114</ele>
        <time>2013-04-21T09:10:31Z</time>
      </trkpt>
      <trkpt lat="49.48925" lon="0.61495">
        <ele>114</ele>
        <time>2013-04-21T09:10:36Z</time>
      </trkpt>
      <trkpt lat="49.48922" lon="0.61485">
        <ele>114</ele>
        <time>2013-04-21T09:10:41Z</time>
      </trkpt>
      <trkpt lat="49.48919" lon="0.61476">
        <ele>115</ele>
        <time>2013-04-21T09:10:46Z</time>
      </trkpt>
      <trkpt lat="49.48917" lon="0.61465">
        <ele>112</ele>
        <time>2013-04-21T09:10:51Z</time>
      </trkpt>
      <trkpt lat="49.48914" lon="0.61457">
        <ele>112</ele>
        <time>2013-04-21T09:10:56Z</time>
      </trkpt>
      <trkpt lat="49.48911" lon="0.61449">
        <ele>113</ele>
        <time>2013-04-21T09:11:01Z</time>
      </trkpt>
      <trkpt lat="49.48908" lon="0.6144">
        <ele>113</ele>
        <time>2013-04-21T09:11:07Z</time>
      </trkpt>
      <trkpt lat="49.48906" lon="0.61434">
        <ele>113</ele>
        <time>2013-04-21T09:11:12Z</time>
      </trkpt>
      <trkpt lat="49.48904" lon="0.61427">
        <ele>114</ele>
        <time>2013-04-21T09:11:17Z</time>
      </trkpt>
      <trkpt lat="49.48901" lon="0.61418">
        <ele>114</ele>
        <time>2013-04-21T09:11:22Z</time>
      </trkpt>
      <trkpt lat="49.48899" lon="0.61409">
        <ele>114</ele>
        <time>2013-04-21T09:11:28Z</time>
      </trkpt>
      <trkpt lat="49.48896" lon="0.61398">
        <ele>114</ele>
        <time>2013-04-21T09:11:34Z</time>
      </trkpt>
      <trkpt lat="49.48893" lon="0.61389">
        <ele>113</ele>
        <time>2013-04-21T09:11:40Z</time>
      </trkpt>
      <trkpt lat="49.48891" lon="0.61382">
        <ele>113</ele>
        <time>2013-04-21T09:11:45Z</time>
      </trkpt>
      <trkpt lat="49.48888" lon="0.61374">
        <ele>113</ele>
        <time>2013-04-21T09:11:50Z</time>
      </trkpt>
      <trkpt lat="49.48886" lon="0.61366">
        <ele>113</ele>
        <time>2013-04-21T09:11:55Z</time>
      </trkpt>
      <trkpt lat="49.48883" lon="0.61358">
        <ele>113</ele>
        <time>2013-04-21T09:12:00Z</time>
      </trkpt>
      <trkpt lat="49.48881" lon="0.6135">
        <ele>113</ele>
        <time>2013-04-21T09:12:05Z</time>
      </trkpt>
      <trkpt lat="49.48878" lon="0.61341">
        <ele>113</ele>
        <time>2013-04-21T09:12:10Z</time>
      </trkpt>
      <trkpt lat="49.48875" lon="0.61333">
        <ele>113</ele>
        <time>2013-04-21T09:12:15Z</time>
      </trkpt>
      <trkpt lat="49.48872" lon="0.61324">
        <ele>113</ele>
        <time>2013-04-21T09:12:21Z</time>
      </trkpt>
      <trkpt lat="49.4887" lon="0.61315">
        <ele>113</ele>
        <time>2013-04-21T09:12:26Z</time>
      </trkpt>
      <trkpt lat="49.48868" lon="0.61307">
        <ele>113</ele>
        <time>2013-04-21T09:12:31Z</time>
      </trkpt>
      <trkpt lat="49.48867" lon="0.61296">
        <ele>113</ele>
        <time>2013-04-21T09:12:37Z</time>
      </trkpt>
      <trkpt lat="49.48865" lon="0.61287">
        <ele>113</ele>
        <time>2013-04-21T09:12:42Z</time>
      </trkpt>
      <trkpt lat="49.48865" lon="0.61277">
        <ele>113</ele>
        <time>2013-04-21T09:12:47Z</time>
      </trkpt>
      <trkpt lat="49.48863" lon="0.61269">
        <ele>113</ele>
        <time>2013-04-21T09:12:52Z</time>
      </trkpt>
      <trkpt lat="49.48862" lon="0.6126">
        <ele>113</ele>
        <time>2013-04-21T09:12:57Z</time>
      </trkpt>
      <trkpt lat="49.48861" lon="0.61252">
        <ele>113</ele>
        <time>2013-04-21T09:13:02Z</time>
      </trkpt>
      <trkpt lat="49.48861" lon="0.61243">
        <ele>114</ele>
        <time>2013-04-21T09:13:07Z</time>
      </trkpt>
      <trkpt lat="49.48858" lon="0.61236">
        <ele>115</ele>
        <time>2013-04-21T09:13:12Z</time>
      </trkpt>
      <trkpt lat="49.48853" lon="0.61229">
        <ele>115</ele>
        <time>2013-04-21T09:13:18Z</time>
      </trkpt>
      <trkpt lat="49.48847" lon="0.61226">
        <ele>115</ele>
        <time>2013-04-21T09:13:23Z</time>
      </trkpt>
      <trkpt lat="49.4884" lon="0.61224">
        <ele>115</ele>
        <time>2013-04-21T09:13:29Z</time>
      </trkpt>
      <trkpt lat="49.48834" lon="0.61221">
        <ele>115</ele>
        <time>2013-04-21T09:13:35Z</time>
      </trkpt>
      <trkpt lat="49.48828" lon="0.6122">
        <ele>115</ele>
        <time>2013-04-21T09:13:40Z</time>
      </trkpt>
      <trkpt lat="49.48822" lon="0.6122">
        <ele>115</ele>
        <time>2013-04-21T09:13:45Z</time>
      </trkpt>
      <trkpt lat="49.48817" lon="0.61219">
        <ele>115</ele>
        <time>2013-04-21T09:13:50Z</time>
      </trkpt>
      <trkpt lat="49.4881" lon="0.61218">
        <ele>115</ele>
        <time>2013-04-21T09:13:56Z</time>
      </trkpt>
      <trkpt lat="49.48804" lon="0.61217">
        <ele>115</ele>
        <time>2013-04-21T09:14:01Z</time>
      </trkpt>
      <trkpt lat="49.488" lon="0.61214">
        <ele>115</ele>
        <time>2013-04-21T09:14:06Z</time>
      </trkpt>
      <trkpt lat="49.48793" lon="0.61211">
        <ele>115</ele>
        <time>2013-04-21T09:14:11Z</time>
      </trkpt>
      <trkpt lat="49.48787" lon="0.61209">
        <ele>115</ele>
        <time>2013-04-21T09:14:16Z</time>
      </trkpt>
      <trkpt lat="49.48782" lon="0.61202">
        <ele>115</ele>
        <time>2013-04-21T09:14:21Z</time>
      </trkpt>
      <trkpt lat="49.48777" lon="0.61196">
        <ele>115</ele>
        <time>2013-04-21T09:14:26Z</time>
      </trkpt>
      <trkpt lat="49.48773" lon="0.6119">
        <ele>116</ele>
        <time>2013-04-21T09:14:31Z</time>
      </trkpt>
      <trkpt lat="49.4877" lon="0.61181">
        <ele>116</ele>
        <time>2013-04-21T09:14:36Z</time>
      </trkpt>
      <trkpt lat="49.48771" lon="0.61174">
        <ele>116</ele>
        <time>2013-04-21T09:14:42Z</time>
      </trkpt>
      <trkpt lat="49.48767" lon="0.61165">
        <ele>117</ele>
        <time>2013-04-21T09:14:47Z</time>
      </trkpt>
      <trkpt lat="49.48765" lon="0.61157">
        <ele>117</ele>
        <time>2013-04-21T09:14:52Z</time>
      </trkpt>
      <trkpt lat="49.48763" lon="0.61149">
        <ele>117</ele>
        <time>2013-04-21T09:14:57Z</time>
      </trkpt>
      <trkpt lat="49.48761" lon="0.6114">
        <ele>117</ele>
        <time>2013-04-21T09:15:03Z</time>
      </trkpt>
      <trkpt lat="49.48758" lon="0.6113">
        <ele>117</ele>
        <time>2013-04-21T09:15:09Z</time>
      </trkpt>
      <trkpt lat="49.48756" lon="0.61123">
        <ele>117</ele>
        <time>2013-04-21T09:15:14Z</time>
      </trkpt>
      <trkpt lat="49.48755" lon="0.61113">
        <ele>117</ele>
        <time>2013-04-21T09:15:20Z</time>
      </trkpt>
      <trkpt lat="49.48754" lon="0.61105">
        <ele>117</ele>
        <time>2013-04-21T09:15:25Z</time>
      </trkpt>
      <trkpt lat="49.48752" lon="0.61099">
        <ele>117</ele>
        <time>2013-04-21T09:15:30Z</time>
      </trkpt>
      <trkpt lat="49.4875" lon="0.6109">
        <ele>117</ele>
        <time>2013-04-21T09:15:36Z</time>
      </trkpt>
      <trkpt lat="49.48748" lon="0.6108">
        <ele>117</ele>
        <time>2013-04-21T09:15:42Z</time>
      </trkpt>
      <trkpt lat="49.48746" lon="0.61071">
        <ele>116</ele>
        <time>2013-04-21T09:15:47Z</time>
      </trkpt>
      <trkpt lat="49.48744" lon="0.61064">
        <ele>116</ele>
        <time>2013-04-21T09:15:52Z</time>
      </trkpt>
      <trkpt lat="49.48744" lon="0.61054">
        <ele>116</ele>
        <time>2013-04-21T09:15:57Z</time>
      </trkpt>
      <trkpt lat="49.4874" lon="0.61045">
        <ele>115</ele>
        <time>2013-04-21T09:16:02Z</time>
      </trkpt>
      <trkpt lat="49.48737" lon="0.61034">
        <ele>115</ele>
        <time>2013-04-21T09:16:07Z</time>
      </trkpt>
      <trkpt lat="49.48733" lon="0.61023">
        <ele>115</ele>
        <time>2013-04-21T09:16:13Z</time>
      </trkpt>
      <trkpt lat="49.48732" lon="0.61011">
        <ele>115</ele>
        <time>2013-04-21T09:16:18Z</time>
      </trkpt>
      <trkpt lat="49.48729" lon="0.61001">
        <ele>115</ele>
        <time>2013-04-21T09:16:23Z</time>
      </trkpt>
      <trkpt lat="49.48727" lon="0.60995">
        <ele>113</ele>
        <time>2013-04-21T09:16:28Z</time>
      </trkpt>
      <trkpt lat="49.48722" lon="0.60987">
        <ele>113</ele>
        <time>2013-04-21T09:16:33Z</time>
      </trkpt>
      <trkpt lat="49.48719" lon="0.60978">
        <ele>113</ele>
        <time>2013-04-21T09:16:38Z</time>
      </trkpt>
      <trkpt lat="49.48717" lon="0.60969">
        <ele>113</ele>
        <time>2013-04-21T09:16:44Z</time>
      </trkpt>
      <trkpt lat="49.48716" lon="0.60959">
        <ele>113</ele>
        <time>2013-04-21T09:16:49Z</time>
      </trkpt>
      <trkpt lat="49.48713" lon="0.60948">
        <ele>113</ele>
        <time>2013-04-21T09:16:54Z</time>
      </trkpt>
      <trkpt lat="49.4871" lon="0.6094">
        <ele>112</ele>
        <time>2013-04-21T09:17:00Z</time>
      </trkpt>
      <trkpt lat="49.48705" lon="0.60927">
        <ele>112</ele>
        <time>2013-04-21T09:17:06Z</time>
      </trkpt>
      <trkpt lat="49.48702" lon="0.60918">
        <ele>112</ele>
        <time>2013-04-21T09:17:12Z</time>
      </trkpt>
      <trkpt lat="49.48698" lon="0.60912">
        <ele>111</ele>
        <time>2013-04-21T09:17:17Z</time>
      </trkpt>
      <trkpt lat="49.48696" lon="0.60906">
        <ele>111</ele>
        <time>2013-04-21T09:17:22Z</time>
      </trkpt>
      <trkpt lat="49.48695" lon="0.60898">
        <ele>111</ele>
        <time>2013-04-21T09:17:27Z</time>
      </trkpt>
      <trkpt lat="49.48691" lon="0.60888">
        <ele>111</ele>
        <time>2013-04-21T09:17:32Z</time>
      </trkpt>
      <trkpt lat="49.48686" lon="0.60879">
        <ele>111</ele>
        <time>2013-04-21T09:17:37Z</time>
      </trkpt>
      <trkpt lat="49.48684" lon="0.60872">
        <ele>110</ele>
        <time>2013-04-21T09:17:42Z</time>
      </trkpt>
      <trkpt lat="49.48679" lon="0.60861">
        <ele>110</ele>
        <time>2013-04-21T09:17:47Z</time>
      </trkpt>
      <trkpt lat="49.48675" lon="0.60854">
        <ele>110</ele>
        <time>2013-04-21T09:17:53Z</time>
      </trkpt>
      <trkpt lat="49.48671" lon="0.60846">
        <ele>110</ele>
        <time>2013-04-21T09:17:59Z</time>
      </trkpt>
      <trkpt lat="49.48666" lon="0.60836">
        <ele>110</ele>
        <time>2013-04-21T09:18:04Z</time>
      </trkpt>
      <trkpt lat="49.48663" lon="0.60827">
        <ele>110</ele>
        <time>2013-04-21T09:18:09Z</time>
      </trkpt>
      <trkpt lat="49.4866" lon="0.60822">
        <ele>109</ele>
        <time>2013-04-21T09:18:15Z</time>
      </trkpt>
      <trkpt lat="49.48657" lon="0.60815">
        <ele>109</ele>
        <time>2013-04-21T09:18:21Z</time>
      </trkpt>
      <trkpt lat="49.48653" lon="0.60807">
        <ele>109</ele>
        <time>2013-04-21T09:18:27Z</time>
      </trkpt>
      <trkpt lat="49.48647" lon="0.60795">
        <ele>108</ele>
        <time>2013-04-21T09:18:32Z</time>
      </trkpt>
      <trkpt lat="49.48643" lon="0.60788">
        <ele>108</ele>
        <time>2013-04-21T09:18:37Z</time>
      </trkpt>
      <trkpt lat="49.48639" lon="0.60781">
        <ele>108</ele>
        <time>2013-04-21T09:18:42Z</time>
      </trkpt>
      <trkpt lat="49.48634" lon="0.60773">
        <ele>108</ele>
        <time>2013-04-21T09:18:48Z</time>
      </trkpt>
      <trkpt lat="49.48629" lon="0.60766">
        <ele>108</ele>
        <time>2013-04-21T09:18:54Z</time>
      </trkpt>
      <trkpt lat="49.48625" lon="0.60758">
        <ele>108</ele>
        <time>2013-04-21T09:19:00Z</time>
      </trkpt>
      <trkpt lat="49.4862" lon="0.6075">
        <ele>108</ele>
        <time>2013-04-21T09:19:06Z</time>
      </trkpt>
      <trkpt lat="49.48614" lon="0.60745">
        <ele>107</ele>
        <time>2013-04-21T09:19:11Z</time>
      </trkpt>
      <trkpt lat="49.48607" lon="0.60736">
        <ele>107</ele>
        <time>2013-04-21T09:19:17Z</time>
      </trkpt>
      <trkpt lat="49.48602" lon="0.60728">
        <ele>107</ele>
        <time>2013-04-21T09:19:22Z</time>
      </trkpt>
      <trkpt lat="49.48597" lon="0.6072">
        <ele>107</ele>
        <time>2013-04-21T09:19:28Z</time>
      </trkpt>
      <trkpt lat="49.48593" lon="0.60713">
        <ele>107</ele>
        <time>2013-04-21T09:19:33Z</time>
      </trkpt>
      <trkpt lat="49.48587" lon="0.60706">
        <ele>107</ele>
        <time>2013-04-21T09:19:39Z</time>
      </trkpt>
      <trkpt lat="49.4858" lon="0.60702">
        <ele>104</ele>
        <time>2013-04-21T09:19:44Z</time>
      </trkpt>
      <trkpt lat="49.4857" lon="0.60695">
        <ele>104</ele>
        <time>2013-04-21T09:19:49Z</time>
      </trkpt>
      <trkpt lat="49.48563" lon="0.60688">
        <ele>104</ele>
        <time>2013-04-21T09:19:55Z</time>
      </trkpt>
      <trkpt lat="49.48558" lon="0.60682">
        <ele>104</ele>
        <time>2013-04-21T09:20:00Z</time>
      </trkpt>
      <trkpt lat="49.48551" lon="0.60677">
        <ele>104</ele>
        <time>2013-04-21T09:20:05Z</time>
      </trkpt>
      <trkpt lat="49.48548" lon="0.6067">
        <ele>104</ele>
        <time>2013-04-21T09:20:10Z</time>
      </trkpt>
      <trkpt lat="49.48541" lon="0.60663">
        <ele>103</ele>
        <time>2013-04-21T09:20:16Z</time>
      </trkpt>
      <trkpt lat="49.48536" lon="0.60655">
        <ele>102</ele>
        <time>2013-04-21T09:20:22Z</time>
      </trkpt>
      <trkpt lat="49.48531" lon="0.60651">
        <ele>102</ele>
        <time>2013-04-21T09:20:27Z</time>
      </trkpt>
      <trkpt lat="49.48524" lon="0.60647">
        <ele>102</ele>
        <time>2013-04-21T09:20:32Z</time>
      </trkpt>
      <trkpt lat="49.48519" lon="0.60641">
        <ele>102</ele>
        <time>2013-04-21T09:20:38Z</time>
      </trkpt>
      <trkpt lat="49.48515" lon="0.60636">
        <ele>102</ele>
        <time>2013-04-21T09:20:43Z</time>
      </trkpt>
      <trkpt lat="49.48508" lon="0.60631">
        <ele>102</ele>
        <time>2013-04-21T09:20:49Z</time>
      </trkpt>
      <trkpt lat="49.485" lon="0.60629">
        <ele>101</ele>
        <time>2013-04-21T09:20:54Z</time>
      </trkpt>
      <trkpt lat="49.48494" lon="0.60623">
        <ele>98</ele>
        <time>2013-04-21T09:20:59Z</time>
      </trkpt>
      <trkpt lat="49.48489" lon="0.60621">
        <ele>98</ele>
        <time>2013-04-21T09:21:04Z</time>
      </trkpt>
      <trkpt lat="49.48482" lon="0.60615">
        <ele>98</ele>
        <time>2013-04-21T09:21:09Z</time>
      </trkpt>
      <trkpt lat="49.48476" lon="0.60611">
        <ele>97</ele>
        <time>2013-04-21T09:21:14Z</time>
      </trkpt>
      <trkpt lat="49.48471" lon="0.60604">
        <ele>97</ele>
        <time>2013-04-21T09:21:19Z</time>
      </trkpt>
      <trkpt lat="49.48465" lon="0.60601">
        <ele>97</ele>
        <time>2013-04-21T09:21:24Z</time>
      </trkpt>
      <trkpt lat="49.4846" lon="0.60596">
        <ele>97</ele>
        <time>2013-04-21T09:21:29Z</time>
      </trkpt>
      <trkpt lat="49.48454" lon="0.60592">
        <ele>96</ele>
        <time>2013-04-21T09:21:35Z</time>
      </trkpt>
      <trkpt lat="49.48449" lon="0.60587">
        <ele>96</ele>
        <time>2013-04-21T09:21:41Z</time>
      </trkpt>
      <trkpt lat="49.48442" lon="0.60581">
        <ele>94</ele>
        <time>2013-04-21T09:21:46Z</time>
      </trkpt>
      <trkpt lat="49.48435" lon="0.60576">
        <ele>94</ele>
        <time>2013-04-21T09:21:51Z</time>
      </trkpt>
      <trkpt lat="49.48425" lon="0.60577">
        <ele>94</ele>
        <time>2013-04-21T09:21:56Z</time>
      </trkpt>
      <trkpt lat="49.48419" lon="0.60574">
        <ele>93</ele>
        <time>2013-04-21T09:22:01Z</time>
      </trkpt>
      <trkpt lat="49.48413" lon="0.60572">
        <ele>92</ele>
        <time>2013-04-21T09:22:06Z</time>
      </trkpt>
      <trkpt lat="49.48409" lon="0.60569">
        <ele>91</ele>
        <time>2013-04-21T09:22:11Z</time>
      </trkpt>
      <trkpt lat="49.48404" lon="0.60563">
        <ele>91</ele>
        <time>2013-04-21T09:22:16Z</time>
      </trkpt>
      <trkpt lat="49.48397" lon="0.60561">
        <ele>90</ele>
        <time>2013-04-21T09:22:21Z</time>
      </trkpt>
      <trkpt lat="49.48393" lon="0.60556">
        <ele>90</ele>
        <time>2013-04-21T09:22:26Z</time>
      </trkpt>
      <trkpt lat="49.48387" lon="0.60554">
        <ele>90</ele>
        <time>2013-04-21T09:22:32Z</time>
      </trkpt>
      <trkpt lat="49.48381" lon="0.60551">
        <ele>89</ele>
        <time>2013-04-21T09:22:37Z</time>
      </trkpt>
      <trkpt lat="49.48374" lon="0.60548">
        <ele>89</ele>
        <time>2013-04-21T09:22:42Z</time>
      </trkpt>
      <trkpt lat="49.48366" lon="0.60547">
        <ele>89</ele>
        <time>2013-04-21T09:22:48Z</time>
      </trkpt>
      <trkpt lat="49.48359" lon="0.60543">
        <ele>88</ele>
        <time>2013-04-21T09:22:54Z</time>
      </trkpt>
      <trkpt lat="49.48354" lon="0.60542">
        <ele>88</ele>
        <time>2013-04-21T09:22:59Z</time>
      </trkpt>
      <trkpt lat="49.48348" lon="0.6054">
        <ele>88</ele>
        <time>2013-04-21T09:23:04Z</time>
      </trkpt>
      <trkpt lat="49.48343" lon="0.6054">
        <ele>88</ele>
        <time>2013-04-21T09:23:09Z</time>
      </trkpt>
      <trkpt lat="49.48339" lon="0.60536">
        <ele>88</ele>
        <time>2013-04-21T09:23:14Z</time>
      </trkpt>
      <trkpt lat="49.48331" lon="0.6053">
        <ele>84</ele>
        <time>2013-04-21T09:23:20Z</time>
      </trkpt>
      <trkpt lat="49.48326" lon="0.60527">
        <ele>84</ele>
        <time>2013-04-21T09:23:26Z</time>
      </trkpt>
      <trkpt lat="49.48319" lon="0.60519">
        <ele>84</ele>
        <time>2013-04-21T09:23:31Z</time>
      </trkpt>
      <trkpt lat="49.48312" lon="0.60516">
        <ele>83</ele>
        <time>2013-04-21T09:23:36Z</time>
      </trkpt>
      <trkpt lat="49.48305" lon="0.60515">
        <ele>83</ele>
        <time>2013-04-21T09:23:41Z</time>
      </trkpt>
      <trkpt lat="49.48302" lon="0.6051">
        <ele>83</ele>
        <time>2013-04-21T09:23:47Z</time>
      </trkpt>
      <trkpt lat="49.48296" lon="0.60505">
        <ele>82</ele>
        <time>2013-04-21T09:23:53Z</time>
      </trkpt>
      <trkpt lat="49.4829" lon="0.60501">
        <ele>82</ele>
        <time>2013-04-21T09:23:59Z</time>
      </trkpt>
      <trkpt lat="49.48283" lon="0.60493">
        <ele>81</ele>
        <time>2013-04-21T09:24:04Z</time>
      </trkpt>
      <trkpt lat="49.48277" lon="0.60487">
        <ele>81</ele>
        <time>2013-04-21T09:24:10Z</time>
      </trkpt>
      <trkpt lat="49.48272" lon="0.60481">
        <ele>80</ele>
        <time>2013-04-21T09:24:15Z</time>
      </trkpt>
      <trkpt lat="49.48268" lon="0.60476">
        <ele>80</ele>
        <time>2013-04-21T09:24:22Z</time>
      </trkpt>
      <trkpt lat="49.48265" lon="0.60473">
        <ele>80</ele>
        <time>2013-04-21T09:24:29Z</time>
      </trkpt>
      <trkpt lat="49.48262" lon="0.60467">
        <ele>80</ele>
        <time>2013-04-21T09:24:34Z</time>
      </trkpt>
      <trkpt lat="49.48257" lon="0.60461">
        <ele>80</ele>
        <time>2013-04-21T09:24:40Z</time>
      </trkpt>
      <trkpt lat="49.48253" lon="0.60457">
        <ele>80</ele>
        <time>2013-04-21T09:24:46Z</time>
      </trkpt>
      <trkpt lat="49.48249" lon="0.60457">
        <ele>75</ele>
        <time>2013-04-21T09:24:55Z</time>
      </trkpt>
      <trkpt lat="49.48246" lon="0.60453">
        <ele>75</ele>
        <time>2013-04-21T09:25:01Z</time>
      </trkpt>
      <trkpt lat="49.48243" lon="0.60451">
        <ele>75</ele>
        <time>2013-04-21T09:25:08Z</time>
      </trkpt>
      <trkpt lat="49.48239" lon="0.60444">
        <ele>75</ele>
        <time>2013-04-21T09:25:14Z</time>
      </trkpt>
      <trkpt lat="49.48237" lon="0.60439">
        <ele>74</ele>
        <time>2013-04-21T09:25:20Z</time>
      </trkpt>
      <trkpt lat="49.48233" lon="0.60438">
        <ele>74</ele>
        <time>2013-04-21T09:25:25Z</time>
      </trkpt>
      <trkpt lat="49.48228" lon="0.60432">
        <ele>74</ele>
        <time>2013-04-21T09:25:31Z</time>
      </trkpt>
      <trkpt lat="49.48225" lon="0.60432">
        <ele>74</ele>
        <time>2013-04-21T09:25:36Z</time>
      </trkpt>
      <trkpt lat="49.48222" lon="0.60429">
        <ele>74</ele>
        <time>2013-04-21T09:25:42Z</time>
      </trkpt>
      <trkpt lat="49.48219" lon="0.60427">
        <ele>74</ele>
        <time>2013-04-21T09:25:48Z</time>
      </trkpt>
      <trkpt lat="49.48218" lon="0.60424">
        <ele>74</ele>
        <time>2013-04-21T09:25:58Z</time>
      </trkpt>
      <trkpt lat="49.48215" lon="0.60414">
        <ele>71</ele>
        <time>2013-04-21T09:26:05Z</time>
      </trkpt>
      <trkpt lat="49.48213" lon="0.60407">
        <ele>71</ele>
        <time>2013-04-21T09:26:11Z</time>
      </trkpt>
      <trkpt lat="49.48208" lon="0.60403">
        <ele>71</ele>
        <time>2013-04-21T09:26:17Z</time>
      </trkpt>
      <trkpt lat="49.48204" lon="0.60399">
        <ele>70</ele>
        <time>2013-04-21T09:26:22Z</time>
      </trkpt>
      <trkpt lat="49.48199" lon="0.60394">
        <ele>70</ele>
        <time>2013-04-21T09:26:28Z</time>
      </trkpt>
      <trkpt lat="49.48194" lon="0.60387">
        <ele>70</ele>
        <time>2013-04-21T09:26:34Z</time>
      </trkpt>
      <trkpt lat="49.48189" lon="0.60382">
        <ele>69</ele>
        <time>2013-04-21T09:26:40Z</time>
      </trkpt>
      <trkpt lat="49.48184" lon="0.60378">
        <ele>69</ele>
        <time>2013-04-21T09:26:46Z</time>
      </trkpt>
      <trkpt lat="49.4818" lon="0.60373">
        <ele>69</ele>
        <time>2013-04-21T09:26:53Z</time>
      </trkpt>
      <trkpt lat="49.48174" lon="0.60365">
        <ele>68</ele>
        <time>2013-04-21T09:26:59Z</time>
      </trkpt>
      <trkpt lat="49.48171" lon="0.60361">
        <ele>68</ele>
        <time>2013-04-21T09:27:04Z</time>
      </trkpt>
      <trkpt lat="49.48167" lon="0.60355">
        <ele>63</ele>
        <time>2013-04-21T09:27:10Z</time>
      </trkpt>
      <trkpt lat="49.48161" lon="0.6035">
        <ele>63</ele>
        <time>2013-04-21T09:27:16Z</time>
      </trkpt>
      <trkpt lat="49.48156" lon="0.60346">
        <ele>63</ele>
        <time>2013-04-21T09:27:22Z</time>
      </trkpt>
      <trkpt lat="49.48153" lon="0.60342">
        <ele>63</ele>
        <time>2013-04-21T09:27:27Z</time>
      </trkpt>
      <trkpt lat="49.48147" lon="0.60334">
        <ele>63</ele>
        <time>2013-04-21T09:27:33Z</time>
      </trkpt>
      <trkpt lat="49.48141" lon="0.60326">
        <ele>60</ele>
        <time>2013-04-21T09:27:39Z</time>
      </trkpt>
      <trkpt lat="49.48136" lon="0.60318">
        <ele>59</ele>
        <time>2013-04-21T09:27:46Z</time>
      </trkpt>
      <trkpt lat="49.48131" lon="0.60313">
        <ele>59</ele>
        <time>2013-04-21T09:27:52Z</time>
      </trkpt>
      <trkpt lat="49.48127" lon="0.60309">
        <ele>59</ele>
        <time>2013-04-21T09:27:58Z</time>
      </trkpt>
      <trkpt lat="49.48122" lon="0.60306">
        <ele>58</ele>
        <time>2013-04-21T09:28:04Z</time>
      </trkpt>
      <trkpt lat="49.48117" lon="0.60301">
        <ele>58</ele>
        <time>2013-04-21T09:28:09Z</time>
      </trkpt>
      <trkpt lat="49.48111" lon="0.60295">
        <ele>58</ele>
        <time>2013-04-21T09:28:15Z</time>
      </trkpt>
      <trkpt lat="49.48106" lon="0.6029">
        <ele>58</ele>
        <time>2013-04-21T09:28:20Z</time>
      </trkpt>
      <trkpt lat="49.481" lon="0.60286">
        <ele>57</ele>
        <time>2013-04-21T09:28:25Z</time>
      </trkpt>
      <trkpt lat="49.48094" lon="0.6028">
        <ele>57</ele>
        <time>2013-04-21T09:28:31Z</time>
      </trkpt>
      <trkpt lat="49.48088" lon="0.60273">
        <ele>56</ele>
        <time>2013-04-21T09:28:37Z</time>
      </trkpt>
      <trkpt lat="49.48082" lon="0.60266">
        <ele>54</ele>
        <time>2013-04-21T09:28:42Z</time>
      </trkpt>
      <trkpt lat="49.48077" lon="0.60259">
        <ele>54</ele>
        <time>2013-04-21T09:28:47Z</time>
      </trkpt>
      <trkpt lat="49.48071" lon="0.60254">
        <ele>54</ele>
        <time>2013-04-21T09:28:52Z</time>
      </trkpt>
      <trkpt lat="49.48064" lon="0.60247">
        <ele>53</ele>
        <time>2013-04-21T09:28:58Z</time>
      </trkpt>
      <trkpt lat="49.4806" lon="0.60242">
        <ele>52</ele>
        <time>2013-04-21T09:29:03Z</time>
      </trkpt>
      <trkpt lat="49.48055" lon="0.60234">
        <ele>52</ele>
        <time>2013-04-21T09:29:09Z</time>
      </trkpt>
      <trkpt lat="49.48049" lon="0.60227">
        <ele>52</ele>
        <time>2013-04-21T09:29:15Z</time>
      </trkpt>
      <trkpt lat="49.48043" lon="0.6022">
        <ele>51</ele>
        <time>2013-04-21T09:29:21Z</time>
      </trkpt>
      <trkpt lat="49.48038" lon="0.60212">
        <ele>51</ele>
        <time>2013-04-21T09:29:27Z</time>
      </trkpt>
      <trkpt lat="49.48032" lon="0.60205">
        <ele>51</ele>
        <time>2013-04-21T09:29:33Z</time>
      </trkpt>
      <trkpt lat="49.48027" lon="0.60198">
        <ele>51</ele>
        <time>2013-04-21T09:29:39Z</time>
      </trkpt>
      <trkpt lat="49.48021" lon="0.60191">
        <ele>50</ele>
        <time>2013-04-21T09:29:45Z</time>
      </trkpt>
      <trkpt lat="49.48015" lon="0.60184">
        <ele>50</ele>
        <time>2013-04-21T09:29:51Z</time>
      </trkpt>
      <trkpt lat="49.48009" lon="0.60177">
        <ele>49</ele>
        <time>2013-04-21T09:29:57Z</time>
      </trkpt>
      <trkpt lat="49.48004" lon="0.60171">
        <ele>49</ele>
        <time>2013-04-21T09:30:02Z</time>
      </trkpt>
      <trkpt lat="49.48" lon="0.60165">
        <ele>48</ele>
        <time>2013-04-21T09:30:07Z</time>
      </trkpt>
      <trkpt lat="49.47994" lon="0.60157">
        <ele>48</ele>
        <time>2013-04-21T09:30:13Z</time>
      </trkpt>
      <trkpt lat="49.47988" lon="0.60151">
        <ele>47</ele>
        <time>2013-04-21T09:30:19Z</time>
      </trkpt>
      <trkpt lat="49.47983" lon="0.60145">
        <ele>47</ele>
        <time>2013-04-21T09:30:24Z</time>
      </trkpt>
      <trkpt lat="49.47979" lon="0.60138">
        <ele>47</ele>
        <time>2013-04-21T09:30:30Z</time>
      </trkpt>
      <trkpt lat="49.47979" lon="0.60127">
        <ele>47</ele>
        <time>2013-04-21T09:30:37Z</time>
      </trkpt>
      <trkpt lat="49.47984" lon="0.60121">
        <ele>47</ele>
        <time>2013-04-21T09:30:43Z</time>
      </trkpt>
      <trkpt lat="49.4799" lon="0.60116">
        <ele>47</ele>
        <time>2013-04-21T09:30:48Z</time>
      </trkpt>
      <trkpt lat="49.47994" lon="0.60112">
        <ele>47</ele>
        <time>2013-04-21T09:30:53Z</time>
      </trkpt>
      <trkpt lat="49.48" lon="0.60105">
        <ele>47</ele>
        <time>2013-04-21T09:30:59Z</time>
      </trkpt>
      <trkpt lat="49.48005" lon="0.60099">
        <ele>48</ele>
        <time>2013-04-21T09:31:05Z</time>
      </trkpt>
      <trkpt lat="49.4801" lon="0.60094">
        <ele>48</ele>
        <time>2013-04-21T09:31:11Z</time>
      </trkpt>
      <trkpt lat="49.48016" lon="0.60088">
        <ele>48</ele>
        <time>2013-04-21T09:31:17Z</time>
      </trkpt>
      <trkpt lat="49.48021" lon="0.60082">
        <ele>47</ele>
        <time>2013-04-21T09:31:23Z</time>
      </trkpt>
      <trkpt lat="49.48027" lon="0.60076">
        <ele>48</ele>
        <time>2013-04-21T09:31:29Z</time>
      </trkpt>
      <trkpt lat="49.48032" lon="0.60068">
        <ele>48</ele>
        <time>2013-04-21T09:31:35Z</time>
      </trkpt>
      <trkpt lat="49.48038" lon="0.60062">
        <ele>48</ele>
        <time>2013-04-21T09:31:41Z</time>
      </trkpt>
      <trkpt lat="49.48043" lon="0.60056">
        <ele>48</ele>
        <time>2013-04-21T09:31:46Z</time>
      </trkpt>
      <trkpt lat="49.48049" lon="0.60049">
        <ele>48</ele>
        <time>2013-04-21T09:31:52Z</time>
      </trkpt>
      <trkpt lat="49.48055" lon="0.60042">
        <ele>48</ele>
        <time>2013-04-21T09:31:58Z</time>
      </trkpt>
      <trkpt lat="49.4806" lon="0.60037">
        <ele>48</ele>
        <time>2013-04-21T09:32:03Z</time>
      </trkpt>
      <trkpt lat="49.48066" lon="0.60031">
        <ele>48</ele>
        <time>2013-04-21T09:32:09Z</time>
      </trkpt>
      <trkpt lat="49.48071" lon="0.60027">
        <ele>48</ele>
        <time>2013-04-21T09:32:15Z</time>
      </trkpt>
      <trkpt lat="49.48076" lon="0.60022">
        <ele>47</ele>
        <time>2013-04-21T09:32:20Z</time>
      </trkpt>
      <trkpt lat="49.48081" lon="0.60018">
        <ele>47</ele>
        <time>2013-04-21T09:32:25Z</time>
      </trkpt>
      <trkpt lat="49.48087" lon="0.60013">
        <ele>49</ele>
        <time>2013-04-21T09:32:30Z</time>
      </trkpt>
      <trkpt lat="49.48093" lon="0.60008">
        <ele>49</ele>
        <time>2013-04-21T09:32:35Z</time>
      </trkpt>
      <trkpt lat="49.48098" lon="0.60005">
        <ele>49</ele>
        <time>2013-04-21T09:32:40Z</time>
      </trkpt>
      <trkpt lat="49.48104" lon="0.60001">
        <ele>50</ele>
        <time>2013-04-21T09:32:45Z</time>
      </trkpt>
      <trkpt lat="49.48111" lon="0.59997">
        <ele>48</ele>
        <time>2013-04-21T09:32:50Z</time>
      </trkpt>
      <trkpt lat="49.48117" lon="0.59993">
        <ele>49</ele>
        <time>2013-04-21T09:32:56Z</time>
      </trkpt>
      <trkpt lat="49.48122" lon="0.59989">
        <ele>49</ele>
        <time>2013-04-21T09:33:01Z</time>
      </trkpt>
      <trkpt lat="49.48128" lon="0.59985">
        <ele>49</ele>
        <time>2013-04-21T09:33:06Z</time>
      </trkpt>
      <trkpt lat="49.48135" lon="0.59984">
        <ele>49</ele>
        <time>2013-04-21T09:33:11Z</time>
      </trkpt>
      <trkpt lat="49.4814" lon="0.59981">
        <ele>50</ele>
        <time>2013-04-21T09:33:16Z</time>
      </trkpt>
      <trkpt lat="49.48146" lon="0.59979">
        <ele>50</ele>
        <time>2013-04-21T09:33:21Z</time>
      </trkpt>
      <trkpt lat="49.48152" lon="0.59976">
        <ele>50</ele>
        <time>2013-04-21T09:33:26Z</time>
      </trkpt>
      <trkpt lat="49.48157" lon="0.59973">
        <ele>50</ele>
        <time>2013-04-21T09:33:31Z</time>
      </trkpt>
      <trkpt lat="49.48164" lon="0.59972">
        <ele>50</ele>
        <time>2013-04-21T09:33:37Z</time>
      </trkpt>
      <trkpt lat="49.4817" lon="0.59973">
        <ele>53</ele>
        <time>2013-04-21T09:33:42Z</time>
      </trkpt>
      <trkpt lat="49.48177" lon="0.59969">
        <ele>52</ele>
        <time>2013-04-21T09:33:47Z</time>
      </trkpt>
      <trkpt lat="49.48183" lon="0.59967">
        <ele>52</ele>
        <time>2013-04-21T09:33:52Z</time>
      </trkpt>
      <trkpt lat="49.4819" lon="0.59964">
        <ele>53</ele>
        <time>2013-04-21T09:33:58Z</time>
      </trkpt>
      <trkpt lat="49.48197" lon="0.59961">
        <ele>53</ele>
        <time>2013-04-21T09:34:04Z</time>
      </trkpt>
      <trkpt lat="49.48202" lon="0.59957">
        <ele>53</ele>
        <time>2013-04-21T09:34:09Z</time>
      </trkpt>
      <trkpt lat="49.48209" lon="0.59951">
        <ele>53</ele>
        <time>2013-04-21T09:34:15Z</time>
      </trkpt>
      <trkpt lat="49.48212" lon="0.59949">
        <ele>53</ele>
        <time>2013-04-21T09:34:20Z</time>
      </trkpt>
      <trkpt lat="49.48217" lon="0.59944">
        <ele>53</ele>
        <time>2013-04-21T09:34:26Z</time>
      </trkpt>
      <trkpt lat="49.48223" lon="0.59939">
        <ele>53</ele>
        <time>2013-04-21T09:34:32Z</time>
      </trkpt>
      <trkpt lat="49.48229" lon="0.59934">
        <ele>53</ele>
        <time>2013-04-21T09:34:38Z</time>
      </trkpt>
      <trkpt lat="49.48235" lon="0.59929">
        <ele>53</ele>
        <time>2013-04-21T09:34:43Z</time>
      </trkpt>
      <trkpt lat="49.48241" lon="0.59925">
        <ele>53</ele>
        <time>2013-04-21T09:34:49Z</time>
      </trkpt>
      <trkpt lat="49.48248" lon="0.59918">
        <ele>54</ele>
        <time>2013-04-21T09:34:54Z</time>
      </trkpt>
      <trkpt lat="49.48254" lon="0.59913">
        <ele>54</ele>
        <time>2013-04-21T09:34:59Z</time>
      </trkpt>
      <trkpt lat="49.48263" lon="0.59905">
        <ele>54</ele>
        <time>2013-04-21T09:35:04Z</time>
      </trkpt>
      <trkpt lat="49.48267" lon="0.59901">
        <ele>54</ele>
        <time>2013-04-21T09:35:09Z</time>
      </trkpt>
      <trkpt lat="49.48272" lon="0.59894">
        <ele>54</ele>
        <time>2013-04-21T09:35:14Z</time>
      </trkpt>
      <trkpt lat="49.48277" lon="0.59886">
        <ele>54</ele>
        <time>2013-04-21T09:35:20Z</time>
      </trkpt>
      <trkpt lat="49.48284" lon="0.59878">
        <ele>54</ele>
        <time>2013-04-21T09:35:26Z</time>
      </trkpt>
      <trkpt lat="49.48288" lon="0.59873">
        <ele>54</ele>
        <time>2013-04-21T09:35:32Z</time>
      </trkpt>
      <trkpt lat="49.48293" lon="0.59868">
        <ele>54</ele>
        <time>2013-04-21T09:35:37Z</time>
      </trkpt>
      <trkpt lat="49.48299" lon="0.59863">
        <ele>55</ele>
        <time>2013-04-21T09:35:43Z</time>
      </trkpt>
      <trkpt lat="49.48304" lon="0.59858">
        <ele>55</ele>
        <time>2013-04-21T09:35:48Z</time>
      </trkpt>
      <trkpt lat="49.4831" lon="0.59854">
        <ele>55</ele>
        <time>2013-04-21T09:35:53Z</time>
      </trkpt>
      <trkpt lat="49.48314" lon="0.5985">
        <ele>55</ele>
        <time>2013-04-21T09:35:58Z</time>
      </trkpt>
      <trkpt lat="49.48318" lon="0.59846">
        <ele>55</ele>
        <time>2013-04-21T09:36:03Z</time>
      </trkpt>
      <trkpt lat="49.48323" lon="0.59841">
        <ele>55</ele>
        <time>2013-04-21T09:36:09Z</time>
      </trkpt>
      <trkpt lat="49.48327" lon="0.59836">
        <ele>56</ele>
        <time>2013-04-21T09:36:14Z</time>
      </trkpt>
      <trkpt lat="49.48331" lon="0.59835">
        <ele>56</ele>
        <time>2013-04-21T09:36:19Z</time>
      </trkpt>
      <trkpt lat="49.48337" lon="0.59833">
        <ele>56</ele>
        <time>2013-04-21T09:36:24Z</time>
      </trkpt>
      <trkpt lat="49.48344" lon="0.59828">
        <ele>56</ele>
        <time>2013-04-21T09:36:29Z</time>
      </trkpt>
      <trkpt lat="49.48349" lon="0.59825">
        <ele>55</ele>
        <time>2013-04-21T09:36:34Z</time>
      </trkpt>
      <trkpt lat="49.48355" lon="0.59822">
        <ele>55</ele>
        <time>2013-04-21T09:36:40Z</time>
      </trkpt>
      <trkpt lat="49.48361" lon="0.5982">
        <ele>55</ele>
        <time>2013-04-21T09:36:45Z</time>
      </trkpt>
      <trkpt lat="49.48366" lon="0.59818">
        <ele>55</ele>
        <time>2013-04-21T09:36:50Z</time>
      </trkpt>
      <trkpt lat="49.48372" lon="0.59815">
        <ele>55</ele>
        <time>2013-04-21T09:36:56Z</time>
      </trkpt>
      <trkpt lat="49.48378" lon="0.59812">
        <ele>55</ele>
        <time>2013-04-21T09:37:01Z</time>
      </trkpt>
      <trkpt lat="49.48383" lon="0.59807">
        <ele>55</ele>
        <time>2013-04-21T09:37:07Z</time>
      </trkpt>
      <trkpt lat="49.48388" lon="0.59807">
        <ele>55</ele>
        <time>2013-04-21T09:37:12Z</time>
      </trkpt>
      <trkpt lat="49.48393" lon="0.59804">
        <ele>55</ele>
        <time>2013-04-21T09:37:17Z</time>
      </trkpt>
      <trkpt lat="49.484" lon="0.598">
        <ele>55</ele>
        <time>2013-04-21T09:37:23Z</time>
      </trkpt>
      <trkpt lat="49.48405" lon="0.598">
        <ele>55</ele>
        <time>2013-04-21T09:37:28Z</time>
      </trkpt>
      <trkpt lat="49.48411" lon="0.59799">
        <ele>56</ele>
        <time>2013-04-21T09:37:33Z</time>
      </trkpt>
      <trkpt lat="49.48417" lon="0.59798">
        <ele>56</ele>
        <time>2013-04-21T09:37:38Z</time>
      </trkpt>
      <trkpt lat="49.4842" lon="0.59799">
        <ele>57</ele>
        <time>2013-04-21T09:37:44Z</time>
      </trkpt>
      <trkpt lat="49.48421" lon="0.59808">
        <ele>57</ele>
        <time>2013-04-21T09:37:49Z</time>
      </trkpt>
      <trkpt lat="49.48424" lon="0.59815">
        <ele>57</ele>
        <time>2013-04-21T09:37:54Z</time>
      </trkpt>
      <trkpt lat="49.48426" lon="0.59825">
        <ele>57</ele>
        <time>2013-04-21T09:38:00Z</time>
      </trkpt>
      <trkpt lat="49.4843" lon="0.59829">
        <ele>57</ele>
        <time>2013-04-21T09:38:05Z</time>
      </trkpt>
      <trkpt lat="49.48435" lon="0.59834">
        <ele>59</ele>
        <time>2013-04-21T09:38:11Z</time>
      </trkpt>
      <trkpt lat="49.48442" lon="0.59837">
        <ele>59</ele>
        <time>2013-04-21T09:38:17Z</time>
      </trkpt>
      <trkpt lat="49.48448" lon="0.59838">
        <ele>59</ele>
        <time>2013-04-21T09:38:23Z</time>
      </trkpt>
      <trkpt lat="49.48455" lon="0.59838">
        <ele>60</ele>
        <time>2013-04-21T09:38:29Z</time>
      </trkpt>
      <trkpt lat="49.4846" lon="0.59836">
        <ele>60</ele>
        <time>2013-04-21T09:38:34Z</time>
      </trkpt>
      <trkpt lat="49.48467" lon="0.59832">
        <ele>58</ele>
        <time>2013-04-21T09:38:40Z</time>
      </trkpt>
      <trkpt lat="49.48472" lon="0.59828">
        <ele>58</ele>
        <time>2013-04-21T09:38:45Z</time>
      </trkpt>
      <trkpt lat="49.48478" lon="0.59825">
        <ele>58</ele>
        <time>2013-04-21T09:38:50Z</time>
      </trkpt>
      <trkpt lat="49.48483" lon="0.59821">
        <ele>58</ele>
        <time>2013-04-21T09:38:55Z</time>
      </trkpt>
      <trkpt lat="49.48489" lon="0.59818">
        <ele>59</ele>
        <time>2013-04-21T09:39:00Z</time>
      </trkpt>
      <trkpt lat="49.48494" lon="0.59815">
        <ele>59</ele>
        <time>2013-04-21T09:39:05Z</time>
      </trkpt>
      <trkpt lat="49.485" lon="0.59812">
        <ele>59</ele>
        <time>2013-04-21T09:39:10Z</time>
      </trkpt>
      <trkpt lat="49.48507" lon="0.59809">
        <ele>59</ele>
        <time>2013-04-21T09:39:16Z</time>
      </trkpt>
      <trkpt lat="49.48513" lon="0.59807">
        <ele>59</ele>
        <time>2013-04-21T09:39:21Z</time>
      </trkpt>
      <trkpt lat="49.48519" lon="0.59805">
        <ele>59</ele>
        <time>2013-04-21T09:39:26Z</time>
      </trkpt>
      <trkpt lat="49.48526" lon="0.59802">
        <ele>59</ele>
        <time>2013-04-21T09:39:32Z</time>
      </trkpt>
      <trkpt lat="49.48532" lon="0.598">
        <ele>59</ele>
        <time>2013-04-21T09:39:37Z</time>
      </trkpt>
      <trkpt lat="49.48538" lon="0.59798">
        <ele>59</ele>
        <time>2013-04-21T09:39:42Z</time>
      </trkpt>
      <trkpt lat="49.48544" lon="0.59796">
        <ele>59</ele>
        <time>2013-04-21T09:39:47Z</time>
      </trkpt>
      <trkpt lat="49.4855" lon="0.59795">
        <ele>59</ele>
        <time>2013-04-21T09:39:52Z</time>
      </trkpt>
      <trkpt lat="49.48556" lon="0.59793">
        <ele>59</ele>
        <time>2013-04-21T09:39:57Z</time>
      </trkpt>
      <trkpt lat="49.48563" lon="0.59789">
        <ele>59</ele>
        <time>2013-04-21T09:40:03Z</time>
      </trkpt>
      <trkpt lat="49.48568" lon="0.59787">
        <ele>59</ele>
        <time>2013-04-21T09:40:08Z</time>
      </trkpt>
      <trkpt lat="49.48575" lon="0.59785">
        <ele>59</ele>
        <time>2013-04-21T09:40:13Z</time>
      </trkpt>
      <trkpt lat="49.48581" lon="0.59785">
        <ele>59</ele>
        <time>2013-04-21T09:40:18Z</time>
      </trkpt>
      <trkpt lat="49.48587" lon="0.59785">
        <ele>60</ele>
        <time>2013-04-21T09:40:23Z</time>
      </trkpt>
      <trkpt lat="49.4859" lon="0.59786">
        <ele>60</ele>
        <time>2013-04-21T09:40:28Z</time>
      </trkpt>
      <trkpt lat="49.48591" lon="0.59784">
        <ele>60</ele>
        <time>2013-04-21T09:40:34Z</time>
      </trkpt>
      <trkpt lat="49.48597" lon="0.59782">
        <ele>60</ele>
        <time>2013-04-21T09:40:39Z</time>
      </trkpt>
      <trkpt lat="49.48604" lon="0.59778">
        <ele>60</ele>
        <time>2013-04-21T09:40:44Z</time>
      </trkpt>
      <trkpt lat="49.48609" lon="0.59775">
        <ele>60</ele>
        <time>2013-04-21T09:40:49Z</time>
      </trkpt>
      <trkpt lat="49.48615" lon="0.59772">
        <ele>60</ele>
        <time>2013-04-21T09:40:54Z</time>
      </trkpt>
      <trkpt lat="49.4862" lon="0.59769">
        <ele>60</ele>
        <time>2013-04-21T09:40:59Z</time>
      </trkpt>
      <trkpt lat="49.48625" lon="0.59767">
        <ele>60</ele>
        <time>2013-04-21T09:41:04Z</time>
      </trkpt>
      <trkpt lat="49.48631" lon="0.59764">
        <ele>61</ele>
        <time>2013-04-21T09:41:10Z</time>
      </trkpt>
      <trkpt lat="49.48637" lon="0.59763">
        <ele>61</ele>
        <time>2013-04-21T09:41:16Z</time>
      </trkpt>
      <trkpt lat="49.48642" lon="0.59761">
        <ele>61</ele>
        <time>2013-04-21T09:41:21Z</time>
      </trkpt>
      <trkpt lat="49.4865" lon="0.59759">
        <ele>61</ele>
        <time>2013-04-21T09:41:27Z</time>
      </trkpt>
      <trkpt lat="49.48656" lon="0.59758">
        <ele>60</ele>
        <time>2013-04-21T09:41:32Z</time>
      </trkpt>
      <trkpt lat="49.48661" lon="0.59757">
        <ele>60</ele>
        <time>2013-04-21T09:41:37Z</time>
      </trkpt>
      <trkpt lat="49.48668" lon="0.59756">
        <ele>61</ele>
        <time>2013-04-21T09:41:43Z</time>
      </trkpt>
      <trkpt lat="49.48674" lon="0.59754">
        <ele>61</ele>
        <time>2013-04-21T09:41:48Z</time>
      </trkpt>
      <trkpt lat="49.48679" lon="0.59751">
        <ele>62</ele>
        <time>2013-04-21T09:41:54Z</time>
      </trkpt>
      <trkpt lat="49.48684" lon="0.59748">
        <ele>60</ele>
        <time>2013-04-21T09:41:59Z</time>
      </trkpt>
      <trkpt lat="49.48688" lon="0.59748">
        <ele>60</ele>
        <time>2013-04-21T09:42:04Z</time>
      </trkpt>
      <trkpt lat="49.48695" lon="0.59745">
        <ele>60</ele>
        <time>2013-04-21T09:42:10Z</time>
      </trkpt>
      <trkpt lat="49.487" lon="0.59742">
        <ele>60</ele>
        <time>2013-04-21T09:42:15Z</time>
      </trkpt>
      <trkpt lat="49.48704" lon="0.5974">
        <ele>60</ele>
        <time>2013-04-21T09:42:20Z</time>
      </trkpt>
      <trkpt lat="49.48709" lon="0.59741">
        <ele>61</ele>
        <time>2013-04-21T09:42:25Z</time>
      </trkpt>
      <trkpt lat="49.48714" lon="0.59739">
        <ele>61</ele>
        <time>2013-04-21T09:42:30Z</time>
      </trkpt>
      <trkpt lat="49.4872" lon="0.59736">
        <ele>61</ele>
        <time>2013-04-21T09:42:35Z</time>
      </trkpt>
      <trkpt lat="49.48725" lon="0.59737">
        <ele>61</ele>
        <time>2013-04-21T09:42:41Z</time>
      </trkpt>
      <trkpt lat="49.48732" lon="0.59736">
        <ele>62</ele>
        <time>2013-04-21T09:42:46Z</time>
      </trkpt>
      <trkpt lat="49.4874" lon="0.59732">
        <ele>62</ele>
        <time>2013-04-21T09:42:51Z</time>
      </trkpt>
      <trkpt lat="49.48746" lon="0.5973">
        <ele>62</ele>
        <time>2013-04-21T09:42:57Z</time>
      </trkpt>
      <trkpt lat="49.48751" lon="0.59728">
        <ele>63</ele>
        <time>2013-04-21T09:43:02Z</time>
      </trkpt>
      <trkpt lat="49.48755" lon="0.59728">
        <ele>63</ele>
        <time>2013-04-21T09:43:09Z</time>
      </trkpt>
      <trkpt lat="49.48761" lon="0.59724">
        <ele>63</ele>
        <time>2013-04-21T09:43:14Z</time>
      </trkpt>
      <trkpt lat="49.48766" lon="0.59726">
        <ele>63</ele>
        <time>2013-04-21T09:43:19Z</time>
      </trkpt>
      <trkpt lat="49.48773" lon="0.59725">
        <ele>63</ele>
        <time>2013-04-21T09:43:24Z</time>
      </trkpt>
      <trkpt lat="49.48778" lon="0.59724">
        <ele>63</ele>
        <time>2013-04-21T09:43:29Z</time>
      </trkpt>
      <trkpt lat="49.48783" lon="0.59722">
        <ele>62</ele>
        <time>2013-04-21T09:43:34Z</time>
      </trkpt>
      <trkpt lat="49.48789" lon="0.59721">
        <ele>62</ele>
        <time>2013-04-21T09:43:39Z</time>
      </trkpt>
      <trkpt lat="49.48795" lon="0.59719">
        <ele>62</ele>
        <time>2013-04-21T09:43:44Z</time>
      </trkpt>
      <trkpt lat="49.48799" lon="0.59716">
        <ele>62</ele>
        <time>2013-04-21T09:43:49Z</time>
      </trkpt>
      <trkpt lat="49.48805" lon="0.59715">
        <ele>62</ele>
        <time>2013-04-21T09:43:55Z</time>
      </trkpt>
      <trkpt lat="49.48814" lon="0.59715">
        <ele>62</ele>
        <time>2013-04-21T09:44:00Z</time>
      </trkpt>
      <trkpt lat="49.48821" lon="0.59715">
        <ele>62</ele>
        <time>2013-04-21T09:44:06Z</time>
      </trkpt>
      <trkpt lat="49.48828" lon="0.59715">
        <ele>62</ele>
        <time>2013-04-21T09:44:11Z</time>
      </trkpt>
      <trkpt lat="49.48832" lon="0.59721">
        <ele>63</ele>
        <time>2013-04-21T09:44:17Z</time>
      </trkpt>
      <trkpt lat="49.48833" lon="0.59727">
        <ele>63</ele>
        <time>2013-04-21T09:44:23Z</time>
      </trkpt>
      <trkpt lat="49.48838" lon="0.59735">
        <ele>64</ele>
        <time>2013-04-21T09:44:28Z</time>
      </trkpt>
      <trkpt lat="49.48841" lon="0.59745">
        <ele>64</ele>
        <time>2013-04-21T09:44:33Z</time>
      </trkpt>
      <trkpt lat="49.48846" lon="0.59755">
        <ele>65</ele>
        <time>2013-04-21T09:44:39Z</time>
      </trkpt>
      <trkpt lat="49.4885" lon="0.59761">
        <ele>66</ele>
        <time>2013-04-21T09:44:44Z</time>
      </trkpt>
      <trkpt lat="49.48854" lon="0.59765">
        <ele>66</ele>
        <time>2013-04-21T09:44:50Z</time>
      </trkpt>
      <trkpt lat="49.48857" lon="0.5977">
        <ele>66</ele>
        <time>2013-04-21T09:44:55Z</time>
      </trkpt>
      <trkpt lat="49.48863" lon="0.59779">
        <ele>66</ele>
        <time>2013-04-21T09:45:00Z</time>
      </trkpt>
      <trkpt lat="49.48868" lon="0.59786">
        <ele>66</ele>
        <time>2013-04-21T09:45:05Z</time>
      </trkpt>
      <trkpt lat="49.48871" lon="0.59793">
        <ele>66</ele>
        <time>2013-04-21T09:45:10Z</time>
      </trkpt>
      <trkpt lat="49.48875" lon="0.59802">
        <ele>66</ele>
        <time>2013-04-21T09:45:16Z</time>
      </trkpt>
      <trkpt lat="49.48878" lon="0.59809">
        <ele>66</ele>
        <time>2013-04-21T09:45:21Z</time>
      </trkpt>
      <trkpt lat="49.48882" lon="0.59817">
        <ele>66</ele>
        <time>2013-04-21T09:45:26Z</time>
      </trkpt>
      <trkpt lat="49.48888" lon="0.59823">
        <ele>66</ele>
        <time>2013-04-21T09:45:31Z</time>
      </trkpt>
      <trkpt lat="49.4889" lon="0.5983">
        <ele>66</ele>
        <time>2013-04-21T09:45:36Z</time>
      </trkpt>
      <trkpt lat="49.48891" lon="0.59838">
        <ele>68</ele>
        <time>2013-04-21T09:45:41Z</time>
      </trkpt>
      <trkpt lat="49.48896" lon="0.59844">
        <ele>68</ele>
        <time>2013-04-21T09:45:47Z</time>
      </trkpt>
      <trkpt lat="49.48899" lon="0.59853">
        <ele>68</ele>
        <time>2013-04-21T09:45:52Z</time>
      </trkpt>
      <trkpt lat="49.48901" lon="0.59859">
        <ele>68</ele>
        <time>2013-04-21T09:45:58Z</time>
      </trkpt>
      <trkpt lat="49.48905" lon="0.59865">
        <ele>68</ele>
        <time>2013-04-21T09:46:04Z</time>
      </trkpt>
      <trkpt lat="49.48911" lon="0.59874">
        <ele>69</ele>
        <time>2013-04-21T09:46:09Z</time>
      </trkpt>
      <trkpt lat="49.48911" lon="0.59881">
        <ele>69</ele>
        <time>2013-04-21T09:46:16Z</time>
      </trkpt>
      <trkpt lat="49.48914" lon="0.59888">
        <ele>69</ele>
        <time>2013-04-21T09:46:21Z</time>
      </trkpt>
      <trkpt lat="49.48915" lon="0.59894">
        <ele>69</ele>
        <time>2013-04-21T09:46:26Z</time>
      </trkpt>
      <trkpt lat="49.4892" lon="0.59892">
        <ele>71</ele>
        <time>2013-04-21T09:46:31Z</time>
      </trkpt>
      <trkpt lat="49.48933" lon="0.59897">
        <ele>71</ele>
        <time>2013-04-21T09:46:44Z</time>
      </trkpt>
      <trkpt lat="49.48935" lon="0.59896">
        <ele>71</ele>
        <time>2013-04-21T09:46:51Z</time>
      </trkpt>
      <trkpt lat="49.48944" lon="0.59895">
        <ele>71</ele>
        <time>2013-04-21T09:46:57Z</time>
      </trkpt>
      <trkpt lat="49.48943" lon="0.59895">
        <ele>71</ele>
        <time>2013-04-21T09:47:02Z</time>
      </trkpt>
      <trkpt lat="49.48938" lon="0.59897">
        <ele>71</ele>
        <time>2013-04-21T09:47:10Z</time>
      </trkpt>
      <trkpt lat="49.48938" lon="0.59895">
        <ele>71</ele>
        <time>2013-04-21T09:47:16Z</time>
      </trkpt>
      <trkpt lat="49.48938" lon="0.59896">
        <ele>71</ele>
        <time>2013-04-21T09:47:21Z</time>
      </trkpt>
      <trkpt lat="49.48922" lon="0.59904">
        <ele>70</ele>
        <time>2013-04-21T09:47:26Z</time>
      </trkpt>
      <trkpt lat="49.48921" lon="0.59911">
        <ele>70</ele>
        <time>2013-04-21T09:47:31Z</time>
      </trkpt>
      <trkpt lat="49.48919" lon="0.59915">
        <ele>70</ele>
        <time>2013-04-21T09:47:36Z</time>
      </trkpt>
      <trkpt lat="49.48916" lon="0.59913">
        <ele>70</ele>
        <time>2013-04-21T09:47:41Z</time>
      </trkpt>
      <trkpt lat="49.48914" lon="0.59912">
        <ele>70</ele>
        <time>2013-04-21T09:47:46Z</time>
      </trkpt>
      <trkpt lat="49.48919" lon="0.59917">
        <ele>70</ele>
        <time>2013-04-21T09:47:53Z</time>
      </trkpt>
      <trkpt lat="49.48922" lon="0.59917">
        <ele>71</ele>
        <time>2013-04-21T09:47:59Z</time>
      </trkpt>
      <trkpt lat="49.48924" lon="0.59919">
        <ele>71</ele>
        <time>2013-04-21T09:48:05Z</time>
      </trkpt>
      <trkpt lat="49.48925" lon="0.59923">
        <ele>71</ele>
        <time>2013-04-21T09:48:10Z</time>
      </trkpt>
      <trkpt lat="49.48926" lon="0.59927">
        <ele>72</ele>
        <time>2013-04-21T09:48:15Z</time>
      </trkpt>
      <trkpt lat="49.48926" lon="0.59933">
        <ele>72</ele>
        <time>2013-04-21T09:48:21Z</time>
      </trkpt>
      <trkpt lat="49.48926" lon="0.59939">
        <ele>72</ele>
        <time>2013-04-21T09:48:27Z</time>
      </trkpt>
      <trkpt lat="49.48927" lon="0.59945">
        <ele>72</ele>
        <time>2013-04-21T09:48:33Z</time>
      </trkpt>
      <trkpt lat="49.48929" lon="0.59956">
        <ele>73</ele>
        <time>2013-04-21T09:48:40Z</time>
      </trkpt>
      <trkpt lat="49.48934" lon="0.59961">
        <ele>73</ele>
        <time>2013-04-21T09:48:46Z</time>
      </trkpt>
      <trkpt lat="49.48937" lon="0.59967">
        <ele>73</ele>
        <time>2013-04-21T09:48:53Z</time>
      </trkpt>
      <trkpt lat="49.48936" lon="0.59971">
        <ele>73</ele>
        <time>2013-04-21T09:48:59Z</time>
      </trkpt>
      <trkpt lat="49.48941" lon="0.59977">
        <ele>73</ele>
        <time>2013-04-21T09:49:05Z</time>
      </trkpt>
      <trkpt lat="49.48945" lon="0.59984">
        <ele>73</ele>
        <time>2013-04-21T09:49:10Z</time>
      </trkpt>
      <trkpt lat="49.48949" lon="0.59991">
        <ele>73</ele>
        <time>2013-04-21T09:49:15Z</time>
      </trkpt>
      <trkpt lat="49.48953" lon="0.59996">
        <ele>73</ele>
        <time>2013-04-21T09:49:20Z</time>
      </trkpt>
      <trkpt lat="49.48958" lon="0.6">
        <ele>73</ele>
        <time>2013-04-21T09:49:25Z</time>
      </trkpt>
      <trkpt lat="49.48963" lon="0.60003">
        <ele>74</ele>
        <time>2013-04-21T09:49:31Z</time>
      </trkpt>
      <trkpt lat="49.48969" lon="0.60007">
        <ele>74</ele>
        <time>2013-04-21T09:49:37Z</time>
      </trkpt>
      <trkpt lat="49.48974" lon="0.60011">
        <ele>74</ele>
        <time>2013-04-21T09:49:43Z</time>
      </trkpt>
      <trkpt lat="49.48979" lon="0.60013">
        <ele>74</ele>
        <time>2013-04-21T09:49:48Z</time>
      </trkpt>
      <trkpt lat="49.48985" lon="0.60016">
        <ele>74</ele>
        <time>2013-04-21T09:49:54Z</time>
      </trkpt>
      <trkpt lat="49.48989" lon="0.60021">
        <ele>74</ele>
        <time>2013-04-21T09:49:59Z</time>
      </trkpt>
      <trkpt lat="49.48995" lon="0.60024">
        <ele>74</ele>
        <time>2013-04-21T09:50:04Z</time>
      </trkpt>
      <trkpt lat="49.49" lon="0.60027">
        <ele>74</ele>
        <time>2013-04-21T09:50:09Z</time>
      </trkpt>
      <trkpt lat="49.49005" lon="0.60029">
        <ele>76</ele>
        <time>2013-04-21T09:50:14Z</time>
      </trkpt>
      <trkpt lat="49.49009" lon="0.60031">
        <ele>77</ele>
        <time>2013-04-21T09:50:19Z</time>
      </trkpt>
      <trkpt lat="49.49015" lon="0.60034">
        <ele>77</ele>
        <time>2013-04-21T09:50:25Z</time>
      </trkpt>
      <trkpt lat="49.4902" lon="0.6004">
        <ele>77</ele>
        <time>2013-04-21T09:50:31Z</time>
      </trkpt>
      <trkpt lat="49.49025" lon="0.60044">
        <ele>77</ele>
        <time>2013-04-21T09:50:37Z</time>
      </trkpt>
      <trkpt lat="49.4903" lon="0.60047">
        <ele>77</ele>
        <time>2013-04-21T09:50:43Z</time>
      </trkpt>
      <trkpt lat="49.49035" lon="0.60049">
        <ele>77</ele>
        <time>2013-04-21T09:50:49Z</time>
      </trkpt>
      <trkpt lat="49.49041" lon="0.6005">
        <ele>78</ele>
        <time>2013-04-21T09:50:54Z</time>
      </trkpt>
      <trkpt lat="49.49046" lon="0.60055">
        <ele>78</ele>
        <time>2013-04-21T09:51:00Z</time>
      </trkpt>
      <trkpt lat="49.49052" lon="0.60059">
        <ele>78</ele>
        <time>2013-04-21T09:51:06Z</time>
      </trkpt>
      <trkpt lat="49.49055" lon="0.60062">
        <ele>78</ele>
        <time>2013-04-21T09:51:11Z</time>
      </trkpt>
      <trkpt lat="49.4906" lon="0.60067">
        <ele>78</ele>
        <time>2013-04-21T09:51:17Z</time>
      </trkpt>
      <trkpt lat="49.49066" lon="0.60071">
        <ele>78</ele>
        <time>2013-04-21T09:51:23Z</time>
      </trkpt>
      <trkpt lat="49.49073" lon="0.60072">
        <ele>79</ele>
        <time>2013-04-21T09:51:29Z</time>
      </trkpt>
      <trkpt lat="49.49079" lon="0.60074">
        <ele>79</ele>
        <time>2013-04-21T09:51:35Z</time>
      </trkpt>
      <trkpt lat="49.49084" lon="0.60078">
        <ele>80</ele>
        <time>2013-04-21T09:51:40Z</time>
      </trkpt>
      <trkpt lat="49.4909" lon="0.60081">
        <ele>81</ele>
        <time>2013-04-21T09:51:45Z</time>
      </trkpt>
      <trkpt lat="49.49094" lon="0.60084">
        <ele>81</ele>
        <time>2013-04-21T09:51:50Z</time>
      </trkpt>
      <trkpt lat="49.491" lon="0.60089">
        <ele>82</ele>
        <time>2013-04-21T09:51:56Z</time>
      </trkpt>
      <trkpt lat="49.49105" lon="0.60092">
        <ele>83</ele>
        <time>2013-04-21T09:52:01Z</time>
      </trkpt>
      <trkpt lat="49.4911" lon="0.60097">
        <ele>84</ele>
        <time>2013-04-21T09:52:06Z</time>
      </trkpt>
      <trkpt lat="49.49115" lon="0.601">
        <ele>84</ele>
        <time>2013-04-21T09:52:11Z</time>
      </trkpt>
      <trkpt lat="49.4912" lon="0.60104">
        <ele>85</ele>
        <time>2013-04-21T09:52:16Z</time>
      </trkpt>
      <trkpt lat="49.49126" lon="0.60109">
        <ele>85</ele>
        <time>2013-04-21T09:52:22Z</time>
      </trkpt>
      <trkpt lat="49.49132" lon="0.60114">
        <ele>86</ele>
        <time>2013-04-21T09:52:28Z</time>
      </trkpt>
      <trkpt lat="49.49137" lon="0.60119">
        <ele>86</ele>
        <time>2013-04-21T09:52:34Z</time>
      </trkpt>
      <trkpt lat="49.49142" lon="0.60124">
        <ele>86</ele>
        <time>2013-04-21T09:52:39Z</time>
      </trkpt>
      <trkpt lat="49.49147" lon="0.60128">
        <ele>86</ele>
        <time>2013-04-21T09:52:44Z</time>
      </trkpt>
      <trkpt lat="49.49152" lon="0.60133">
        <ele>86</ele>
        <time>2013-04-21T09:52:50Z</time>
      </trkpt>
      <trkpt lat="49.49157" lon="0.60139">
        <ele>86</ele>
        <time>2013-04-21T09:52:56Z</time>
      </trkpt>
      <trkpt lat="49.49164" lon="0.60145">
        <ele>86</ele>
        <time>2013-04-21T09:53:02Z</time>
      </trkpt>
      <trkpt lat="49.4917" lon="0.60151">
        <ele>90</ele>
        <time>2013-04-21T09:53:08Z</time>
      </trkpt>
      <trkpt lat="49.49173" lon="0.60159">
        <ele>89</ele>
        <time>2013-04-21T09:53:13Z</time>
      </trkpt>
      <trkpt lat="49.49176" lon="0.60167">
        <ele>89</ele>
        <time>2013-04-21T09:53:18Z</time>
      </trkpt>
      <trkpt lat="49.4918" lon="0.60173">
        <ele>90</ele>
        <time>2013-04-21T09:53:23Z</time>
      </trkpt>
      <trkpt lat="49.49182" lon="0.60181">
        <ele>91</ele>
        <time>2013-04-21T09:53:28Z</time>
      </trkpt>
      <trkpt lat="49.49186" lon="0.60191">
        <ele>93</ele>
        <time>2013-04-21T09:53:34Z</time>
      </trkpt>
      <trkpt lat="49.49188" lon="0.60199">
        <ele>93</ele>
        <time>2013-04-21T09:53:39Z</time>
      </trkpt>
      <trkpt lat="49.49191" lon="0.60207">
        <ele>94</ele>
        <time>2013-04-21T09:53:45Z</time>
      </trkpt>
      <trkpt lat="49.49194" lon="0.60216">
        <ele>94</ele>
        <time>2013-04-21T09:53:51Z</time>
      </trkpt>
      <trkpt lat="49.49196" lon="0.60224">
        <ele>94</ele>
        <time>2013-04-21T09:53:56Z</time>
      </trkpt>
      <trkpt lat="49.49198" lon="0.60231">
        <ele>95</ele>
        <time>2013-04-21T09:54:01Z</time>
      </trkpt>
      <trkpt lat="49.49201" lon="0.6024">
        <ele>95</ele>
        <time>2013-04-21T09:54:06Z</time>
      </trkpt>
      <trkpt lat="49.49204" lon="0.60248">
        <ele>95</ele>
        <time>2013-04-21T09:54:11Z</time>
      </trkpt>
      <trkpt lat="49.49206" lon="0.60256">
        <ele>97</ele>
        <time>2013-04-21T09:54:17Z</time>
      </trkpt>
      <trkpt lat="49.49209" lon="0.60264">
        <ele>97</ele>
        <time>2013-04-21T09:54:22Z</time>
      </trkpt>
      <trkpt lat="49.49212" lon="0.60274">
        <ele>98</ele>
        <time>2013-04-21T09:54:28Z</time>
      </trkpt>
      <trkpt lat="49.49215" lon="0.60281">
        <ele>98</ele>
        <time>2013-04-21T09:54:33Z</time>
      </trkpt>
      <trkpt lat="49.49218" lon="0.60289">
        <ele>98</ele>
        <time>2013-04-21T09:54:38Z</time>
      </trkpt>
      <trkpt lat="49.49222" lon="0.60299">
        <ele>98</ele>
        <time>2013-04-21T09:54:44Z</time>
      </trkpt>
      <trkpt lat="49.49225" lon="0.60307">
        <ele>98</ele>
        <time>2013-04-21T09:54:49Z</time>
      </trkpt>
      <trkpt lat="49.49229" lon="0.60316">
        <ele>98</ele>
        <time>2013-04-21T09:54:55Z</time>
      </trkpt>
      <trkpt lat="49.49234" lon="0.60321">
        <ele>98</ele>
        <time>2013-04-21T09:55:00Z</time>
      </trkpt>
      <trkpt lat="49.4924" lon="0.60331">
        <ele>97</ele>
        <time>2013-04-21T09:55:05Z</time>
      </trkpt>
      <trkpt lat="49.49242" lon="0.60339">
        <ele>98</ele>
        <time>2013-04-21T09:55:10Z</time>
      </trkpt>
      <trkpt lat="49.49246" lon="0.60347">
        <ele>99</ele>
        <time>2013-04-21T09:55:16Z</time>
      </trkpt>
      <trkpt lat="49.49248" lon="0.60356">
        <ele>100</ele>
        <time>2013-04-21T09:55:21Z</time>
      </trkpt>
      <trkpt lat="49.49252" lon="0.60361">
        <ele>100</ele>
        <time>2013-04-21T09:55:27Z</time>
      </trkpt>
      <trkpt lat="49.49257" lon="0.6037">
        <ele>101</ele>
        <time>2013-04-21T09:55:32Z</time>
      </trkpt>
      <trkpt lat="49.49261" lon="0.60378">
        <ele>101</ele>
        <time>2013-04-21T09:55:38Z</time>
      </trkpt>
      <trkpt lat="49.49266" lon="0.60383">
        <ele>101</ele>
        <time>2013-04-21T09:55:43Z</time>
      </trkpt>
      <trkpt lat="49.4927" lon="0.60391">
        <ele>101</ele>
        <time>2013-04-21T09:55:49Z</time>
      </trkpt>
      <trkpt lat="49.49276" lon="0.60401">
        <ele>102</ele>
        <time>2013-04-21T09:55:55Z</time>
      </trkpt>
      <trkpt lat="49.49279" lon="0.60408">
        <ele>102</ele>
        <time>2013-04-21T09:56:00Z</time>
      </trkpt>
      <trkpt lat="49.49285" lon="0.60413">
        <ele>102</ele>
        <time>2013-04-21T09:56:05Z</time>
      </trkpt>
      <trkpt lat="49.49287" lon="0.60422">
        <ele>104</ele>
        <time>2013-04-21T09:56:10Z</time>
      </trkpt>
      <trkpt lat="49.49291" lon="0.6043">
        <ele>104</ele>
        <time>2013-04-21T09:56:16Z</time>
      </trkpt>
      <trkpt lat="49.49293" lon="0.60438">
        <ele>104</ele>
        <time>2013-04-21T09:56:21Z</time>
      </trkpt>
      <trkpt lat="49.49296" lon="0.60447">
        <ele>104</ele>
        <time>2013-04-21T09:56:26Z</time>
      </trkpt>
      <trkpt lat="49.49298" lon="0.60456">
        <ele>104</ele>
        <time>2013-04-21T09:56:31Z</time>
      </trkpt>
      <trkpt lat="49.49302" lon="0.60464">
        <ele>104</ele>
        <time>2013-04-21T09:56:36Z</time>
      </trkpt>
      <trkpt lat="49.49305" lon="0.60474">
        <ele>105</ele>
        <time>2013-04-21T09:56:42Z</time>
      </trkpt>
      <trkpt lat="49.49307" lon="0.60482">
        <ele>105</ele>
        <time>2013-04-21T09:56:47Z</time>
      </trkpt>
      <trkpt lat="49.49309" lon="0.60491">
        <ele>105</ele>
        <time>2013-04-21T09:56:52Z</time>
      </trkpt>
      <trkpt lat="49.49312" lon="0.60493">
        <ele>105</ele>
        <time>2013-04-21T09:56:57Z</time>
      </trkpt>
      <trkpt lat="49.49309" lon="0.60492">
        <ele>105</ele>
        <time>2013-04-21T09:57:02Z</time>
      </trkpt>
      <trkpt lat="49.49311" lon="0.60492">
        <ele>105</ele>
        <time>2013-04-21T09:57:08Z</time>
      </trkpt>
      <trkpt lat="49.49311" lon="0.60494">
        <ele>105</ele>
        <time>2013-04-21T09:57:14Z</time>
      </trkpt>
      <trkpt lat="49.49311" lon="0.60497">
        <ele>105</ele>
        <time>2013-04-21T09:57:19Z</time>
      </trkpt>
      <trkpt lat="49.4931" lon="0.60494">
        <ele>105</ele>
        <time>2013-04-21T09:57:26Z</time>
      </trkpt>
      <trkpt lat="49.49305" lon="0.60489">
        <ele>105</ele>
        <time>2013-04-21T09:57:32Z</time>
      </trkpt>
      <trkpt lat="49.49315" lon="0.60486">
        <ele>104</ele>
        <time>2013-04-21T09:57:46Z</time>
      </trkpt>
      <trkpt lat="49.49315" lon="0.60477">
        <ele>104</ele>
        <time>2013-04-21T09:57:51Z</time>
      </trkpt>
      <trkpt lat="49.49315" lon="0.6047">
        <ele>104</ele>
        <time>2013-04-21T09:57:56Z</time>
      </trkpt>
      <trkpt lat="49.49316" lon="0.60463">
        <ele>104</ele>
        <time>2013-04-21T09:58:01Z</time>
      </trkpt>
      <trkpt lat="49.49314" lon="0.60454">
        <ele>104</ele>
        <time>2013-04-21T09:58:07Z</time>
      </trkpt>
      <trkpt lat="49.49311" lon="0.60445">
        <ele>104</ele>
        <time>2013-04-21T09:58:12Z</time>
      </trkpt>
      <trkpt lat="49.4931" lon="0.60436">
        <ele>104</ele>
        <time>2013-04-21T09:58:17Z</time>
      </trkpt>
      <trkpt lat="49.4931" lon="0.60426">
        <ele>104</ele>
        <time>2013-04-21T09:58:22Z</time>
      </trkpt>
      <trkpt lat="49.49309" lon="0.60417">
        <ele>104</ele>
        <time>2013-04-21T09:58:27Z</time>
      </trkpt>
      <trkpt lat="49.49306" lon="0.60407">
        <ele>102</ele>
        <time>2013-04-21T09:58:32Z</time>
      </trkpt>
      <trkpt lat="49.49304" lon="0.60397">
        <ele>102</ele>
        <time>2013-04-21T09:58:37Z</time>
      </trkpt>
      <trkpt lat="49.49304" lon="0.60388">
        <ele>102</ele>
        <time>2013-04-21T09:58:42Z</time>
      </trkpt>
      <trkpt lat="49.49302" lon="0.60378">
        <ele>102</ele>
        <time>2013-04-21T09:58:47Z</time>
      </trkpt>
      <trkpt lat="49.493" lon="0.60367">
        <ele>102</ele>
        <time>2013-04-21T09:58:52Z</time>
      </trkpt>
      <trkpt lat="49.49297" lon="0.60357">
        <ele>101</ele>
        <time>2013-04-21T09:58:57Z</time>
      </trkpt>
      <trkpt lat="49.49295" lon="0.60347">
        <ele>101</ele>
        <time>2013-04-21T09:59:02Z</time>
      </trkpt>
      <trkpt lat="49.49294" lon="0.60337">
        <ele>101</ele>
        <time>2013-04-21T09:59:07Z</time>
      </trkpt>
      <trkpt lat="49.49293" lon="0.60327">
        <ele>101</ele>
        <time>2013-04-21T09:59:12Z</time>
      </trkpt>
      <trkpt lat="49.49291" lon="0.60317">
        <ele>101</ele>
        <time>2013-04-21T09:59:17Z</time>
      </trkpt>
      <trkpt lat="49.4929" lon="0.60308">
        <ele>101</ele>
        <time>2013-04-21T09:59:23Z</time>
      </trkpt>
      <trkpt lat="49.49285" lon="0.60302">
        <ele>100</ele>
        <time>2013-04-21T09:59:30Z</time>
      </trkpt>
      <trkpt lat="49.49284" lon="0.60297">
        <ele>100</ele>
        <time>2013-04-21T09:59:35Z</time>
      </trkpt>
      <trkpt lat="49.49283" lon="0.60288">
        <ele>100</ele>
        <time>2013-04-21T09:59:40Z</time>
      </trkpt>
      <trkpt lat="49.49284" lon="0.60279">
        <ele>100</ele>
        <time>2013-04-21T09:59:46Z</time>
      </trkpt>
      <trkpt lat="49.49282" lon="0.60268">
        <ele>100</ele>
        <time>2013-04-21T09:59:51Z</time>
      </trkpt>
      <trkpt lat="49.49281" lon="0.60258">
        <ele>100</ele>
        <time>2013-04-21T09:59:56Z</time>
      </trkpt>
      <trkpt lat="49.49278" lon="0.60248">
        <ele>100</ele>
        <time>2013-04-21T10:00:02Z</time>
      </trkpt>
      <trkpt lat="49.49275" lon="0.6024">
        <ele>100</ele>
        <time>2013-04-21T10:00:07Z</time>
      </trkpt>
      <trkpt lat="49.49273" lon="0.60232">
        <ele>100</ele>
        <time>2013-04-21T10:00:12Z</time>
      </trkpt>
      <trkpt lat="49.49273" lon="0.60224">
        <ele>100</ele>
        <time>2013-04-21T10:00:17Z</time>
      </trkpt>
      <trkpt lat="49.49271" lon="0.60216">
        <ele>100</ele>
        <time>2013-04-21T10:00:22Z</time>
      </trkpt>
      <trkpt lat="49.4927" lon="0.60208">
        <ele>100</ele>
        <time>2013-04-21T10:00:27Z</time>
      </trkpt>
      <trkpt lat="49.49269" lon="0.60198">
        <ele>100</ele>
        <time>2013-04-21T10:00:33Z</time>
      </trkpt>
      <trkpt lat="49.49269" lon="0.60188">
        <ele>100</ele>
        <time>2013-04-21T10:00:39Z</time>
      </trkpt>
      <trkpt lat="49.49269" lon="0.60179">
        <ele>100</ele>
        <time>2013-04-21T10:00:44Z</time>
      </trkpt>
      <trkpt lat="49.49269" lon="0.60174">
        <ele>100</ele>
        <time>2013-04-21T10:00:49Z</time>
      </trkpt>
      <trkpt lat="49.49266" lon="0.60167">
        <ele>100</ele>
        <time>2013-04-21T10:00:55Z</time>
      </trkpt>
      <trkpt lat="49.49264" lon="0.60164">
        <ele>100</ele>
        <time>2013-04-21T10:01:01Z</time>
      </trkpt>
      <trkpt lat="49.49263" lon="0.60162">
        <ele>100</ele>
        <time>2013-04-21T10:01:06Z</time>
      </trkpt>
      <trkpt lat="49.49261" lon="0.60154">
        <ele>100</ele>
        <time>2013-04-21T10:01:14Z</time>
      </trkpt>
      <trkpt lat="49.4926" lon="0.60146">
        <ele>100</ele>
        <time>2013-04-21T10:01:20Z</time>
      </trkpt>
      <trkpt lat="49.49257" lon="0.60139">
        <ele>100</ele>
        <time>2013-04-21T10:01:25Z</time>
      </trkpt>
      <trkpt lat="49.49253" lon="0.60128">
        <ele>100</ele>
        <time>2013-04-21T10:01:31Z</time>
      </trkpt>
      <trkpt lat="49.49251" lon="0.60119">
        <ele>100</ele>
        <time>2013-04-21T10:01:36Z</time>
      </trkpt>
      <trkpt lat="49.4925" lon="0.60112">
        <ele>95</ele>
        <time>2013-04-21T10:01:41Z</time>
      </trkpt>
      <trkpt lat="49.49248" lon="0.60105">
        <ele>96</ele>
        <time>2013-04-21T10:01:46Z</time>
      </trkpt>
      <trkpt lat="49.49246" lon="0.60094">
        <ele>97</ele>
        <time>2013-04-21T10:01:52Z</time>
      </trkpt>
      <trkpt lat="49.49242" lon="0.60086">
        <ele>97</ele>
        <time>2013-04-21T10:01:57Z</time>
      </trkpt>
      <trkpt lat="49.49239" lon="0.60076">
        <ele>97</ele>
        <time>2013-04-21T10:02:03Z</time>
      </trkpt>
      <trkpt lat="49.49239" lon="0.6007">
        <ele>97</ele>
        <time>2013-04-21T10:02:08Z</time>
      </trkpt>
      <trkpt lat="49.4924" lon="0.60061">
        <ele>96</ele>
        <time>2013-04-21T10:02:13Z</time>
      </trkpt>
      <trkpt lat="49.49238" lon="0.60049">
        <ele>96</ele>
        <time>2013-04-21T10:02:19Z</time>
      </trkpt>
      <trkpt lat="49.49237" lon="0.60042">
        <ele>96</ele>
        <time>2013-04-21T10:02:24Z</time>
      </trkpt>
      <trkpt lat="49.49236" lon="0.60033">
        <ele>96</ele>
        <time>2013-04-21T10:02:29Z</time>
      </trkpt>
      <trkpt lat="49.49237" lon="0.60026">
        <ele>96</ele>
        <time>2013-04-21T10:02:34Z</time>
      </trkpt>
      <trkpt lat="49.49239" lon="0.60018">
        <ele>96</ele>
        <time>2013-04-21T10:02:39Z</time>
      </trkpt>
      <trkpt lat="49.4924" lon="0.6001">
        <ele>97</ele>
        <time>2013-04-21T10:02:44Z</time>
      </trkpt>
      <trkpt lat="49.49241" lon="0.60002">
        <ele>98</ele>
        <time>2013-04-21T10:02:49Z</time>
      </trkpt>
      <trkpt lat="49.49244" lon="0.59993">
        <ele>97</ele>
        <time>2013-04-21T10:02:55Z</time>
      </trkpt>
      <trkpt lat="49.49245" lon="0.59983">
        <ele>97</ele>
        <time>2013-04-21T10:03:01Z</time>
      </trkpt>
      <trkpt lat="49.49248" lon="0.59974">
        <ele>96</ele>
        <time>2013-04-21T10:03:07Z</time>
      </trkpt>
      <trkpt lat="49.4925" lon="0.59965">
        <ele>98</ele>
        <time>2013-04-21T10:03:12Z</time>
      </trkpt>
      <trkpt lat="49.49252" lon="0.59956">
        <ele>98</ele>
        <time>2013-04-21T10:03:17Z</time>
      </trkpt>
      <trkpt lat="49.49255" lon="0.59948">
        <ele>97</ele>
        <time>2013-04-21T10:03:23Z</time>
      </trkpt>
      <trkpt lat="49.49257" lon="0.59941">
        <ele>97</ele>
        <time>2013-04-21T10:03:28Z</time>
      </trkpt>
      <trkpt lat="49.4926" lon="0.59932">
        <ele>97</ele>
        <time>2013-04-21T10:03:34Z</time>
      </trkpt>
      <trkpt lat="49.49262" lon="0.59923">
        <ele>97</ele>
        <time>2013-04-21T10:03:39Z</time>
      </trkpt>
      <trkpt lat="49.49261" lon="0.59912">
        <ele>95</ele>
        <time>2013-04-21T10:03:44Z</time>
      </trkpt>
      <trkpt lat="49.4926" lon="0.59903">
        <ele>95</ele>
        <time>2013-04-21T10:03:50Z</time>
      </trkpt>
      <trkpt lat="49.49261" lon="0.59895">
        <ele>95</ele>
        <time>2013-04-21T10:03:55Z</time>
      </trkpt>
      <trkpt lat="49.49263" lon="0.59887">
        <ele>95</ele>
        <time>2013-04-21T10:04:00Z</time>
      </trkpt>
      <trkpt lat="49.49264" lon="0.59878">
        <ele>94</ele>
        <time>2013-04-21T10:04:05Z</time>
      </trkpt>
      <trkpt lat="49.49264" lon="0.59869">
        <ele>94</ele>
        <time>2013-04-21T10:04:11Z</time>
      </trkpt>
      <trkpt lat="49.49265" lon="0.5986">
        <ele>94</ele>
        <time>2013-04-21T10:04:16Z</time>
      </trkpt>
      <trkpt lat="49.49265" lon="0.59849">
        <ele>93</ele>
        <time>2013-04-21T10:04:21Z</time>
      </trkpt>
      <trkpt lat="49.49266" lon="0.59841">
        <ele>93</ele>
        <time>2013-04-21T10:04:26Z</time>
      </trkpt>
      <trkpt lat="49.49266" lon="0.59832">
        <ele>91</ele>
        <time>2013-04-21T10:04:31Z</time>
      </trkpt>
      <trkpt lat="49.49266" lon="0.59822">
        <ele>91</ele>
        <time>2013-04-21T10:04:37Z</time>
      </trkpt>
      <trkpt lat="49.49265" lon="0.59813">
        <ele>91</ele>
        <time>2013-04-21T10:04:42Z</time>
      </trkpt>
      <trkpt lat="49.49264" lon="0.59804">
        <ele>91</ele>
        <time>2013-04-21T10:04:47Z</time>
      </trkpt>
      <trkpt lat="49.49262" lon="0.59793">
        <ele>91</ele>
        <time>2013-04-21T10:04:52Z</time>
      </trkpt>
      <trkpt lat="49.49258" lon="0.59783">
        <ele>90</ele>
        <time>2013-04-21T10:04:57Z</time>
      </trkpt>
      <trkpt lat="49.49254" lon="0.59773">
        <ele>90</ele>
        <time>2013-04-21T10:05:02Z</time>
      </trkpt>
      <trkpt lat="49.49255" lon="0.59763">
        <ele>90</ele>
        <time>2013-04-21T10:05:08Z</time>
      </trkpt>
      <trkpt lat="49.49257" lon="0.59755">
        <ele>90</ele>
        <time>2013-04-21T10:05:13Z</time>
      </trkpt>
      <trkpt lat="49.49256" lon="0.59746">
        <ele>89</ele>
        <time>2013-04-21T10:05:18Z</time>
      </trkpt>
      <trkpt lat="49.49256" lon="0.59736">
        <ele>88</ele>
        <time>2013-04-21T10:05:24Z</time>
      </trkpt>
      <trkpt lat="49.49258" lon="0.59725">
        <ele>88</ele>
        <time>2013-04-21T10:05:29Z</time>
      </trkpt>
      <trkpt lat="49.4926" lon="0.59715">
        <ele>87</ele>
        <time>2013-04-21T10:05:35Z</time>
      </trkpt>
      <trkpt lat="49.49263" lon="0.59705">
        <ele>87</ele>
        <time>2013-04-21T10:05:41Z</time>
      </trkpt>
      <trkpt lat="49.49262" lon="0.59694">
        <ele>87</ele>
        <time>2013-04-21T10:05:46Z</time>
      </trkpt>
      <trkpt lat="49.49261" lon="0.59682">
        <ele>86</ele>
        <time>2013-04-21T10:05:53Z</time>
      </trkpt>
      <trkpt lat="49.4926" lon="0.59671">
        <ele>86</ele>
        <time>2013-04-21T10:05:58Z</time>
      </trkpt>
      <trkpt lat="49.49261" lon="0.59661">
        <ele>84</ele>
        <time>2013-04-21T10:06:03Z</time>
      </trkpt>
      <trkpt lat="49.4926" lon="0.59653">
        <ele>83</ele>
        <time>2013-04-21T10:06:08Z</time>
      </trkpt>
      <trkpt lat="49.49261" lon="0.59643">
        <ele>83</ele>
        <time>2013-04-21T10:06:13Z</time>
      </trkpt>
      <trkpt lat="49.49259" lon="0.59632">
        <ele>82</ele>
        <time>2013-04-21T10:06:19Z</time>
      </trkpt>
      <trkpt lat="49.49258" lon="0.59623">
        <ele>82</ele>
        <time>2013-04-21T10:06:24Z</time>
      </trkpt>
      <trkpt lat="49.49255" lon="0.59613">
        <ele>82</ele>
        <time>2013-04-21T10:06:29Z</time>
      </trkpt>
      <trkpt lat="49.49256" lon="0.59604">
        <ele>81</ele>
        <time>2013-04-21T10:06:34Z</time>
      </trkpt>
      <trkpt lat="49.49255" lon="0.59596">
        <ele>81</ele>
        <time>2013-04-21T10:06:39Z</time>
      </trkpt>
      <trkpt lat="49.49255" lon="0.59585">
        <ele>80</ele>
        <time>2013-04-21T10:06:44Z</time>
      </trkpt>
      <trkpt lat="49.49256" lon="0.59576">
        <ele>79</ele>
        <time>2013-04-21T10:06:49Z</time>
      </trkpt>
      <trkpt lat="49.49257" lon="0.59566">
        <ele>78</ele>
        <time>2013-04-21T10:06:54Z</time>
      </trkpt>
      <trkpt lat="49.49255" lon="0.59556">
        <ele>78</ele>
        <time>2013-04-21T10:06:59Z</time>
      </trkpt>
      <trkpt lat="49.49256" lon="0.59548">
        <ele>77</ele>
        <time>2013-04-21T10:07:04Z</time>
      </trkpt>
      <trkpt lat="49.49257" lon="0.59537">
        <ele>77</ele>
        <time>2013-04-21T10:07:09Z</time>
      </trkpt>
      <trkpt lat="49.49259" lon="0.59528">
        <ele>76</ele>
        <time>2013-04-21T10:07:14Z</time>
      </trkpt>
      <trkpt lat="49.49261" lon="0.59518">
        <ele>76</ele>
        <time>2013-04-21T10:07:19Z</time>
      </trkpt>
      <trkpt lat="49.49262" lon="0.59508">
        <ele>76</ele>
        <time>2013-04-21T10:07:25Z</time>
      </trkpt>
      <trkpt lat="49.49263" lon="0.59497">
        <ele>73</ele>
        <time>2013-04-21T10:07:30Z</time>
      </trkpt>
      <trkpt lat="49.49267" lon="0.59487">
        <ele>72</ele>
        <time>2013-04-21T10:07:36Z</time>
      </trkpt>
      <trkpt lat="49.49273" lon="0.59477">
        <ele>71</ele>
        <time>2013-04-21T10:07:42Z</time>
      </trkpt>
      <trkpt lat="49.49276" lon="0.5947">
        <ele>70</ele>
        <time>2013-04-21T10:07:47Z</time>
      </trkpt>
      <trkpt lat="49.49278" lon="0.5946">
        <ele>69</ele>
        <time>2013-04-21T10:07:52Z</time>
      </trkpt>
      <trkpt lat="49.49279" lon="0.59453">
        <ele>69</ele>
        <time>2013-04-21T10:07:57Z</time>
      </trkpt>
      <trkpt lat="49.49283" lon="0.59446">
        <ele>68</ele>
        <time>2013-04-21T10:08:02Z</time>
      </trkpt>
      <trkpt lat="49.49286" lon="0.59439">
        <ele>68</ele>
        <time>2013-04-21T10:08:07Z</time>
      </trkpt>
      <trkpt lat="49.49286" lon="0.5943">
        <ele>68</ele>
        <time>2013-04-21T10:08:12Z</time>
      </trkpt>
      <trkpt lat="49.49286" lon="0.5942">
        <ele>67</ele>
        <time>2013-04-21T10:08:17Z</time>
      </trkpt>
      <trkpt lat="49.49286" lon="0.5941">
        <ele>62</ele>
        <time>2013-04-21T10:08:23Z</time>
      </trkpt>
      <trkpt lat="49.49286" lon="0.59403">
        <ele>62</ele>
        <time>2013-04-21T10:08:28Z</time>
      </trkpt>
      <trkpt lat="49.49282" lon="0.59397">
        <ele>62</ele>
        <time>2013-04-21T10:08:33Z</time>
      </trkpt>
      <trkpt lat="49.49279" lon="0.59386">
        <ele>62</ele>
        <time>2013-04-21T10:08:39Z</time>
      </trkpt>
      <trkpt lat="49.49284" lon="0.5938">
        <ele>61</ele>
        <time>2013-04-21T10:08:44Z</time>
      </trkpt>
      <trkpt lat="49.49289" lon="0.59377">
        <ele>61</ele>
        <time>2013-04-21T10:08:49Z</time>
      </trkpt>
      <trkpt lat="49.49295" lon="0.59377">
        <ele>61</ele>
        <time>2013-04-21T10:08:54Z</time>
      </trkpt>
      <trkpt lat="49.49301" lon="0.59377">
        <ele>61</ele>
        <time>2013-04-21T10:08:59Z</time>
      </trkpt>
      <trkpt lat="49.49307" lon="0.59381">
        <ele>61</ele>
        <time>2013-04-21T10:09:04Z</time>
      </trkpt>
      <trkpt lat="49.49311" lon="0.59388">
        <ele>61</ele>
        <time>2013-04-21T10:09:09Z</time>
      </trkpt>
      <trkpt lat="49.49316" lon="0.59395">
        <ele>61</ele>
        <time>2013-04-21T10:09:14Z</time>
      </trkpt>
      <trkpt lat="49.4932" lon="0.59402">
        <ele>61</ele>
        <time>2013-04-21T10:09:19Z</time>
      </trkpt>
      <trkpt lat="49.49325" lon="0.59408">
        <ele>61</ele>
        <time>2013-04-21T10:09:25Z</time>
      </trkpt>
      <trkpt lat="49.49326" lon="0.59416">
        <ele>61</ele>
        <time>2013-04-21T10:09:30Z</time>
      </trkpt>
      <trkpt lat="49.49331" lon="0.59422">
        <ele>63</ele>
        <time>2013-04-21T10:09:35Z</time>
      </trkpt>
      <trkpt lat="49.49335" lon="0.59427">
        <ele>62</ele>
        <time>2013-04-21T10:09:40Z</time>
      </trkpt>
      <trkpt lat="49.49341" lon="0.59435">
        <ele>63</ele>
        <time>2013-04-21T10:09:45Z</time>
      </trkpt>
      <trkpt lat="49.49345" lon="0.59444">
        <ele>64</ele>
        <time>2013-04-21T10:09:50Z</time>
      </trkpt>
      <trkpt lat="49.49348" lon="0.59451">
        <ele>64</ele>
        <time>2013-04-21T10:09:55Z</time>
      </trkpt>
      <trkpt lat="49.49352" lon="0.59457">
        <ele>64</ele>
        <time>2013-04-21T10:10:00Z</time>
      </trkpt>
      <trkpt lat="49.49357" lon="0.59461">
        <ele>65</ele>
        <time>2013-04-21T10:10:05Z</time>
      </trkpt>
      <trkpt lat="49.49362" lon="0.59471">
        <ele>65</ele>
        <time>2013-04-21T10:10:11Z</time>
      </trkpt>
      <trkpt lat="49.4937" lon="0.59481">
        <ele>65</ele>
        <time>2013-04-21T10:10:17Z</time>
      </trkpt>
      <trkpt lat="49.49374" lon="0.59489">
        <ele>65</ele>
        <time>2013-04-21T10:10:23Z</time>
      </trkpt>
      <trkpt lat="49.49374" lon="0.59496">
        <ele>65</ele>
        <time>2013-04-21T10:10:28Z</time>
      </trkpt>
      <trkpt lat="49.49377" lon="0.59505">
        <ele>69</ele>
        <time>2013-04-21T10:10:33Z</time>
      </trkpt>
      <trkpt lat="49.49383" lon="0.59515">
        <ele>68</ele>
        <time>2013-04-21T10:10:39Z</time>
      </trkpt>
      <trkpt lat="49.49388" lon="0.59522">
        <ele>68</ele>
        <time>2013-04-21T10:10:44Z</time>
      </trkpt>
      <trkpt lat="49.49392" lon="0.59528">
        <ele>68</ele>
        <time>2013-04-21T10:10:49Z</time>
      </trkpt>
      <trkpt lat="49.49396" lon="0.59534">
        <ele>69</ele>
        <time>2013-04-21T10:10:54Z</time>
      </trkpt>
      <trkpt lat="49.494" lon="0.5954">
        <ele>69</ele>
        <time>2013-04-21T10:10:59Z</time>
      </trkpt>
      <trkpt lat="49.49407" lon="0.59547">
        <ele>69</ele>
        <time>2013-04-21T10:11:05Z</time>
      </trkpt>
      <trkpt lat="49.49411" lon="0.59551">
        <ele>69</ele>
        <time>2013-04-21T10:11:10Z</time>
      </trkpt>
      <trkpt lat="49.49416" lon="0.59554">
        <ele>69</ele>
        <time>2013-04-21T10:11:16Z</time>
      </trkpt>
      <trkpt lat="49.49421" lon="0.59563">
        <ele>68</ele>
        <time>2013-04-21T10:11:22Z</time>
      </trkpt>
      <trkpt lat="49.49425" lon="0.59571">
        <ele>68</ele>
        <time>2013-04-21T10:11:27Z</time>
      </trkpt>
      <trkpt lat="49.4943" lon="0.59574">
        <ele>68</ele>
        <time>2013-04-21T10:11:33Z</time>
      </trkpt>
      <trkpt lat="49.49436" lon="0.59581">
        <ele>68</ele>
        <time>2013-04-21T10:11:39Z</time>
      </trkpt>
      <trkpt lat="49.4944" lon="0.59586">
        <ele>69</ele>
        <time>2013-04-21T10:11:44Z</time>
      </trkpt>
      <trkpt lat="49.49446" lon="0.59592">
        <ele>69</ele>
        <time>2013-04-21T10:11:50Z</time>
      </trkpt>
      <trkpt lat="49.49449" lon="0.59599">
        <ele>69</ele>
        <time>2013-04-21T10:11:56Z</time>
      </trkpt>
      <trkpt lat="49.49453" lon="0.59607">
        <ele>69</ele>
        <time>2013-04-21T10:12:01Z</time>
      </trkpt>
      <trkpt lat="49.49456" lon="0.59614">
        <ele>70</ele>
        <time>2013-04-21T10:12:06Z</time>
      </trkpt>
      <trkpt lat="49.49461" lon="0.59621">
        <ele>70</ele>
        <time>2013-04-21T10:12:11Z</time>
      </trkpt>
      <trkpt lat="49.49466" lon="0.59627">
        <ele>69</ele>
        <time>2013-04-21T10:12:16Z</time>
      </trkpt>
      <trkpt lat="49.49472" lon="0.59637">
        <ele>69</ele>
        <time>2013-04-21T10:12:22Z</time>
      </trkpt>
      <trkpt lat="49.49477" lon="0.59645">
        <ele>69</ele>
        <time>2013-04-21T10:12:28Z</time>
      </trkpt>
      <trkpt lat="49.49479" lon="0.59653">
        <ele>68</ele>
        <time>2013-04-21T10:12:34Z</time>
      </trkpt>
      <trkpt lat="49.49481" lon="0.59661">
        <ele>68</ele>
        <time>2013-04-21T10:12:39Z</time>
      </trkpt>
      <trkpt lat="49.49485" lon="0.59668">
        <ele>70</ele>
        <time>2013-04-21T10:12:44Z</time>
      </trkpt>
      <trkpt lat="49.49487" lon="0.59676">
        <ele>70</ele>
        <time>2013-04-21T10:12:49Z</time>
      </trkpt>
      <trkpt lat="49.49489" lon="0.59684">
        <ele>71</ele>
        <time>2013-04-21T10:12:55Z</time>
      </trkpt>
      <trkpt lat="49.49493" lon="0.59691">
        <ele>71</ele>
        <time>2013-04-21T10:13:00Z</time>
      </trkpt>
      <trkpt lat="49.49496" lon="0.59699">
        <ele>72</ele>
        <time>2013-04-21T10:13:05Z</time>
      </trkpt>
      <trkpt lat="49.495" lon="0.59709">
        <ele>72</ele>
        <time>2013-04-21T10:13:11Z</time>
      </trkpt>
      <trkpt lat="49.49504" lon="0.59718">
        <ele>72</ele>
        <time>2013-04-21T10:13:16Z</time>
      </trkpt>
      <trkpt lat="49.49508" lon="0.59727">
        <ele>73</ele>
        <time>2013-04-21T10:13:22Z</time>
      </trkpt>
      <trkpt lat="49.49507" lon="0.59735">
        <ele>73</ele>
        <time>2013-04-21T10:13:27Z</time>
      </trkpt>
      <trkpt lat="49.49508" lon="0.59744">
        <ele>73</ele>
        <time>2013-04-21T10:13:33Z</time>
      </trkpt>
      <trkpt lat="49.49511" lon="0.59753">
        <ele>74</ele>
        <time>2013-04-21T10:13:39Z</time>
      </trkpt>
      <trkpt lat="49.49518" lon="0.5976">
        <ele>75</ele>
        <time>2013-04-21T10:13:44Z</time>
      </trkpt>
      <trkpt lat="49.49521" lon="0.59768">
        <ele>75</ele>
        <time>2013-04-21T10:13:49Z</time>
      </trkpt>
      <trkpt lat="49.49527" lon="0.59776">
        <ele>75</ele>
        <time>2013-04-21T10:13:54Z</time>
      </trkpt>
      <trkpt lat="49.49531" lon="0.59783">
        <ele>76</ele>
        <time>2013-04-21T10:13:59Z</time>
      </trkpt>
      <trkpt lat="49.49535" lon="0.59791">
        <ele>76</ele>
        <time>2013-04-21T10:14:05Z</time>
      </trkpt>
      <trkpt lat="49.49537" lon="0.59799">
        <ele>76</ele>
        <time>2013-04-21T10:14:10Z</time>
      </trkpt>
      <trkpt lat="49.49539" lon="0.59809">
        <ele>76</ele>
        <time>2013-04-21T10:14:15Z</time>
      </trkpt>
      <trkpt lat="49.4954" lon="0.59816">
        <ele>76</ele>
        <time>2013-04-21T10:14:20Z</time>
      </trkpt>
      <trkpt lat="49.49544" lon="0.59823">
        <ele>76</ele>
        <time>2013-04-21T10:14:25Z</time>
      </trkpt>
      <trkpt lat="49.49546" lon="0.59831">
        <ele>76</ele>
        <time>2013-04-21T10:14:30Z</time>
      </trkpt>
      <trkpt lat="49.49549" lon="0.59838">
        <ele>78</ele>
        <time>2013-04-21T10:14:36Z</time>
      </trkpt>
      <trkpt lat="49.49553" lon="0.59844">
        <ele>77</ele>
        <time>2013-04-21T10:14:41Z</time>
      </trkpt>
      <trkpt lat="49.49555" lon="0.59852">
        <ele>78</ele>
        <time>2013-04-21T10:14:47Z</time>
      </trkpt>
      <trkpt lat="49.49558" lon="0.59858">
        <ele>78</ele>
        <time>2013-04-21T10:14:52Z</time>
      </trkpt>
      <trkpt lat="49.49559" lon="0.59865">
        <ele>78</ele>
        <time>2013-04-21T10:14:57Z</time>
      </trkpt>
      <trkpt lat="49.49561" lon="0.59872">
        <ele>78</ele>
        <time>2013-04-21T10:15:02Z</time>
      </trkpt>
      <trkpt lat="49.49563" lon="0.59882">
        <ele>78</ele>
        <time>2013-04-21T10:15:07Z</time>
      </trkpt>
      <trkpt lat="49.49566" lon="0.59889">
        <ele>78</ele>
        <time>2013-04-21T10:15:13Z</time>
      </trkpt>
      <trkpt lat="49.49569" lon="0.59895">
        <ele>78</ele>
        <time>2013-04-21T10:15:19Z</time>
      </trkpt>
      <trkpt lat="49.49571" lon="0.59908">
        <ele>78</ele>
        <time>2013-04-21T10:15:24Z</time>
      </trkpt>
      <trkpt lat="49.49576" lon="0.59914">
        <ele>77</ele>
        <time>2013-04-21T10:15:29Z</time>
      </trkpt>
      <trkpt lat="49.49584" lon="0.59917">
        <ele>77</ele>
        <time>2013-04-21T10:15:34Z</time>
      </trkpt>
      <trkpt lat="49.49588" lon="0.59922">
        <ele>80</ele>
        <time>2013-04-21T10:15:39Z</time>
      </trkpt>
      <trkpt lat="49.49591" lon="0.5993">
        <ele>83</ele>
        <time>2013-04-21T10:15:45Z</time>
      </trkpt>
      <trkpt lat="49.49593" lon="0.59938">
        <ele>84</ele>
        <time>2013-04-21T10:15:51Z</time>
      </trkpt>
      <trkpt lat="49.49594" lon="0.59942">
        <ele>85</ele>
        <time>2013-04-21T10:15:56Z</time>
      </trkpt>
      <trkpt lat="49.49597" lon="0.59948">
        <ele>86</ele>
        <time>2013-04-21T10:16:02Z</time>
      </trkpt>
      <trkpt lat="49.49599" lon="0.59955">
        <ele>86</ele>
        <time>2013-04-21T10:16:07Z</time>
      </trkpt>
      <trkpt lat="49.49602" lon="0.59961">
        <ele>87</ele>
        <time>2013-04-21T10:16:13Z</time>
      </trkpt>
      <trkpt lat="49.49605" lon="0.59967">
        <ele>87</ele>
        <time>2013-04-21T10:16:19Z</time>
      </trkpt>
      <trkpt lat="49.49608" lon="0.59973">
        <ele>87</ele>
        <time>2013-04-21T10:16:24Z</time>
      </trkpt>
      <trkpt lat="49.49609" lon="0.59979">
        <ele>87</ele>
        <time>2013-04-21T10:16:31Z</time>
      </trkpt>
      <trkpt lat="49.49611" lon="0.59986">
        <ele>87</ele>
        <time>2013-04-21T10:16:37Z</time>
      </trkpt>
      <trkpt lat="49.49614" lon="0.59996">
        <ele>87</ele>
        <time>2013-04-21T10:16:42Z</time>
      </trkpt>
      <trkpt lat="49.49617" lon="0.60001">
        <ele>88</ele>
        <time>2013-04-21T10:16:47Z</time>
      </trkpt>
      <trkpt lat="49.49621" lon="0.60011">
        <ele>88</ele>
        <time>2013-04-21T10:16:52Z</time>
      </trkpt>
      <trkpt lat="49.49623" lon="0.60018">
        <ele>89</ele>
        <time>2013-04-21T10:16:58Z</time>
      </trkpt>
      <trkpt lat="49.49627" lon="0.60026">
        <ele>89</ele>
        <time>2013-04-21T10:17:04Z</time>
      </trkpt>
      <trkpt lat="49.49633" lon="0.60038">
        <ele>89</ele>
        <time>2013-04-21T10:17:10Z</time>
      </trkpt>
      <trkpt lat="49.49634" lon="0.60048">
        <ele>89</ele>
        <time>2013-04-21T10:17:15Z</time>
      </trkpt>
      <trkpt lat="49.49634" lon="0.60055">
        <ele>89</ele>
        <time>2013-04-21T10:17:21Z</time>
      </trkpt>
      <trkpt lat="49.49639" lon="0.60062">
        <ele>89</ele>
        <time>2013-04-21T10:17:26Z</time>
      </trkpt>
      <trkpt lat="49.49641" lon="0.60071">
        <ele>90</ele>
        <time>2013-04-21T10:17:32Z</time>
      </trkpt>
      <trkpt lat="49.49643" lon="0.60078">
        <ele>90</ele>
        <time>2013-04-21T10:17:37Z</time>
      </trkpt>
      <trkpt lat="49.49645" lon="0.60086">
        <ele>89</ele>
        <time>2013-04-21T10:17:43Z</time>
      </trkpt>
      <trkpt lat="49.49646" lon="0.60091">
        <ele>89</ele>
        <time>2013-04-21T10:17:48Z</time>
      </trkpt>
      <trkpt lat="49.49648" lon="0.60097">
        <ele>89</ele>
        <time>2013-04-21T10:17:53Z</time>
      </trkpt>
      <trkpt lat="49.49652" lon="0.60105">
        <ele>89</ele>
        <time>2013-04-21T10:17:58Z</time>
      </trkpt>
      <trkpt lat="49.49658" lon="0.6011">
        <ele>89</ele>
        <time>2013-04-21T10:18:03Z</time>
      </trkpt>
      <trkpt lat="49.49662" lon="0.6012">
        <ele>88</ele>
        <time>2013-04-21T10:18:09Z</time>
      </trkpt>
      <trkpt lat="49.49666" lon="0.60127">
        <ele>88</ele>
        <time>2013-04-21T10:18:14Z</time>
      </trkpt>
      <trkpt lat="49.4967" lon="0.60134">
        <ele>94</ele>
        <time>2013-04-21T10:18:20Z</time>
      </trkpt>
      <trkpt lat="49.49673" lon="0.60137">
        <ele>94</ele>
        <time>2013-04-21T10:18:25Z</time>
      </trkpt>
      <trkpt lat="49.49677" lon="0.60142">
        <ele>93</ele>
        <time>2013-04-21T10:18:31Z</time>
      </trkpt>
      <trkpt lat="49.49683" lon="0.60152">
        <ele>93</ele>
        <time>2013-04-21T10:18:37Z</time>
      </trkpt>
      <trkpt lat="49.4969" lon="0.60157">
        <ele>94</ele>
        <time>2013-04-21T10:18:42Z</time>
      </trkpt>
      <trkpt lat="49.49698" lon="0.60162">
        <ele>95</ele>
        <time>2013-04-21T10:18:49Z</time>
      </trkpt>
      <trkpt lat="49.497" lon="0.60169">
        <ele>91</ele>
        <time>2013-04-21T10:18:55Z</time>
      </trkpt>
      <trkpt lat="49.49708" lon="0.60176">
        <ele>92</ele>
        <time>2013-04-21T10:19:00Z</time>
      </trkpt>
      <trkpt lat="49.49717" lon="0.60181">
        <ele>93</ele>
        <time>2013-04-21T10:19:07Z</time>
      </trkpt>
      <trkpt lat="49.49725" lon="0.60185">
        <ele>94</ele>
        <time>2013-04-21T10:19:12Z</time>
      </trkpt>
      <trkpt lat="49.4973" lon="0.60188">
        <ele>95</ele>
        <time>2013-04-21T10:19:18Z</time>
      </trkpt>
      <trkpt lat="49.49736" lon="0.60192">
        <ele>95</ele>
        <time>2013-04-21T10:19:23Z</time>
      </trkpt>
      <trkpt lat="49.49741" lon="0.60199">
        <ele>94</ele>
        <time>2013-04-21T10:19:28Z</time>
      </trkpt>
      <trkpt lat="49.49743" lon="0.60202">
        <ele>94</ele>
        <time>2013-04-21T10:19:34Z</time>
      </trkpt>
      <trkpt lat="49.4975" lon="0.60207">
        <ele>94</ele>
        <time>2013-04-21T10:19:39Z</time>
      </trkpt>
      <trkpt lat="49.49749" lon="0.60216">
        <ele>93</ele>
        <time>2013-04-21T10:19:44Z</time>
      </trkpt>
      <trkpt lat="49.49759" lon="0.60217">
        <ele>100</ele>
        <time>2013-04-21T10:19:49Z</time>
      </trkpt>
      <trkpt lat="49.49765" lon="0.6022">
        <ele>100</ele>
        <time>2013-04-21T10:19:55Z</time>
      </trkpt>
      <trkpt lat="49.49769" lon="0.60217">
        <ele>101</ele>
        <time>2013-04-21T10:20:01Z</time>
      </trkpt>
      <trkpt lat="49.49764" lon="0.60212">
        <ele>101</ele>
        <time>2013-04-21T10:20:06Z</time>
      </trkpt>
      <trkpt lat="49.49759" lon="0.60206">
        <ele>102</ele>
        <time>2013-04-21T10:20:11Z</time>
      </trkpt>
      <trkpt lat="49.49754" lon="0.60197">
        <ele>102</ele>
        <time>2013-04-21T10:20:17Z</time>
      </trkpt>
      <trkpt lat="49.4975" lon="0.60193">
        <ele>102</ele>
        <time>2013-04-21T10:20:23Z</time>
      </trkpt>
      <trkpt lat="49.49745" lon="0.60185">
        <ele>97</ele>
        <time>2013-04-21T10:20:29Z</time>
      </trkpt>
      <trkpt lat="49.4974" lon="0.60177">
        <ele>98</ele>
        <time>2013-04-21T10:20:35Z</time>
      </trkpt>
      <trkpt lat="49.49733" lon="0.60171">
        <ele>97</ele>
        <time>2013-04-21T10:20:40Z</time>
      </trkpt>
      <trkpt lat="49.49729" lon="0.60167">
        <ele>96</ele>
        <time>2013-04-21T10:20:45Z</time>
      </trkpt>
      <trkpt lat="49.49723" lon="0.60161">
        <ele>99</ele>
        <time>2013-04-21T10:20:53Z</time>
      </trkpt>
      <trkpt lat="49.49718" lon="0.60154">
        <ele>98</ele>
        <time>2013-04-21T10:20:59Z</time>
      </trkpt>
      <trkpt lat="49.4971" lon="0.60146">
        <ele>97</ele>
        <time>2013-04-21T10:21:04Z</time>
      </trkpt>
      <trkpt lat="49.49707" lon="0.60139">
        <ele>97</ele>
        <time>2013-04-21T10:21:09Z</time>
      </trkpt>
      <trkpt lat="49.49704" lon="0.60131">
        <ele>97</ele>
        <time>2013-04-21T10:21:15Z</time>
      </trkpt>
      <trkpt lat="49.49701" lon="0.60119">
        <ele>97</ele>
        <time>2013-04-21T10:21:20Z</time>
      </trkpt>
      <trkpt lat="49.497" lon="0.60109">
        <ele>97</ele>
        <time>2013-04-21T10:21:25Z</time>
      </trkpt>
      <trkpt lat="49.49699" lon="0.601">
        <ele>97</ele>
        <time>2013-04-21T10:21:31Z</time>
      </trkpt>
      <trkpt lat="49.497" lon="0.60094">
        <ele>98</ele>
        <time>2013-04-21T10:21:36Z</time>
      </trkpt>
      <trkpt lat="49.49701" lon="0.60084">
        <ele>98</ele>
        <time>2013-04-21T10:21:41Z</time>
      </trkpt>
      <trkpt lat="49.49701" lon="0.60074">
        <ele>102</ele>
        <time>2013-04-21T10:21:46Z</time>
      </trkpt>
      <trkpt lat="49.49696" lon="0.60065">
        <ele>102</ele>
        <time>2013-04-21T10:21:53Z</time>
      </trkpt>
      <trkpt lat="49.49692" lon="0.60051">
        <ele>102</ele>
        <time>2013-04-21T10:21:58Z</time>
      </trkpt>
      <trkpt lat="49.49691" lon="0.60039">
        <ele>102</ele>
        <time>2013-04-21T10:22:04Z</time>
      </trkpt>
      <trkpt lat="49.49691" lon="0.60026">
        <ele>103</ele>
        <time>2013-04-21T10:22:10Z</time>
      </trkpt>
      <trkpt lat="49.49689" lon="0.60016">
        <ele>103</ele>
        <time>2013-04-21T10:22:16Z</time>
      </trkpt>
      <trkpt lat="49.49689" lon="0.6001">
        <ele>103</ele>
        <time>2013-04-21T10:22:21Z</time>
      </trkpt>
      <trkpt lat="49.49689" lon="0.60003">
        <ele>102</ele>
        <time>2013-04-21T10:22:26Z</time>
      </trkpt>
      <trkpt lat="49.49689" lon="0.59992">
        <ele>105</ele>
        <time>2013-04-21T10:22:32Z</time>
      </trkpt>
      <trkpt lat="49.49689" lon="0.59982">
        <ele>105</ele>
        <time>2013-04-21T10:22:37Z</time>
      </trkpt>
      <trkpt lat="49.49688" lon="0.59971">
        <ele>106</ele>
        <time>2013-04-21T10:22:42Z</time>
      </trkpt>
      <trkpt lat="49.49687" lon="0.59962">
        <ele>106</ele>
        <time>2013-04-21T10:22:47Z</time>
      </trkpt>
      <trkpt lat="49.49688" lon="0.59954">
        <ele>106</ele>
        <time>2013-04-21T10:22:52Z</time>
      </trkpt>
      <trkpt lat="49.49688" lon="0.59944">
        <ele>106</ele>
        <time>2013-04-21T10:22:57Z</time>
      </trkpt>
      <trkpt lat="49.49686" lon="0.59934">
        <ele>106</ele>
        <time>2013-04-21T10:23:02Z</time>
      </trkpt>
      <trkpt lat="49.49686" lon="0.59925">
        <ele>105</ele>
        <time>2013-04-21T10:23:07Z</time>
      </trkpt>
      <trkpt lat="49.49685" lon="0.59918">
        <ele>105</ele>
        <time>2013-04-21T10:23:12Z</time>
      </trkpt>
      <trkpt lat="49.49683" lon="0.59906">
        <ele>106</ele>
        <time>2013-04-21T10:23:18Z</time>
      </trkpt>
      <trkpt lat="49.49685" lon="0.59894">
        <ele>107</ele>
        <time>2013-04-21T10:23:23Z</time>
      </trkpt>
      <trkpt lat="49.49687" lon="0.59885">
        <ele>107</ele>
        <time>2013-04-21T10:23:28Z</time>
      </trkpt>
      <trkpt lat="49.49689" lon="0.59875">
        <ele>108</ele>
        <time>2013-04-21T10:23:33Z</time>
      </trkpt>
      <trkpt lat="49.49688" lon="0.59867">
        <ele>108</ele>
        <time>2013-04-21T10:23:39Z</time>
      </trkpt>
      <trkpt lat="49.49693" lon="0.5986">
        <ele>108</ele>
        <time>2013-04-21T10:23:44Z</time>
      </trkpt>
      <trkpt lat="49.49696" lon="0.59853">
        <ele>108</ele>
        <time>2013-04-21T10:23:49Z</time>
      </trkpt>
      <trkpt lat="49.49699" lon="0.59845">
        <ele>108</ele>
        <time>2013-04-21T10:23:55Z</time>
      </trkpt>
      <trkpt lat="49.49701" lon="0.59835">
        <ele>108</ele>
        <time>2013-04-21T10:24:00Z</time>
      </trkpt>
      <trkpt lat="49.49704" lon="0.59826">
        <ele>109</ele>
        <time>2013-04-21T10:24:05Z</time>
      </trkpt>
      <trkpt lat="49.49704" lon="0.59816">
        <ele>109</ele>
        <time>2013-04-21T10:24:10Z</time>
      </trkpt>
      <trkpt lat="49.49706" lon="0.59805">
        <ele>109</ele>
        <time>2013-04-21T10:24:15Z</time>
      </trkpt>
      <trkpt lat="49.49707" lon="0.59796">
        <ele>109</ele>
        <time>2013-04-21T10:24:20Z</time>
      </trkpt>
      <trkpt lat="49.49709" lon="0.59785">
        <ele>109</ele>
        <time>2013-04-21T10:24:25Z</time>
      </trkpt>
      <trkpt lat="49.4971" lon="0.59776">
        <ele>109</ele>
        <time>2013-04-21T10:24:30Z</time>
      </trkpt>
      <trkpt lat="49.49712" lon="0.59768">
        <ele>109</ele>
        <time>2013-04-21T10:24:36Z</time>
      </trkpt>
      <trkpt lat="49.49714" lon="0.59761">
        <ele>109</ele>
        <time>2013-04-21T10:24:42Z</time>
      </trkpt>
      <trkpt lat="49.49719" lon="0.59751">
        <ele>109</ele>
        <time>2013-04-21T10:24:48Z</time>
      </trkpt>
      <trkpt lat="49.49726" lon="0.59746">
        <ele>110</ele>
        <time>2013-04-21T10:24:54Z</time>
      </trkpt>
      <trkpt lat="49.49727" lon="0.59736">
        <ele>110</ele>
        <time>2013-04-21T10:25:00Z</time>
      </trkpt>
      <trkpt lat="49.49733" lon="0.59735">
        <ele>110</ele>
        <time>2013-04-21T10:25:07Z</time>
      </trkpt>
      <trkpt lat="49.49736" lon="0.59737">
        <ele>110</ele>
        <time>2013-04-21T10:25:12Z</time>
      </trkpt>
      <trkpt lat="49.49734" lon="0.59736">
        <ele>110</ele>
        <time>2013-04-21T10:25:22Z</time>
      </trkpt>
      <trkpt lat="49.4973" lon="0.59731">
        <ele>110</ele>
        <time>2013-04-21T10:25:35Z</time>
      </trkpt>
      <trkpt lat="49.49731" lon="0.59726">
        <ele>110</ele>
        <time>2013-04-21T10:25:49Z</time>
      </trkpt>
      <trkpt lat="49.49729" lon="0.59716">
        <ele>109</ele>
        <time>2013-04-21T10:25:55Z</time>
      </trkpt>
      <trkpt lat="49.49726" lon="0.59706">
        <ele>109</ele>
        <time>2013-04-21T10:26:01Z</time>
      </trkpt>
      <trkpt lat="49.49725" lon="0.597">
        <ele>109</ele>
        <time>2013-04-21T10:26:06Z</time>
      </trkpt>
      <trkpt lat="49.49722" lon="0.5969">
        <ele>109</ele>
        <time>2013-04-21T10:26:12Z</time>
      </trkpt>
      <trkpt lat="49.4972" lon="0.5968">
        <ele>109</ele>
        <time>2013-04-21T10:26:17Z</time>
      </trkpt>
      <trkpt lat="49.49717" lon="0.59672">
        <ele>109</ele>
        <time>2013-04-21T10:26:22Z</time>
      </trkpt>
      <trkpt lat="49.49715" lon="0.59664">
        <ele>110</ele>
        <time>2013-04-21T10:26:27Z</time>
      </trkpt>
      <trkpt lat="49.49712" lon="0.59655">
        <ele>110</ele>
        <time>2013-04-21T10:26:33Z</time>
      </trkpt>
      <trkpt lat="49.49707" lon="0.59645">
        <ele>110</ele>
        <time>2013-04-21T10:26:39Z</time>
      </trkpt>
      <trkpt lat="49.49704" lon="0.59635">
        <ele>110</ele>
        <time>2013-04-21T10:26:44Z</time>
      </trkpt>
      <trkpt lat="49.49701" lon="0.59628">
        <ele>110</ele>
        <time>2013-04-21T10:26:49Z</time>
      </trkpt>
      <trkpt lat="49.49697" lon="0.5962">
        <ele>109</ele>
        <time>2013-04-21T10:26:54Z</time>
      </trkpt>
      <trkpt lat="49.49694" lon="0.59611">
        <ele>110</ele>
        <time>2013-04-21T10:26:59Z</time>
      </trkpt>
      <trkpt lat="49.49691" lon="0.59599">
        <ele>109</ele>
        <time>2013-04-21T10:27:05Z</time>
      </trkpt>
      <trkpt lat="49.49686" lon="0.59591">
        <ele>109</ele>
        <time>2013-04-21T10:27:11Z</time>
      </trkpt>
      <trkpt lat="49.49682" lon="0.59583">
        <ele>110</ele>
        <time>2013-04-21T10:27:16Z</time>
      </trkpt>
      <trkpt lat="49.49677" lon="0.59573">
        <ele>109</ele>
        <time>2013-04-21T10:27:22Z</time>
      </trkpt>
      <trkpt lat="49.49674" lon="0.59565">
        <ele>110</ele>
        <time>2013-04-21T10:27:27Z</time>
      </trkpt>
      <trkpt lat="49.49671" lon="0.59558">
        <ele>110</ele>
        <time>2013-04-21T10:27:32Z</time>
      </trkpt>
      <trkpt lat="49.4967" lon="0.59546">
        <ele>110</ele>
        <time>2013-04-21T10:27:37Z</time>
      </trkpt>
      <trkpt lat="49.49668" lon="0.59535">
        <ele>110</ele>
        <time>2013-04-21T10:27:42Z</time>
      </trkpt>
      <trkpt lat="49.49666" lon="0.59525">
        <ele>104</ele>
        <time>2013-04-21T10:27:47Z</time>
      </trkpt>
      <trkpt lat="49.49666" lon="0.59514">
        <ele>106</ele>
        <time>2013-04-21T10:27:52Z</time>
      </trkpt>
      <trkpt lat="49.49667" lon="0.59504">
        <ele>108</ele>
        <time>2013-04-21T10:27:58Z</time>
      </trkpt>
      <trkpt lat="49.49667" lon="0.59494">
        <ele>107</ele>
        <time>2013-04-21T10:28:03Z</time>
      </trkpt>
      <trkpt lat="49.49668" lon="0.59486">
        <ele>109</ele>
        <time>2013-04-21T10:28:08Z</time>
      </trkpt>
      <trkpt lat="49.49671" lon="0.59475">
        <ele>109</ele>
        <time>2013-04-21T10:28:13Z</time>
      </trkpt>
      <trkpt lat="49.49675" lon="0.59464">
        <ele>109</ele>
        <time>2013-04-21T10:28:18Z</time>
      </trkpt>
      <trkpt lat="49.49679" lon="0.59455">
        <ele>109</ele>
        <time>2013-04-21T10:28:24Z</time>
      </trkpt>
      <trkpt lat="49.49683" lon="0.59448">
        <ele>109</ele>
        <time>2013-04-21T10:28:29Z</time>
      </trkpt>
      <trkpt lat="49.49688" lon="0.59441">
        <ele>109</ele>
        <time>2013-04-21T10:28:35Z</time>
      </trkpt>
      <trkpt lat="49.49691" lon="0.59432">
        <ele>109</ele>
        <time>2013-04-21T10:28:41Z</time>
      </trkpt>
      <trkpt lat="49.49696" lon="0.59425">
        <ele>109</ele>
        <time>2013-04-21T10:28:47Z</time>
      </trkpt>
      <trkpt lat="49.49701" lon="0.5942">
        <ele>109</ele>
        <time>2013-04-21T10:28:53Z</time>
      </trkpt>
      <trkpt lat="49.49705" lon="0.59415">
        <ele>108</ele>
        <time>2013-04-21T10:29:01Z</time>
      </trkpt>
      <trkpt lat="49.49715" lon="0.59402">
        <ele>108</ele>
        <time>2013-04-21T10:29:07Z</time>
      </trkpt>
      <trkpt lat="49.49721" lon="0.59395">
        <ele>108</ele>
        <time>2013-04-21T10:29:13Z</time>
      </trkpt>
      <trkpt lat="49.49726" lon="0.59387">
        <ele>108</ele>
        <time>2013-04-21T10:29:19Z</time>
      </trkpt>
      <trkpt lat="49.49733" lon="0.59376">
        <ele>108</ele>
        <time>2013-04-21T10:29:25Z</time>
      </trkpt>
      <trkpt lat="49.49735" lon="0.59366">
        <ele>108</ele>
        <time>2013-04-21T10:29:30Z</time>
      </trkpt>
      <trkpt lat="49.49741" lon="0.5936">
        <ele>108</ele>
        <time>2013-04-21T10:29:35Z</time>
      </trkpt>
      <trkpt lat="49.49745" lon="0.59352">
        <ele>108</ele>
        <time>2013-04-21T10:29:40Z</time>
      </trkpt>
      <trkpt lat="49.4975" lon="0.59343">
        <ele>109</ele>
        <time>2013-04-21T10:29:45Z</time>
      </trkpt>
      <trkpt lat="49.49758" lon="0.5933">
        <ele>108</ele>
        <time>2013-04-21T10:29:53Z</time>
      </trkpt>
      <trkpt lat="49.49762" lon="0.59327">
        <ele>107</ele>
        <time>2013-04-21T10:29:59Z</time>
      </trkpt>
      <trkpt lat="49.49767" lon="0.59325">
        <ele>107</ele>
        <time>2013-04-21T10:30:04Z</time>
      </trkpt>
      <trkpt lat="49.49772" lon="0.5932">
        <ele>107</ele>
        <time>2013-04-21T10:30:10Z</time>
      </trkpt>
      <trkpt lat="49.49776" lon="0.59316">
        <ele>107</ele>
        <time>2013-04-21T10:30:16Z</time>
      </trkpt>
      <trkpt lat="49.4978" lon="0.59312">
        <ele>107</ele>
        <time>2013-04-21T10:30:23Z</time>
      </trkpt>
      <trkpt lat="49.49784" lon="0.59307">
        <ele>107</ele>
        <time>2013-04-21T10:30:29Z</time>
      </trkpt>
      <trkpt lat="49.49786" lon="0.59303">
        <ele>107</ele>
        <time>2013-04-21T10:30:35Z</time>
      </trkpt>
      <trkpt lat="49.49788" lon="0.59299">
        <ele>107</ele>
        <time>2013-04-21T10:30:41Z</time>
      </trkpt>
      <trkpt lat="49.49801" lon="0.59293">
        <ele>107</ele>
        <time>2013-04-21T10:30:52Z</time>
      </trkpt>
      <trkpt lat="49.49807" lon="0.59293">
        <ele>107</ele>
        <time>2013-04-21T10:30:57Z</time>
      </trkpt>
      <trkpt lat="49.49813" lon="0.59292">
        <ele>107</ele>
        <time>2013-04-21T10:31:02Z</time>
      </trkpt>
      <trkpt lat="49.49818" lon="0.59291">
        <ele>107</ele>
        <time>2013-04-21T10:31:07Z</time>
      </trkpt>
      <trkpt lat="49.49825" lon="0.59288">
        <ele>107</ele>
        <time>2013-04-21T10:31:12Z</time>
      </trkpt>
      <trkpt lat="49.49831" lon="0.59286">
        <ele>107</ele>
        <time>2013-04-21T10:31:17Z</time>
      </trkpt>
      <trkpt lat="49.49837" lon="0.59286">
        <ele>109</ele>
        <time>2013-04-21T10:31:23Z</time>
      </trkpt>
      <trkpt lat="49.49843" lon="0.59285">
        <ele>110</ele>
        <time>2013-04-21T10:31:28Z</time>
      </trkpt>
      <trkpt lat="49.49849" lon="0.59281">
        <ele>109</ele>
        <time>2013-04-21T10:31:33Z</time>
      </trkpt>
      <trkpt lat="49.49854" lon="0.59277">
        <ele>109</ele>
        <time>2013-04-21T10:31:38Z</time>
      </trkpt>
      <trkpt lat="49.49861" lon="0.59273">
        <ele>109</ele>
        <time>2013-04-21T10:31:44Z</time>
      </trkpt>
      <trkpt lat="49.49868" lon="0.59268">
        <ele>110</ele>
        <time>2013-04-21T10:31:49Z</time>
      </trkpt>
      <trkpt lat="49.49873" lon="0.59264">
        <ele>110</ele>
        <time>2013-04-21T10:31:54Z</time>
      </trkpt>
      <trkpt lat="49.49878" lon="0.59259">
        <ele>110</ele>
        <time>2013-04-21T10:31:59Z</time>
      </trkpt>
      <trkpt lat="49.49885" lon="0.59256">
        <ele>110</ele>
        <time>2013-04-21T10:32:05Z</time>
      </trkpt>
      <trkpt lat="49.49891" lon="0.5925">
        <ele>110</ele>
        <time>2013-04-21T10:32:11Z</time>
      </trkpt>
      <trkpt lat="49.49896" lon="0.59245">
        <ele>107</ele>
        <time>2013-04-21T10:32:16Z</time>
      </trkpt>
      <trkpt lat="49.49902" lon="0.5924">
        <ele>108</ele>
        <time>2013-04-21T10:32:22Z</time>
      </trkpt>
      <trkpt lat="49.49907" lon="0.59231">
        <ele>107</ele>
        <time>2013-04-21T10:32:28Z</time>
      </trkpt>
      <trkpt lat="49.49911" lon="0.59224">
        <ele>107</ele>
        <time>2013-04-21T10:32:33Z</time>
      </trkpt>
      <trkpt lat="49.49913" lon="0.59215">
        <ele>107</ele>
        <time>2013-04-21T10:32:38Z</time>
      </trkpt>
      <trkpt lat="49.49913" lon="0.59206">
        <ele>106</ele>
        <time>2013-04-21T10:32:43Z</time>
      </trkpt>
      <trkpt lat="49.49914" lon="0.59196">
        <ele>106</ele>
        <time>2013-04-21T10:32:48Z</time>
      </trkpt>
      <trkpt lat="49.49915" lon="0.59187">
        <ele>105</ele>
        <time>2013-04-21T10:32:53Z</time>
      </trkpt>
      <trkpt lat="49.49916" lon="0.5918">
        <ele>105</ele>
        <time>2013-04-21T10:33:01Z</time>
      </trkpt>
      <trkpt lat="49.49923" lon="0.59168">
        <ele>106</ele>
        <time>2013-04-21T10:33:06Z</time>
      </trkpt>
      <trkpt lat="49.49927" lon="0.59161">
        <ele>105</ele>
        <time>2013-04-21T10:33:12Z</time>
      </trkpt>
      <trkpt lat="49.49931" lon="0.59153">
        <ele>105</ele>
        <time>2013-04-21T10:33:18Z</time>
      </trkpt>
      <trkpt lat="49.49935" lon="0.59145">
        <ele>105</ele>
        <time>2013-04-21T10:33:24Z</time>
      </trkpt>
      <trkpt lat="49.4994" lon="0.59138">
        <ele>105</ele>
        <time>2013-04-21T10:33:30Z</time>
      </trkpt>
      <trkpt lat="49.49945" lon="0.5913">
        <ele>105</ele>
        <time>2013-04-21T10:33:36Z</time>
      </trkpt>
      <trkpt lat="49.49949" lon="0.59123">
        <ele>105</ele>
        <time>2013-04-21T10:33:42Z</time>
      </trkpt>
      <trkpt lat="49.49953" lon="0.59115">
        <ele>105</ele>
        <time>2013-04-21T10:33:47Z</time>
      </trkpt>
      <trkpt lat="49.49958" lon="0.59108">
        <ele>105</ele>
        <time>2013-04-21T10:33:53Z</time>
      </trkpt>
      <trkpt lat="49.49962" lon="0.591">
        <ele>105</ele>
        <time>2013-04-21T10:33:59Z</time>
      </trkpt>
      <trkpt lat="49.49966" lon="0.59091">
        <ele>105</ele>
        <time>2013-04-21T10:34:05Z</time>
      </trkpt>
      <trkpt lat="49.4997" lon="0.59083">
        <ele>102</ele>
        <time>2013-04-21T10:34:11Z</time>
      </trkpt>
      <trkpt lat="49.49975" lon="0.59076">
        <ele>103</ele>
        <time>2013-04-21T10:34:17Z</time>
      </trkpt>
      <trkpt lat="49.4998" lon="0.59074">
        <ele>103</ele>
        <time>2013-04-21T10:34:23Z</time>
      </trkpt>
      <trkpt lat="49.49986" lon="0.59075">
        <ele>103</ele>
        <time>2013-04-21T10:34:28Z</time>
      </trkpt>
      <trkpt lat="49.49992" lon="0.59075">
        <ele>104</ele>
        <time>2013-04-21T10:34:34Z</time>
      </trkpt>
      <trkpt lat="49.49998" lon="0.59076">
        <ele>105</ele>
        <time>2013-04-21T10:34:39Z</time>
      </trkpt>
      <trkpt lat="49.50005" lon="0.59076">
        <ele>107</ele>
        <time>2013-04-21T10:34:44Z</time>
      </trkpt>
      <trkpt lat="49.50011" lon="0.59076">
        <ele>107</ele>
        <time>2013-04-21T10:34:49Z</time>
      </trkpt>
      <trkpt lat="49.50018" lon="0.59075">
        <ele>107</ele>
        <time>2013-04-21T10:34:55Z</time>
      </trkpt>
      <trkpt lat="49.50024" lon="0.59075">
        <ele>108</ele>
        <time>2013-04-21T10:35:01Z</time>
      </trkpt>
      <trkpt lat="49.50032" lon="0.59075">
        <ele>108</ele>
        <time>2013-04-21T10:35:07Z</time>
      </trkpt>
      <trkpt lat="49.50038" lon="0.59075">
        <ele>109</ele>
        <time>2013-04-21T10:35:13Z</time>
      </trkpt>
      <trkpt lat="49.50042" lon="0.59074">
        <ele>109</ele>
        <time>2013-04-21T10:35:18Z</time>
      </trkpt>
      <trkpt lat="49.50047" lon="0.59074">
        <ele>109</ele>
        <time>2013-04-21T10:35:23Z</time>
      </trkpt>
      <trkpt lat="49.50054" lon="0.59073">
        <ele>110</ele>
        <time>2013-04-21T10:35:29Z</time>
      </trkpt>
      <trkpt lat="49.50061" lon="0.59071">
        <ele>110</ele>
        <time>2013-04-21T10:35:35Z</time>
      </trkpt>
      <trkpt lat="49.50066" lon="0.59071">
        <ele>111</ele>
        <time>2013-04-21T10:35:41Z</time>
      </trkpt>
      <trkpt lat="49.50069" lon="0.5907">
        <ele>111</ele>
        <time>2013-04-21T10:35:46Z</time>
      </trkpt>
      <trkpt lat="49.50072" lon="0.5907">
        <ele>111</ele>
        <time>2013-04-21T10:35:51Z</time>
      </trkpt>
      <trkpt lat="49.50074" lon="0.59069">
        <ele>112</ele>
        <time>2013-04-21T10:35:57Z</time>
      </trkpt>
      <trkpt lat="49.50077" lon="0.59069">
        <ele>112</ele>
        <time>2013-04-21T10:36:03Z</time>
      </trkpt>
      <trkpt lat="49.50079" lon="0.59067">
        <ele>112</ele>
        <time>2013-04-21T10:36:08Z</time>
      </trkpt>
      <trkpt lat="49.50085" lon="0.59065">
        <ele>115</ele>
        <time>2013-04-21T10:36:13Z</time>
      </trkpt>
      <trkpt lat="49.50092" lon="0.59065">
        <ele>115</ele>
        <time>2013-04-21T10:36:19Z</time>
      </trkpt>
      <trkpt lat="49.50098" lon="0.59064">
        <ele>115</ele>
        <time>2013-04-21T10:36:24Z</time>
      </trkpt>
      <trkpt lat="49.50103" lon="0.59064">
        <ele>115</ele>
        <time>2013-04-21T10:36:30Z</time>
      </trkpt>
      <trkpt lat="49.50108" lon="0.59065">
        <ele>115</ele>
        <time>2013-04-21T10:36:36Z</time>
      </trkpt>
      <trkpt lat="49.50112" lon="0.59065">
        <ele>115</ele>
        <time>2013-04-21T10:36:42Z</time>
      </trkpt>
      <trkpt lat="49.50116" lon="0.59065">
        <ele>115</ele>
        <time>2013-04-21T10:36:48Z</time>
      </trkpt>
      <trkpt lat="49.50122" lon="0.59061">
        <ele>115</ele>
        <time>2013-04-21T10:36:54Z</time>
      </trkpt>
      <trkpt lat="49.50127" lon="0.59055">
        <ele>115</ele>
        <time>2013-04-21T10:37:00Z</time>
      </trkpt>
      <trkpt lat="49.50129" lon="0.59048">
        <ele>115</ele>
        <time>2013-04-21T10:37:05Z</time>
      </trkpt>
      <trkpt lat="49.50133" lon="0.5904">
        <ele>115</ele>
        <time>2013-04-21T10:37:10Z</time>
      </trkpt>
      <trkpt lat="49.50136" lon="0.59031">
        <ele>115</ele>
        <time>2013-04-21T10:37:16Z</time>
      </trkpt>
      <trkpt lat="49.5014" lon="0.59022">
        <ele>115</ele>
        <time>2013-04-21T10:37:22Z</time>
      </trkpt>
      <trkpt lat="49.50144" lon="0.59014">
        <ele>116</ele>
        <time>2013-04-21T10:37:27Z</time>
      </trkpt>
      <trkpt lat="49.50147" lon="0.59005">
        <ele>116</ele>
        <time>2013-04-21T10:37:33Z</time>
      </trkpt>
      <trkpt lat="49.50151" lon="0.58997">
        <ele>116</ele>
        <time>2013-04-21T10:37:38Z</time>
      </trkpt>
      <trkpt lat="49.50154" lon="0.58988">
        <ele>115</ele>
        <time>2013-04-21T10:37:43Z</time>
      </trkpt>
      <trkpt lat="49.50158" lon="0.58981">
        <ele>115</ele>
        <time>2013-04-21T10:37:48Z</time>
      </trkpt>
      <trkpt lat="49.50163" lon="0.58974">
        <ele>115</ele>
        <time>2013-04-21T10:37:54Z</time>
      </trkpt>
      <trkpt lat="49.50168" lon="0.58974">
        <ele>119</ele>
        <time>2013-04-21T10:37:59Z</time>
      </trkpt>
      <trkpt lat="49.50174" lon="0.58973">
        <ele>119</ele>
        <time>2013-04-21T10:38:04Z</time>
      </trkpt>
      <trkpt lat="49.50181" lon="0.58974">
        <ele>119</ele>
        <time>2013-04-21T10:38:09Z</time>
      </trkpt>
      <trkpt lat="49.50187" lon="0.58975">
        <ele>119</ele>
        <time>2013-04-21T10:38:15Z</time>
      </trkpt>
      <trkpt lat="49.50194" lon="0.58976">
        <ele>120</ele>
        <time>2013-04-21T10:38:20Z</time>
      </trkpt>
      <trkpt lat="49.50203" lon="0.58975">
        <ele>120</ele>
        <time>2013-04-21T10:38:26Z</time>
      </trkpt>
      <trkpt lat="49.50209" lon="0.58973">
        <ele>120</ele>
        <time>2013-04-21T10:38:31Z</time>
      </trkpt>
      <trkpt lat="49.50214" lon="0.58971">
        <ele>120</ele>
        <time>2013-04-21T10:38:36Z</time>
      </trkpt>
      <trkpt lat="49.50219" lon="0.58968">
        <ele>120</ele>
        <time>2013-04-21T10:38:41Z</time>
      </trkpt>
      <trkpt lat="49.50222" lon="0.58965">
        <ele>121</ele>
        <time>2013-04-21T10:38:46Z</time>
      </trkpt>
      <trkpt lat="49.50229" lon="0.58966">
        <ele>121</ele>
        <time>2013-04-21T10:38:51Z</time>
      </trkpt>
      <trkpt lat="49.50233" lon="0.58966">
        <ele>121</ele>
        <time>2013-04-21T10:38:56Z</time>
      </trkpt>
      <trkpt lat="49.50239" lon="0.58965">
        <ele>121</ele>
        <time>2013-04-21T10:39:01Z</time>
      </trkpt>
      <trkpt lat="49.50244" lon="0.58965">
        <ele>121</ele>
        <time>2013-04-21T10:39:07Z</time>
      </trkpt>
      <trkpt lat="49.50252" lon="0.58964">
        <ele>122</ele>
        <time>2013-04-21T10:39:12Z</time>
      </trkpt>
      <trkpt lat="49.50258" lon="0.58963">
        <ele>122</ele>
        <time>2013-04-21T10:39:19Z</time>
      </trkpt>
      <trkpt lat="49.50264" lon="0.58963">
        <ele>122</ele>
        <time>2013-04-21T10:39:24Z</time>
      </trkpt>
      <trkpt lat="49.5027" lon="0.58961">
        <ele>122</ele>
        <time>2013-04-21T10:39:30Z</time>
      </trkpt>
      <trkpt lat="49.50275" lon="0.58963">
        <ele>122</ele>
        <time>2013-04-21T10:39:37Z</time>
      </trkpt>
      <trkpt lat="49.50285" lon="0.58964">
        <ele>122</ele>
        <time>2013-04-21T10:39:55Z</time>
      </trkpt>
      <trkpt lat="49.50289" lon="0.58966">
        <ele>122</ele>
        <time>2013-04-21T10:40:01Z</time>
      </trkpt>
      <trkpt lat="49.50285" lon="0.58962">
        <ele>122</ele>
        <time>2013-04-21T10:40:07Z</time>
      </trkpt>
      <trkpt lat="49.5028" lon="0.58958">
        <ele>122</ele>
        <time>2013-04-21T10:40:13Z</time>
      </trkpt>
      <trkpt lat="49.50277" lon="0.58959">
        <ele>122</ele>
        <time>2013-04-21T10:40:20Z</time>
      </trkpt>
      <trkpt lat="49.50278" lon="0.58948">
        <ele>121</ele>
        <time>2013-04-21T10:40:25Z</time>
      </trkpt>
      <trkpt lat="49.50277" lon="0.58939">
        <ele>121</ele>
        <time>2013-04-21T10:40:30Z</time>
      </trkpt>
      <trkpt lat="49.50271" lon="0.58936">
        <ele>121</ele>
        <time>2013-04-21T10:40:35Z</time>
      </trkpt>
      <trkpt lat="49.50266" lon="0.58931">
        <ele>121</ele>
        <time>2013-04-21T10:40:40Z</time>
      </trkpt>
      <trkpt lat="49.50263" lon="0.58921">
        <ele>121</ele>
        <time>2013-04-21T10:40:46Z</time>
      </trkpt>
      <trkpt lat="49.50261" lon="0.58913">
        <ele>119</ele>
        <time>2013-04-21T10:40:51Z</time>
      </trkpt>
      <trkpt lat="49.50262" lon="0.58905">
        <ele>118</ele>
        <time>2013-04-21T10:40:56Z</time>
      </trkpt>
      <trkpt lat="49.50262" lon="0.58896">
        <ele>118</ele>
        <time>2013-04-21T10:41:01Z</time>
      </trkpt>
      <trkpt lat="49.50258" lon="0.58886">
        <ele>117</ele>
        <time>2013-04-21T10:41:07Z</time>
      </trkpt>
      <trkpt lat="49.50253" lon="0.58879">
        <ele>116</ele>
        <time>2013-04-21T10:41:13Z</time>
      </trkpt>
      <trkpt lat="49.50251" lon="0.58873">
        <ele>116</ele>
        <time>2013-04-21T10:41:18Z</time>
      </trkpt>
      <trkpt lat="49.50246" lon="0.5887">
        <ele>117</ele>
        <time>2013-04-21T10:41:24Z</time>
      </trkpt>
      <trkpt lat="49.50239" lon="0.58864">
        <ele>117</ele>
        <time>2013-04-21T10:41:29Z</time>
      </trkpt>
      <trkpt lat="49.50235" lon="0.58859">
        <ele>116</ele>
        <time>2013-04-21T10:41:34Z</time>
      </trkpt>
      <trkpt lat="49.5023" lon="0.58851">
        <ele>116</ele>
        <time>2013-04-21T10:41:40Z</time>
      </trkpt>
      <trkpt lat="49.50227" lon="0.58843">
        <ele>116</ele>
        <time>2013-04-21T10:41:45Z</time>
      </trkpt>
      <trkpt lat="49.50224" lon="0.58834">
        <ele>116</ele>
        <time>2013-04-21T10:41:51Z</time>
      </trkpt>
      <trkpt lat="49.50222" lon="0.58827">
        <ele>112</ele>
        <time>2013-04-21T10:41:56Z</time>
      </trkpt>
      <trkpt lat="49.50218" lon="0.5882">
        <ele>111</ele>
        <time>2013-04-21T10:42:01Z</time>
      </trkpt>
      <trkpt lat="49.50213" lon="0.58811">
        <ele>111</ele>
        <time>2013-04-21T10:42:06Z</time>
      </trkpt>
      <trkpt lat="49.50208" lon="0.58802">
        <ele>110</ele>
        <time>2013-04-21T10:42:11Z</time>
      </trkpt>
      <trkpt lat="49.50203" lon="0.58797">
        <ele>110</ele>
        <time>2013-04-21T10:42:17Z</time>
      </trkpt>
      <trkpt lat="49.50199" lon="0.58793">
        <ele>110</ele>
        <time>2013-04-21T10:42:22Z</time>
      </trkpt>
      <trkpt lat="49.50197" lon="0.58787">
        <ele>109</ele>
        <time>2013-04-21T10:42:27Z</time>
      </trkpt>
      <trkpt lat="49.50192" lon="0.5878">
        <ele>109</ele>
        <time>2013-04-21T10:42:33Z</time>
      </trkpt>
      <trkpt lat="49.50185" lon="0.58773">
        <ele>108</ele>
        <time>2013-04-21T10:42:39Z</time>
      </trkpt>
      <trkpt lat="49.5018" lon="0.5877">
        <ele>108</ele>
        <time>2013-04-21T10:42:44Z</time>
      </trkpt>
      <trkpt lat="49.50176" lon="0.58763">
        <ele>107</ele>
        <time>2013-04-21T10:42:50Z</time>
      </trkpt>
      <trkpt lat="49.50174" lon="0.58754">
        <ele>106</ele>
        <time>2013-04-21T10:42:55Z</time>
      </trkpt>
      <trkpt lat="49.50168" lon="0.58749">
        <ele>104</ele>
        <time>2013-04-21T10:43:01Z</time>
      </trkpt>
      <trkpt lat="49.50162" lon="0.58743">
        <ele>101</ele>
        <time>2013-04-21T10:43:06Z</time>
      </trkpt>
      <trkpt lat="49.50157" lon="0.58735">
        <ele>99</ele>
        <time>2013-04-21T10:43:12Z</time>
      </trkpt>
      <trkpt lat="49.50154" lon="0.58727">
        <ele>97</ele>
        <time>2013-04-21T10:43:18Z</time>
      </trkpt>
      <trkpt lat="49.50151" lon="0.58718">
        <ele>95</ele>
        <time>2013-04-21T10:43:25Z</time>
      </trkpt>
      <trkpt lat="49.50145" lon="0.58709">
        <ele>94</ele>
        <time>2013-04-21T10:43:30Z</time>
      </trkpt>
      <trkpt lat="49.50143" lon="0.58699">
        <ele>93</ele>
        <time>2013-04-21T10:43:36Z</time>
      </trkpt>
      <trkpt lat="49.50139" lon="0.58692">
        <ele>93</ele>
        <time>2013-04-21T10:43:42Z</time>
      </trkpt>
      <trkpt lat="49.50135" lon="0.58686">
        <ele>92</ele>
        <time>2013-04-21T10:43:47Z</time>
      </trkpt>
      <trkpt lat="49.50133" lon="0.58679">
        <ele>92</ele>
        <time>2013-04-21T10:43:53Z</time>
      </trkpt>
      <trkpt lat="49.50129" lon="0.58672">
        <ele>91</ele>
        <time>2013-04-21T10:43:59Z</time>
      </trkpt>
      <trkpt lat="49.50125" lon="0.58665">
        <ele>83</ele>
        <time>2013-04-21T10:44:04Z</time>
      </trkpt>
      <trkpt lat="49.50122" lon="0.58655">
        <ele>82</ele>
        <time>2013-04-21T10:44:10Z</time>
      </trkpt>
      <trkpt lat="49.50118" lon="0.58649">
        <ele>81</ele>
        <time>2013-04-21T10:44:16Z</time>
      </trkpt>
      <trkpt lat="49.50115" lon="0.58644">
        <ele>81</ele>
        <time>2013-04-21T10:44:21Z</time>
      </trkpt>
      <trkpt lat="49.50113" lon="0.58636">
        <ele>80</ele>
        <time>2013-04-21T10:44:26Z</time>
      </trkpt>
      <trkpt lat="49.50108" lon="0.58628">
        <ele>79</ele>
        <time>2013-04-21T10:44:32Z</time>
      </trkpt>
      <trkpt lat="49.50106" lon="0.5862">
        <ele>79</ele>
        <time>2013-04-21T10:44:37Z</time>
      </trkpt>
      <trkpt lat="49.50104" lon="0.58612">
        <ele>78</ele>
        <time>2013-04-21T10:44:43Z</time>
      </trkpt>
      <trkpt lat="49.50102" lon="0.58605">
        <ele>77</ele>
        <time>2013-04-21T10:44:48Z</time>
      </trkpt>
      <trkpt lat="49.501" lon="0.58599">
        <ele>76</ele>
        <time>2013-04-21T10:44:53Z</time>
      </trkpt>
      <trkpt lat="49.50096" lon="0.58594">
        <ele>75</ele>
        <time>2013-04-21T10:44:59Z</time>
      </trkpt>
      <trkpt lat="49.50098" lon="0.58587">
        <ele>74</ele>
        <time>2013-04-21T10:45:05Z</time>
      </trkpt>
      <trkpt lat="49.50101" lon="0.58582">
        <ele>68</ele>
        <time>2013-04-21T10:45:10Z</time>
      </trkpt>
      <trkpt lat="49.50104" lon="0.58575">
        <ele>67</ele>
        <time>2013-04-21T10:45:16Z</time>
      </trkpt>
      <trkpt lat="49.501" lon="0.58569">
        <ele>67</ele>
        <time>2013-04-21T10:45:21Z</time>
      </trkpt>
      <trkpt lat="49.50098" lon="0.58565">
        <ele>67</ele>
        <time>2013-04-21T10:45:29Z</time>
      </trkpt>
      <trkpt lat="49.501" lon="0.58561">
        <ele>66</ele>
        <time>2013-04-21T10:45:34Z</time>
      </trkpt>
      <trkpt lat="49.50097" lon="0.58558">
        <ele>66</ele>
        <time>2013-04-21T10:45:40Z</time>
      </trkpt>
      <trkpt lat="49.50093" lon="0.58567">
        <ele>67</ele>
        <time>2013-04-21T10:45:46Z</time>
      </trkpt>
      <trkpt lat="49.50089" lon="0.58568">
        <ele>67</ele>
        <time>2013-04-21T10:45:52Z</time>
      </trkpt>
      <trkpt lat="49.50093" lon="0.58573">
        <ele>68</ele>
        <time>2013-04-21T10:45:57Z</time>
      </trkpt>
      <trkpt lat="49.50098" lon="0.58572">
        <ele>67</ele>
        <time>2013-04-21T10:46:02Z</time>
      </trkpt>
      <trkpt lat="49.50096" lon="0.58571">
        <ele>67</ele>
        <time>2013-04-21T10:46:11Z</time>
      </trkpt>
      <trkpt lat="49.50092" lon="0.58571">
        <ele>67</ele>
        <time>2013-04-21T10:46:17Z</time>
      </trkpt>
      <trkpt lat="49.50096" lon="0.58572">
        <ele>67</ele>
        <time>2013-04-21T10:46:27Z</time>
      </trkpt>
      <trkpt lat="49.50089" lon="0.5857">
        <ele>67</ele>
        <time>2013-04-21T10:46:34Z</time>
      </trkpt>
      <trkpt lat="49.50084" lon="0.58569">
        <ele>67</ele>
        <time>2013-04-21T10:46:40Z</time>
      </trkpt>
      <trkpt lat="49.50078" lon="0.58569">
        <ele>65</ele>
        <time>2013-04-21T10:46:46Z</time>
      </trkpt>
      <trkpt lat="49.50074" lon="0.5857">
        <ele>64</ele>
        <time>2013-04-21T10:46:52Z</time>
      </trkpt>
      <trkpt lat="49.50068" lon="0.58571">
        <ele>64</ele>
        <time>2013-04-21T10:46:58Z</time>
      </trkpt>
      <trkpt lat="49.50063" lon="0.58574">
        <ele>63</ele>
        <time>2013-04-21T10:47:06Z</time>
      </trkpt>
      <trkpt lat="49.50055" lon="0.58575">
        <ele>62</ele>
        <time>2013-04-21T10:47:13Z</time>
      </trkpt>
      <trkpt lat="49.5005" lon="0.58573">
        <ele>61</ele>
        <time>2013-04-21T10:47:19Z</time>
      </trkpt>
      <trkpt lat="49.50045" lon="0.5857">
        <ele>61</ele>
        <time>2013-04-21T10:47:25Z</time>
      </trkpt>
      <trkpt lat="49.50039" lon="0.5857">
        <ele>60</ele>
        <time>2013-04-21T10:47:31Z</time>
      </trkpt>
      <trkpt lat="49.50034" lon="0.5857">
        <ele>60</ele>
        <time>2013-04-21T10:47:36Z</time>
      </trkpt>
      <trkpt lat="49.50029" lon="0.58567">
        <ele>59</ele>
        <time>2013-04-21T10:47:42Z</time>
      </trkpt>
      <trkpt lat="49.50024" lon="0.58564">
        <ele>59</ele>
        <time>2013-04-21T10:47:47Z</time>
      </trkpt>
      <trkpt lat="49.50018" lon="0.58561">
        <ele>59</ele>
        <time>2013-04-21T10:47:53Z</time>
      </trkpt>
      <trkpt lat="49.50013" lon="0.58554">
        <ele>58</ele>
        <time>2013-04-21T10:47:59Z</time>
      </trkpt>
      <trkpt lat="49.50008" lon="0.58549">
        <ele>58</ele>
        <time>2013-04-21T10:48:05Z</time>
      </trkpt>
      <trkpt lat="49.50005" lon="0.58542">
        <ele>57</ele>
        <time>2013-04-21T10:48:10Z</time>
      </trkpt>
      <trkpt lat="49.50003" lon="0.58532">
        <ele>56</ele>
        <time>2013-04-21T10:48:15Z</time>
      </trkpt>
      <trkpt lat="49.50001" lon="0.58525">
        <ele>56</ele>
        <time>2013-04-21T10:48:20Z</time>
      </trkpt>
      <trkpt lat="49.49998" lon="0.58517">
        <ele>52</ele>
        <time>2013-04-21T10:48:25Z</time>
      </trkpt>
      <trkpt lat="49.49996" lon="0.58509">
        <ele>52</ele>
        <time>2013-04-21T10:48:30Z</time>
      </trkpt>
      <trkpt lat="49.49997" lon="0.58499">
        <ele>50</ele>
        <time>2013-04-21T10:48:36Z</time>
      </trkpt>
      <trkpt lat="49.49994" lon="0.5849">
        <ele>49</ele>
        <time>2013-04-21T10:48:42Z</time>
      </trkpt>
      <trkpt lat="49.49993" lon="0.58482">
        <ele>48</ele>
        <time>2013-04-21T10:48:47Z</time>
      </trkpt>
      <trkpt lat="49.49992" lon="0.58473">
        <ele>47</ele>
        <time>2013-04-21T10:48:52Z</time>
      </trkpt>
      <trkpt lat="49.4999" lon="0.58464">
        <ele>47</ele>
        <time>2013-04-21T10:48:57Z</time>
      </trkpt>
      <trkpt lat="49.4999" lon="0.58456">
        <ele>46</ele>
        <time>2013-04-21T10:49:02Z</time>
      </trkpt>
      <trkpt lat="49.49989" lon="0.58447">
        <ele>45</ele>
        <time>2013-04-21T10:49:07Z</time>
      </trkpt>
      <trkpt lat="49.49987" lon="0.58436">
        <ele>45</ele>
        <time>2013-04-21T10:49:13Z</time>
      </trkpt>
      <trkpt lat="49.49986" lon="0.58426">
        <ele>44</ele>
        <time>2013-04-21T10:49:19Z</time>
      </trkpt>
      <trkpt lat="49.49986" lon="0.58417">
        <ele>44</ele>
        <time>2013-04-21T10:49:24Z</time>
      </trkpt>
      <trkpt lat="49.49985" lon="0.5841">
        <ele>41</ele>
        <time>2013-04-21T10:49:29Z</time>
      </trkpt>
      <trkpt lat="49.49985" lon="0.58402">
        <ele>40</ele>
        <time>2013-04-21T10:49:34Z</time>
      </trkpt>
      <trkpt lat="49.49985" lon="0.58393">
        <ele>40</ele>
        <time>2013-04-21T10:49:39Z</time>
      </trkpt>
      <trkpt lat="49.4999" lon="0.58386">
        <ele>39</ele>
        <time>2013-04-21T10:49:45Z</time>
      </trkpt>
      <trkpt lat="49.49997" lon="0.58384">
        <ele>39</ele>
        <time>2013-04-21T10:49:51Z</time>
      </trkpt>
      <trkpt lat="49.50003" lon="0.58383">
        <ele>41</ele>
        <time>2013-04-21T10:49:56Z</time>
      </trkpt>
      <trkpt lat="49.50009" lon="0.58381">
        <ele>41</ele>
        <time>2013-04-21T10:50:01Z</time>
      </trkpt>
      <trkpt lat="49.50015" lon="0.58377">
        <ele>41</ele>
        <time>2013-04-21T10:50:06Z</time>
      </trkpt>
      <trkpt lat="49.50021" lon="0.58375">
        <ele>40</ele>
        <time>2013-04-21T10:50:11Z</time>
      </trkpt>
      <trkpt lat="49.50027" lon="0.58374">
        <ele>40</ele>
        <time>2013-04-21T10:50:16Z</time>
      </trkpt>
      <trkpt lat="49.50033" lon="0.58372">
        <ele>41</ele>
        <time>2013-04-21T10:50:21Z</time>
      </trkpt>
      <trkpt lat="49.50039" lon="0.5837">
        <ele>40</ele>
        <time>2013-04-21T10:50:26Z</time>
      </trkpt>
      <trkpt lat="49.50045" lon="0.58369">
        <ele>41</ele>
        <time>2013-04-21T10:50:31Z</time>
      </trkpt>
      <trkpt lat="49.50051" lon="0.58368">
        <ele>41</ele>
        <time>2013-04-21T10:50:37Z</time>
      </trkpt>
      <trkpt lat="49.50054" lon="0.5837">
        <ele>41</ele>
        <time>2013-04-21T10:50:42Z</time>
      </trkpt>
      <trkpt lat="49.50058" lon="0.58369">
        <ele>41</ele>
        <time>2013-04-21T10:50:48Z</time>
      </trkpt>
      <trkpt lat="49.50061" lon="0.58376">
        <ele>41</ele>
        <time>2013-04-21T10:50:54Z</time>
      </trkpt>
      <trkpt lat="49.50063" lon="0.58377">
        <ele>41</ele>
        <time>2013-04-21T10:51:01Z</time>
      </trkpt>
      <trkpt lat="49.50061" lon="0.58371">
        <ele>41</ele>
        <time>2013-04-21T10:51:07Z</time>
      </trkpt>
      <trkpt lat="49.50064" lon="0.58369">
        <ele>41</ele>
        <time>2013-04-21T10:51:12Z</time>
      </trkpt>
      <trkpt lat="49.50067" lon="0.58376">
        <ele>41</ele>
        <time>2013-04-21T10:51:17Z</time>
      </trkpt>
      <trkpt lat="49.50062" lon="0.58364">
        <ele>41</ele>
        <time>2013-04-21T10:51:22Z</time>
      </trkpt>
      <trkpt lat="49.50058" lon="0.58363">
        <ele>40</ele>
        <time>2013-04-21T10:51:29Z</time>
      </trkpt>
      <trkpt lat="49.50061" lon="0.58366">
        <ele>41</ele>
        <time>2013-04-21T10:51:35Z</time>
      </trkpt>
      <trkpt lat="49.50067" lon="0.58356">
        <ele>40</ele>
        <time>2013-04-21T10:51:40Z</time>
      </trkpt>
      <trkpt lat="49.50072" lon="0.58353">
        <ele>40</ele>
        <time>2013-04-21T10:51:46Z</time>
      </trkpt>
      <trkpt lat="49.50077" lon="0.58351">
        <ele>40</ele>
        <time>2013-04-21T10:51:52Z</time>
      </trkpt>
      <trkpt lat="49.50083" lon="0.5835">
        <ele>40</ele>
        <time>2013-04-21T10:51:57Z</time>
      </trkpt>
      <trkpt lat="49.50088" lon="0.58349">
        <ele>41</ele>
        <time>2013-04-21T10:52:03Z</time>
      </trkpt>
      <trkpt lat="49.50093" lon="0.58346">
        <ele>41</ele>
        <time>2013-04-21T10:52:08Z</time>
      </trkpt>
      <trkpt lat="49.50099" lon="0.58344">
        <ele>41</ele>
        <time>2013-04-21T10:52:13Z</time>
      </trkpt>
      <trkpt lat="49.50106" lon="0.58343">
        <ele>41</ele>
        <time>2013-04-21T10:52:18Z</time>
      </trkpt>
      <trkpt lat="49.50111" lon="0.58341">
        <ele>42</ele>
        <time>2013-04-21T10:52:23Z</time>
      </trkpt>
      <trkpt lat="49.50114" lon="0.58337">
        <ele>42</ele>
        <time>2013-04-21T10:52:36Z</time>
      </trkpt>
      <trkpt lat="49.50113" lon="0.58336">
        <ele>42</ele>
        <time>2013-04-21T10:52:43Z</time>
      </trkpt>
      <trkpt lat="49.50116" lon="0.58334">
        <ele>42</ele>
        <time>2013-04-21T10:52:53Z</time>
      </trkpt>
      <trkpt lat="49.50113" lon="0.58338">
        <ele>42</ele>
        <time>2013-04-21T10:52:58Z</time>
      </trkpt>
      <trkpt lat="49.50115" lon="0.58335">
        <ele>42</ele>
        <time>2013-04-21T10:53:03Z</time>
      </trkpt>
      <trkpt lat="49.50119" lon="0.58334">
        <ele>42</ele>
        <time>2013-04-21T10:53:08Z</time>
      </trkpt>
      <trkpt lat="49.50125" lon="0.58332">
        <ele>41</ele>
        <time>2013-04-21T10:53:13Z</time>
      </trkpt>
      <trkpt lat="49.50132" lon="0.58332">
        <ele>41</ele>
        <time>2013-04-21T10:53:18Z</time>
      </trkpt>
      <trkpt lat="49.50136" lon="0.5833">
        <ele>41</ele>
        <time>2013-04-21T10:53:23Z</time>
      </trkpt>
      <trkpt lat="49.50142" lon="0.58327">
        <ele>41</ele>
        <time>2013-04-21T10:53:28Z</time>
      </trkpt>
      <trkpt lat="49.50147" lon="0.58323">
        <ele>42</ele>
        <time>2013-04-21T10:53:33Z</time>
      </trkpt>
      <trkpt lat="49.50155" lon="0.5832">
        <ele>42</ele>
        <time>2013-04-21T10:53:39Z</time>
      </trkpt>
      <trkpt lat="49.50159" lon="0.58311">
        <ele>42</ele>
        <time>2013-04-21T10:53:44Z</time>
      </trkpt>
      <trkpt lat="49.50161" lon="0.58302">
        <ele>42</ele>
        <time>2013-04-21T10:53:49Z</time>
      </trkpt>
      <trkpt lat="49.50161" lon="0.58292">
        <ele>42</ele>
        <time>2013-04-21T10:53:54Z</time>
      </trkpt>
      <trkpt lat="49.50162" lon="0.58284">
        <ele>42</ele>
        <time>2013-04-21T10:54:00Z</time>
      </trkpt>
      <trkpt lat="49.50162" lon="0.58276">
        <ele>42</ele>
        <time>2013-04-21T10:54:05Z</time>
      </trkpt>
      <trkpt lat="49.50163" lon="0.58268">
        <ele>43</ele>
        <time>2013-04-21T10:54:10Z</time>
      </trkpt>
      <trkpt lat="49.50164" lon="0.5826">
        <ele>43</ele>
        <time>2013-04-21T10:54:15Z</time>
      </trkpt>
      <trkpt lat="49.50164" lon="0.58249">
        <ele>44</ele>
        <time>2013-04-21T10:54:21Z</time>
      </trkpt>
      <trkpt lat="49.50165" lon="0.58241">
        <ele>45</ele>
        <time>2013-04-21T10:54:26Z</time>
      </trkpt>
      <trkpt lat="49.50166" lon="0.58234">
        <ele>45</ele>
        <time>2013-04-21T10:54:31Z</time>
      </trkpt>
      <trkpt lat="49.50166" lon="0.58223">
        <ele>46</ele>
        <time>2013-04-21T10:54:36Z</time>
      </trkpt>
      <trkpt lat="49.50168" lon="0.58214">
        <ele>52</ele>
        <time>2013-04-21T10:54:41Z</time>
      </trkpt>
      <trkpt lat="49.50168" lon="0.58203">
        <ele>53</ele>
        <time>2013-04-21T10:54:47Z</time>
      </trkpt>
      <trkpt lat="49.50168" lon="0.58195">
        <ele>53</ele>
        <time>2013-04-21T10:54:52Z</time>
      </trkpt>
      <trkpt lat="49.50169" lon="0.58186">
        <ele>54</ele>
        <time>2013-04-21T10:54:58Z</time>
      </trkpt>
      <trkpt lat="49.50169" lon="0.58177">
        <ele>54</ele>
        <time>2013-04-21T10:55:03Z</time>
      </trkpt>
      <trkpt lat="49.50166" lon="0.58167">
        <ele>54</ele>
        <time>2013-04-21T10:55:08Z</time>
      </trkpt>
      <trkpt lat="49.50165" lon="0.5816">
        <ele>55</ele>
        <time>2013-04-21T10:55:13Z</time>
      </trkpt>
      <trkpt lat="49.50161" lon="0.58153">
        <ele>55</ele>
        <time>2013-04-21T10:55:18Z</time>
      </trkpt>
      <trkpt lat="49.50159" lon="0.58148">
        <ele>56</ele>
        <time>2013-04-21T10:55:23Z</time>
      </trkpt>
      <trkpt lat="49.50158" lon="0.58139">
        <ele>56</ele>
        <time>2013-04-21T10:55:28Z</time>
      </trkpt>
      <trkpt lat="49.50159" lon="0.58132">
        <ele>57</ele>
        <time>2013-04-21T10:55:33Z</time>
      </trkpt>
      <trkpt lat="49.50157" lon="0.58116">
        <ele>59</ele>
        <time>2013-04-21T10:55:40Z</time>
      </trkpt>
      <trkpt lat="49.50165" lon="0.58113">
        <ele>60</ele>
        <time>2013-04-21T10:55:46Z</time>
      </trkpt>
      <trkpt lat="49.50171" lon="0.58117">
        <ele>66</ele>
        <time>2013-04-21T10:55:51Z</time>
      </trkpt>
      <trkpt lat="49.50179" lon="0.5812">
        <ele>66</ele>
        <time>2013-04-21T10:55:57Z</time>
      </trkpt>
      <trkpt lat="49.50185" lon="0.58123">
        <ele>66</ele>
        <time>2013-04-21T10:56:03Z</time>
      </trkpt>
      <trkpt lat="49.5019" lon="0.58123">
        <ele>66</ele>
        <time>2013-04-21T10:56:08Z</time>
      </trkpt>
      <trkpt lat="49.50195" lon="0.58127">
        <ele>66</ele>
        <time>2013-04-21T10:56:18Z</time>
      </trkpt>
      <trkpt lat="49.50207" lon="0.58135">
        <ele>66</ele>
        <time>2013-04-21T10:56:23Z</time>
      </trkpt>
      <trkpt lat="49.50215" lon="0.58135">
        <ele>67</ele>
        <time>2013-04-21T10:56:28Z</time>
      </trkpt>
      <trkpt lat="49.50222" lon="0.58141">
        <ele>67</ele>
        <time>2013-04-21T10:56:33Z</time>
      </trkpt>
      <trkpt lat="49.50228" lon="0.58145">
        <ele>67</ele>
        <time>2013-04-21T10:56:39Z</time>
      </trkpt>
      <trkpt lat="49.50232" lon="0.58149">
        <ele>67</ele>
        <time>2013-04-21T10:56:44Z</time>
      </trkpt>
      <trkpt lat="49.5024" lon="0.58152">
        <ele>67</ele>
        <time>2013-04-21T10:56:49Z</time>
      </trkpt>
      <trkpt lat="49.50245" lon="0.58156">
        <ele>67</ele>
        <time>2013-04-21T10:56:54Z</time>
      </trkpt>
      <trkpt lat="49.50251" lon="0.58158">
        <ele>70</ele>
        <time>2013-04-21T10:57:00Z</time>
      </trkpt>
      <trkpt lat="49.50258" lon="0.58157">
        <ele>71</ele>
        <time>2013-04-21T10:57:05Z</time>
      </trkpt>
      <trkpt lat="49.50267" lon="0.58158">
        <ele>73</ele>
        <time>2013-04-21T10:57:11Z</time>
      </trkpt>
      <trkpt lat="49.50277" lon="0.58162">
        <ele>75</ele>
        <time>2013-04-21T10:57:16Z</time>
      </trkpt>
      <trkpt lat="49.50282" lon="0.58163">
        <ele>75</ele>
        <time>2013-04-21T10:57:22Z</time>
      </trkpt>
      <trkpt lat="49.50288" lon="0.58164">
        <ele>76</ele>
        <time>2013-04-21T10:57:28Z</time>
      </trkpt>
      <trkpt lat="49.50294" lon="0.58167">
        <ele>66</ele>
        <time>2013-04-21T10:57:34Z</time>
      </trkpt>
      <trkpt lat="49.50299" lon="0.58165">
        <ele>77</ele>
        <time>2013-04-21T10:57:39Z</time>
      </trkpt>
      <trkpt lat="49.50305" lon="0.58163">
        <ele>77</ele>
        <time>2013-04-21T10:57:44Z</time>
      </trkpt>
      <trkpt lat="49.50311" lon="0.58164">
        <ele>78</ele>
        <time>2013-04-21T10:57:49Z</time>
      </trkpt>
      <trkpt lat="49.50317" lon="0.58162">
        <ele>78</ele>
        <time>2013-04-21T10:57:54Z</time>
      </trkpt>
      <trkpt lat="49.50322" lon="0.58163">
        <ele>78</ele>
        <time>2013-04-21T10:58:00Z</time>
      </trkpt>
      <trkpt lat="49.50329" lon="0.58167">
        <ele>75</ele>
        <time>2013-04-21T10:58:06Z</time>
      </trkpt>
      <trkpt lat="49.50339" lon="0.58167">
        <ele>76</ele>
        <time>2013-04-21T10:58:11Z</time>
      </trkpt>
      <trkpt lat="49.50344" lon="0.58167">
        <ele>76</ele>
        <time>2013-04-21T10:58:16Z</time>
      </trkpt>
      <trkpt lat="49.50354" lon="0.58167">
        <ele>76</ele>
        <time>2013-04-21T10:58:21Z</time>
      </trkpt>
      <trkpt lat="49.50354" lon="0.58172">
        <ele>76</ele>
        <time>2013-04-21T10:58:27Z</time>
      </trkpt>
      <trkpt lat="49.5036" lon="0.58172">
        <ele>76</ele>
        <time>2013-04-21T10:58:32Z</time>
      </trkpt>
      <trkpt lat="49.50365" lon="0.58175">
        <ele>76</ele>
        <time>2013-04-21T10:58:37Z</time>
      </trkpt>
      <trkpt lat="49.50369" lon="0.5818">
        <ele>76</ele>
        <time>2013-04-21T10:58:42Z</time>
      </trkpt>
      <trkpt lat="49.50375" lon="0.58183">
        <ele>77</ele>
        <time>2013-04-21T10:58:47Z</time>
      </trkpt>
      <trkpt lat="49.50381" lon="0.58182">
        <ele>77</ele>
        <time>2013-04-21T10:58:52Z</time>
      </trkpt>
      <trkpt lat="49.50388" lon="0.58188">
        <ele>78</ele>
        <time>2013-04-21T10:58:57Z</time>
      </trkpt>
      <trkpt lat="49.50394" lon="0.58192">
        <ele>78</ele>
        <time>2013-04-21T10:59:02Z</time>
      </trkpt>
      <trkpt lat="49.504" lon="0.58197">
        <ele>78</ele>
        <time>2013-04-21T10:59:08Z</time>
      </trkpt>
      <trkpt lat="49.50404" lon="0.58203">
        <ele>77</ele>
        <time>2013-04-21T10:59:14Z</time>
      </trkpt>
      <trkpt lat="49.50409" lon="0.5821">
        <ele>76</ele>
        <time>2013-04-21T10:59:20Z</time>
      </trkpt>
      <trkpt lat="49.50418" lon="0.58214">
        <ele>84</ele>
        <time>2013-04-21T10:59:25Z</time>
      </trkpt>
      <trkpt lat="49.50425" lon="0.58213">
        <ele>84</ele>
        <time>2013-04-21T10:59:31Z</time>
      </trkpt>
      <trkpt lat="49.50427" lon="0.58215">
        <ele>84</ele>
        <time>2013-04-21T10:59:36Z</time>
      </trkpt>
      <trkpt lat="49.50436" lon="0.58223">
        <ele>84</ele>
        <time>2013-04-21T10:59:42Z</time>
      </trkpt>
      <trkpt lat="49.50445" lon="0.58225">
        <ele>84</ele>
        <time>2013-04-21T10:59:47Z</time>
      </trkpt>
      <trkpt lat="49.50454" lon="0.58231">
        <ele>85</ele>
        <time>2013-04-21T10:59:52Z</time>
      </trkpt>
      <trkpt lat="49.50457" lon="0.58236">
        <ele>85</ele>
        <time>2013-04-21T10:59:59Z</time>
      </trkpt>
      <trkpt lat="49.50466" lon="0.58242">
        <ele>86</ele>
        <time>2013-04-21T11:00:05Z</time>
      </trkpt>
      <trkpt lat="49.5047" lon="0.58243">
        <ele>86</ele>
        <time>2013-04-21T11:00:10Z</time>
      </trkpt>
      <trkpt lat="49.50473" lon="0.58246">
        <ele>86</ele>
        <time>2013-04-21T11:00:15Z</time>
      </trkpt>
      <trkpt lat="49.50478" lon="0.58249">
        <ele>86</ele>
        <time>2013-04-21T11:00:20Z</time>
      </trkpt>
      <trkpt lat="49.50482" lon="0.58268">
        <ele>76</ele>
        <time>2013-04-21T11:00:25Z</time>
      </trkpt>
      <trkpt lat="49.50488" lon="0.58273">
        <ele>76</ele>
        <time>2013-04-21T11:00:30Z</time>
      </trkpt>
      <trkpt lat="49.50492" lon="0.58272">
        <ele>77</ele>
        <time>2013-04-21T11:00:36Z</time>
      </trkpt>
      <trkpt lat="49.50498" lon="0.58271">
        <ele>78</ele>
        <time>2013-04-21T11:00:42Z</time>
      </trkpt>
      <trkpt lat="49.50503" lon="0.58269">
        <ele>87</ele>
        <time>2013-04-21T11:00:47Z</time>
      </trkpt>
      <trkpt lat="49.50508" lon="0.58269">
        <ele>87</ele>
        <time>2013-04-21T11:00:52Z</time>
      </trkpt>
      <trkpt lat="49.50515" lon="0.58271">
        <ele>87</ele>
        <time>2013-04-21T11:00:57Z</time>
      </trkpt>
      <trkpt lat="49.50521" lon="0.58273">
        <ele>87</ele>
        <time>2013-04-21T11:01:02Z</time>
      </trkpt>
      <trkpt lat="49.50526" lon="0.58276">
        <ele>87</ele>
        <time>2013-04-21T11:01:07Z</time>
      </trkpt>
      <trkpt lat="49.50535" lon="0.5828">
        <ele>88</ele>
        <time>2013-04-21T11:01:13Z</time>
      </trkpt>
      <trkpt lat="49.5054" lon="0.58287">
        <ele>88</ele>
        <time>2013-04-21T11:01:18Z</time>
      </trkpt>
      <trkpt lat="49.50546" lon="0.58294">
        <ele>88</ele>
        <time>2013-04-21T11:01:23Z</time>
      </trkpt>
      <trkpt lat="49.50551" lon="0.58302">
        <ele>87</ele>
        <time>2013-04-21T11:01:29Z</time>
      </trkpt>
      <trkpt lat="49.50558" lon="0.58305">
        <ele>88</ele>
        <time>2013-04-21T11:01:34Z</time>
      </trkpt>
      <trkpt lat="49.50566" lon="0.58309">
        <ele>88</ele>
        <time>2013-04-21T11:01:39Z</time>
      </trkpt>
      <trkpt lat="49.50569" lon="0.58316">
        <ele>88</ele>
        <time>2013-04-21T11:01:44Z</time>
      </trkpt>
      <trkpt lat="49.50574" lon="0.58318">
        <ele>88</ele>
        <time>2013-04-21T11:01:49Z</time>
      </trkpt>
      <trkpt lat="49.50579" lon="0.58329">
        <ele>87</ele>
        <time>2013-04-21T11:01:54Z</time>
      </trkpt>
      <trkpt lat="49.50586" lon="0.58336">
        <ele>87</ele>
        <time>2013-04-21T11:02:00Z</time>
      </trkpt>
      <trkpt lat="49.50593" lon="0.58336">
        <ele>87</ele>
        <time>2013-04-21T11:02:05Z</time>
      </trkpt>
      <trkpt lat="49.50597" lon="0.58348">
        <ele>87</ele>
        <time>2013-04-21T11:02:11Z</time>
      </trkpt>
      <trkpt lat="49.50599" lon="0.58351">
        <ele>87</ele>
        <time>2013-04-21T11:02:16Z</time>
      </trkpt>
      <trkpt lat="49.50602" lon="0.58358">
        <ele>87</ele>
        <time>2013-04-21T11:02:22Z</time>
      </trkpt>
      <trkpt lat="49.50608" lon="0.58365">
        <ele>87</ele>
        <time>2013-04-21T11:02:27Z</time>
      </trkpt>
      <trkpt lat="49.50614" lon="0.58368">
        <ele>87</ele>
        <time>2013-04-21T11:02:32Z</time>
      </trkpt>
      <trkpt lat="49.50621" lon="0.58375">
        <ele>87</ele>
        <time>2013-04-21T11:02:37Z</time>
      </trkpt>
      <trkpt lat="49.50626" lon="0.58383">
        <ele>87</ele>
        <time>2013-04-21T11:02:42Z</time>
      </trkpt>
      <trkpt lat="49.50631" lon="0.58388">
        <ele>87</ele>
        <time>2013-04-21T11:02:48Z</time>
      </trkpt>
      <trkpt lat="49.50637" lon="0.58391">
        <ele>87</ele>
        <time>2013-04-21T11:02:53Z</time>
      </trkpt>
      <trkpt lat="49.50639" lon="0.58398">
        <ele>87</ele>
        <time>2013-04-21T11:02:58Z</time>
      </trkpt>
      <trkpt lat="49.50642" lon="0.58413">
        <ele>86</ele>
        <time>2013-04-21T11:03:06Z</time>
      </trkpt>
      <trkpt lat="49.50649" lon="0.58421">
        <ele>79</ele>
        <time>2013-04-21T11:03:11Z</time>
      </trkpt>
      <trkpt lat="49.50653" lon="0.58428">
        <ele>79</ele>
        <time>2013-04-21T11:03:17Z</time>
      </trkpt>
      <trkpt lat="49.50655" lon="0.58438">
        <ele>78</ele>
        <time>2013-04-21T11:03:22Z</time>
      </trkpt>
      <trkpt lat="49.5066" lon="0.58442">
        <ele>78</ele>
        <time>2013-04-21T11:03:27Z</time>
      </trkpt>
      <trkpt lat="49.50668" lon="0.58448">
        <ele>87</ele>
        <time>2013-04-21T11:03:32Z</time>
      </trkpt>
      <trkpt lat="49.50673" lon="0.5846">
        <ele>86</ele>
        <time>2013-04-21T11:03:38Z</time>
      </trkpt>
      <trkpt lat="49.50681" lon="0.5846">
        <ele>86</ele>
        <time>2013-04-21T11:03:43Z</time>
      </trkpt>
      <trkpt lat="49.50685" lon="0.58465">
        <ele>86</ele>
        <time>2013-04-21T11:03:48Z</time>
      </trkpt>
      <trkpt lat="49.50686" lon="0.58469">
        <ele>86</ele>
        <time>2013-04-21T11:03:53Z</time>
      </trkpt>
      <trkpt lat="49.50689" lon="0.58473">
        <ele>85</ele>
        <time>2013-04-21T11:03:58Z</time>
      </trkpt>
      <trkpt lat="49.50695" lon="0.58482">
        <ele>85</ele>
        <time>2013-04-21T11:04:03Z</time>
      </trkpt>
      <trkpt lat="49.50697" lon="0.58487">
        <ele>85</ele>
        <time>2013-04-21T11:04:08Z</time>
      </trkpt>
      <trkpt lat="49.50703" lon="0.58489">
        <ele>86</ele>
        <time>2013-04-21T11:04:14Z</time>
      </trkpt>
      <trkpt lat="49.50709" lon="0.58493">
        <ele>87</ele>
        <time>2013-04-21T11:04:20Z</time>
      </trkpt>
      <trkpt lat="49.50716" lon="0.58508">
        <ele>81</ele>
        <time>2013-04-21T11:04:25Z</time>
      </trkpt>
      <trkpt lat="49.50725" lon="0.58512">
        <ele>82</ele>
        <time>2013-04-21T11:04:30Z</time>
      </trkpt>
      <trkpt lat="49.50729" lon="0.58518">
        <ele>82</ele>
        <time>2013-04-21T11:04:35Z</time>
      </trkpt>
      <trkpt lat="49.5073" lon="0.58523">
        <ele>82</ele>
        <time>2013-04-21T11:04:41Z</time>
      </trkpt>
      <trkpt lat="49.50737" lon="0.58527">
        <ele>82</ele>
        <time>2013-04-21T11:04:47Z</time>
      </trkpt>
      <trkpt lat="49.50742" lon="0.58537">
        <ele>81</ele>
        <time>2013-04-21T11:04:52Z</time>
      </trkpt>
      <trkpt lat="49.50747" lon="0.58541">
        <ele>81</ele>
        <time>2013-04-21T11:04:57Z</time>
      </trkpt>
      <trkpt lat="49.50751" lon="0.58545">
        <ele>89</ele>
        <time>2013-04-21T11:05:02Z</time>
      </trkpt>
      <trkpt lat="49.50754" lon="0.58545">
        <ele>90</ele>
        <time>2013-04-21T11:05:08Z</time>
      </trkpt>
      <trkpt lat="49.5076" lon="0.58547">
        <ele>89</ele>
        <time>2013-04-21T11:05:13Z</time>
      </trkpt>
      <trkpt lat="49.50766" lon="0.5855">
        <ele>89</ele>
        <time>2013-04-21T11:05:18Z</time>
      </trkpt>
      <trkpt lat="49.50771" lon="0.58553">
        <ele>89</ele>
        <time>2013-04-21T11:05:23Z</time>
      </trkpt>
      <trkpt lat="49.50776" lon="0.58557">
        <ele>89</ele>
        <time>2013-04-21T11:05:28Z</time>
      </trkpt>
      <trkpt lat="49.50781" lon="0.58561">
        <ele>90</ele>
        <time>2013-04-21T11:05:33Z</time>
      </trkpt>
      <trkpt lat="49.50789" lon="0.58566">
        <ele>90</ele>
        <time>2013-04-21T11:05:40Z</time>
      </trkpt>
      <trkpt lat="49.50794" lon="0.58564">
        <ele>91</ele>
        <time>2013-04-21T11:05:46Z</time>
      </trkpt>
      <trkpt lat="49.50802" lon="0.58561">
        <ele>91</ele>
        <time>2013-04-21T11:05:52Z</time>
      </trkpt>
      <trkpt lat="49.50809" lon="0.58561">
        <ele>92</ele>
        <time>2013-04-21T11:05:58Z</time>
      </trkpt>
      <trkpt lat="49.50822" lon="0.58559">
        <ele>92</ele>
        <time>2013-04-21T11:06:04Z</time>
      </trkpt>
      <trkpt lat="49.50829" lon="0.58553">
        <ele>93</ele>
        <time>2013-04-21T11:06:09Z</time>
      </trkpt>
      <trkpt lat="49.50833" lon="0.58554">
        <ele>93</ele>
        <time>2013-04-21T11:06:14Z</time>
      </trkpt>
      <trkpt lat="49.50837" lon="0.5856">
        <ele>98</ele>
        <time>2013-04-21T11:06:20Z</time>
      </trkpt>
      <trkpt lat="49.50842" lon="0.58564">
        <ele>97</ele>
        <time>2013-04-21T11:06:27Z</time>
      </trkpt>
      <trkpt lat="49.50848" lon="0.58568">
        <ele>97</ele>
        <time>2013-04-21T11:06:32Z</time>
      </trkpt>
      <trkpt lat="49.50854" lon="0.5857">
        <ele>98</ele>
        <time>2013-04-21T11:06:37Z</time>
      </trkpt>
      <trkpt lat="49.50854" lon="0.58577">
        <ele>97</ele>
        <time>2013-04-21T11:06:49Z</time>
      </trkpt>
      <trkpt lat="49.50851" lon="0.58575">
        <ele>97</ele>
        <time>2013-04-21T11:06:55Z</time>
      </trkpt>
      <trkpt lat="49.50849" lon="0.58576">
        <ele>96</ele>
        <time>2013-04-21T11:07:00Z</time>
      </trkpt>
      <trkpt lat="49.50848" lon="0.58571">
        <ele>97</ele>
        <time>2013-04-21T11:07:05Z</time>
      </trkpt>
      <trkpt lat="49.50852" lon="0.5858">
        <ele>96</ele>
        <time>2013-04-21T11:07:11Z</time>
      </trkpt>
      <trkpt lat="49.50851" lon="0.58575">
        <ele>96</ele>
        <time>2013-04-21T11:07:19Z</time>
      </trkpt>
      <trkpt lat="49.50851" lon="0.58573">
        <ele>97</ele>
        <time>2013-04-21T11:07:28Z</time>
      </trkpt>
      <trkpt lat="49.50854" lon="0.58574">
        <ele>97</ele>
        <time>2013-04-21T11:07:38Z</time>
      </trkpt>
      <trkpt lat="49.50856" lon="0.58571">
        <ele>98</ele>
        <time>2013-04-21T11:07:43Z</time>
      </trkpt>
      <trkpt lat="49.50853" lon="0.58573">
        <ele>97</ele>
        <time>2013-04-21T11:07:49Z</time>
      </trkpt>
      <trkpt lat="49.5085" lon="0.58568">
        <ele>97</ele>
        <time>2013-04-21T11:07:58Z</time>
      </trkpt>
      <trkpt lat="49.50853" lon="0.58573">
        <ele>97</ele>
        <time>2013-04-21T11:08:05Z</time>
      </trkpt>
      <trkpt lat="49.50856" lon="0.58578">
        <ele>97</ele>
        <time>2013-04-21T11:08:10Z</time>
      </trkpt>
      <trkpt lat="49.50855" lon="0.58582">
        <ele>97</ele>
        <time>2013-04-21T11:08:17Z</time>
      </trkpt>
      <trkpt lat="49.50857" lon="0.58576">
        <ele>97</ele>
        <time>2013-04-21T11:08:22Z</time>
      </trkpt>
      <trkpt lat="49.5085" lon="0.5858">
        <ele>96</ele>
        <time>2013-04-21T11:08:27Z</time>
      </trkpt>
      <trkpt lat="49.50849" lon="0.58582">
        <ele>95</ele>
        <time>2013-04-21T11:08:35Z</time>
      </trkpt>
      <trkpt lat="49.50844" lon="0.58583">
        <ele>94</ele>
        <time>2013-04-21T11:08:42Z</time>
      </trkpt>
      <trkpt lat="49.50851" lon="0.58582">
        <ele>96</ele>
        <time>2013-04-21T11:08:47Z</time>
      </trkpt>
      <trkpt lat="49.50858" lon="0.58581">
        <ele>97</ele>
        <time>2013-04-21T11:08:52Z</time>
      </trkpt>
      <trkpt lat="49.50863" lon="0.58583">
        <ele>98</ele>
        <time>2013-04-21T11:08:57Z</time>
      </trkpt>
      <trkpt lat="49.5087" lon="0.58582">
        <ele>99</ele>
        <time>2013-04-21T11:09:02Z</time>
      </trkpt>
      <trkpt lat="49.50878" lon="0.58582">
        <ele>99</ele>
        <time>2013-04-21T11:09:08Z</time>
      </trkpt>
      <trkpt lat="49.50885" lon="0.58585">
        <ele>91</ele>
        <time>2013-04-21T11:09:14Z</time>
      </trkpt>
      <trkpt lat="49.50888" lon="0.58585">
        <ele>92</ele>
        <time>2013-04-21T11:09:19Z</time>
      </trkpt>
      <trkpt lat="49.50893" lon="0.58584">
        <ele>92</ele>
        <time>2013-04-21T11:09:24Z</time>
      </trkpt>
      <trkpt lat="49.50898" lon="0.58581">
        <ele>100</ele>
        <time>2013-04-21T11:09:29Z</time>
      </trkpt>
      <trkpt lat="49.50904" lon="0.58581">
        <ele>100</ele>
        <time>2013-04-21T11:09:34Z</time>
      </trkpt>
      <trkpt lat="49.50911" lon="0.58582">
        <ele>100</ele>
        <time>2013-04-21T11:09:39Z</time>
      </trkpt>
      <trkpt lat="49.50917" lon="0.58587">
        <ele>98</ele>
        <time>2013-04-21T11:09:45Z</time>
      </trkpt>
      <trkpt lat="49.50922" lon="0.58585">
        <ele>98</ele>
        <time>2013-04-21T11:09:50Z</time>
      </trkpt>
      <trkpt lat="49.50927" lon="0.58582">
        <ele>102</ele>
        <time>2013-04-21T11:09:55Z</time>
      </trkpt>
      <trkpt lat="49.50931" lon="0.58583">
        <ele>103</ele>
        <time>2013-04-21T11:10:00Z</time>
      </trkpt>
      <trkpt lat="49.50936" lon="0.58582">
        <ele>103</ele>
        <time>2013-04-21T11:10:05Z</time>
      </trkpt>
      <trkpt lat="49.50942" lon="0.5858">
        <ele>104</ele>
        <time>2013-04-21T11:10:11Z</time>
      </trkpt>
      <trkpt lat="49.50947" lon="0.58582">
        <ele>105</ele>
        <time>2013-04-21T11:10:16Z</time>
      </trkpt>
      <trkpt lat="49.50954" lon="0.58579">
        <ele>105</ele>
        <time>2013-04-21T11:10:21Z</time>
      </trkpt>
      <trkpt lat="49.50961" lon="0.58579">
        <ele>106</ele>
        <time>2013-04-21T11:10:27Z</time>
      </trkpt>
      <trkpt lat="49.50962" lon="0.58587">
        <ele>96</ele>
        <time>2013-04-21T11:10:33Z</time>
      </trkpt>
      <trkpt lat="49.50969" lon="0.58594">
        <ele>96</ele>
        <time>2013-04-21T11:10:39Z</time>
      </trkpt>
      <trkpt lat="49.5097" lon="0.586">
        <ele>95</ele>
        <time>2013-04-21T11:10:44Z</time>
      </trkpt>
      <trkpt lat="49.50971" lon="0.58603">
        <ele>95</ele>
        <time>2013-04-21T11:10:50Z</time>
      </trkpt>
      <trkpt lat="49.50977" lon="0.58603">
        <ele>95</ele>
        <time>2013-04-21T11:10:55Z</time>
      </trkpt>
      <trkpt lat="49.5098" lon="0.58607">
        <ele>95</ele>
        <time>2013-04-21T11:11:00Z</time>
      </trkpt>
      <trkpt lat="49.50984" lon="0.58611">
        <ele>95</ele>
        <time>2013-04-21T11:11:05Z</time>
      </trkpt>
      <trkpt lat="49.50989" lon="0.58612">
        <ele>95</ele>
        <time>2013-04-21T11:11:10Z</time>
      </trkpt>
      <trkpt lat="49.50994" lon="0.58615">
        <ele>94</ele>
        <time>2013-04-21T11:11:15Z</time>
      </trkpt>
      <trkpt lat="49.50999" lon="0.58621">
        <ele>93</ele>
        <time>2013-04-21T11:11:20Z</time>
      </trkpt>
      <trkpt lat="49.51002" lon="0.58629">
        <ele>94</ele>
        <time>2013-04-21T11:11:25Z</time>
      </trkpt>
      <trkpt lat="49.51008" lon="0.58635">
        <ele>93</ele>
        <time>2013-04-21T11:11:30Z</time>
      </trkpt>
      <trkpt lat="49.51015" lon="0.58639">
        <ele>92</ele>
        <time>2013-04-21T11:11:36Z</time>
      </trkpt>
      <trkpt lat="49.51024" lon="0.58637">
        <ele>93</ele>
        <time>2013-04-21T11:11:41Z</time>
      </trkpt>
      <trkpt lat="49.51034" lon="0.58638">
        <ele>93</ele>
        <time>2013-04-21T11:11:48Z</time>
      </trkpt>
      <trkpt lat="49.51036" lon="0.58644">
        <ele>92</ele>
        <time>2013-04-21T11:11:53Z</time>
      </trkpt>
      <trkpt lat="49.51038" lon="0.58651">
        <ele>92</ele>
        <time>2013-04-21T11:11:58Z</time>
      </trkpt>
      <trkpt lat="49.5104" lon="0.5866">
        <ele>91</ele>
        <time>2013-04-21T11:12:03Z</time>
      </trkpt>
      <trkpt lat="49.51047" lon="0.58664">
        <ele>91</ele>
        <time>2013-04-21T11:12:09Z</time>
      </trkpt>
      <trkpt lat="49.51054" lon="0.58665">
        <ele>91</ele>
        <time>2013-04-21T11:12:14Z</time>
      </trkpt>
      <trkpt lat="49.51057" lon="0.58672">
        <ele>81</ele>
        <time>2013-04-21T11:12:19Z</time>
      </trkpt>
      <trkpt lat="49.51065" lon="0.58673">
        <ele>82</ele>
        <time>2013-04-21T11:12:24Z</time>
      </trkpt>
      <trkpt lat="49.51068" lon="0.58682">
        <ele>81</ele>
        <time>2013-04-21T11:12:29Z</time>
      </trkpt>
      <trkpt lat="49.51072" lon="0.58691">
        <ele>80</ele>
        <time>2013-04-21T11:12:35Z</time>
      </trkpt>
      <trkpt lat="49.51072" lon="0.58697">
        <ele>79</ele>
        <time>2013-04-21T11:12:40Z</time>
      </trkpt>
      <trkpt lat="49.51078" lon="0.58703">
        <ele>78</ele>
        <time>2013-04-21T11:12:46Z</time>
      </trkpt>
      <trkpt lat="49.5108" lon="0.5871">
        <ele>77</ele>
        <time>2013-04-21T11:12:51Z</time>
      </trkpt>
      <trkpt lat="49.51082" lon="0.58716">
        <ele>77</ele>
        <time>2013-04-21T11:12:56Z</time>
      </trkpt>
      <trkpt lat="49.51084" lon="0.58725">
        <ele>78</ele>
        <time>2013-04-21T11:13:02Z</time>
      </trkpt>
      <trkpt lat="49.51088" lon="0.58739">
        <ele>76</ele>
        <time>2013-04-21T11:13:09Z</time>
      </trkpt>
      <trkpt lat="49.51091" lon="0.58745">
        <ele>75</ele>
        <time>2013-04-21T11:13:14Z</time>
      </trkpt>
      <trkpt lat="49.51095" lon="0.5875">
        <ele>75</ele>
        <time>2013-04-21T11:13:19Z</time>
      </trkpt>
      <trkpt lat="49.51098" lon="0.58756">
        <ele>71</ele>
        <time>2013-04-21T11:13:24Z</time>
      </trkpt>
      <trkpt lat="49.51098" lon="0.58765">
        <ele>70</ele>
        <time>2013-04-21T11:13:30Z</time>
      </trkpt>
      <trkpt lat="49.511" lon="0.58773">
        <ele>70</ele>
        <time>2013-04-21T11:13:36Z</time>
      </trkpt>
      <trkpt lat="49.51104" lon="0.58783">
        <ele>69</ele>
        <time>2013-04-21T11:13:41Z</time>
      </trkpt>
      <trkpt lat="49.51109" lon="0.5879">
        <ele>69</ele>
        <time>2013-04-21T11:13:46Z</time>
      </trkpt>
      <trkpt lat="49.51113" lon="0.58802">
        <ele>68</ele>
        <time>2013-04-21T11:13:52Z</time>
      </trkpt>
      <trkpt lat="49.51118" lon="0.58814">
        <ele>68</ele>
        <time>2013-04-21T11:13:58Z</time>
      </trkpt>
      <trkpt lat="49.51122" lon="0.58824">
        <ele>68</ele>
        <time>2013-04-21T11:14:03Z</time>
      </trkpt>
      <trkpt lat="49.51126" lon="0.58832">
        <ele>68</ele>
        <time>2013-04-21T11:14:08Z</time>
      </trkpt>
      <trkpt lat="49.51126" lon="0.58842">
        <ele>62</ele>
        <time>2013-04-21T11:14:13Z</time>
      </trkpt>
      <trkpt lat="49.51126" lon="0.58852">
        <ele>62</ele>
        <time>2013-04-21T11:14:18Z</time>
      </trkpt>
      <trkpt lat="49.51123" lon="0.58862">
        <ele>61</ele>
        <time>2013-04-21T11:14:23Z</time>
      </trkpt>
      <trkpt lat="49.51121" lon="0.58873">
        <ele>61</ele>
        <time>2013-04-21T11:14:28Z</time>
      </trkpt>
      <trkpt lat="49.5112" lon="0.5888">
        <ele>61</ele>
        <time>2013-04-21T11:14:33Z</time>
      </trkpt>
      <trkpt lat="49.51118" lon="0.58887">
        <ele>60</ele>
        <time>2013-04-21T11:14:38Z</time>
      </trkpt>
      <trkpt lat="49.51118" lon="0.58894">
        <ele>60</ele>
        <time>2013-04-21T11:14:43Z</time>
      </trkpt>
      <trkpt lat="49.51113" lon="0.58897">
        <ele>60</ele>
        <time>2013-04-21T11:14:54Z</time>
      </trkpt>
      <trkpt lat="49.51118" lon="0.58901">
        <ele>60</ele>
        <time>2013-04-21T11:15:07Z</time>
      </trkpt>
      <trkpt lat="49.51117" lon="0.58901">
        <ele>60</ele>
        <time>2013-04-21T11:15:13Z</time>
      </trkpt>
      <trkpt lat="49.51126" lon="0.58907">
        <ele>60</ele>
        <time>2013-04-21T11:15:19Z</time>
      </trkpt>
      <trkpt lat="49.51131" lon="0.58911">
        <ele>60</ele>
        <time>2013-04-21T11:15:24Z</time>
      </trkpt>
      <trkpt lat="49.51137" lon="0.58916">
        <ele>60</ele>
        <time>2013-04-21T11:15:30Z</time>
      </trkpt>
      <trkpt lat="49.51142" lon="0.58921">
        <ele>59</ele>
        <time>2013-04-21T11:15:35Z</time>
      </trkpt>
      <trkpt lat="49.51148" lon="0.58925">
        <ele>59</ele>
        <time>2013-04-21T11:15:40Z</time>
      </trkpt>
      <trkpt lat="49.51153" lon="0.5893">
        <ele>59</ele>
        <time>2013-04-21T11:15:45Z</time>
      </trkpt>
      <trkpt lat="49.5116" lon="0.58935">
        <ele>59</ele>
        <time>2013-04-21T11:15:51Z</time>
      </trkpt>
      <trkpt lat="49.51165" lon="0.5894">
        <ele>59</ele>
        <time>2013-04-21T11:15:56Z</time>
      </trkpt>
      <trkpt lat="49.5117" lon="0.58945">
        <ele>61</ele>
        <time>2013-04-21T11:16:02Z</time>
      </trkpt>
      <trkpt lat="49.51175" lon="0.5895">
        <ele>61</ele>
        <time>2013-04-21T11:16:08Z</time>
      </trkpt>
      <trkpt lat="49.5118" lon="0.58956">
        <ele>61</ele>
        <time>2013-04-21T11:16:14Z</time>
      </trkpt>
      <trkpt lat="49.51186" lon="0.5896">
        <ele>61</ele>
        <time>2013-04-21T11:16:19Z</time>
      </trkpt>
      <trkpt lat="49.51192" lon="0.58965">
        <ele>61</ele>
        <time>2013-04-21T11:16:24Z</time>
      </trkpt>
      <trkpt lat="49.51198" lon="0.5897">
        <ele>61</ele>
        <time>2013-04-21T11:16:30Z</time>
      </trkpt>
      <trkpt lat="49.51206" lon="0.58975">
        <ele>61</ele>
        <time>2013-04-21T11:16:36Z</time>
      </trkpt>
      <trkpt lat="49.51212" lon="0.58981">
        <ele>61</ele>
        <time>2013-04-21T11:16:42Z</time>
      </trkpt>
      <trkpt lat="49.51217" lon="0.58987">
        <ele>61</ele>
        <time>2013-04-21T11:16:48Z</time>
      </trkpt>
      <trkpt lat="49.51223" lon="0.58994">
        <ele>61</ele>
        <time>2013-04-21T11:16:54Z</time>
      </trkpt>
      <trkpt lat="49.51228" lon="0.59">
        <ele>61</ele>
        <time>2013-04-21T11:17:00Z</time>
      </trkpt>
      <trkpt lat="49.51234" lon="0.59007">
        <ele>61</ele>
        <time>2013-04-21T11:17:06Z</time>
      </trkpt>
      <trkpt lat="49.5124" lon="0.59012">
        <ele>61</ele>
        <time>2013-04-21T11:17:11Z</time>
      </trkpt>
      <trkpt lat="49.51245" lon="0.59017">
        <ele>61</ele>
        <time>2013-04-21T11:17:16Z</time>
      </trkpt>
      <trkpt lat="49.5125" lon="0.59022">
        <ele>61</ele>
        <time>2013-04-21T11:17:22Z</time>
      </trkpt>
      <trkpt lat="49.51255" lon="0.59026">
        <ele>62</ele>
        <time>2013-04-21T11:17:28Z</time>
      </trkpt>
      <trkpt lat="49.51261" lon="0.59032">
        <ele>62</ele>
        <time>2013-04-21T11:17:33Z</time>
      </trkpt>
      <trkpt lat="49.51267" lon="0.59038">
        <ele>63</ele>
        <time>2013-04-21T11:17:38Z</time>
      </trkpt>
      <trkpt lat="49.51272" lon="0.59044">
        <ele>63</ele>
        <time>2013-04-21T11:17:44Z</time>
      </trkpt>
      <trkpt lat="49.51277" lon="0.59048">
        <ele>63</ele>
        <time>2013-04-21T11:17:49Z</time>
      </trkpt>
      <trkpt lat="49.51283" lon="0.59054">
        <ele>63</ele>
        <time>2013-04-21T11:17:54Z</time>
      </trkpt>
      <trkpt lat="49.51288" lon="0.59063">
        <ele>63</ele>
        <time>2013-04-21T11:18:00Z</time>
      </trkpt>
      <trkpt lat="49.51295" lon="0.59068">
        <ele>63</ele>
        <time>2013-04-21T11:18:07Z</time>
      </trkpt>
      <trkpt lat="49.51302" lon="0.59074">
        <ele>63</ele>
        <time>2013-04-21T11:18:12Z</time>
      </trkpt>
      <trkpt lat="49.51307" lon="0.59083">
        <ele>63</ele>
        <time>2013-04-21T11:18:17Z</time>
      </trkpt>
      <trkpt lat="49.51312" lon="0.59089">
        <ele>65</ele>
        <time>2013-04-21T11:18:23Z</time>
      </trkpt>
      <trkpt lat="49.51317" lon="0.59092">
        <ele>65</ele>
        <time>2013-04-21T11:18:28Z</time>
      </trkpt>
      <trkpt lat="49.51321" lon="0.59097">
        <ele>65</ele>
        <time>2013-04-21T11:18:34Z</time>
      </trkpt>
      <trkpt lat="49.51327" lon="0.59102">
        <ele>65</ele>
        <time>2013-04-21T11:18:40Z</time>
      </trkpt>
      <trkpt lat="49.51336" lon="0.59106">
        <ele>65</ele>
        <time>2013-04-21T11:18:45Z</time>
      </trkpt>
      <trkpt lat="49.51341" lon="0.59112">
        <ele>65</ele>
        <time>2013-04-21T11:18:50Z</time>
      </trkpt>
      <trkpt lat="49.51347" lon="0.59119">
        <ele>65</ele>
        <time>2013-04-21T11:18:56Z</time>
      </trkpt>
      <trkpt lat="49.51353" lon="0.59125">
        <ele>65</ele>
        <time>2013-04-21T11:19:02Z</time>
      </trkpt>
      <trkpt lat="49.5136" lon="0.59127">
        <ele>65</ele>
        <time>2013-04-21T11:19:07Z</time>
      </trkpt>
      <trkpt lat="49.51366" lon="0.59133">
        <ele>65</ele>
        <time>2013-04-21T11:19:12Z</time>
      </trkpt>
      <trkpt lat="49.51371" lon="0.59139">
        <ele>65</ele>
        <time>2013-04-21T11:19:17Z</time>
      </trkpt>
      <trkpt lat="49.51375" lon="0.59147">
        <ele>65</ele>
        <time>2013-04-21T11:19:22Z</time>
      </trkpt>
      <trkpt lat="49.5138" lon="0.59154">
        <ele>65</ele>
        <time>2013-04-21T11:19:28Z</time>
      </trkpt>
      <trkpt lat="49.51384" lon="0.59161">
        <ele>65</ele>
        <time>2013-04-21T11:19:33Z</time>
      </trkpt>
      <trkpt lat="49.5139" lon="0.59167">
        <ele>67</ele>
        <time>2013-04-21T11:19:39Z</time>
      </trkpt>
      <trkpt lat="49.51397" lon="0.59176">
        <ele>67</ele>
        <time>2013-04-21T11:19:45Z</time>
      </trkpt>
      <trkpt lat="49.51403" lon="0.59182">
        <ele>67</ele>
        <time>2013-04-21T11:19:50Z</time>
      </trkpt>
      <trkpt lat="49.51408" lon="0.59187">
        <ele>67</ele>
        <time>2013-04-21T11:19:55Z</time>
      </trkpt>
      <trkpt lat="49.51414" lon="0.59193">
        <ele>67</ele>
        <time>2013-04-21T11:20:00Z</time>
      </trkpt>
      <trkpt lat="49.5142" lon="0.59199">
        <ele>67</ele>
        <time>2013-04-21T11:20:06Z</time>
      </trkpt>
      <trkpt lat="49.51423" lon="0.59206">
        <ele>67</ele>
        <time>2013-04-21T11:20:12Z</time>
      </trkpt>
      <trkpt lat="49.51429" lon="0.59213">
        <ele>67</ele>
        <time>2013-04-21T11:20:17Z</time>
      </trkpt>
      <trkpt lat="49.51431" lon="0.59219">
        <ele>68</ele>
        <time>2013-04-21T11:20:22Z</time>
      </trkpt>
      <trkpt lat="49.51435" lon="0.59227">
        <ele>68</ele>
        <time>2013-04-21T11:20:28Z</time>
      </trkpt>
      <trkpt lat="49.5144" lon="0.59232">
        <ele>68</ele>
        <time>2013-04-21T11:20:33Z</time>
      </trkpt>
      <trkpt lat="49.51449" lon="0.59238">
        <ele>68</ele>
        <time>2013-04-21T11:20:38Z</time>
      </trkpt>
      <trkpt lat="49.51453" lon="0.59246">
        <ele>68</ele>
        <time>2013-04-21T11:20:43Z</time>
      </trkpt>
      <trkpt lat="49.51459" lon="0.5925">
        <ele>68</ele>
        <time>2013-04-21T11:20:48Z</time>
      </trkpt>
      <trkpt lat="49.51463" lon="0.59258">
        <ele>69</ele>
        <time>2013-04-21T11:20:53Z</time>
      </trkpt>
      <trkpt lat="49.51467" lon="0.59265">
        <ele>69</ele>
        <time>2013-04-21T11:20:58Z</time>
      </trkpt>
      <trkpt lat="49.51472" lon="0.59272">
        <ele>70</ele>
        <time>2013-04-21T11:21:04Z</time>
      </trkpt>
      <trkpt lat="49.51477" lon="0.59278">
        <ele>70</ele>
        <time>2013-04-21T11:21:09Z</time>
      </trkpt>
      <trkpt lat="49.51483" lon="0.59285">
        <ele>70</ele>
        <time>2013-04-21T11:21:15Z</time>
      </trkpt>
      <trkpt lat="49.51488" lon="0.59293">
        <ele>70</ele>
        <time>2013-04-21T11:21:21Z</time>
      </trkpt>
      <trkpt lat="49.51493" lon="0.59299">
        <ele>69</ele>
        <time>2013-04-21T11:21:26Z</time>
      </trkpt>
      <trkpt lat="49.51498" lon="0.59306">
        <ele>69</ele>
        <time>2013-04-21T11:21:31Z</time>
      </trkpt>
      <trkpt lat="49.51503" lon="0.59313">
        <ele>71</ele>
        <time>2013-04-21T11:21:37Z</time>
      </trkpt>
      <trkpt lat="49.51507" lon="0.59317">
        <ele>71</ele>
        <time>2013-04-21T11:21:42Z</time>
      </trkpt>
      <trkpt lat="49.51513" lon="0.59324">
        <ele>71</ele>
        <time>2013-04-21T11:21:48Z</time>
      </trkpt>
      <trkpt lat="49.51518" lon="0.5933">
        <ele>71</ele>
        <time>2013-04-21T11:21:54Z</time>
      </trkpt>
      <trkpt lat="49.51524" lon="0.59338">
        <ele>72</ele>
        <time>2013-04-21T11:22:00Z</time>
      </trkpt>
      <trkpt lat="49.51529" lon="0.59342">
        <ele>73</ele>
        <time>2013-04-21T11:22:05Z</time>
      </trkpt>
      <trkpt lat="49.51536" lon="0.59347">
        <ele>73</ele>
        <time>2013-04-21T11:22:10Z</time>
      </trkpt>
      <trkpt lat="49.5154" lon="0.59353">
        <ele>74</ele>
        <time>2013-04-21T11:22:15Z</time>
      </trkpt>
      <trkpt lat="49.51544" lon="0.59359">
        <ele>74</ele>
        <time>2013-04-21T11:22:20Z</time>
      </trkpt>
      <trkpt lat="49.51549" lon="0.59367">
        <ele>74</ele>
        <time>2013-04-21T11:22:26Z</time>
      </trkpt>
      <trkpt lat="49.51553" lon="0.59374">
        <ele>74</ele>
        <time>2013-04-21T11:22:32Z</time>
      </trkpt>
      <trkpt lat="49.51559" lon="0.59382">
        <ele>74</ele>
        <time>2013-04-21T11:22:38Z</time>
      </trkpt>
      <trkpt lat="49.51561" lon="0.59389">
        <ele>74</ele>
        <time>2013-04-21T11:22:43Z</time>
      </trkpt>
      <trkpt lat="49.51567" lon="0.59396">
        <ele>74</ele>
        <time>2013-04-21T11:22:49Z</time>
      </trkpt>
      <trkpt lat="49.51572" lon="0.59404">
        <ele>74</ele>
        <time>2013-04-21T11:22:54Z</time>
      </trkpt>
      <trkpt lat="49.51577" lon="0.59413">
        <ele>73</ele>
        <time>2013-04-21T11:23:00Z</time>
      </trkpt>
      <trkpt lat="49.51582" lon="0.59421">
        <ele>73</ele>
        <time>2013-04-21T11:23:05Z</time>
      </trkpt>
      <trkpt lat="49.51587" lon="0.59427">
        <ele>75</ele>
        <time>2013-04-21T11:23:10Z</time>
      </trkpt>
      <trkpt lat="49.51591" lon="0.59432">
        <ele>76</ele>
        <time>2013-04-21T11:23:15Z</time>
      </trkpt>
      <trkpt lat="49.51596" lon="0.59437">
        <ele>76</ele>
        <time>2013-04-21T11:23:20Z</time>
      </trkpt>
      <trkpt lat="49.51602" lon="0.59442">
        <ele>77</ele>
        <time>2013-04-21T11:23:25Z</time>
      </trkpt>
      <trkpt lat="49.51608" lon="0.59445">
        <ele>77</ele>
        <time>2013-04-21T11:23:30Z</time>
      </trkpt>
      <trkpt lat="49.51614" lon="0.59449">
        <ele>78</ele>
        <time>2013-04-21T11:23:35Z</time>
      </trkpt>
      <trkpt lat="49.5162" lon="0.59453">
        <ele>78</ele>
        <time>2013-04-21T11:23:40Z</time>
      </trkpt>
      <trkpt lat="49.51626" lon="0.59458">
        <ele>78</ele>
        <time>2013-04-21T11:23:46Z</time>
      </trkpt>
      <trkpt lat="49.51632" lon="0.59463">
        <ele>78</ele>
        <time>2013-04-21T11:23:52Z</time>
      </trkpt>
      <trkpt lat="49.51637" lon="0.59466">
        <ele>79</ele>
        <time>2013-04-21T11:23:57Z</time>
      </trkpt>
      <trkpt lat="49.51643" lon="0.59471">
        <ele>79</ele>
        <time>2013-04-21T11:24:02Z</time>
      </trkpt>
      <trkpt lat="49.51649" lon="0.59474">
        <ele>79</ele>
        <time>2013-04-21T11:24:07Z</time>
      </trkpt>
      <trkpt lat="49.51657" lon="0.59478">
        <ele>78</ele>
        <time>2013-04-21T11:24:13Z</time>
      </trkpt>
      <trkpt lat="49.51664" lon="0.59482">
        <ele>78</ele>
        <time>2013-04-21T11:24:20Z</time>
      </trkpt>
      <trkpt lat="49.51667" lon="0.59483">
        <ele>84</ele>
        <time>2013-04-21T11:24:25Z</time>
      </trkpt>
      <trkpt lat="49.51672" lon="0.59486">
        <ele>83</ele>
        <time>2013-04-21T11:24:30Z</time>
      </trkpt>
      <trkpt lat="49.51679" lon="0.59492">
        <ele>83</ele>
        <time>2013-04-21T11:24:36Z</time>
      </trkpt>
      <trkpt lat="49.51684" lon="0.59498">
        <ele>84</ele>
        <time>2013-04-21T11:24:41Z</time>
      </trkpt>
      <trkpt lat="49.51686" lon="0.59504">
        <ele>78</ele>
        <time>2013-04-21T11:24:47Z</time>
      </trkpt>
      <trkpt lat="49.51687" lon="0.59509">
        <ele>78</ele>
        <time>2013-04-21T11:24:52Z</time>
      </trkpt>
      <trkpt lat="49.51689" lon="0.59518">
        <ele>78</ele>
        <time>2013-04-21T11:25:00Z</time>
      </trkpt>
      <trkpt lat="49.51696" lon="0.59531">
        <ele>78</ele>
        <time>2013-04-21T11:25:06Z</time>
      </trkpt>
      <trkpt lat="49.517" lon="0.59536">
        <ele>78</ele>
        <time>2013-04-21T11:25:11Z</time>
      </trkpt>
      <trkpt lat="49.51702" lon="0.59543">
        <ele>78</ele>
        <time>2013-04-21T11:25:17Z</time>
      </trkpt>
      <trkpt lat="49.51704" lon="0.59549">
        <ele>78</ele>
        <time>2013-04-21T11:25:23Z</time>
      </trkpt>
      <trkpt lat="49.51708" lon="0.59554">
        <ele>78</ele>
        <time>2013-04-21T11:25:30Z</time>
      </trkpt>
      <trkpt lat="49.51711" lon="0.59561">
        <ele>78</ele>
        <time>2013-04-21T11:25:36Z</time>
      </trkpt>
      <trkpt lat="49.51715" lon="0.59566">
        <ele>78</ele>
        <time>2013-04-21T11:25:42Z</time>
      </trkpt>
      <trkpt lat="49.51719" lon="0.59571">
        <ele>77</ele>
        <time>2013-04-21T11:25:48Z</time>
      </trkpt>
      <trkpt lat="49.51723" lon="0.59577">
        <ele>77</ele>
        <time>2013-04-21T11:25:54Z</time>
      </trkpt>
      <trkpt lat="49.51727" lon="0.59582">
        <ele>77</ele>
        <time>2013-04-21T11:26:00Z</time>
      </trkpt>
      <trkpt lat="49.51732" lon="0.59588">
        <ele>77</ele>
        <time>2013-04-21T11:26:05Z</time>
      </trkpt>
      <trkpt lat="49.51741" lon="0.59591">
        <ele>77</ele>
        <time>2013-04-21T11:26:10Z</time>
      </trkpt>
      <trkpt lat="49.51746" lon="0.59595">
        <ele>77</ele>
        <time>2013-04-21T11:26:15Z</time>
      </trkpt>
      <trkpt lat="49.51752" lon="0.59598">
        <ele>79</ele>
        <time>2013-04-21T11:26:20Z</time>
      </trkpt>
      <trkpt lat="49.51759" lon="0.59604">
        <ele>80</ele>
        <time>2013-04-21T11:26:26Z</time>
      </trkpt>
      <trkpt lat="49.51766" lon="0.5961">
        <ele>80</ele>
        <time>2013-04-21T11:26:32Z</time>
      </trkpt>
      <trkpt lat="49.51772" lon="0.59614">
        <ele>81</ele>
        <time>2013-04-21T11:26:38Z</time>
      </trkpt>
      <trkpt lat="49.51778" lon="0.59613">
        <ele>81</ele>
        <time>2013-04-21T11:26:43Z</time>
      </trkpt>
      <trkpt lat="49.51785" lon="0.59614">
        <ele>81</ele>
        <time>2013-04-21T11:26:49Z</time>
      </trkpt>
      <trkpt lat="49.51789" lon="0.59613">
        <ele>81</ele>
        <time>2013-04-21T11:26:54Z</time>
      </trkpt>
      <trkpt lat="49.51794" lon="0.59612">
        <ele>81</ele>
        <time>2013-04-21T11:26:59Z</time>
      </trkpt>
      <trkpt lat="49.51802" lon="0.5961">
        <ele>81</ele>
        <time>2013-04-21T11:27:05Z</time>
      </trkpt>
      <trkpt lat="49.51805" lon="0.59609">
        <ele>81</ele>
        <time>2013-04-21T11:27:13Z</time>
      </trkpt>
      <trkpt lat="49.5181" lon="0.59606">
        <ele>81</ele>
        <time>2013-04-21T11:27:18Z</time>
      </trkpt>
      <trkpt lat="49.51815" lon="0.59607">
        <ele>81</ele>
        <time>2013-04-21T11:27:23Z</time>
      </trkpt>
      <trkpt lat="49.51822" lon="0.5961">
        <ele>82</ele>
        <time>2013-04-21T11:27:29Z</time>
      </trkpt>
      <trkpt lat="49.51826" lon="0.59611">
        <ele>82</ele>
        <time>2013-04-21T11:27:34Z</time>
      </trkpt>
      <trkpt lat="49.51832" lon="0.5961">
        <ele>82</ele>
        <time>2013-04-21T11:27:40Z</time>
      </trkpt>
      <trkpt lat="49.51836" lon="0.5961">
        <ele>82</ele>
        <time>2013-04-21T11:27:47Z</time>
      </trkpt>
      <trkpt lat="49.5184" lon="0.5961">
        <ele>82</ele>
        <time>2013-04-21T11:27:53Z</time>
      </trkpt>
      <trkpt lat="49.51846" lon="0.5961">
        <ele>82</ele>
        <time>2013-04-21T11:27:59Z</time>
      </trkpt>
      <trkpt lat="49.51852" lon="0.5961">
        <ele>82</ele>
        <time>2013-04-21T11:28:04Z</time>
      </trkpt>
      <trkpt lat="49.51867" lon="0.59615">
        <ele>82</ele>
        <time>2013-04-21T11:28:18Z</time>
      </trkpt>
      <trkpt lat="49.51863" lon="0.59614">
        <ele>82</ele>
        <time>2013-04-21T11:28:25Z</time>
      </trkpt>
      <trkpt lat="49.51855" lon="0.59608">
        <ele>82</ele>
        <time>2013-04-21T11:28:35Z</time>
      </trkpt>
      <trkpt lat="49.51858" lon="0.59609">
        <ele>82</ele>
        <time>2013-04-21T11:28:41Z</time>
      </trkpt>
      <trkpt lat="49.5186" lon="0.5961">
        <ele>82</ele>
        <time>2013-04-21T11:28:47Z</time>
      </trkpt>
      <trkpt lat="49.51865" lon="0.59617">
        <ele>82</ele>
        <time>2013-04-21T11:28:57Z</time>
      </trkpt>
      <trkpt lat="49.5187" lon="0.59617">
        <ele>82</ele>
        <time>2013-04-21T11:29:02Z</time>
      </trkpt>
      <trkpt lat="49.51875" lon="0.59617">
        <ele>82</ele>
        <time>2013-04-21T11:29:07Z</time>
      </trkpt>
      <trkpt lat="49.51881" lon="0.59619">
        <ele>82</ele>
        <time>2013-04-21T11:29:12Z</time>
      </trkpt>
      <trkpt lat="49.51887" lon="0.59621">
        <ele>82</ele>
        <time>2013-04-21T11:29:18Z</time>
      </trkpt>
      <trkpt lat="49.51892" lon="0.59624">
        <ele>82</ele>
        <time>2013-04-21T11:29:23Z</time>
      </trkpt>
      <trkpt lat="49.51897" lon="0.59627">
        <ele>82</ele>
        <time>2013-04-21T11:29:28Z</time>
      </trkpt>
      <trkpt lat="49.51902" lon="0.5963">
        <ele>81</ele>
        <time>2013-04-21T11:29:33Z</time>
      </trkpt>
      <trkpt lat="49.51908" lon="0.59634">
        <ele>81</ele>
        <time>2013-04-21T11:29:38Z</time>
      </trkpt>
      <trkpt lat="49.51914" lon="0.59638">
        <ele>81</ele>
        <time>2013-04-21T11:29:43Z</time>
      </trkpt>
      <trkpt lat="49.5192" lon="0.59642">
        <ele>82</ele>
        <time>2013-04-21T11:29:48Z</time>
      </trkpt>
      <trkpt lat="49.51926" lon="0.59646">
        <ele>81</ele>
        <time>2013-04-21T11:29:53Z</time>
      </trkpt>
      <trkpt lat="49.51931" lon="0.5965">
        <ele>81</ele>
        <time>2013-04-21T11:29:58Z</time>
      </trkpt>
      <trkpt lat="49.51937" lon="0.59654">
        <ele>82</ele>
        <time>2013-04-21T11:30:03Z</time>
      </trkpt>
      <trkpt lat="49.51943" lon="0.59659">
        <ele>82</ele>
        <time>2013-04-21T11:30:09Z</time>
      </trkpt>
      <trkpt lat="49.51948" lon="0.59663">
        <ele>82</ele>
        <time>2013-04-21T11:30:14Z</time>
      </trkpt>
      <trkpt lat="49.51955" lon="0.5967">
        <ele>82</ele>
        <time>2013-04-21T11:30:20Z</time>
      </trkpt>
      <trkpt lat="49.51961" lon="0.59675">
        <ele>83</ele>
        <time>2013-04-21T11:30:26Z</time>
      </trkpt>
      <trkpt lat="49.51967" lon="0.5968">
        <ele>83</ele>
        <time>2013-04-21T11:30:31Z</time>
      </trkpt>
      <trkpt lat="49.51973" lon="0.59686">
        <ele>83</ele>
        <time>2013-04-21T11:30:37Z</time>
      </trkpt>
      <trkpt lat="49.51979" lon="0.59693">
        <ele>83</ele>
        <time>2013-04-21T11:30:43Z</time>
      </trkpt>
      <trkpt lat="49.51985" lon="0.59698">
        <ele>83</ele>
        <time>2013-04-21T11:30:48Z</time>
      </trkpt>
      <trkpt lat="49.51988" lon="0.59705">
        <ele>83</ele>
        <time>2013-04-21T11:30:53Z</time>
      </trkpt>
      <trkpt lat="49.51992" lon="0.59714">
        <ele>83</ele>
        <time>2013-04-21T11:30:58Z</time>
      </trkpt>
      <trkpt lat="49.51997" lon="0.59722">
        <ele>83</ele>
        <time>2013-04-21T11:31:04Z</time>
      </trkpt>
      <trkpt lat="49.52002" lon="0.59727">
        <ele>84</ele>
        <time>2013-04-21T11:31:09Z</time>
      </trkpt>
      <trkpt lat="49.52007" lon="0.59733">
        <ele>84</ele>
        <time>2013-04-21T11:31:15Z</time>
      </trkpt>
      <trkpt lat="49.52013" lon="0.5974">
        <ele>84</ele>
        <time>2013-04-21T11:31:21Z</time>
      </trkpt>
      <trkpt lat="49.52018" lon="0.59747">
        <ele>84</ele>
        <time>2013-04-21T11:31:26Z</time>
      </trkpt>
      <trkpt lat="49.52024" lon="0.59753">
        <ele>85</ele>
        <time>2013-04-21T11:31:32Z</time>
      </trkpt>
      <trkpt lat="49.52028" lon="0.59758">
        <ele>85</ele>
        <time>2013-04-21T11:31:37Z</time>
      </trkpt>
      <trkpt lat="49.52033" lon="0.59765">
        <ele>86</ele>
        <time>2013-04-21T11:31:43Z</time>
      </trkpt>
      <trkpt lat="49.52039" lon="0.59772">
        <ele>86</ele>
        <time>2013-04-21T11:31:49Z</time>
      </trkpt>
      <trkpt lat="49.52042" lon="0.59777">
        <ele>86</ele>
        <time>2013-04-21T11:31:54Z</time>
      </trkpt>
      <trkpt lat="49.5205" lon="0.59781">
        <ele>86</ele>
        <time>2013-04-21T11:31:59Z</time>
      </trkpt>
      <trkpt lat="49.52055" lon="0.59787">
        <ele>86</ele>
        <time>2013-04-21T11:32:04Z</time>
      </trkpt>
      <trkpt lat="49.5206" lon="0.59795">
        <ele>86</ele>
        <time>2013-04-21T11:32:09Z</time>
      </trkpt>
      <trkpt lat="49.52066" lon="0.59801">
        <ele>87</ele>
        <time>2013-04-21T11:32:14Z</time>
      </trkpt>
      <trkpt lat="49.5207" lon="0.59808">
        <ele>87</ele>
        <time>2013-04-21T11:32:20Z</time>
      </trkpt>
      <trkpt lat="49.52076" lon="0.59816">
        <ele>86</ele>
        <time>2013-04-21T11:32:26Z</time>
      </trkpt>
      <trkpt lat="49.52081" lon="0.5982">
        <ele>86</ele>
        <time>2013-04-21T11:32:31Z</time>
      </trkpt>
      <trkpt lat="49.52086" lon="0.59825">
        <ele>86</ele>
        <time>2013-04-21T11:32:36Z</time>
      </trkpt>
      <trkpt lat="49.5209" lon="0.59828">
        <ele>86</ele>
        <time>2013-04-21T11:32:41Z</time>
      </trkpt>
      <trkpt lat="49.52096" lon="0.5983">
        <ele>87</ele>
        <time>2013-04-21T11:32:46Z</time>
      </trkpt>
      <trkpt lat="49.52102" lon="0.59831">
        <ele>87</ele>
        <time>2013-04-21T11:32:51Z</time>
      </trkpt>
      <trkpt lat="49.52109" lon="0.59835">
        <ele>87</ele>
        <time>2013-04-21T11:32:57Z</time>
      </trkpt>
      <trkpt lat="49.52114" lon="0.59838">
        <ele>88</ele>
        <time>2013-04-21T11:33:02Z</time>
      </trkpt>
      <trkpt lat="49.52119" lon="0.59841">
        <ele>88</ele>
        <time>2013-04-21T11:33:07Z</time>
      </trkpt>
      <trkpt lat="49.52124" lon="0.59845">
        <ele>88</ele>
        <time>2013-04-21T11:33:12Z</time>
      </trkpt>
      <trkpt lat="49.5213" lon="0.59849">
        <ele>88</ele>
        <time>2013-04-21T11:33:17Z</time>
      </trkpt>
      <trkpt lat="49.52136" lon="0.59854">
        <ele>88</ele>
        <time>2013-04-21T11:33:22Z</time>
      </trkpt>
      <trkpt lat="49.52142" lon="0.59859">
        <ele>88</ele>
        <time>2013-04-21T11:33:28Z</time>
      </trkpt>
      <trkpt lat="49.52148" lon="0.59865">
        <ele>88</ele>
        <time>2013-04-21T11:33:34Z</time>
      </trkpt>
      <trkpt lat="49.52153" lon="0.59871">
        <ele>88</ele>
        <time>2013-04-21T11:33:39Z</time>
      </trkpt>
      <trkpt lat="49.52158" lon="0.59876">
        <ele>88</ele>
        <time>2013-04-21T11:33:44Z</time>
      </trkpt>
      <trkpt lat="49.52164" lon="0.59882">
        <ele>88</ele>
        <time>2013-04-21T11:33:50Z</time>
      </trkpt>
      <trkpt lat="49.5217" lon="0.59889">
        <ele>88</ele>
        <time>2013-04-21T11:33:56Z</time>
      </trkpt>
      <trkpt lat="49.52175" lon="0.59895">
        <ele>88</ele>
        <time>2013-04-21T11:34:01Z</time>
      </trkpt>
      <trkpt lat="49.5218" lon="0.59902">
        <ele>88</ele>
        <time>2013-04-21T11:34:07Z</time>
      </trkpt>
      <trkpt lat="49.52185" lon="0.59909">
        <ele>88</ele>
        <time>2013-04-21T11:34:13Z</time>
      </trkpt>
      <trkpt lat="49.5219" lon="0.59916">
        <ele>88</ele>
        <time>2013-04-21T11:34:19Z</time>
      </trkpt>
      <trkpt lat="49.52195" lon="0.59924">
        <ele>88</ele>
        <time>2013-04-21T11:34:25Z</time>
      </trkpt>
      <trkpt lat="49.52201" lon="0.59932">
        <ele>89</ele>
        <time>2013-04-21T11:34:31Z</time>
      </trkpt>
      <trkpt lat="49.52206" lon="0.59938">
        <ele>89</ele>
        <time>2013-04-21T11:34:36Z</time>
      </trkpt>
      <trkpt lat="49.5221" lon="0.59946">
        <ele>89</ele>
        <time>2013-04-21T11:34:42Z</time>
      </trkpt>
      <trkpt lat="49.52215" lon="0.59954">
        <ele>89</ele>
        <time>2013-04-21T11:34:48Z</time>
      </trkpt>
      <trkpt lat="49.5222" lon="0.59961">
        <ele>89</ele>
        <time>2013-04-21T11:34:53Z</time>
      </trkpt>
      <trkpt lat="49.52224" lon="0.59967">
        <ele>90</ele>
        <time>2013-04-21T11:34:58Z</time>
      </trkpt>
      <trkpt lat="49.52229" lon="0.59974">
        <ele>90</ele>
        <time>2013-04-21T11:35:04Z</time>
      </trkpt>
      <trkpt lat="49.52235" lon="0.59982">
        <ele>89</ele>
        <time>2013-04-21T11:35:10Z</time>
      </trkpt>
      <trkpt lat="49.5224" lon="0.59987">
        <ele>89</ele>
        <time>2013-04-21T11:35:15Z</time>
      </trkpt>
      <trkpt lat="49.52244" lon="0.59994">
        <ele>89</ele>
        <time>2013-04-21T11:35:20Z</time>
      </trkpt>
      <trkpt lat="49.52248" lon="0.60001">
        <ele>90</ele>
        <time>2013-04-21T11:35:26Z</time>
      </trkpt>
      <trkpt lat="49.52254" lon="0.60008">
        <ele>90</ele>
        <time>2013-04-21T11:35:32Z</time>
      </trkpt>
      <trkpt lat="49.5226" lon="0.60013">
        <ele>91</ele>
        <time>2013-04-21T11:35:38Z</time>
      </trkpt>
      <trkpt lat="49.52262" lon="0.60016">
        <ele>91</ele>
        <time>2013-04-21T11:35:43Z</time>
      </trkpt>
      <trkpt lat="49.52266" lon="0.60021">
        <ele>91</ele>
        <time>2013-04-21T11:35:48Z</time>
      </trkpt>
      <trkpt lat="49.5227" lon="0.60026">
        <ele>92</ele>
        <time>2013-04-21T11:35:53Z</time>
      </trkpt>
      <trkpt lat="49.52275" lon="0.60033">
        <ele>92</ele>
        <time>2013-04-21T11:35:58Z</time>
      </trkpt>
      <trkpt lat="49.52282" lon="0.60039">
        <ele>92</ele>
        <time>2013-04-21T11:36:03Z</time>
      </trkpt>
      <trkpt lat="49.52288" lon="0.60041">
        <ele>92</ele>
        <time>2013-04-21T11:36:08Z</time>
      </trkpt>
      <trkpt lat="49.52293" lon="0.60044">
        <ele>92</ele>
        <time>2013-04-21T11:36:13Z</time>
      </trkpt>
      <trkpt lat="49.52299" lon="0.60049">
        <ele>92</ele>
        <time>2013-04-21T11:36:18Z</time>
      </trkpt>
      <trkpt lat="49.52307" lon="0.60052">
        <ele>92</ele>
        <time>2013-04-21T11:36:23Z</time>
      </trkpt>
      <trkpt lat="49.52312" lon="0.60056">
        <ele>92</ele>
        <time>2013-04-21T11:36:31Z</time>
      </trkpt>
      <trkpt lat="49.52317" lon="0.60062">
        <ele>92</ele>
        <time>2013-04-21T11:36:36Z</time>
      </trkpt>
      <trkpt lat="49.52325" lon="0.60067">
        <ele>92</ele>
        <time>2013-04-21T11:36:42Z</time>
      </trkpt>
      <trkpt lat="49.5233" lon="0.60074">
        <ele>92</ele>
        <time>2013-04-21T11:36:48Z</time>
      </trkpt>
      <trkpt lat="49.52334" lon="0.6008">
        <ele>92</ele>
        <time>2013-04-21T11:36:54Z</time>
      </trkpt>
      <trkpt lat="49.5234" lon="0.60084">
        <ele>93</ele>
        <time>2013-04-21T11:37:00Z</time>
      </trkpt>
      <trkpt lat="49.52342" lon="0.6009">
        <ele>93</ele>
        <time>2013-04-21T11:37:05Z</time>
      </trkpt>
      <trkpt lat="49.52347" lon="0.60095">
        <ele>94</ele>
        <time>2013-04-21T11:37:11Z</time>
      </trkpt>
      <trkpt lat="49.52353" lon="0.601">
        <ele>94</ele>
        <time>2013-04-21T11:37:16Z</time>
      </trkpt>
      <trkpt lat="49.52359" lon="0.60104">
        <ele>95</ele>
        <time>2013-04-21T11:37:21Z</time>
      </trkpt>
      <trkpt lat="49.52365" lon="0.6011">
        <ele>95</ele>
        <time>2013-04-21T11:37:27Z</time>
      </trkpt>
      <trkpt lat="49.5237" lon="0.60115">
        <ele>95</ele>
        <time>2013-04-21T11:37:32Z</time>
      </trkpt>
      <trkpt lat="49.52374" lon="0.60118">
        <ele>95</ele>
        <time>2013-04-21T11:37:37Z</time>
      </trkpt>
      <trkpt lat="49.5238" lon="0.60121">
        <ele>95</ele>
        <time>2013-04-21T11:37:43Z</time>
      </trkpt>
      <trkpt lat="49.52387" lon="0.60123">
        <ele>95</ele>
        <time>2013-04-21T11:37:49Z</time>
      </trkpt>
      <trkpt lat="49.52388" lon="0.60126">
        <ele>95</ele>
        <time>2013-04-21T11:37:54Z</time>
      </trkpt>
      <trkpt lat="49.52393" lon="0.60128">
        <ele>95</ele>
        <time>2013-04-21T11:38:02Z</time>
      </trkpt>
      <trkpt lat="49.52394" lon="0.60132">
        <ele>95</ele>
        <time>2013-04-21T11:38:09Z</time>
      </trkpt>
      <trkpt lat="49.52396" lon="0.60135">
        <ele>95</ele>
        <time>2013-04-21T11:38:14Z</time>
      </trkpt>
      <trkpt lat="49.524" lon="0.60139">
        <ele>95</ele>
        <time>2013-04-21T11:38:19Z</time>
      </trkpt>
      <trkpt lat="49.52402" lon="0.60137">
        <ele>95</ele>
        <time>2013-04-21T11:38:28Z</time>
      </trkpt>
      <trkpt lat="49.52407" lon="0.60144">
        <ele>95</ele>
        <time>2013-04-21T11:38:35Z</time>
      </trkpt>
      <trkpt lat="49.52413" lon="0.60146">
        <ele>94</ele>
        <time>2013-04-21T11:38:40Z</time>
      </trkpt>
      <trkpt lat="49.52419" lon="0.60149">
        <ele>97</ele>
        <time>2013-04-21T11:38:45Z</time>
      </trkpt>
      <trkpt lat="49.52423" lon="0.6015">
        <ele>98</ele>
        <time>2013-04-21T11:38:50Z</time>
      </trkpt>
      <trkpt lat="49.52428" lon="0.60155">
        <ele>98</ele>
        <time>2013-04-21T11:38:55Z</time>
      </trkpt>
      <trkpt lat="49.52435" lon="0.6016">
        <ele>98</ele>
        <time>2013-04-21T11:39:00Z</time>
      </trkpt>
      <trkpt lat="49.52444" lon="0.60166">
        <ele>100</ele>
        <time>2013-04-21T11:39:05Z</time>
      </trkpt>
      <trkpt lat="49.52448" lon="0.60171">
        <ele>98</ele>
        <time>2013-04-21T11:39:10Z</time>
      </trkpt>
      <trkpt lat="49.52456" lon="0.60175">
        <ele>99</ele>
        <time>2013-04-21T11:39:15Z</time>
      </trkpt>
      <trkpt lat="49.52462" lon="0.60178">
        <ele>100</ele>
        <time>2013-04-21T11:39:20Z</time>
      </trkpt>
      <trkpt lat="49.52465" lon="0.60189">
        <ele>100</ele>
        <time>2013-04-21T11:39:26Z</time>
      </trkpt>
      <trkpt lat="49.52469" lon="0.60193">
        <ele>100</ele>
        <time>2013-04-21T11:39:31Z</time>
      </trkpt>
      <trkpt lat="49.52473" lon="0.60199">
        <ele>100</ele>
        <time>2013-04-21T11:39:36Z</time>
      </trkpt>
      <trkpt lat="49.52478" lon="0.60207">
        <ele>100</ele>
        <time>2013-04-21T11:39:42Z</time>
      </trkpt>
      <trkpt lat="49.52481" lon="0.60216">
        <ele>100</ele>
        <time>2013-04-21T11:39:48Z</time>
      </trkpt>
      <trkpt lat="49.52486" lon="0.60224">
        <ele>100</ele>
        <time>2013-04-21T11:39:53Z</time>
      </trkpt>
      <trkpt lat="49.52487" lon="0.60233">
        <ele>99</ele>
        <time>2013-04-21T11:39:58Z</time>
      </trkpt>
      <trkpt lat="49.52492" lon="0.60239">
        <ele>99</ele>
        <time>2013-04-21T11:40:03Z</time>
      </trkpt>
      <trkpt lat="49.52497" lon="0.60247">
        <ele>98</ele>
        <time>2013-04-21T11:40:09Z</time>
      </trkpt>
      <trkpt lat="49.52501" lon="0.60254">
        <ele>99</ele>
        <time>2013-04-21T11:40:14Z</time>
      </trkpt>
      <trkpt lat="49.52505" lon="0.6026">
        <ele>99</ele>
        <time>2013-04-21T11:40:19Z</time>
      </trkpt>
      <trkpt lat="49.52512" lon="0.60268">
        <ele>100</ele>
        <time>2013-04-21T11:40:25Z</time>
      </trkpt>
      <trkpt lat="49.52513" lon="0.60278">
        <ele>101</ele>
        <time>2013-04-21T11:40:30Z</time>
      </trkpt>
      <trkpt lat="49.52516" lon="0.6029">
        <ele>101</ele>
        <time>2013-04-21T11:40:36Z</time>
      </trkpt>
      <trkpt lat="49.52523" lon="0.60299">
        <ele>101</ele>
        <time>2013-04-21T11:40:42Z</time>
      </trkpt>
      <trkpt lat="49.52528" lon="0.60306">
        <ele>101</ele>
        <time>2013-04-21T11:40:47Z</time>
      </trkpt>
      <trkpt lat="49.52531" lon="0.60315">
        <ele>101</ele>
        <time>2013-04-21T11:40:52Z</time>
      </trkpt>
      <trkpt lat="49.52536" lon="0.60324">
        <ele>101</ele>
        <time>2013-04-21T11:40:58Z</time>
      </trkpt>
      <trkpt lat="49.52539" lon="0.60331">
        <ele>102</ele>
        <time>2013-04-21T11:41:03Z</time>
      </trkpt>
      <trkpt lat="49.52545" lon="0.60337">
        <ele>103</ele>
        <time>2013-04-21T11:41:09Z</time>
      </trkpt>
      <trkpt lat="49.52549" lon="0.60343">
        <ele>103</ele>
        <time>2013-04-21T11:41:14Z</time>
      </trkpt>
      <trkpt lat="49.52553" lon="0.60349">
        <ele>103</ele>
        <time>2013-04-21T11:41:19Z</time>
      </trkpt>
      <trkpt lat="49.52557" lon="0.60356">
        <ele>104</ele>
        <time>2013-04-21T11:41:24Z</time>
      </trkpt>
      <trkpt lat="49.5256" lon="0.60367">
        <ele>104</ele>
        <time>2013-04-21T11:41:30Z</time>
      </trkpt>
      <trkpt lat="49.52563" lon="0.60375">
        <ele>104</ele>
        <time>2013-04-21T11:41:35Z</time>
      </trkpt>
      <trkpt lat="49.52569" lon="0.60386">
        <ele>104</ele>
        <time>2013-04-21T11:41:41Z</time>
      </trkpt>
      <trkpt lat="49.52573" lon="0.60397">
        <ele>105</ele>
        <time>2013-04-21T11:41:46Z</time>
      </trkpt>
      <trkpt lat="49.52574" lon="0.60404">
        <ele>105</ele>
        <time>2013-04-21T11:41:51Z</time>
      </trkpt>
      <trkpt lat="49.52578" lon="0.60413">
        <ele>106</ele>
        <time>2013-04-21T11:41:56Z</time>
      </trkpt>
      <trkpt lat="49.52581" lon="0.60421">
        <ele>107</ele>
        <time>2013-04-21T11:42:01Z</time>
      </trkpt>
      <trkpt lat="49.52584" lon="0.60429">
        <ele>110</ele>
        <time>2013-04-21T11:42:06Z</time>
      </trkpt>
      <trkpt lat="49.52586" lon="0.60435">
        <ele>111</ele>
        <time>2013-04-21T11:42:12Z</time>
      </trkpt>
      <trkpt lat="49.52588" lon="0.60445">
        <ele>112</ele>
        <time>2013-04-21T11:42:17Z</time>
      </trkpt>
      <trkpt lat="49.5259" lon="0.60453">
        <ele>113</ele>
        <time>2013-04-21T11:42:23Z</time>
      </trkpt>
      <trkpt lat="49.52591" lon="0.60464">
        <ele>113</ele>
        <time>2013-04-21T11:42:29Z</time>
      </trkpt>
      <trkpt lat="49.5259" lon="0.60474">
        <ele>112</ele>
        <time>2013-04-21T11:42:35Z</time>
      </trkpt>
      <trkpt lat="49.52591" lon="0.60483">
        <ele>112</ele>
        <time>2013-04-21T11:42:40Z</time>
      </trkpt>
      <trkpt lat="49.52592" lon="0.60493">
        <ele>110</ele>
        <time>2013-04-21T11:42:45Z</time>
      </trkpt>
      <trkpt lat="49.52592" lon="0.60508">
        <ele>109</ele>
        <time>2013-04-21T11:42:51Z</time>
      </trkpt>
      <trkpt lat="49.52594" lon="0.60523">
        <ele>111</ele>
        <time>2013-04-21T11:42:57Z</time>
      </trkpt>
      <trkpt lat="49.52592" lon="0.60529">
        <ele>111</ele>
        <time>2013-04-21T11:43:02Z</time>
      </trkpt>
      <trkpt lat="49.52593" lon="0.60536">
        <ele>111</ele>
        <time>2013-04-21T11:43:08Z</time>
      </trkpt>
      <trkpt lat="49.52594" lon="0.60544">
        <ele>111</ele>
        <time>2013-04-21T11:43:13Z</time>
      </trkpt>
      <trkpt lat="49.52597" lon="0.60558">
        <ele>111</ele>
        <time>2013-04-21T11:43:18Z</time>
      </trkpt>
      <trkpt lat="49.52595" lon="0.60567">
        <ele>110</ele>
        <time>2013-04-21T11:43:23Z</time>
      </trkpt>
      <trkpt lat="49.52596" lon="0.60579">
        <ele>109</ele>
        <time>2013-04-21T11:43:28Z</time>
      </trkpt>
      <trkpt lat="49.52596" lon="0.6059">
        <ele>110</ele>
        <time>2013-04-21T11:43:36Z</time>
      </trkpt>
      <trkpt lat="49.52594" lon="0.60596">
        <ele>110</ele>
        <time>2013-04-21T11:43:41Z</time>
      </trkpt>
      <trkpt lat="49.52591" lon="0.60603">
        <ele>111</ele>
        <time>2013-04-21T11:43:48Z</time>
      </trkpt>
      <trkpt lat="49.52589" lon="0.6061">
        <ele>111</ele>
        <time>2013-04-21T11:43:53Z</time>
      </trkpt>
      <trkpt lat="49.52586" lon="0.6061">
        <ele>111</ele>
        <time>2013-04-21T11:44:03Z</time>
      </trkpt>
      <trkpt lat="49.52588" lon="0.60611">
        <ele>111</ele>
        <time>2013-04-21T11:44:11Z</time>
      </trkpt>
      <trkpt lat="49.52583" lon="0.60612">
        <ele>107</ele>
        <time>2013-04-21T11:44:17Z</time>
      </trkpt>
      <trkpt lat="49.52584" lon="0.60613">
        <ele>111</ele>
        <time>2013-04-21T11:44:24Z</time>
      </trkpt>
      <trkpt lat="49.52584" lon="0.60611">
        <ele>111</ele>
        <time>2013-04-21T11:44:31Z</time>
      </trkpt>
      <trkpt lat="49.52586" lon="0.60608">
        <ele>111</ele>
        <time>2013-04-21T11:44:36Z</time>
      </trkpt>
      <trkpt lat="49.52592" lon="0.60607">
        <ele>111</ele>
        <time>2013-04-21T11:44:45Z</time>
      </trkpt>
      <trkpt lat="49.52587" lon="0.60609">
        <ele>111</ele>
        <time>2013-04-21T11:44:52Z</time>
      </trkpt>
      <trkpt lat="49.52584" lon="0.60609">
        <ele>111</ele>
        <time>2013-04-21T11:44:58Z</time>
      </trkpt>
      <trkpt lat="49.52584" lon="0.60627">
        <ele>113</ele>
        <time>2013-04-21T11:45:08Z</time>
      </trkpt>
      <trkpt lat="49.52582" lon="0.60639">
        <ele>109</ele>
        <time>2013-04-21T11:45:14Z</time>
      </trkpt>
      <trkpt lat="49.52577" lon="0.60654">
        <ele>110</ele>
        <time>2013-04-21T11:45:23Z</time>
      </trkpt>
      <trkpt lat="49.52575" lon="0.60661">
        <ele>111</ele>
        <time>2013-04-21T11:45:29Z</time>
      </trkpt>
      <trkpt lat="49.52572" lon="0.60671">
        <ele>113</ele>
        <time>2013-04-21T11:45:35Z</time>
      </trkpt>
      <trkpt lat="49.5257" lon="0.60678">
        <ele>112</ele>
        <time>2013-04-21T11:45:41Z</time>
      </trkpt>
      <trkpt lat="49.52568" lon="0.60687">
        <ele>112</ele>
        <time>2013-04-21T11:45:46Z</time>
      </trkpt>
      <trkpt lat="49.52567" lon="0.60697">
        <ele>113</ele>
        <time>2013-04-21T11:45:54Z</time>
      </trkpt>
      <trkpt lat="49.52569" lon="0.60705">
        <ele>113</ele>
        <time>2013-04-21T11:46:01Z</time>
      </trkpt>
      <trkpt lat="49.52568" lon="0.60716">
        <ele>113</ele>
        <time>2013-04-21T11:46:07Z</time>
      </trkpt>
      <trkpt lat="49.52569" lon="0.60726">
        <ele>114</ele>
        <time>2013-04-21T11:46:14Z</time>
      </trkpt>
      <trkpt lat="49.52564" lon="0.60735">
        <ele>114</ele>
        <time>2013-04-21T11:46:20Z</time>
      </trkpt>
      <trkpt lat="49.52564" lon="0.60746">
        <ele>115</ele>
        <time>2013-04-21T11:46:25Z</time>
      </trkpt>
      <trkpt lat="49.52564" lon="0.60756">
        <ele>117</ele>
        <time>2013-04-21T11:46:31Z</time>
      </trkpt>
      <trkpt lat="49.52564" lon="0.60765">
        <ele>116</ele>
        <time>2013-04-21T11:46:36Z</time>
      </trkpt>
      <trkpt lat="49.52563" lon="0.60775">
        <ele>116</ele>
        <time>2013-04-21T11:46:42Z</time>
      </trkpt>
      <trkpt lat="49.5256" lon="0.60782">
        <ele>116</ele>
        <time>2013-04-21T11:46:48Z</time>
      </trkpt>
      <trkpt lat="49.52558" lon="0.60795">
        <ele>116</ele>
        <time>2013-04-21T11:46:54Z</time>
      </trkpt>
      <trkpt lat="49.52556" lon="0.60804">
        <ele>117</ele>
        <time>2013-04-21T11:46:59Z</time>
      </trkpt>
      <trkpt lat="49.5255" lon="0.60813">
        <ele>116</ele>
        <time>2013-04-21T11:47:06Z</time>
      </trkpt>
      <trkpt lat="49.52552" lon="0.60827">
        <ele>117</ele>
        <time>2013-04-21T11:47:12Z</time>
      </trkpt>
      <trkpt lat="49.52552" lon="0.60841">
        <ele>118</ele>
        <time>2013-04-21T11:47:18Z</time>
      </trkpt>
      <trkpt lat="49.52551" lon="0.6085">
        <ele>118</ele>
        <time>2013-04-21T11:47:24Z</time>
      </trkpt>
      <trkpt lat="49.52553" lon="0.6086">
        <ele>118</ele>
        <time>2013-04-21T11:47:29Z</time>
      </trkpt>
      <trkpt lat="49.52556" lon="0.60869">
        <ele>118</ele>
        <time>2013-04-21T11:47:35Z</time>
      </trkpt>
      <trkpt lat="49.52556" lon="0.60876">
        <ele>118</ele>
        <time>2013-04-21T11:47:41Z</time>
      </trkpt>
      <trkpt lat="49.52555" lon="0.60885">
        <ele>118</ele>
        <time>2013-04-21T11:47:47Z</time>
      </trkpt>
      <trkpt lat="49.52557" lon="0.60896">
        <ele>117</ele>
        <time>2013-04-21T11:47:53Z</time>
      </trkpt>
      <trkpt lat="49.52561" lon="0.60905">
        <ele>117</ele>
        <time>2013-04-21T11:47:59Z</time>
      </trkpt>
      <trkpt lat="49.52566" lon="0.60917">
        <ele>118</ele>
        <time>2013-04-21T11:48:05Z</time>
      </trkpt>
      <trkpt lat="49.52571" lon="0.60929">
        <ele>118</ele>
        <time>2013-04-21T11:48:12Z</time>
      </trkpt>
      <trkpt lat="49.52576" lon="0.60939">
        <ele>119</ele>
        <time>2013-04-21T11:48:18Z</time>
      </trkpt>
      <trkpt lat="49.52578" lon="0.60947">
        <ele>119</ele>
        <time>2013-04-21T11:48:23Z</time>
      </trkpt>
      <trkpt lat="49.52582" lon="0.60953">
        <ele>120</ele>
        <time>2013-04-21T11:48:29Z</time>
      </trkpt>
      <trkpt lat="49.52584" lon="0.6096">
        <ele>119</ele>
        <time>2013-04-21T11:48:36Z</time>
      </trkpt>
      <trkpt lat="49.5259" lon="0.6097">
        <ele>119</ele>
        <time>2013-04-21T11:48:41Z</time>
      </trkpt>
      <trkpt lat="49.52592" lon="0.60977">
        <ele>119</ele>
        <time>2013-04-21T11:48:47Z</time>
      </trkpt>
      <trkpt lat="49.52597" lon="0.60984">
        <ele>119</ele>
        <time>2013-04-21T11:48:53Z</time>
      </trkpt>
      <trkpt lat="49.52602" lon="0.60994">
        <ele>119</ele>
        <time>2013-04-21T11:49:00Z</time>
      </trkpt>
      <trkpt lat="49.52607" lon="0.61002">
        <ele>120</ele>
        <time>2013-04-21T11:49:05Z</time>
      </trkpt>
      <trkpt lat="49.52611" lon="0.61013">
        <ele>121</ele>
        <time>2013-04-21T11:49:10Z</time>
      </trkpt>
      <trkpt lat="49.52616" lon="0.61019">
        <ele>121</ele>
        <time>2013-04-21T11:49:16Z</time>
      </trkpt>
      <trkpt lat="49.5262" lon="0.61024">
        <ele>122</ele>
        <time>2013-04-21T11:49:21Z</time>
      </trkpt>
      <trkpt lat="49.52624" lon="0.61032">
        <ele>122</ele>
        <time>2013-04-21T11:49:26Z</time>
      </trkpt>
      <trkpt lat="49.52631" lon="0.61039">
        <ele>122</ele>
        <time>2013-04-21T11:49:33Z</time>
      </trkpt>
      <trkpt lat="49.52633" lon="0.61047">
        <ele>122</ele>
        <time>2013-04-21T11:49:38Z</time>
      </trkpt>
      <trkpt lat="49.52636" lon="0.61054">
        <ele>123</ele>
        <time>2013-04-21T11:49:44Z</time>
      </trkpt>
      <trkpt lat="49.52641" lon="0.6106">
        <ele>123</ele>
        <time>2013-04-21T11:49:50Z</time>
      </trkpt>
      <trkpt lat="49.52645" lon="0.61068">
        <ele>123</ele>
        <time>2013-04-21T11:49:58Z</time>
      </trkpt>
      <trkpt lat="49.52652" lon="0.61079">
        <ele>124</ele>
        <time>2013-04-21T11:50:04Z</time>
      </trkpt>
      <trkpt lat="49.52653" lon="0.61086">
        <ele>125</ele>
        <time>2013-04-21T11:50:09Z</time>
      </trkpt>
      <trkpt lat="49.52656" lon="0.61096">
        <ele>125</ele>
        <time>2013-04-21T11:50:15Z</time>
      </trkpt>
      <trkpt lat="49.52657" lon="0.61105">
        <ele>125</ele>
        <time>2013-04-21T11:50:21Z</time>
      </trkpt>
      <trkpt lat="49.52657" lon="0.61113">
        <ele>125</ele>
        <time>2013-04-21T11:50:27Z</time>
      </trkpt>
      <trkpt lat="49.52661" lon="0.6112">
        <ele>125</ele>
        <time>2013-04-21T11:50:36Z</time>
      </trkpt>
      <trkpt lat="49.52664" lon="0.61133">
        <ele>125</ele>
        <time>2013-04-21T11:50:42Z</time>
      </trkpt>
      <trkpt lat="49.52667" lon="0.61145">
        <ele>128</ele>
        <time>2013-04-21T11:50:48Z</time>
      </trkpt>
      <trkpt lat="49.52665" lon="0.61155">
        <ele>125</ele>
        <time>2013-04-21T11:50:55Z</time>
      </trkpt>
      <trkpt lat="49.52663" lon="0.61162">
        <ele>125</ele>
        <time>2013-04-21T11:51:01Z</time>
      </trkpt>
      <trkpt lat="49.52667" lon="0.61171">
        <ele>126</ele>
        <time>2013-04-21T11:51:07Z</time>
      </trkpt>
      <trkpt lat="49.52665" lon="0.61181">
        <ele>126</ele>
        <time>2013-04-21T11:51:14Z</time>
      </trkpt>
      <trkpt lat="49.52664" lon="0.61199">
        <ele>126</ele>
        <time>2013-04-21T11:51:21Z</time>
      </trkpt>
      <trkpt lat="49.52662" lon="0.6121">
        <ele>127</ele>
        <time>2013-04-21T11:51:28Z</time>
      </trkpt>
      <trkpt lat="49.52664" lon="0.61216">
        <ele>127</ele>
        <time>2013-04-21T11:51:33Z</time>
      </trkpt>
      <trkpt lat="49.52665" lon="0.61223">
        <ele>127</ele>
        <time>2013-04-21T11:51:39Z</time>
      </trkpt>
      <trkpt lat="49.52661" lon="0.61237">
        <ele>127</ele>
        <time>2013-04-21T11:51:46Z</time>
      </trkpt>
      <trkpt lat="49.52655" lon="0.61252">
        <ele>128</ele>
        <time>2013-04-21T11:51:52Z</time>
      </trkpt>
      <trkpt lat="49.5265" lon="0.61261">
        <ele>128</ele>
        <time>2013-04-21T11:51:58Z</time>
      </trkpt>
      <trkpt lat="49.52649" lon="0.6127">
        <ele>128</ele>
        <time>2013-04-21T11:52:03Z</time>
      </trkpt>
      <trkpt lat="49.52647" lon="0.61277">
        <ele>128</ele>
        <time>2013-04-21T11:52:09Z</time>
      </trkpt>
      <trkpt lat="49.52602" lon="0.61333">
        <ele>129</ele>
        <time>2013-04-21T11:52:48Z</time>
      </trkpt>
      <trkpt lat="49.52605" lon="0.61342">
        <ele>129</ele>
        <time>2013-04-21T11:52:53Z</time>
      </trkpt>
      <trkpt lat="49.52606" lon="0.61344">
        <ele>130</ele>
        <time>2013-04-21T11:53:00Z</time>
      </trkpt>
      <trkpt lat="49.52608" lon="0.61353">
        <ele>130</ele>
        <time>2013-04-21T11:53:05Z</time>
      </trkpt>
      <trkpt lat="49.52607" lon="0.61362">
        <ele>130</ele>
        <time>2013-04-21T11:53:10Z</time>
      </trkpt>
      <trkpt lat="49.52605" lon="0.61367">
        <ele>130</ele>
        <time>2013-04-21T11:53:16Z</time>
      </trkpt>
      <trkpt lat="49.52599" lon="0.61377">
        <ele>130</ele>
        <time>2013-04-21T11:53:22Z</time>
      </trkpt>
      <trkpt lat="49.52597" lon="0.61381">
        <ele>130</ele>
        <time>2013-04-21T11:53:27Z</time>
      </trkpt>
      <trkpt lat="49.52594" lon="0.61388">
        <ele>130</ele>
        <time>2013-04-21T11:53:33Z</time>
      </trkpt>
      <trkpt lat="49.5259" lon="0.61396">
        <ele>130</ele>
        <time>2013-04-21T11:53:38Z</time>
      </trkpt>
      <trkpt lat="49.52588" lon="0.61401">
        <ele>130</ele>
        <time>2013-04-21T11:53:48Z</time>
      </trkpt>
      <trkpt lat="49.52586" lon="0.61405">
        <ele>130</ele>
        <time>2013-04-21T11:53:53Z</time>
      </trkpt>
      <trkpt lat="49.52583" lon="0.61415">
        <ele>130</ele>
        <time>2013-04-21T11:53:59Z</time>
      </trkpt>
      <trkpt lat="49.52581" lon="0.61421">
        <ele>131</ele>
        <time>2013-04-21T11:54:04Z</time>
      </trkpt>
      <trkpt lat="49.52581" lon="0.6143">
        <ele>131</ele>
        <time>2013-04-21T11:54:09Z</time>
      </trkpt>
      <trkpt lat="49.52578" lon="0.61446">
        <ele>132</ele>
        <time>2013-04-21T11:54:17Z</time>
      </trkpt>
      <trkpt lat="49.52573" lon="0.61458">
        <ele>133</ele>
        <time>2013-04-21T11:54:23Z</time>
      </trkpt>
      <trkpt lat="49.52573" lon="0.61465">
        <ele>133</ele>
        <time>2013-04-21T11:54:28Z</time>
      </trkpt>
      <trkpt lat="49.52572" lon="0.61488">
        <ele>134</ele>
        <time>2013-04-21T11:54:38Z</time>
      </trkpt>
      <trkpt lat="49.5257" lon="0.61496">
        <ele>134</ele>
        <time>2013-04-21T11:54:43Z</time>
      </trkpt>
      <trkpt lat="49.52573" lon="0.61509">
        <ele>134</ele>
        <time>2013-04-21T11:54:49Z</time>
      </trkpt>
      <trkpt lat="49.52575" lon="0.61516">
        <ele>134</ele>
        <time>2013-04-21T11:54:55Z</time>
      </trkpt>
      <trkpt lat="49.52578" lon="0.61522">
        <ele>134</ele>
        <time>2013-04-21T11:55:02Z</time>
      </trkpt>
      <trkpt lat="49.52577" lon="0.61528">
        <ele>135</ele>
        <time>2013-04-21T11:55:07Z</time>
      </trkpt>
      <trkpt lat="49.52579" lon="0.61539">
        <ele>135</ele>
        <time>2013-04-21T11:55:13Z</time>
      </trkpt>
      <trkpt lat="49.52581" lon="0.61546">
        <ele>135</ele>
        <time>2013-04-21T11:55:18Z</time>
      </trkpt>
      <trkpt lat="49.52584" lon="0.61554">
        <ele>135</ele>
        <time>2013-04-21T11:55:23Z</time>
      </trkpt>
      <trkpt lat="49.52587" lon="0.61563">
        <ele>135</ele>
        <time>2013-04-21T11:55:28Z</time>
      </trkpt>
      <trkpt lat="49.52591" lon="0.61571">
        <ele>135</ele>
        <time>2013-04-21T11:55:33Z</time>
      </trkpt>
      <trkpt lat="49.52594" lon="0.61579">
        <ele>135</ele>
        <time>2013-04-21T11:55:39Z</time>
      </trkpt>
      <trkpt lat="49.52596" lon="0.61585">
        <ele>136</ele>
        <time>2013-04-21T11:55:44Z</time>
      </trkpt>
      <trkpt lat="49.52601" lon="0.61595">
        <ele>136</ele>
        <time>2013-04-21T11:55:50Z</time>
      </trkpt>
      <trkpt lat="49.52609" lon="0.61616">
        <ele>137</ele>
        <time>2013-04-21T11:56:03Z</time>
      </trkpt>
      <trkpt lat="49.52611" lon="0.61625">
        <ele>137</ele>
        <time>2013-04-21T11:56:09Z</time>
      </trkpt>
      <trkpt lat="49.52613" lon="0.61632">
        <ele>137</ele>
        <time>2013-04-21T11:56:14Z</time>
      </trkpt>
      <trkpt lat="49.52616" lon="0.61639">
        <ele>138</ele>
        <time>2013-04-21T11:56:19Z</time>
      </trkpt>
      <trkpt lat="49.52619" lon="0.61649">
        <ele>138</ele>
        <time>2013-04-21T11:56:24Z</time>
      </trkpt>
      <trkpt lat="49.52615" lon="0.61656">
        <ele>138</ele>
        <time>2013-04-21T11:56:29Z</time>
      </trkpt>
      <trkpt lat="49.52608" lon="0.61659">
        <ele>138</ele>
        <time>2013-04-21T11:56:35Z</time>
      </trkpt>
      <trkpt lat="49.52602" lon="0.6166">
        <ele>138</ele>
        <time>2013-04-21T11:56:41Z</time>
      </trkpt>
      <trkpt lat="49.52594" lon="0.61658">
        <ele>138</ele>
        <time>2013-04-21T11:56:46Z</time>
      </trkpt>
      <trkpt lat="49.5259" lon="0.61658">
        <ele>138</ele>
        <time>2013-04-21T11:56:51Z</time>
      </trkpt>
      <trkpt lat="49.52585" lon="0.61659">
        <ele>138</ele>
        <time>2013-04-21T11:56:56Z</time>
      </trkpt>
      <trkpt lat="49.52578" lon="0.61661">
        <ele>138</ele>
        <time>2013-04-21T11:57:02Z</time>
      </trkpt>
      <trkpt lat="49.52573" lon="0.61663">
        <ele>138</ele>
        <time>2013-04-21T11:57:07Z</time>
      </trkpt>
      <trkpt lat="49.52568" lon="0.61664">
        <ele>137</ele>
        <time>2013-04-21T11:57:12Z</time>
      </trkpt>
      <trkpt lat="49.52562" lon="0.61665">
        <ele>137</ele>
        <time>2013-04-21T11:57:17Z</time>
      </trkpt>
      <trkpt lat="49.52557" lon="0.61666">
        <ele>137</ele>
        <time>2013-04-21T11:57:23Z</time>
      </trkpt>
      <trkpt lat="49.52552" lon="0.61667">
        <ele>139</ele>
        <time>2013-04-21T11:57:28Z</time>
      </trkpt>
      <trkpt lat="49.52546" lon="0.61668">
        <ele>139</ele>
        <time>2013-04-21T11:57:33Z</time>
      </trkpt>
      <trkpt lat="49.52539" lon="0.61668">
        <ele>139</ele>
        <time>2013-04-21T11:57:40Z</time>
      </trkpt>
      <trkpt lat="49.52534" lon="0.61669">
        <ele>139</ele>
        <time>2013-04-21T11:57:45Z</time>
      </trkpt>
      <trkpt lat="49.52528" lon="0.61669">
        <ele>139</ele>
        <time>2013-04-21T11:57:50Z</time>
      </trkpt>
      <trkpt lat="49.52522" lon="0.61669">
        <ele>139</ele>
        <time>2013-04-21T11:57:55Z</time>
      </trkpt>
      <trkpt lat="49.52515" lon="0.61671">
        <ele>138</ele>
        <time>2013-04-21T11:58:00Z</time>
      </trkpt>
      <trkpt lat="49.52509" lon="0.61671">
        <ele>138</ele>
        <time>2013-04-21T11:58:05Z</time>
      </trkpt>
      <trkpt lat="49.52503" lon="0.61671">
        <ele>138</ele>
        <time>2013-04-21T11:58:10Z</time>
      </trkpt>
      <trkpt lat="49.52497" lon="0.6167">
        <ele>138</ele>
        <time>2013-04-21T11:58:16Z</time>
      </trkpt>
      <trkpt lat="49.52491" lon="0.6167">
        <ele>139</ele>
        <time>2013-04-21T11:58:21Z</time>
      </trkpt>
      <trkpt lat="49.52485" lon="0.6167">
        <ele>139</ele>
        <time>2013-04-21T11:58:27Z</time>
      </trkpt>
      <trkpt lat="49.52479" lon="0.61669">
        <ele>139</ele>
        <time>2013-04-21T11:58:32Z</time>
      </trkpt>
      <trkpt lat="49.52473" lon="0.61669">
        <ele>139</ele>
        <time>2013-04-21T11:58:38Z</time>
      </trkpt>
      <trkpt lat="49.52466" lon="0.61668">
        <ele>140</ele>
        <time>2013-04-21T11:58:43Z</time>
      </trkpt>
      <trkpt lat="49.52459" lon="0.61666">
        <ele>138</ele>
        <time>2013-04-21T11:58:48Z</time>
      </trkpt>
      <trkpt lat="49.52452" lon="0.61664">
        <ele>138</ele>
        <time>2013-04-21T11:58:53Z</time>
      </trkpt>
      <trkpt lat="49.52444" lon="0.61662">
        <ele>138</ele>
        <time>2013-04-21T11:58:58Z</time>
      </trkpt>
      <trkpt lat="49.52438" lon="0.6166">
        <ele>138</ele>
        <time>2013-04-21T11:59:03Z</time>
      </trkpt>
      <trkpt lat="49.5243" lon="0.61658">
        <ele>138</ele>
        <time>2013-04-21T11:59:08Z</time>
      </trkpt>
      <trkpt lat="49.52423" lon="0.61655">
        <ele>139</ele>
        <time>2013-04-21T11:59:13Z</time>
      </trkpt>
      <trkpt lat="49.52414" lon="0.61655">
        <ele>139</ele>
        <time>2013-04-21T11:59:18Z</time>
      </trkpt>
      <trkpt lat="49.52407" lon="0.61654">
        <ele>140</ele>
        <time>2013-04-21T11:59:23Z</time>
      </trkpt>
      <trkpt lat="49.52399" lon="0.61652">
        <ele>140</ele>
        <time>2013-04-21T11:59:28Z</time>
      </trkpt>
      <trkpt lat="49.52392" lon="0.61651">
        <ele>140</ele>
        <time>2013-04-21T11:59:33Z</time>
      </trkpt>
      <trkpt lat="49.52385" lon="0.61649">
        <ele>140</ele>
        <time>2013-04-21T11:59:38Z</time>
      </trkpt>
      <trkpt lat="49.52377" lon="0.61647">
        <ele>140</ele>
        <time>2013-04-21T11:59:43Z</time>
      </trkpt>
      <trkpt lat="49.5237" lon="0.61645">
        <ele>141</ele>
        <time>2013-04-21T11:59:48Z</time>
      </trkpt>
      <trkpt lat="49.52364" lon="0.61642">
        <ele>141</ele>
        <time>2013-04-21T11:59:53Z</time>
      </trkpt>
      <trkpt lat="49.52356" lon="0.6164">
        <ele>141</ele>
        <time>2013-04-21T11:59:58Z</time>
      </trkpt>
      <trkpt lat="49.52349" lon="0.61638">
        <ele>141</ele>
        <time>2013-04-21T12:00:03Z</time>
      </trkpt>
      <trkpt lat="49.52343" lon="0.61634">
        <ele>141</ele>
        <time>2013-04-21T12:00:08Z</time>
      </trkpt>
      <trkpt lat="49.52335" lon="0.61631">
        <ele>141</ele>
        <time>2013-04-21T12:00:13Z</time>
      </trkpt>
      <trkpt lat="49.52329" lon="0.61629">
        <ele>143</ele>
        <time>2013-04-21T12:00:18Z</time>
      </trkpt>
      <trkpt lat="49.52322" lon="0.61627">
        <ele>143</ele>
        <time>2013-04-21T12:00:23Z</time>
      </trkpt>
      <trkpt lat="49.52315" lon="0.61624">
        <ele>143</ele>
        <time>2013-04-21T12:00:28Z</time>
      </trkpt>
      <trkpt lat="49.5231" lon="0.61621">
        <ele>143</ele>
        <time>2013-04-21T12:00:33Z</time>
      </trkpt>
      <trkpt lat="49.52304" lon="0.61618">
        <ele>143</ele>
        <time>2013-04-21T12:00:38Z</time>
      </trkpt>
      <trkpt lat="49.52298" lon="0.61613">
        <ele>143</ele>
        <time>2013-04-21T12:00:44Z</time>
      </trkpt>
      <trkpt lat="49.52292" lon="0.61611">
        <ele>143</ele>
        <time>2013-04-21T12:00:50Z</time>
      </trkpt>
      <trkpt lat="49.52287" lon="0.61608">
        <ele>143</ele>
        <time>2013-04-21T12:00:56Z</time>
      </trkpt>
      <trkpt lat="49.52283" lon="0.61608">
        <ele>143</ele>
        <time>2013-04-21T12:01:02Z</time>
      </trkpt>
      <trkpt lat="49.52284" lon="0.616">
        <ele>143</ele>
        <time>2013-04-21T12:01:12Z</time>
      </trkpt>
      <trkpt lat="49.52279" lon="0.61597">
        <ele>143</ele>
        <time>2013-04-21T12:01:17Z</time>
      </trkpt>
      <trkpt lat="49.52273" lon="0.61595">
        <ele>143</ele>
        <time>2013-04-21T12:01:22Z</time>
      </trkpt>
      <trkpt lat="49.52267" lon="0.61595">
        <ele>144</ele>
        <time>2013-04-21T12:01:28Z</time>
      </trkpt>
      <trkpt lat="49.52262" lon="0.61593">
        <ele>144</ele>
        <time>2013-04-21T12:01:34Z</time>
      </trkpt>
      <trkpt lat="49.52257" lon="0.6159">
        <ele>144</ele>
        <time>2013-04-21T12:01:40Z</time>
      </trkpt>
      <trkpt lat="49.52251" lon="0.61587">
        <ele>144</ele>
        <time>2013-04-21T12:01:46Z</time>
      </trkpt>
      <trkpt lat="49.52245" lon="0.61585">
        <ele>144</ele>
        <time>2013-04-21T12:01:52Z</time>
      </trkpt>
      <trkpt lat="49.5224" lon="0.61581">
        <ele>144</ele>
        <time>2013-04-21T12:01:58Z</time>
      </trkpt>
      <trkpt lat="49.52234" lon="0.6158">
        <ele>144</ele>
        <time>2013-04-21T12:02:03Z</time>
      </trkpt>
      <trkpt lat="49.52229" lon="0.61578">
        <ele>144</ele>
        <time>2013-04-21T12:02:08Z</time>
      </trkpt>
      <trkpt lat="49.52224" lon="0.61578">
        <ele>144</ele>
        <time>2013-04-21T12:02:13Z</time>
      </trkpt>
      <trkpt lat="49.52218" lon="0.6158">
        <ele>144</ele>
        <time>2013-04-21T12:02:18Z</time>
      </trkpt>
      <trkpt lat="49.52213" lon="0.61582">
        <ele>144</ele>
        <time>2013-04-21T12:02:24Z</time>
      </trkpt>
      <trkpt lat="49.52208" lon="0.61587">
        <ele>144</ele>
        <time>2013-04-21T12:02:30Z</time>
      </trkpt>
      <trkpt lat="49.52204" lon="0.61594">
        <ele>144</ele>
        <time>2013-04-21T12:02:36Z</time>
      </trkpt>
      <trkpt lat="49.52203" lon="0.61605">
        <ele>144</ele>
        <time>2013-04-21T12:02:42Z</time>
      </trkpt>
      <trkpt lat="49.52205" lon="0.6161">
        <ele>144</ele>
        <time>2013-04-21T12:02:47Z</time>
      </trkpt>
      <trkpt lat="49.52208" lon="0.6162">
        <ele>144</ele>
        <time>2013-04-21T12:02:54Z</time>
      </trkpt>
      <trkpt lat="49.5221" lon="0.61629">
        <ele>145</ele>
        <time>2013-04-21T12:03:00Z</time>
      </trkpt>
      <trkpt lat="49.52211" lon="0.61638">
        <ele>145</ele>
        <time>2013-04-21T12:03:05Z</time>
      </trkpt>
      <trkpt lat="49.5221" lon="0.61647">
        <ele>145</ele>
        <time>2013-04-21T12:03:10Z</time>
      </trkpt>
      <trkpt lat="49.52209" lon="0.61655">
        <ele>145</ele>
        <time>2013-04-21T12:03:15Z</time>
      </trkpt>
      <trkpt lat="49.52206" lon="0.61663">
        <ele>145</ele>
        <time>2013-04-21T12:03:20Z</time>
      </trkpt>
      <trkpt lat="49.52201" lon="0.61671">
        <ele>145</ele>
        <time>2013-04-21T12:03:26Z</time>
      </trkpt>
      <trkpt lat="49.52197" lon="0.61679">
        <ele>145</ele>
        <time>2013-04-21T12:03:32Z</time>
      </trkpt>
      <trkpt lat="49.52193" lon="0.61687">
        <ele>145</ele>
        <time>2013-04-21T12:03:37Z</time>
      </trkpt>
      <trkpt lat="49.52188" lon="0.61698">
        <ele>145</ele>
        <time>2013-04-21T12:03:43Z</time>
      </trkpt>
      <trkpt lat="49.52185" lon="0.61708">
        <ele>145</ele>
        <time>2013-04-21T12:03:49Z</time>
      </trkpt>
      <trkpt lat="49.52186" lon="0.61719">
        <ele>145</ele>
        <time>2013-04-21T12:03:54Z</time>
      </trkpt>
      <trkpt lat="49.5219" lon="0.61728">
        <ele>145</ele>
        <time>2013-04-21T12:03:59Z</time>
      </trkpt>
      <trkpt lat="49.52197" lon="0.61738">
        <ele>145</ele>
        <time>2013-04-21T12:04:05Z</time>
      </trkpt>
      <trkpt lat="49.52201" lon="0.61746">
        <ele>145</ele>
        <time>2013-04-21T12:04:10Z</time>
      </trkpt>
      <trkpt lat="49.52207" lon="0.61756">
        <ele>145</ele>
        <time>2013-04-21T12:04:16Z</time>
      </trkpt>
      <trkpt lat="49.52211" lon="0.61766">
        <ele>145</ele>
        <time>2013-04-21T12:04:22Z</time>
      </trkpt>
      <trkpt lat="49.52216" lon="0.61774">
        <ele>145</ele>
        <time>2013-04-21T12:04:27Z</time>
      </trkpt>
      <trkpt lat="49.52221" lon="0.61784">
        <ele>145</ele>
        <time>2013-04-21T12:04:34Z</time>
      </trkpt>
      <trkpt lat="49.52227" lon="0.61791">
        <ele>145</ele>
        <time>2013-04-21T12:04:39Z</time>
      </trkpt>
      <trkpt lat="49.52231" lon="0.61801">
        <ele>145</ele>
        <time>2013-04-21T12:04:44Z</time>
      </trkpt>
      <trkpt lat="49.52235" lon="0.61809">
        <ele>145</ele>
        <time>2013-04-21T12:04:49Z</time>
      </trkpt>
      <trkpt lat="49.52239" lon="0.61819">
        <ele>144</ele>
        <time>2013-04-21T12:04:54Z</time>
      </trkpt>
      <trkpt lat="49.52244" lon="0.61831">
        <ele>144</ele>
        <time>2013-04-21T12:05:00Z</time>
      </trkpt>
      <trkpt lat="49.52247" lon="0.61842">
        <ele>144</ele>
        <time>2013-04-21T12:05:06Z</time>
      </trkpt>
      <trkpt lat="49.52251" lon="0.61851">
        <ele>144</ele>
        <time>2013-04-21T12:05:11Z</time>
      </trkpt>
      <trkpt lat="49.52255" lon="0.6186">
        <ele>144</ele>
        <time>2013-04-21T12:05:16Z</time>
      </trkpt>
      <trkpt lat="49.52259" lon="0.61869">
        <ele>144</ele>
        <time>2013-04-21T12:05:21Z</time>
      </trkpt>
      <trkpt lat="49.52261" lon="0.61877">
        <ele>144</ele>
        <time>2013-04-21T12:05:26Z</time>
      </trkpt>
      <trkpt lat="49.52265" lon="0.61888">
        <ele>144</ele>
        <time>2013-04-21T12:05:32Z</time>
      </trkpt>
      <trkpt lat="49.52264" lon="0.61895">
        <ele>144</ele>
        <time>2013-04-21T12:05:38Z</time>
      </trkpt>
      <trkpt lat="49.52267" lon="0.61905">
        <ele>144</ele>
        <time>2013-04-21T12:05:44Z</time>
      </trkpt>
      <trkpt lat="49.52269" lon="0.61916">
        <ele>144</ele>
        <time>2013-04-21T12:05:50Z</time>
      </trkpt>
      <trkpt lat="49.52271" lon="0.61926">
        <ele>145</ele>
        <time>2013-04-21T12:05:56Z</time>
      </trkpt>
      <trkpt lat="49.52274" lon="0.61937">
        <ele>145</ele>
        <time>2013-04-21T12:06:02Z</time>
      </trkpt>
      <trkpt lat="49.52276" lon="0.61945">
        <ele>145</ele>
        <time>2013-04-21T12:06:07Z</time>
      </trkpt>
      <trkpt lat="49.52277" lon="0.61953">
        <ele>145</ele>
        <time>2013-04-21T12:06:12Z</time>
      </trkpt>
      <trkpt lat="49.52275" lon="0.6196">
        <ele>145</ele>
        <time>2013-04-21T12:06:18Z</time>
      </trkpt>
      <trkpt lat="49.52281" lon="0.61969">
        <ele>146</ele>
        <time>2013-04-21T12:06:24Z</time>
      </trkpt>
      <trkpt lat="49.52286" lon="0.61974">
        <ele>146</ele>
        <time>2013-04-21T12:06:29Z</time>
      </trkpt>
      <trkpt lat="49.52288" lon="0.61982">
        <ele>146</ele>
        <time>2013-04-21T12:06:34Z</time>
      </trkpt>
      <trkpt lat="49.52289" lon="0.61992">
        <ele>146</ele>
        <time>2013-04-21T12:06:39Z</time>
      </trkpt>
      <trkpt lat="49.52291" lon="0.61998">
        <ele>146</ele>
        <time>2013-04-21T12:06:45Z</time>
      </trkpt>
      <trkpt lat="49.52261" lon="0.61888">
        <ele>144</ele>
        <time>2013-04-21T12:06:45Z</time>
      </trkpt>
      <trkpt lat="49.52245" lon="0.61844">
        <ele>144</ele>
        <time>2013-04-21T12:06:45Z</time>
      </trkpt>
      <trkpt lat="49.52228" lon="0.6181">
        <ele>145</ele>
        <time>2013-04-21T12:06:45Z</time>
      </trkpt>
      <trkpt lat="49.52217" lon="0.61788">
        <ele>145</ele>
        <time>2013-04-21T12:06:45Z</time>
      </trkpt>
      <trkpt lat="49.52214" lon="0.61783">
        <ele>145</ele>
        <time>2013-04-21T12:06:45Z</time>
      </trkpt>
    </trkseg>
  </trk>
</gpx>